﻿<?xml version="1.0" encoding="UTF-8"?>
<gpx version="v1.1.5" creator="iTravel Tech Inc. - http://www.itravel-tech.com" xmlns:xsi="http://www.w3.org/2001/XMLSchema-instance" xmlns="http://www.topografix.com/GPX/1/1" xsi:schemaLocation="http://www.topografix.com/GPX/1/1 http://www.topografix.com/GPX/1/1/gpx.xsd http://www.topografix.com/GPX/gpx_overlay/0/3 http://www.topografix.com/GPX/gpx_overlay/0/3/gpx_overlay.xsd http://www.topografix.com/GPX/gpx_modified/0/1 http://www.topografix.com/GPX/gpx_modified/0/1/gpx_modified.xsd">
<trk>
<name>Holux2011/04/22_04:28</name>
<trkseg>
<trkpt lat="22.491583" lon="103.978821">
<ele>178.021606</ele>
<time>2011-04-22T01:28:25Z</time>
<desc>lat.=22.491583, lon.=103.978821, Alt.=178.021606m. Speed=0.360000m/h.</desc>
<speed>0.100000</speed>
</trkpt>
<trkpt lat="22.491865" lon="103.978897">
<ele>109.186584</ele>
<time>2011-04-22T01:28:30Z</time>
<desc>lat.=22.491865, lon.=103.978897, Alt.=109.186584m. Speed=0.036000m/h.</desc>
<speed>0.010000</speed>
</trkpt>
<trkpt lat="22.491869" lon="103.978882">
<ele>98.629944</ele>
<time>2011-04-22T01:28:35Z</time>
<desc>lat.=22.491869, lon.=103.978882, Alt.=98.629944m. Speed=0.036000m/h.</desc>
<speed>0.010000</speed>
</trkpt>
<trkpt lat="22.491875" lon="103.978844">
<ele>93.760803</ele>
<time>2011-04-22T01:28:40Z</time>
<desc>lat.=22.491875, lon.=103.978844, Alt.=93.760803m. Speed=0.072000m/h.</desc>
<speed>0.020000</speed>
</trkpt>
<trkpt lat="22.491871" lon="103.978813">
<ele>90.901428</ele>
<time>2011-04-22T01:28:45Z</time>
<desc>lat.=22.491871, lon.=103.978813, Alt.=90.901428m. Speed=2.772000m/h.</desc>
<speed>0.770000</speed>
</trkpt>
<trkpt lat="22.491869" lon="103.978790">
<ele>89.561584</ele>
<time>2011-04-22T01:28:50Z</time>
<desc>lat.=22.491869, lon.=103.978790, Alt.=89.561584m. Speed=0.072000m/h.</desc>
<speed>0.020000</speed>
</trkpt>
<trkpt lat="22.491865" lon="103.978783">
<ele>90.006897</ele>
<time>2011-04-22T01:28:55Z</time>
<desc>lat.=22.491865, lon.=103.978783, Alt.=90.006897m. Speed=0.072000m/h.</desc>
<speed>0.020000</speed>
</trkpt>
<trkpt lat="22.491865" lon="103.978783">
<ele>90.346741</ele>
<time>2011-04-22T01:29:00Z</time>
<desc>lat.=22.491865, lon.=103.978783, Alt.=90.346741m. Speed=0.072000m/h.</desc>
<speed>0.020000</speed>
</trkpt>
<trkpt lat="22.491863" lon="103.978783">
<ele>90.303772</ele>
<time>2011-04-22T01:29:05Z</time>
<desc>lat.=22.491863, lon.=103.978783, Alt.=90.303772m. Speed=0.144000m/h.</desc>
<speed>0.040000</speed>
</trkpt>
<trkpt lat="22.491863" lon="103.978775">
<ele>89.704163</ele>
<time>2011-04-22T01:29:10Z</time>
<desc>lat.=22.491863, lon.=103.978775, Alt.=89.704163m. Speed=3.168000m/h.</desc>
<speed>0.880000</speed>
</trkpt>
<trkpt lat="22.491865" lon="103.978775">
<ele>89.581116</ele>
<time>2011-04-22T01:29:15Z</time>
<desc>lat.=22.491865, lon.=103.978775, Alt.=89.581116m. Speed=0.252000m/h.</desc>
<speed>0.070000</speed>
</trkpt>
<trkpt lat="22.491871" lon="103.978745">
<ele>88.237366</ele>
<time>2011-04-22T01:29:20Z</time>
<desc>lat.=22.491871, lon.=103.978745, Alt.=88.237366m. Speed=0.792000m/h.</desc>
<speed>0.220000</speed>
</trkpt>
<trkpt lat="22.491871" lon="103.978745">
<ele>88.040100</ele>
<time>2011-04-22T01:29:25Z</time>
<desc>lat.=22.491871, lon.=103.978745, Alt.=88.040100m. Speed=0.396000m/h.</desc>
<speed>0.110000</speed>
</trkpt>
<trkpt lat="22.491869" lon="103.978745">
<ele>88.026428</ele>
<time>2011-04-22T01:29:30Z</time>
<desc>lat.=22.491869, lon.=103.978745, Alt.=88.026428m. Speed=0.216000m/h.</desc>
<speed>0.060000</speed>
</trkpt>
<trkpt lat="22.491869" lon="103.978745">
<ele>87.975647</ele>
<time>2011-04-22T01:29:35Z</time>
<desc>lat.=22.491869, lon.=103.978745, Alt.=87.975647m. Speed=0.108000m/h.</desc>
<speed>0.030000</speed>
</trkpt>
<trkpt lat="22.491869" lon="103.978745">
<ele>88.112366</ele>
<time>2011-04-22T01:29:40Z</time>
<desc>lat.=22.491869, lon.=103.978745, Alt.=88.112366m. Speed=0.324000m/h.</desc>
<speed>0.090000</speed>
</trkpt>
<trkpt lat="22.491867" lon="103.978745">
<ele>88.059631</ele>
<time>2011-04-22T01:29:45Z</time>
<desc>lat.=22.491867, lon.=103.978745, Alt.=88.059631m. Speed=0.144000m/h.</desc>
<speed>0.040000</speed>
</trkpt>
<trkpt lat="22.491869" lon="103.978745">
<ele>88.026428</ele>
<time>2011-04-22T01:29:50Z</time>
<desc>lat.=22.491869, lon.=103.978745, Alt.=88.026428m. Speed=0.180000m/h.</desc>
<speed>0.050000</speed>
</trkpt>
<trkpt lat="22.491859" lon="103.978745">
<ele>87.835022</ele>
<time>2011-04-22T01:29:55Z</time>
<desc>lat.=22.491859, lon.=103.978745, Alt.=87.835022m. Speed=0.108000m/h.</desc>
<speed>0.030000</speed>
</trkpt>
<trkpt lat="22.491859" lon="103.978745">
<ele>87.612366</ele>
<time>2011-04-22T01:30:00Z</time>
<desc>lat.=22.491859, lon.=103.978745, Alt.=87.612366m. Speed=0.036000m/h.</desc>
<speed>0.010000</speed>
</trkpt>
<trkpt lat="22.491859" lon="103.978745">
<ele>87.616272</ele>
<time>2011-04-22T01:30:05Z</time>
<desc>lat.=22.491859, lon.=103.978745, Alt.=87.616272m. Speed=0.000000m/h.</desc>
<speed>0.000000</speed>
</trkpt>
<trkpt lat="22.491859" lon="103.978745">
<ele>87.618225</ele>
<time>2011-04-22T01:30:10Z</time>
<desc>lat.=22.491859, lon.=103.978745, Alt.=87.618225m. Speed=0.000000m/h.</desc>
<speed>0.000000</speed>
</trkpt>
<trkpt lat="22.491858" lon="103.978745">
<ele>87.922913</ele>
<time>2011-04-22T01:30:15Z</time>
<desc>lat.=22.491858, lon.=103.978745, Alt.=87.922913m. Speed=1.368000m/h.</desc>
<speed>0.380000</speed>
</trkpt>
<trkpt lat="22.491850" lon="103.978745">
<ele>87.960022</ele>
<time>2011-04-22T01:30:20Z</time>
<desc>lat.=22.491850, lon.=103.978745, Alt.=87.960022m. Speed=0.540000m/h.</desc>
<speed>0.150000</speed>
</trkpt>
<trkpt lat="22.491848" lon="103.978752">
<ele>88.077209</ele>
<time>2011-04-22T01:30:25Z</time>
<desc>lat.=22.491848, lon.=103.978752, Alt.=88.077209m. Speed=0.288000m/h.</desc>
<speed>0.080000</speed>
</trkpt>
<trkpt lat="22.491854" lon="103.978752">
<ele>88.645569</ele>
<time>2011-04-22T01:30:30Z</time>
<desc>lat.=22.491854, lon.=103.978752, Alt.=88.645569m. Speed=0.108000m/h.</desc>
<speed>0.030000</speed>
</trkpt>
<trkpt lat="22.491852" lon="103.978752">
<ele>88.610413</ele>
<time>2011-04-22T01:30:35Z</time>
<desc>lat.=22.491852, lon.=103.978752, Alt.=88.610413m. Speed=0.144000m/h.</desc>
<speed>0.040000</speed>
</trkpt>
<trkpt lat="22.491854" lon="103.978752">
<ele>88.792053</ele>
<time>2011-04-22T01:30:40Z</time>
<desc>lat.=22.491854, lon.=103.978752, Alt.=88.792053m. Speed=0.000000m/h.</desc>
<speed>0.000000</speed>
</trkpt>
<trkpt lat="22.491854" lon="103.978760">
<ele>88.920959</ele>
<time>2011-04-22T01:30:45Z</time>
<desc>lat.=22.491854, lon.=103.978760, Alt.=88.920959m. Speed=0.036000m/h.</desc>
<speed>0.010000</speed>
</trkpt>
<trkpt lat="22.491858" lon="103.978760">
<ele>89.821350</ele>
<time>2011-04-22T01:30:50Z</time>
<desc>lat.=22.491858, lon.=103.978760, Alt.=89.821350m. Speed=0.000000m/h.</desc>
<speed>0.000000</speed>
</trkpt>
<trkpt lat="22.491859" lon="103.978760">
<ele>90.711975</ele>
<time>2011-04-22T01:30:55Z</time>
<desc>lat.=22.491859, lon.=103.978760, Alt.=90.711975m. Speed=0.036000m/h.</desc>
<speed>0.010000</speed>
</trkpt>
<trkpt lat="22.491859" lon="103.978760">
<ele>90.739319</ele>
<time>2011-04-22T01:31:00Z</time>
<desc>lat.=22.491859, lon.=103.978760, Alt.=90.739319m. Speed=0.036000m/h.</desc>
<speed>0.010000</speed>
</trkpt>
<trkpt lat="22.491859" lon="103.978760">
<ele>90.764709</ele>
<time>2011-04-22T01:31:05Z</time>
<desc>lat.=22.491859, lon.=103.978760, Alt.=90.764709m. Speed=0.036000m/h.</desc>
<speed>0.010000</speed>
</trkpt>
<trkpt lat="22.491859" lon="103.978760">
<ele>90.774475</ele>
<time>2011-04-22T01:31:10Z</time>
<desc>lat.=22.491859, lon.=103.978760, Alt.=90.774475m. Speed=0.000000m/h.</desc>
<speed>0.000000</speed>
</trkpt>
<trkpt lat="22.491859" lon="103.978760">
<ele>90.790100</ele>
<time>2011-04-22T01:31:15Z</time>
<desc>lat.=22.491859, lon.=103.978760, Alt.=90.790100m. Speed=0.072000m/h.</desc>
<speed>0.020000</speed>
</trkpt>
<trkpt lat="22.491859" lon="103.978760">
<ele>90.813538</ele>
<time>2011-04-22T01:31:20Z</time>
<desc>lat.=22.491859, lon.=103.978760, Alt.=90.813538m. Speed=0.036000m/h.</desc>
<speed>0.010000</speed>
</trkpt>
<trkpt lat="22.491859" lon="103.978760">
<ele>90.831116</ele>
<time>2011-04-22T01:31:25Z</time>
<desc>lat.=22.491859, lon.=103.978760, Alt.=90.831116m. Speed=0.072000m/h.</desc>
<speed>0.020000</speed>
</trkpt>
<trkpt lat="22.491859" lon="103.978760">
<ele>90.852600</ele>
<time>2011-04-22T01:31:30Z</time>
<desc>lat.=22.491859, lon.=103.978760, Alt.=90.852600m. Speed=0.036000m/h.</desc>
<speed>0.010000</speed>
</trkpt>
<trkpt lat="22.491859" lon="103.978760">
<ele>90.850647</ele>
<time>2011-04-22T01:31:35Z</time>
<desc>lat.=22.491859, lon.=103.978760, Alt.=90.850647m. Speed=0.036000m/h.</desc>
<speed>0.010000</speed>
</trkpt>
<trkpt lat="22.491859" lon="103.978760">
<ele>90.858459</ele>
<time>2011-04-22T01:31:40Z</time>
<desc>lat.=22.491859, lon.=103.978760, Alt.=90.858459m. Speed=0.036000m/h.</desc>
<speed>0.010000</speed>
</trkpt>
<trkpt lat="22.491859" lon="103.978760">
<ele>90.860413</ele>
<time>2011-04-22T01:31:45Z</time>
<desc>lat.=22.491859, lon.=103.978760, Alt.=90.860413m. Speed=0.072000m/h.</desc>
<speed>0.020000</speed>
</trkpt>
<trkpt lat="22.491859" lon="103.978760">
<ele>90.862366</ele>
<time>2011-04-22T01:31:50Z</time>
<desc>lat.=22.491859, lon.=103.978760, Alt.=90.862366m. Speed=0.000000m/h.</desc>
<speed>0.000000</speed>
</trkpt>
<trkpt lat="22.491859" lon="103.978760">
<ele>90.876038</ele>
<time>2011-04-22T01:31:55Z</time>
<desc>lat.=22.491859, lon.=103.978760, Alt.=90.876038m. Speed=0.000000m/h.</desc>
<speed>0.000000</speed>
</trkpt>
<trkpt lat="22.491859" lon="103.978760">
<ele>90.887756</ele>
<time>2011-04-22T01:32:00Z</time>
<desc>lat.=22.491859, lon.=103.978760, Alt.=90.887756m. Speed=0.036000m/h.</desc>
<speed>0.010000</speed>
</trkpt>
<trkpt lat="22.491859" lon="103.978760">
<ele>90.920959</ele>
<time>2011-04-22T01:32:05Z</time>
<desc>lat.=22.491859, lon.=103.978760, Alt.=90.920959m. Speed=0.072000m/h.</desc>
<speed>0.020000</speed>
</trkpt>
<trkpt lat="22.491859" lon="103.978760">
<ele>90.944397</ele>
<time>2011-04-22T01:32:10Z</time>
<desc>lat.=22.491859, lon.=103.978760, Alt.=90.944397m. Speed=0.468000m/h.</desc>
<speed>0.130000</speed>
</trkpt>
<trkpt lat="22.491859" lon="103.978760">
<ele>91.032288</ele>
<time>2011-04-22T01:32:15Z</time>
<desc>lat.=22.491859, lon.=103.978760, Alt.=91.032288m. Speed=1.728000m/h.</desc>
<speed>0.480000</speed>
</trkpt>
<trkpt lat="22.491858" lon="103.978760">
<ele>91.413147</ele>
<time>2011-04-22T01:32:20Z</time>
<desc>lat.=22.491858, lon.=103.978760, Alt.=91.413147m. Speed=0.756000m/h.</desc>
<speed>0.210000</speed>
</trkpt>
<trkpt lat="22.491856" lon="103.978760">
<ele>90.831116</ele>
<time>2011-04-22T01:32:25Z</time>
<desc>lat.=22.491856, lon.=103.978760, Alt.=90.831116m. Speed=0.108000m/h.</desc>
<speed>0.030000</speed>
</trkpt>
<trkpt lat="22.491858" lon="103.978760">
<ele>90.708069</ele>
<time>2011-04-22T01:32:30Z</time>
<desc>lat.=22.491858, lon.=103.978760, Alt.=90.708069m. Speed=0.108000m/h.</desc>
<speed>0.030000</speed>
</trkpt>
<trkpt lat="22.491856" lon="103.978760">
<ele>90.665100</ele>
<time>2011-04-22T01:32:35Z</time>
<desc>lat.=22.491856, lon.=103.978760, Alt.=90.665100m. Speed=0.000000m/h.</desc>
<speed>0.000000</speed>
</trkpt>
<trkpt lat="22.491856" lon="103.978760">
<ele>90.655334</ele>
<time>2011-04-22T01:32:40Z</time>
<desc>lat.=22.491856, lon.=103.978760, Alt.=90.655334m. Speed=0.000000m/h.</desc>
<speed>0.000000</speed>
</trkpt>
<trkpt lat="22.491856" lon="103.978760">
<ele>90.645569</ele>
<time>2011-04-22T01:32:45Z</time>
<desc>lat.=22.491856, lon.=103.978760, Alt.=90.645569m. Speed=0.396000m/h.</desc>
<speed>0.110000</speed>
</trkpt>
<trkpt lat="22.491856" lon="103.978760">
<ele>90.633850</ele>
<time>2011-04-22T01:32:50Z</time>
<desc>lat.=22.491856, lon.=103.978760, Alt.=90.633850m. Speed=0.036000m/h.</desc>
<speed>0.010000</speed>
</trkpt>
<trkpt lat="22.491856" lon="103.978760">
<ele>90.622131</ele>
<time>2011-04-22T01:32:55Z</time>
<desc>lat.=22.491856, lon.=103.978760, Alt.=90.622131m. Speed=0.000000m/h.</desc>
<speed>0.000000</speed>
</trkpt>
<trkpt lat="22.491856" lon="103.978760">
<ele>90.606506</ele>
<time>2011-04-22T01:33:00Z</time>
<desc>lat.=22.491856, lon.=103.978760, Alt.=90.606506m. Speed=0.036000m/h.</desc>
<speed>0.010000</speed>
</trkpt>
<trkpt lat="22.491856" lon="103.978760">
<ele>90.592834</ele>
<time>2011-04-22T01:33:05Z</time>
<desc>lat.=22.491856, lon.=103.978760, Alt.=90.592834m. Speed=0.000000m/h.</desc>
<speed>0.000000</speed>
</trkpt>
<trkpt lat="22.491856" lon="103.978760">
<ele>90.585022</ele>
<time>2011-04-22T01:33:10Z</time>
<desc>lat.=22.491856, lon.=103.978760, Alt.=90.585022m. Speed=0.072000m/h.</desc>
<speed>0.020000</speed>
</trkpt>
<trkpt lat="22.491856" lon="103.978760">
<ele>90.579163</ele>
<time>2011-04-22T01:33:15Z</time>
<desc>lat.=22.491856, lon.=103.978760, Alt.=90.579163m. Speed=0.036000m/h.</desc>
<speed>0.010000</speed>
</trkpt>
<trkpt lat="22.491856" lon="103.978760">
<ele>90.565491</ele>
<time>2011-04-22T01:33:20Z</time>
<desc>lat.=22.491856, lon.=103.978760, Alt.=90.565491m. Speed=0.036000m/h.</desc>
<speed>0.010000</speed>
</trkpt>
<trkpt lat="22.491856" lon="103.978760">
<ele>90.561584</ele>
<time>2011-04-22T01:33:25Z</time>
<desc>lat.=22.491856, lon.=103.978760, Alt.=90.561584m. Speed=0.000000m/h.</desc>
<speed>0.000000</speed>
</trkpt>
<trkpt lat="22.491856" lon="103.978760">
<ele>90.571350</ele>
<time>2011-04-22T01:33:30Z</time>
<desc>lat.=22.491856, lon.=103.978760, Alt.=90.571350m. Speed=0.000000m/h.</desc>
<speed>0.000000</speed>
</trkpt>
<trkpt lat="22.491856" lon="103.978760">
<ele>90.581116</ele>
<time>2011-04-22T01:33:35Z</time>
<desc>lat.=22.491856, lon.=103.978760, Alt.=90.581116m. Speed=0.000000m/h.</desc>
<speed>0.000000</speed>
</trkpt>
<trkpt lat="22.491856" lon="103.978760">
<ele>90.586975</ele>
<time>2011-04-22T01:33:40Z</time>
<desc>lat.=22.491856, lon.=103.978760, Alt.=90.586975m. Speed=0.000000m/h.</desc>
<speed>0.000000</speed>
</trkpt>
<trkpt lat="22.491856" lon="103.978760">
<ele>90.592834</ele>
<time>2011-04-22T01:33:45Z</time>
<desc>lat.=22.491856, lon.=103.978760, Alt.=90.592834m. Speed=0.036000m/h.</desc>
<speed>0.010000</speed>
</trkpt>
<trkpt lat="22.491856" lon="103.978760">
<ele>90.596741</ele>
<time>2011-04-22T01:33:50Z</time>
<desc>lat.=22.491856, lon.=103.978760, Alt.=90.596741m. Speed=0.108000m/h.</desc>
<speed>0.030000</speed>
</trkpt>
<trkpt lat="22.491856" lon="103.978760">
<ele>90.590881</ele>
<time>2011-04-22T01:33:55Z</time>
<desc>lat.=22.491856, lon.=103.978760, Alt.=90.590881m. Speed=0.000000m/h.</desc>
<speed>0.000000</speed>
</trkpt>
<trkpt lat="22.491856" lon="103.978760">
<ele>90.592834</ele>
<time>2011-04-22T01:34:00Z</time>
<desc>lat.=22.491856, lon.=103.978760, Alt.=90.592834m. Speed=0.036000m/h.</desc>
<speed>0.010000</speed>
</trkpt>
<trkpt lat="22.491856" lon="103.978760">
<ele>90.606506</ele>
<time>2011-04-22T01:34:05Z</time>
<desc>lat.=22.491856, lon.=103.978760, Alt.=90.606506m. Speed=0.036000m/h.</desc>
<speed>0.010000</speed>
</trkpt>
<trkpt lat="22.491856" lon="103.978760">
<ele>90.604553</ele>
<time>2011-04-22T01:34:10Z</time>
<desc>lat.=22.491856, lon.=103.978760, Alt.=90.604553m. Speed=0.000000m/h.</desc>
<speed>0.000000</speed>
</trkpt>
<trkpt lat="22.491856" lon="103.978760">
<ele>90.612366</ele>
<time>2011-04-22T01:34:15Z</time>
<desc>lat.=22.491856, lon.=103.978760, Alt.=90.612366m. Speed=0.036000m/h.</desc>
<speed>0.010000</speed>
</trkpt>
<trkpt lat="22.491856" lon="103.978760">
<ele>90.598694</ele>
<time>2011-04-22T01:34:20Z</time>
<desc>lat.=22.491856, lon.=103.978760, Alt.=90.598694m. Speed=0.000000m/h.</desc>
<speed>0.000000</speed>
</trkpt>
<trkpt lat="22.491856" lon="103.978760">
<ele>90.585022</ele>
<time>2011-04-22T01:34:25Z</time>
<desc>lat.=22.491856, lon.=103.978760, Alt.=90.585022m. Speed=0.000000m/h.</desc>
<speed>0.000000</speed>
</trkpt>
<trkpt lat="22.491856" lon="103.978760">
<ele>90.569397</ele>
<time>2011-04-22T01:34:30Z</time>
<desc>lat.=22.491856, lon.=103.978760, Alt.=90.569397m. Speed=0.072000m/h.</desc>
<speed>0.020000</speed>
</trkpt>
<trkpt lat="22.491856" lon="103.978760">
<ele>90.553772</ele>
<time>2011-04-22T01:34:35Z</time>
<desc>lat.=22.491856, lon.=103.978760, Alt.=90.553772m. Speed=0.216000m/h.</desc>
<speed>0.060000</speed>
</trkpt>
<trkpt lat="22.491856" lon="103.978760">
<ele>90.549866</ele>
<time>2011-04-22T01:34:40Z</time>
<desc>lat.=22.491856, lon.=103.978760, Alt.=90.549866m. Speed=0.216000m/h.</desc>
<speed>0.060000</speed>
</trkpt>
<trkpt lat="22.491856" lon="103.978760">
<ele>90.553772</ele>
<time>2011-04-22T01:34:45Z</time>
<desc>lat.=22.491856, lon.=103.978760, Alt.=90.553772m. Speed=0.072000m/h.</desc>
<speed>0.020000</speed>
</trkpt>
<trkpt lat="22.491854" lon="103.978745">
<ele>90.581116</ele>
<time>2011-04-22T01:34:50Z</time>
<desc>lat.=22.491854, lon.=103.978745, Alt.=90.581116m. Speed=0.360000m/h.</desc>
<speed>0.100000</speed>
</trkpt>
<trkpt lat="22.491850" lon="103.978745">
<ele>90.641663</ele>
<time>2011-04-22T01:34:55Z</time>
<desc>lat.=22.491850, lon.=103.978745, Alt.=90.641663m. Speed=0.756000m/h.</desc>
<speed>0.210000</speed>
</trkpt>
<trkpt lat="22.491850" lon="103.978737">
<ele>90.817444</ele>
<time>2011-04-22T01:35:00Z</time>
<desc>lat.=22.491850, lon.=103.978737, Alt.=90.817444m. Speed=0.072000m/h.</desc>
<speed>0.020000</speed>
</trkpt>
<trkpt lat="22.491848" lon="103.978745">
<ele>90.872131</ele>
<time>2011-04-22T01:35:05Z</time>
<desc>lat.=22.491848, lon.=103.978745, Alt.=90.872131m. Speed=0.396000m/h.</desc>
<speed>0.110000</speed>
</trkpt>
<trkpt lat="22.491850" lon="103.978737">
<ele>90.881897</ele>
<time>2011-04-22T01:35:10Z</time>
<desc>lat.=22.491850, lon.=103.978737, Alt.=90.881897m. Speed=0.972000m/h.</desc>
<speed>0.270000</speed>
</trkpt>
<trkpt lat="22.491863" lon="103.978729">
<ele>91.544006</ele>
<time>2011-04-22T01:35:15Z</time>
<desc>lat.=22.491863, lon.=103.978729, Alt.=91.544006m. Speed=1.260000m/h.</desc>
<speed>0.350000</speed>
</trkpt>
<trkpt lat="22.491867" lon="103.978737">
<ele>91.924866</ele>
<time>2011-04-22T01:35:20Z</time>
<desc>lat.=22.491867, lon.=103.978737, Alt.=91.924866m. Speed=0.036000m/h.</desc>
<speed>0.010000</speed>
</trkpt>
<trkpt lat="22.491867" lon="103.978737">
<ele>92.247131</ele>
<time>2011-04-22T01:35:25Z</time>
<desc>lat.=22.491867, lon.=103.978737, Alt.=92.247131m. Speed=0.432000m/h.</desc>
<speed>0.120000</speed>
</trkpt>
<trkpt lat="22.491865" lon="103.978737">
<ele>92.879944</ele>
<time>2011-04-22T01:35:30Z</time>
<desc>lat.=22.491865, lon.=103.978737, Alt.=92.879944m. Speed=1.188000m/h.</desc>
<speed>0.330000</speed>
</trkpt>
<trkpt lat="22.491898" lon="103.978722">
<ele>93.194397</ele>
<time>2011-04-22T01:35:35Z</time>
<desc>lat.=22.491898, lon.=103.978722, Alt.=93.194397m. Speed=5.760000m/h.</desc>
<speed>1.600000</speed>
</trkpt>
<trkpt lat="22.491982" lon="103.978668">
<ele>93.137756</ele>
<time>2011-04-22T01:35:40Z</time>
<desc>lat.=22.491982, lon.=103.978668, Alt.=93.137756m. Speed=10.188000m/h.</desc>
<speed>2.830000</speed>
</trkpt>
<trkpt lat="22.492111" lon="103.978600">
<ele>92.692444</ele>
<time>2011-04-22T01:35:45Z</time>
<desc>lat.=22.492111, lon.=103.978600, Alt.=92.692444m. Speed=11.520000m/h.</desc>
<speed>3.200000</speed>
</trkpt>
<trkpt lat="22.492193" lon="103.978508">
<ele>93.202209</ele>
<time>2011-04-22T01:35:50Z</time>
<desc>lat.=22.492193, lon.=103.978508, Alt.=93.202209m. Speed=6.660000m/h.</desc>
<speed>1.850000</speed>
</trkpt>
<trkpt lat="22.492228" lon="103.978439">
<ele>93.124084</ele>
<time>2011-04-22T01:35:55Z</time>
<desc>lat.=22.492228, lon.=103.978439, Alt.=93.124084m. Speed=5.940000m/h.</desc>
<speed>1.650000</speed>
</trkpt>
<trkpt lat="22.492207" lon="103.978401">
<ele>93.372131</ele>
<time>2011-04-22T01:36:00Z</time>
<desc>lat.=22.492207, lon.=103.978401, Alt.=93.372131m. Speed=2.484000m/h.</desc>
<speed>0.690000</speed>
</trkpt>
<trkpt lat="22.492191" lon="103.978386">
<ele>93.637756</ele>
<time>2011-04-22T01:36:05Z</time>
<desc>lat.=22.492191, lon.=103.978386, Alt.=93.637756m. Speed=1.476000m/h.</desc>
<speed>0.410000</speed>
</trkpt>
<trkpt lat="22.492174" lon="103.978371">
<ele>93.899475</ele>
<time>2011-04-22T01:36:10Z</time>
<desc>lat.=22.492174, lon.=103.978371, Alt.=93.899475m. Speed=2.124000m/h.</desc>
<speed>0.590000</speed>
</trkpt>
<trkpt lat="22.492100" lon="103.978287">
<ele>93.854553</ele>
<time>2011-04-22T01:36:15Z</time>
<desc>lat.=22.492100, lon.=103.978287, Alt.=93.854553m. Speed=6.372000m/h.</desc>
<speed>1.770000</speed>
</trkpt>
<trkpt lat="22.492081" lon="103.978203">
<ele>92.499084</ele>
<time>2011-04-22T01:36:20Z</time>
<desc>lat.=22.492081, lon.=103.978203, Alt.=92.499084m. Speed=4.752000m/h.</desc>
<speed>1.320000</speed>
</trkpt>
<trkpt lat="22.492073" lon="103.978188">
<ele>90.922913</ele>
<time>2011-04-22T01:36:25Z</time>
<desc>lat.=22.492073, lon.=103.978188, Alt.=90.922913m. Speed=0.576000m/h.</desc>
<speed>0.160000</speed>
</trkpt>
<trkpt lat="22.492075" lon="103.978188">
<ele>90.983459</ele>
<time>2011-04-22T01:36:30Z</time>
<desc>lat.=22.492075, lon.=103.978188, Alt.=90.983459m. Speed=0.108000m/h.</desc>
<speed>0.030000</speed>
</trkpt>
<trkpt lat="22.492073" lon="103.978188">
<ele>90.901428</ele>
<time>2011-04-22T01:36:35Z</time>
<desc>lat.=22.492073, lon.=103.978188, Alt.=90.901428m. Speed=0.360000m/h.</desc>
<speed>0.100000</speed>
</trkpt>
<trkpt lat="22.492073" lon="103.978188">
<ele>90.758850</ele>
<time>2011-04-22T01:36:40Z</time>
<desc>lat.=22.492073, lon.=103.978188, Alt.=90.758850m. Speed=0.072000m/h.</desc>
<speed>0.020000</speed>
</trkpt>
<trkpt lat="22.492069" lon="103.978180">
<ele>90.676819</ele>
<time>2011-04-22T01:36:45Z</time>
<desc>lat.=22.492069, lon.=103.978180, Alt.=90.676819m. Speed=0.324000m/h.</desc>
<speed>0.090000</speed>
</trkpt>
<trkpt lat="22.492064" lon="103.978172">
<ele>90.799866</ele>
<time>2011-04-22T01:36:50Z</time>
<desc>lat.=22.492064, lon.=103.978172, Alt.=90.799866m. Speed=2.016000m/h.</desc>
<speed>0.560000</speed>
</trkpt>
<trkpt lat="22.492058" lon="103.978096">
<ele>90.766663</ele>
<time>2011-04-22T01:36:55Z</time>
<desc>lat.=22.492058, lon.=103.978096, Alt.=90.766663m. Speed=8.676000m/h.</desc>
<speed>2.410000</speed>
</trkpt>
<trkpt lat="22.492035" lon="103.977951">
<ele>89.719788</ele>
<time>2011-04-22T01:37:00Z</time>
<desc>lat.=22.492035, lon.=103.977951, Alt.=89.719788m. Speed=9.612000m/h.</desc>
<speed>2.670000</speed>
</trkpt>
<trkpt lat="22.492001" lon="103.977837">
<ele>89.893616</ele>
<time>2011-04-22T01:37:05Z</time>
<desc>lat.=22.492001, lon.=103.977837, Alt.=89.893616m. Speed=6.840000m/h.</desc>
<speed>1.900000</speed>
</trkpt>
<trkpt lat="22.491917" lon="103.977776">
<ele>90.579163</ele>
<time>2011-04-22T01:37:10Z</time>
<desc>lat.=22.491917, lon.=103.977776, Alt.=90.579163m. Speed=9.576000m/h.</desc>
<speed>2.660000</speed>
</trkpt>
<trkpt lat="22.491800" lon="103.977806">
<ele>90.995178</ele>
<time>2011-04-22T01:37:15Z</time>
<desc>lat.=22.491800, lon.=103.977806, Alt.=90.995178m. Speed=9.648000m/h.</desc>
<speed>2.680000</speed>
</trkpt>
<trkpt lat="22.491709" lon="103.977852">
<ele>92.061584</ele>
<time>2011-04-22T01:37:20Z</time>
<desc>lat.=22.491709, lon.=103.977852, Alt.=92.061584m. Speed=7.884000m/h.</desc>
<speed>2.190000</speed>
</trkpt>
<trkpt lat="22.491716" lon="103.977989">
<ele>93.737366</ele>
<time>2011-04-22T01:37:25Z</time>
<desc>lat.=22.491716, lon.=103.977989, Alt.=93.737366m. Speed=11.592000m/h.</desc>
<speed>3.220000</speed>
</trkpt>
<trkpt lat="22.491728" lon="103.978157">
<ele>95.596741</ele>
<time>2011-04-22T01:37:30Z</time>
<desc>lat.=22.491728, lon.=103.978157, Alt.=95.596741m. Speed=11.412000m/h.</desc>
<speed>3.170000</speed>
</trkpt>
<trkpt lat="22.491709" lon="103.978271">
<ele>96.797913</ele>
<time>2011-04-22T01:37:35Z</time>
<desc>lat.=22.491709, lon.=103.978271, Alt.=96.797913m. Speed=5.148000m/h.</desc>
<speed>1.430000</speed>
</trkpt>
<trkpt lat="22.491665" lon="103.978310">
<ele>97.042053</ele>
<time>2011-04-22T01:37:40Z</time>
<desc>lat.=22.491665, lon.=103.978310, Alt.=97.042053m. Speed=4.032000m/h.</desc>
<speed>1.120000</speed>
</trkpt>
<trkpt lat="22.491600" lon="103.978233">
<ele>96.596741</ele>
<time>2011-04-22T01:37:45Z</time>
<desc>lat.=22.491600, lon.=103.978233, Alt.=96.596741m. Speed=11.628000m/h.</desc>
<speed>3.230000</speed>
</trkpt>
<trkpt lat="22.491528" lon="103.978065">
<ele>95.993225</ele>
<time>2011-04-22T01:37:50Z</time>
<desc>lat.=22.491528, lon.=103.978065, Alt.=95.993225m. Speed=11.556000m/h.</desc>
<speed>3.210000</speed>
</trkpt>
<trkpt lat="22.491480" lon="103.977966">
<ele>95.891663</ele>
<time>2011-04-22T01:37:55Z</time>
<desc>lat.=22.491480, lon.=103.977966, Alt.=95.891663m. Speed=5.688000m/h.</desc>
<speed>1.580000</speed>
</trkpt>
<trkpt lat="22.491453" lon="103.977921">
<ele>95.735413</ele>
<time>2011-04-22T01:38:00Z</time>
<desc>lat.=22.491453, lon.=103.977921, Alt.=95.735413m. Speed=4.860000m/h.</desc>
<speed>1.350000</speed>
</trkpt>
<trkpt lat="22.491415" lon="103.977844">
<ele>95.424866</ele>
<time>2011-04-22T01:38:05Z</time>
<desc>lat.=22.491415, lon.=103.977844, Alt.=95.424866m. Speed=7.596000m/h.</desc>
<speed>2.110000</speed>
</trkpt>
<trkpt lat="22.491287" lon="103.977806">
<ele>96.045959</ele>
<time>2011-04-22T01:38:10Z</time>
<desc>lat.=22.491287, lon.=103.977806, Alt.=96.045959m. Speed=15.804000m/h.</desc>
<speed>4.390000</speed>
</trkpt>
<trkpt lat="22.491089" lon="103.977913">
<ele>95.762756</ele>
<time>2011-04-22T01:38:15Z</time>
<desc>lat.=22.491089, lon.=103.977913, Alt.=95.762756m. Speed=19.476000m/h.</desc>
<speed>5.410000</speed>
</trkpt>
<trkpt lat="22.490864" lon="103.978035">
<ele>96.135803</ele>
<time>2011-04-22T01:38:20Z</time>
<desc>lat.=22.490864, lon.=103.978035, Alt.=96.135803m. Speed=21.528000m/h.</desc>
<speed>5.980000</speed>
</trkpt>
<trkpt lat="22.490620" lon="103.978165">
<ele>95.907288</ele>
<time>2011-04-22T01:38:25Z</time>
<desc>lat.=22.490620, lon.=103.978165, Alt.=95.907288m. Speed=23.148001m/h.</desc>
<speed>6.430000</speed>
</trkpt>
<trkpt lat="22.490364" lon="103.978325">
<ele>95.094788</ele>
<time>2011-04-22T01:38:30Z</time>
<desc>lat.=22.490364, lon.=103.978325, Alt.=95.094788m. Speed=22.068001m/h.</desc>
<speed>6.130000</speed>
</trkpt>
<trkpt lat="22.490133" lon="103.978447">
<ele>95.256897</ele>
<time>2011-04-22T01:38:35Z</time>
<desc>lat.=22.490133, lon.=103.978447, Alt.=95.256897m. Speed=20.016001m/h.</desc>
<speed>5.560000</speed>
</trkpt>
<trkpt lat="22.489897" lon="103.978584">
<ele>95.846741</ele>
<time>2011-04-22T01:38:40Z</time>
<desc>lat.=22.489897, lon.=103.978584, Alt.=95.846741m. Speed=22.500000m/h.</desc>
<speed>6.250000</speed>
</trkpt>
<trkpt lat="22.489658" lon="103.978729">
<ele>95.961975</ele>
<time>2011-04-22T01:38:45Z</time>
<desc>lat.=22.489658, lon.=103.978729, Alt.=95.961975m. Speed=21.240000m/h.</desc>
<speed>5.900000</speed>
</trkpt>
<trkpt lat="22.489420" lon="103.978867">
<ele>95.735413</ele>
<time>2011-04-22T01:38:50Z</time>
<desc>lat.=22.489420, lon.=103.978867, Alt.=95.735413m. Speed=22.680000m/h.</desc>
<speed>6.300000</speed>
</trkpt>
<trkpt lat="22.489157" lon="103.979027">
<ele>95.833069</ele>
<time>2011-04-22T01:38:55Z</time>
<desc>lat.=22.489157, lon.=103.979027, Alt.=95.833069m. Speed=24.695999m/h.</desc>
<speed>6.860000</speed>
</trkpt>
<trkpt lat="22.488880" lon="103.979172">
<ele>96.762756</ele>
<time>2011-04-22T01:39:00Z</time>
<desc>lat.=22.488880, lon.=103.979172, Alt.=96.762756m. Speed=22.356001m/h.</desc>
<speed>6.210000</speed>
</trkpt>
<trkpt lat="22.488634" lon="103.979309">
<ele>96.815491</ele>
<time>2011-04-22T01:39:05Z</time>
<desc>lat.=22.488634, lon.=103.979309, Alt.=96.815491m. Speed=22.680000m/h.</desc>
<speed>6.300000</speed>
</trkpt>
<trkpt lat="22.488375" lon="103.979469">
<ele>96.868225</ele>
<time>2011-04-22T01:39:10Z</time>
<desc>lat.=22.488375, lon.=103.979469, Alt.=96.868225m. Speed=22.931999m/h.</desc>
<speed>6.370000</speed>
</trkpt>
<trkpt lat="22.488123" lon="103.979599">
<ele>97.055725</ele>
<time>2011-04-22T01:39:15Z</time>
<desc>lat.=22.488123, lon.=103.979599, Alt.=97.055725m. Speed=21.888000m/h.</desc>
<speed>6.080000</speed>
</trkpt>
<trkpt lat="22.487864" lon="103.979706">
<ele>98.184631</ele>
<time>2011-04-22T01:39:20Z</time>
<desc>lat.=22.487864, lon.=103.979706, Alt.=98.184631m. Speed=21.240000m/h.</desc>
<speed>5.900000</speed>
</trkpt>
<trkpt lat="22.487627" lon="103.979744">
<ele>98.651428</ele>
<time>2011-04-22T01:39:25Z</time>
<desc>lat.=22.487627, lon.=103.979744, Alt.=98.651428m. Speed=17.712000m/h.</desc>
<speed>4.920000</speed>
</trkpt>
<trkpt lat="22.487396" lon="103.979729">
<ele>98.479553</ele>
<time>2011-04-22T01:39:30Z</time>
<desc>lat.=22.487396, lon.=103.979729, Alt.=98.479553m. Speed=19.080000m/h.</desc>
<speed>5.300000</speed>
</trkpt>
<trkpt lat="22.487165" lon="103.979652">
<ele>97.782288</ele>
<time>2011-04-22T01:39:35Z</time>
<desc>lat.=22.487165, lon.=103.979652, Alt.=97.782288m. Speed=18.035999m/h.</desc>
<speed>5.010000</speed>
</trkpt>
<trkpt lat="22.486952" lon="103.979538">
<ele>97.583069</ele>
<time>2011-04-22T01:39:40Z</time>
<desc>lat.=22.486952, lon.=103.979538, Alt.=97.583069m. Speed=19.944000m/h.</desc>
<speed>5.540000</speed>
</trkpt>
<trkpt lat="22.486740" lon="103.979385">
<ele>97.206116</ele>
<time>2011-04-22T01:39:45Z</time>
<desc>lat.=22.486740, lon.=103.979385, Alt.=97.206116m. Speed=19.836000m/h.</desc>
<speed>5.510000</speed>
</trkpt>
<trkpt lat="22.486523" lon="103.979233">
<ele>96.817444</ele>
<time>2011-04-22T01:39:50Z</time>
<desc>lat.=22.486523, lon.=103.979233, Alt.=96.817444m. Speed=20.195999m/h.</desc>
<speed>5.610000</speed>
</trkpt>
<trkpt lat="22.486319" lon="103.979088">
<ele>97.202209</ele>
<time>2011-04-22T01:39:55Z</time>
<desc>lat.=22.486319, lon.=103.979088, Alt.=97.202209m. Speed=18.431999m/h.</desc>
<speed>5.120000</speed>
</trkpt>
<trkpt lat="22.486120" lon="103.978951">
<ele>96.331116</ele>
<time>2011-04-22T01:40:00Z</time>
<desc>lat.=22.486120, lon.=103.978951, Alt.=96.331116m. Speed=18.035999m/h.</desc>
<speed>5.010000</speed>
</trkpt>
<trkpt lat="22.485929" lon="103.978806">
<ele>95.989319</ele>
<time>2011-04-22T01:40:05Z</time>
<desc>lat.=22.485929, lon.=103.978806, Alt.=95.989319m. Speed=18.684000m/h.</desc>
<speed>5.190000</speed>
</trkpt>
<trkpt lat="22.485741" lon="103.978676">
<ele>96.114319</ele>
<time>2011-04-22T01:40:10Z</time>
<desc>lat.=22.485741, lon.=103.978676, Alt.=96.114319m. Speed=18.072001m/h.</desc>
<speed>5.020000</speed>
</trkpt>
<trkpt lat="22.485546" lon="103.978546">
<ele>96.784241</ele>
<time>2011-04-22T01:40:15Z</time>
<desc>lat.=22.485546, lon.=103.978546, Alt.=96.784241m. Speed=19.115999m/h.</desc>
<speed>5.310000</speed>
</trkpt>
<trkpt lat="22.485338" lon="103.978401">
<ele>96.393616</ele>
<time>2011-04-22T01:40:20Z</time>
<desc>lat.=22.485338, lon.=103.978401, Alt.=96.393616m. Speed=19.511999m/h.</desc>
<speed>5.420000</speed>
</trkpt>
<trkpt lat="22.485123" lon="103.978256">
<ele>95.495178</ele>
<time>2011-04-22T01:40:25Z</time>
<desc>lat.=22.485123, lon.=103.978256, Alt.=95.495178m. Speed=20.412001m/h.</desc>
<speed>5.670000</speed>
</trkpt>
<trkpt lat="22.484907" lon="103.978104">
<ele>95.178772</ele>
<time>2011-04-22T01:40:30Z</time>
<desc>lat.=22.484907, lon.=103.978104, Alt.=95.178772m. Speed=20.448000m/h.</desc>
<speed>5.680000</speed>
</trkpt>
<trkpt lat="22.484680" lon="103.977943">
<ele>94.227600</ele>
<time>2011-04-22T01:40:35Z</time>
<desc>lat.=22.484680, lon.=103.977943, Alt.=94.227600m. Speed=22.320000m/h.</desc>
<speed>6.200000</speed>
</trkpt>
<trkpt lat="22.484436" lon="103.977783">
<ele>93.725647</ele>
<time>2011-04-22T01:40:40Z</time>
<desc>lat.=22.484436, lon.=103.977783, Alt.=93.725647m. Speed=22.535999m/h.</desc>
<speed>6.260000</speed>
</trkpt>
<trkpt lat="22.484192" lon="103.977615">
<ele>92.741272</ele>
<time>2011-04-22T01:40:45Z</time>
<desc>lat.=22.484192, lon.=103.977615, Alt.=92.741272m. Speed=23.256001m/h.</desc>
<speed>6.460000</speed>
</trkpt>
<trkpt lat="22.483938" lon="103.977440">
<ele>92.522522</ele>
<time>2011-04-22T01:40:50Z</time>
<desc>lat.=22.483938, lon.=103.977440, Alt.=92.522522m. Speed=24.264000m/h.</desc>
<speed>6.740000</speed>
</trkpt>
<trkpt lat="22.483694" lon="103.977264">
<ele>92.483459</ele>
<time>2011-04-22T01:40:55Z</time>
<desc>lat.=22.483694, lon.=103.977264, Alt.=92.483459m. Speed=22.356001m/h.</desc>
<speed>6.210000</speed>
</trkpt>
<trkpt lat="22.483473" lon="103.977104">
<ele>92.124084</ele>
<time>2011-04-22T01:41:00Z</time>
<desc>lat.=22.483473, lon.=103.977104, Alt.=92.124084m. Speed=20.483999m/h.</desc>
<speed>5.690000</speed>
</trkpt>
<trkpt lat="22.483278" lon="103.976959">
<ele>92.920959</ele>
<time>2011-04-22T01:41:05Z</time>
<desc>lat.=22.483278, lon.=103.976959, Alt.=92.920959m. Speed=17.388000m/h.</desc>
<speed>4.830000</speed>
</trkpt>
<trkpt lat="22.483072" lon="103.976845">
<ele>93.188538</ele>
<time>2011-04-22T01:41:10Z</time>
<desc>lat.=22.483072, lon.=103.976845, Alt.=93.188538m. Speed=18.648001m/h.</desc>
<speed>5.180000</speed>
</trkpt>
<trkpt lat="22.482838" lon="103.976707">
<ele>93.254944</ele>
<time>2011-04-22T01:41:15Z</time>
<desc>lat.=22.482838, lon.=103.976707, Alt.=93.254944m. Speed=22.139999m/h.</desc>
<speed>6.150000</speed>
</trkpt>
<trkpt lat="22.482607" lon="103.976524">
<ele>93.301819</ele>
<time>2011-04-22T01:41:20Z</time>
<desc>lat.=22.482607, lon.=103.976524, Alt.=93.301819m. Speed=23.832001m/h.</desc>
<speed>6.620000</speed>
</trkpt>
<trkpt lat="22.482346" lon="103.976334">
<ele>93.190491</ele>
<time>2011-04-22T01:41:25Z</time>
<desc>lat.=22.482346, lon.=103.976334, Alt.=93.190491m. Speed=26.028000m/h.</desc>
<speed>7.230000</speed>
</trkpt>
<trkpt lat="22.482069" lon="103.976135">
<ele>92.596741</ele>
<time>2011-04-22T01:41:30Z</time>
<desc>lat.=22.482069, lon.=103.976135, Alt.=92.596741m. Speed=24.768000m/h.</desc>
<speed>6.880000</speed>
</trkpt>
<trkpt lat="22.481821" lon="103.975975">
<ele>92.581116</ele>
<time>2011-04-22T01:41:35Z</time>
<desc>lat.=22.481821, lon.=103.975975, Alt.=92.581116m. Speed=21.996000m/h.</desc>
<speed>6.110000</speed>
</trkpt>
<trkpt lat="22.481586" lon="103.975807">
<ele>93.221741</ele>
<time>2011-04-22T01:41:40Z</time>
<desc>lat.=22.481586, lon.=103.975807, Alt.=93.221741m. Speed=22.247999m/h.</desc>
<speed>6.180000</speed>
</trkpt>
<trkpt lat="22.481379" lon="103.975639">
<ele>93.467834</ele>
<time>2011-04-22T01:41:45Z</time>
<desc>lat.=22.481379, lon.=103.975639, Alt.=93.467834m. Speed=18.792000m/h.</desc>
<speed>5.220000</speed>
</trkpt>
<trkpt lat="22.481308" lon="103.975410">
<ele>93.973694</ele>
<time>2011-04-22T01:41:50Z</time>
<desc>lat.=22.481308, lon.=103.975410, Alt.=93.973694m. Speed=19.656000m/h.</desc>
<speed>5.460000</speed>
</trkpt>
<trkpt lat="22.481247" lon="103.975182">
<ele>93.473694</ele>
<time>2011-04-22T01:41:55Z</time>
<desc>lat.=22.481247, lon.=103.975182, Alt.=93.473694m. Speed=17.100000m/h.</desc>
<speed>4.750000</speed>
</trkpt>
<trkpt lat="22.481104" lon="103.975014">
<ele>93.045959</ele>
<time>2011-04-22T01:42:00Z</time>
<desc>lat.=22.481104, lon.=103.975014, Alt.=93.045959m. Speed=16.200001m/h.</desc>
<speed>4.500000</speed>
</trkpt>
<trkpt lat="22.480909" lon="103.974945">
<ele>92.641663</ele>
<time>2011-04-22T01:42:05Z</time>
<desc>lat.=22.480909, lon.=103.974945, Alt.=92.641663m. Speed=18.288000m/h.</desc>
<speed>5.080000</speed>
</trkpt>
<trkpt lat="22.480722" lon="103.974876">
<ele>92.252991</ele>
<time>2011-04-22T01:42:10Z</time>
<desc>lat.=22.480722, lon.=103.974876, Alt.=92.252991m. Speed=17.496000m/h.</desc>
<speed>4.860000</speed>
</trkpt>
<trkpt lat="22.480623" lon="103.974701">
<ele>92.002991</ele>
<time>2011-04-22T01:42:15Z</time>
<desc>lat.=22.480623, lon.=103.974701, Alt.=92.002991m. Speed=12.348000m/h.</desc>
<speed>3.430000</speed>
</trkpt>
<trkpt lat="22.480558" lon="103.974541">
<ele>92.178772</ele>
<time>2011-04-22T01:42:20Z</time>
<desc>lat.=22.480558, lon.=103.974541, Alt.=92.178772m. Speed=10.764000m/h.</desc>
<speed>2.990000</speed>
</trkpt>
<trkpt lat="22.480560" lon="103.974487">
<ele>93.538147</ele>
<time>2011-04-22T01:42:25Z</time>
<desc>lat.=22.480560, lon.=103.974487, Alt.=93.538147m. Speed=0.216000m/h.</desc>
<speed>0.060000</speed>
</trkpt>
<trkpt lat="22.480566" lon="103.974472">
<ele>93.706116</ele>
<time>2011-04-22T01:42:30Z</time>
<desc>lat.=22.480566, lon.=103.974472, Alt.=93.706116m. Speed=3.060000m/h.</desc>
<speed>0.850000</speed>
</trkpt>
<trkpt lat="22.480612" lon="103.974411">
<ele>93.784241</ele>
<time>2011-04-22T01:42:35Z</time>
<desc>lat.=22.480612, lon.=103.974411, Alt.=93.784241m. Speed=9.720000m/h.</desc>
<speed>2.700000</speed>
</trkpt>
<trkpt lat="22.480761" lon="103.974373">
<ele>95.676819</ele>
<time>2011-04-22T01:42:40Z</time>
<desc>lat.=22.480761, lon.=103.974373, Alt.=95.676819m. Speed=11.124000m/h.</desc>
<speed>3.090000</speed>
</trkpt>
<trkpt lat="22.480886" lon="103.974365">
<ele>96.583069</ele>
<time>2011-04-22T01:42:45Z</time>
<desc>lat.=22.480886, lon.=103.974365, Alt.=96.583069m. Speed=7.200000m/h.</desc>
<speed>2.000000</speed>
</trkpt>
<trkpt lat="22.480938" lon="103.974365">
<ele>96.092834</ele>
<time>2011-04-22T01:42:50Z</time>
<desc>lat.=22.480938, lon.=103.974365, Alt.=96.092834m. Speed=0.144000m/h.</desc>
<speed>0.040000</speed>
</trkpt>
<trkpt lat="22.480968" lon="103.974358">
<ele>95.731506</ele>
<time>2011-04-22T01:42:55Z</time>
<desc>lat.=22.480968, lon.=103.974358, Alt.=95.731506m. Speed=9.036000m/h.</desc>
<speed>2.510000</speed>
</trkpt>
<trkpt lat="22.481123" lon="103.974426">
<ele>97.098694</ele>
<time>2011-04-22T01:43:00Z</time>
<desc>lat.=22.481123, lon.=103.974426, Alt.=97.098694m. Speed=17.063999m/h.</desc>
<speed>4.740000</speed>
</trkpt>
<trkpt lat="22.481302" lon="103.974556">
<ele>99.204163</ele>
<time>2011-04-22T01:43:05Z</time>
<desc>lat.=22.481302, lon.=103.974556, Alt.=99.204163m. Speed=14.616000m/h.</desc>
<speed>4.060000</speed>
</trkpt>
<trkpt lat="22.481455" lon="103.974594">
<ele>101.479553</ele>
<time>2011-04-22T01:43:10Z</time>
<desc>lat.=22.481455, lon.=103.974594, Alt.=101.479553m. Speed=12.240000m/h.</desc>
<speed>3.400000</speed>
</trkpt>
<trkpt lat="22.481579" lon="103.974510">
<ele>101.860413</ele>
<time>2011-04-22T01:43:15Z</time>
<desc>lat.=22.481579, lon.=103.974510, Alt.=101.860413m. Speed=9.972000m/h.</desc>
<speed>2.770000</speed>
</trkpt>
<trkpt lat="22.481644" lon="103.974457">
<ele>100.710022</ele>
<time>2011-04-22T01:43:20Z</time>
<desc>lat.=22.481644, lon.=103.974457, Alt.=100.710022m. Speed=5.364000m/h.</desc>
<speed>1.490000</speed>
</trkpt>
<trkpt lat="22.481672" lon="103.974442">
<ele>100.756897</ele>
<time>2011-04-22T01:43:25Z</time>
<desc>lat.=22.481672, lon.=103.974442, Alt.=100.756897m. Speed=0.180000m/h.</desc>
<speed>0.050000</speed>
</trkpt>
<trkpt lat="22.481674" lon="103.974442">
<ele>100.940491</ele>
<time>2011-04-22T01:43:30Z</time>
<desc>lat.=22.481674, lon.=103.974442, Alt.=100.940491m. Speed=0.216000m/h.</desc>
<speed>0.060000</speed>
</trkpt>
<trkpt lat="22.481674" lon="103.974434">
<ele>101.071350</ele>
<time>2011-04-22T01:43:35Z</time>
<desc>lat.=22.481674, lon.=103.974434, Alt.=101.071350m. Speed=0.720000m/h.</desc>
<speed>0.200000</speed>
</trkpt>
<trkpt lat="22.481653" lon="103.974419">
<ele>100.815491</ele>
<time>2011-04-22T01:43:40Z</time>
<desc>lat.=22.481653, lon.=103.974419, Alt.=100.815491m. Speed=7.020000m/h.</desc>
<speed>1.950000</speed>
</trkpt>
<trkpt lat="22.481548" lon="103.974518">
<ele>99.530334</ele>
<time>2011-04-22T01:43:45Z</time>
<desc>lat.=22.481548, lon.=103.974518, Alt.=99.530334m. Speed=15.516000m/h.</desc>
<speed>4.310000</speed>
</trkpt>
<trkpt lat="22.481413" lon="103.974678">
<ele>96.258850</ele>
<time>2011-04-22T01:43:50Z</time>
<desc>lat.=22.481413, lon.=103.974678, Alt.=96.258850m. Speed=16.128000m/h.</desc>
<speed>4.480000</speed>
</trkpt>
<trkpt lat="22.481304" lon="103.974808">
<ele>94.540100</ele>
<time>2011-04-22T01:43:55Z</time>
<desc>lat.=22.481304, lon.=103.974808, Alt.=94.540100m. Speed=14.148000m/h.</desc>
<speed>3.930000</speed>
</trkpt>
<trkpt lat="22.481180" lon="103.974930">
<ele>95.686584</ele>
<time>2011-04-22T01:44:00Z</time>
<desc>lat.=22.481180, lon.=103.974930, Alt.=95.686584m. Speed=13.140000m/h.</desc>
<speed>3.650000</speed>
</trkpt>
<trkpt lat="22.481005" lon="103.974983">
<ele>94.819397</ele>
<time>2011-04-22T01:44:05Z</time>
<desc>lat.=22.481005, lon.=103.974983, Alt.=94.819397m. Speed=15.552000m/h.</desc>
<speed>4.320000</speed>
</trkpt>
<trkpt lat="22.480803" lon="103.975037">
<ele>92.883850</ele>
<time>2011-04-22T01:44:10Z</time>
<desc>lat.=22.480803, lon.=103.975037, Alt.=92.883850m. Speed=18.540001m/h.</desc>
<speed>5.150000</speed>
</trkpt>
<trkpt lat="22.480633" lon="103.975204">
<ele>91.448303</ele>
<time>2011-04-22T01:44:15Z</time>
<desc>lat.=22.480633, lon.=103.975204, Alt.=91.448303m. Speed=19.403999m/h.</desc>
<speed>5.390000</speed>
</trkpt>
<trkpt lat="22.480528" lon="103.975441">
<ele>89.631897</ele>
<time>2011-04-22T01:44:20Z</time>
<desc>lat.=22.480528, lon.=103.975441, Alt.=89.631897m. Speed=19.044001m/h.</desc>
<speed>5.290000</speed>
</trkpt>
<trkpt lat="22.480450" lon="103.975662">
<ele>88.989319</ele>
<time>2011-04-22T01:44:25Z</time>
<desc>lat.=22.480450, lon.=103.975662, Alt.=88.989319m. Speed=17.604000m/h.</desc>
<speed>4.890000</speed>
</trkpt>
<trkpt lat="22.480297" lon="103.975868">
<ele>88.434631</ele>
<time>2011-04-22T01:44:30Z</time>
<desc>lat.=22.480297, lon.=103.975868, Alt.=88.434631m. Speed=19.836000m/h.</desc>
<speed>5.510000</speed>
</trkpt>
<trkpt lat="22.480122" lon="103.976059">
<ele>88.864319</ele>
<time>2011-04-22T01:44:35Z</time>
<desc>lat.=22.480122, lon.=103.976059, Alt.=88.864319m. Speed=19.044001m/h.</desc>
<speed>5.290000</speed>
</trkpt>
<trkpt lat="22.479956" lon="103.976227">
<ele>88.792053</ele>
<time>2011-04-22T01:44:40Z</time>
<desc>lat.=22.479956, lon.=103.976227, Alt.=88.792053m. Speed=15.876000m/h.</desc>
<speed>4.410000</speed>
</trkpt>
<trkpt lat="22.479830" lon="103.976334">
<ele>88.672913</ele>
<time>2011-04-22T01:44:45Z</time>
<desc>lat.=22.479830, lon.=103.976334, Alt.=88.672913m. Speed=9.180000m/h.</desc>
<speed>2.550000</speed>
</trkpt>
<trkpt lat="22.479809" lon="103.976349">
<ele>88.667053</ele>
<time>2011-04-22T01:44:50Z</time>
<desc>lat.=22.479809, lon.=103.976349, Alt.=88.667053m. Speed=0.684000m/h.</desc>
<speed>0.190000</speed>
</trkpt>
<trkpt lat="22.479801" lon="103.976349">
<ele>88.610413</ele>
<time>2011-04-22T01:44:55Z</time>
<desc>lat.=22.479801, lon.=103.976349, Alt.=88.610413m. Speed=1.332000m/h.</desc>
<speed>0.370000</speed>
</trkpt>
<trkpt lat="22.479794" lon="103.976357">
<ele>88.473694</ele>
<time>2011-04-22T01:45:00Z</time>
<desc>lat.=22.479794, lon.=103.976357, Alt.=88.473694m. Speed=1.044000m/h.</desc>
<speed>0.290000</speed>
</trkpt>
<trkpt lat="22.479786" lon="103.976334">
<ele>88.090881</ele>
<time>2011-04-22T01:45:05Z</time>
<desc>lat.=22.479786, lon.=103.976334, Alt.=88.090881m. Speed=5.004000m/h.</desc>
<speed>1.390000</speed>
</trkpt>
<trkpt lat="22.479879" lon="103.976273">
<ele>88.204163</ele>
<time>2011-04-22T01:45:10Z</time>
<desc>lat.=22.479879, lon.=103.976273, Alt.=88.204163m. Speed=11.808000m/h.</desc>
<speed>3.280000</speed>
</trkpt>
<trkpt lat="22.480026" lon="103.976128">
<ele>87.268616</ele>
<time>2011-04-22T01:45:15Z</time>
<desc>lat.=22.480026, lon.=103.976128, Alt.=87.268616m. Speed=18.072001m/h.</desc>
<speed>5.020000</speed>
</trkpt>
<trkpt lat="22.480215" lon="103.975937">
<ele>87.831116</ele>
<time>2011-04-22T01:45:20Z</time>
<desc>lat.=22.480215, lon.=103.975937, Alt.=87.831116m. Speed=21.059999m/h.</desc>
<speed>5.850000</speed>
</trkpt>
<trkpt lat="22.480354" lon="103.975746">
<ele>87.270569</ele>
<time>2011-04-22T01:45:25Z</time>
<desc>lat.=22.480354, lon.=103.975746, Alt.=87.270569m. Speed=15.120000m/h.</desc>
<speed>4.200000</speed>
</trkpt>
<trkpt lat="22.480303" lon="103.975555">
<ele>87.518616</ele>
<time>2011-04-22T01:45:30Z</time>
<desc>lat.=22.480303, lon.=103.975555, Alt.=87.518616m. Speed=13.104000m/h.</desc>
<speed>3.640000</speed>
</trkpt>
<trkpt lat="22.480223" lon="103.975441">
<ele>86.813538</ele>
<time>2011-04-22T01:45:35Z</time>
<desc>lat.=22.480223, lon.=103.975441, Alt.=86.813538m. Speed=11.772000m/h.</desc>
<speed>3.270000</speed>
</trkpt>
<trkpt lat="22.480101" lon="103.975410">
<ele>86.237366</ele>
<time>2011-04-22T01:45:40Z</time>
<desc>lat.=22.480101, lon.=103.975410, Alt.=86.237366m. Speed=10.296000m/h.</desc>
<speed>2.860000</speed>
</trkpt>
<trkpt lat="22.479975" lon="103.975410">
<ele>85.672913</ele>
<time>2011-04-22T01:45:45Z</time>
<desc>lat.=22.479975, lon.=103.975410, Alt.=85.672913m. Speed=11.124000m/h.</desc>
<speed>3.090000</speed>
</trkpt>
<trkpt lat="22.479797" lon="103.975426">
<ele>85.313538</ele>
<time>2011-04-22T01:45:50Z</time>
<desc>lat.=22.479797, lon.=103.975426, Alt.=85.313538m. Speed=15.840000m/h.</desc>
<speed>4.400000</speed>
</trkpt>
<trkpt lat="22.479561" lon="103.975426">
<ele>84.762756</ele>
<time>2011-04-22T01:45:55Z</time>
<desc>lat.=22.479561, lon.=103.975426, Alt.=84.762756m. Speed=20.412001m/h.</desc>
<speed>5.670000</speed>
</trkpt>
<trkpt lat="22.479288" lon="103.975433">
<ele>84.206116</ele>
<time>2011-04-22T01:46:00Z</time>
<desc>lat.=22.479288, lon.=103.975433, Alt.=84.206116m. Speed=22.535999m/h.</desc>
<speed>6.260000</speed>
</trkpt>
<trkpt lat="22.479021" lon="103.975449">
<ele>84.340881</ele>
<time>2011-04-22T01:46:05Z</time>
<desc>lat.=22.479021, lon.=103.975449, Alt.=84.340881m. Speed=20.916000m/h.</desc>
<speed>5.810000</speed>
</trkpt>
<trkpt lat="22.478735" lon="103.975471">
<ele>84.163147</ele>
<time>2011-04-22T01:46:10Z</time>
<desc>lat.=22.478735, lon.=103.975471, Alt.=84.163147m. Speed=25.128000m/h.</desc>
<speed>6.980000</speed>
</trkpt>
<trkpt lat="22.478411" lon="103.975464">
<ele>84.463928</ele>
<time>2011-04-22T01:46:15Z</time>
<desc>lat.=22.478411, lon.=103.975464, Alt.=84.463928m. Speed=25.308001m/h.</desc>
<speed>7.030000</speed>
</trkpt>
<trkpt lat="22.478113" lon="103.975471">
<ele>84.112366</ele>
<time>2011-04-22T01:46:20Z</time>
<desc>lat.=22.478113, lon.=103.975471, Alt.=84.112366m. Speed=21.851999m/h.</desc>
<speed>6.070000</speed>
</trkpt>
<trkpt lat="22.477850" lon="103.975479">
<ele>83.633850</ele>
<time>2011-04-22T01:46:25Z</time>
<desc>lat.=22.477850, lon.=103.975479, Alt.=83.633850m. Speed=21.132000m/h.</desc>
<speed>5.870000</speed>
</trkpt>
<trkpt lat="22.477581" lon="103.975494">
<ele>82.106506</ele>
<time>2011-04-22T01:46:30Z</time>
<desc>lat.=22.477581, lon.=103.975494, Alt.=82.106506m. Speed=21.167999m/h.</desc>
<speed>5.880000</speed>
</trkpt>
<trkpt lat="22.477316" lon="103.975510">
<ele>83.893616</ele>
<time>2011-04-22T01:46:35Z</time>
<desc>lat.=22.477316, lon.=103.975510, Alt.=83.893616m. Speed=19.080000m/h.</desc>
<speed>5.300000</speed>
</trkpt>
<trkpt lat="22.477066" lon="103.975510">
<ele>85.376038</ele>
<time>2011-04-22T01:46:40Z</time>
<desc>lat.=22.477066, lon.=103.975510, Alt.=85.376038m. Speed=19.872000m/h.</desc>
<speed>5.520000</speed>
</trkpt>
<trkpt lat="22.476831" lon="103.975464">
<ele>85.536194</ele>
<time>2011-04-22T01:46:45Z</time>
<desc>lat.=22.476831, lon.=103.975464, Alt.=85.536194m. Speed=19.044001m/h.</desc>
<speed>5.290000</speed>
</trkpt>
<trkpt lat="22.476612" lon="103.975357">
<ele>86.438538</ele>
<time>2011-04-22T01:46:50Z</time>
<desc>lat.=22.476612, lon.=103.975357, Alt.=86.438538m. Speed=18.756001m/h.</desc>
<speed>5.210000</speed>
</trkpt>
<trkpt lat="22.476439" lon="103.975212">
<ele>88.399475</ele>
<time>2011-04-22T01:46:55Z</time>
<desc>lat.=22.476439, lon.=103.975212, Alt.=88.399475m. Speed=16.200001m/h.</desc>
<speed>4.500000</speed>
</trkpt>
<trkpt lat="22.476274" lon="103.975075">
<ele>88.518616</ele>
<time>2011-04-22T01:47:00Z</time>
<desc>lat.=22.476274, lon.=103.975075, Alt.=88.518616m. Speed=16.596001m/h.</desc>
<speed>4.610000</speed>
</trkpt>
<trkpt lat="22.476128" lon="103.974983">
<ele>88.516663</ele>
<time>2011-04-22T01:47:05Z</time>
<desc>lat.=22.476128, lon.=103.974983, Alt.=88.516663m. Speed=12.600000m/h.</desc>
<speed>3.500000</speed>
</trkpt>
<trkpt lat="22.475986" lon="103.974831">
<ele>86.575256</ele>
<time>2011-04-22T01:47:10Z</time>
<desc>lat.=22.475986, lon.=103.974831, Alt.=86.575256m. Speed=16.236000m/h.</desc>
<speed>4.510000</speed>
</trkpt>
<trkpt lat="22.475840" lon="103.974678">
<ele>89.126038</ele>
<time>2011-04-22T01:47:15Z</time>
<desc>lat.=22.475840, lon.=103.974678, Alt.=89.126038m. Speed=14.436000m/h.</desc>
<speed>4.010000</speed>
</trkpt>
<trkpt lat="22.475729" lon="103.974541">
<ele>89.645569</ele>
<time>2011-04-22T01:47:20Z</time>
<desc>lat.=22.475729, lon.=103.974541, Alt.=89.645569m. Speed=10.800000m/h.</desc>
<speed>3.000000</speed>
</trkpt>
<trkpt lat="22.475700" lon="103.974480">
<ele>91.127991</ele>
<time>2011-04-22T01:47:25Z</time>
<desc>lat.=22.475700, lon.=103.974480, Alt.=91.127991m. Speed=1.188000m/h.</desc>
<speed>0.330000</speed>
</trkpt>
<trkpt lat="22.475700" lon="103.974480">
<ele>91.450256</ele>
<time>2011-04-22T01:47:30Z</time>
<desc>lat.=22.475700, lon.=103.974480, Alt.=91.450256m. Speed=0.180000m/h.</desc>
<speed>0.050000</speed>
</trkpt>
<trkpt lat="22.475700" lon="103.974480">
<ele>91.575256</ele>
<time>2011-04-22T01:47:35Z</time>
<desc>lat.=22.475700, lon.=103.974480, Alt.=91.575256m. Speed=0.036000m/h.</desc>
<speed>0.010000</speed>
</trkpt>
<trkpt lat="22.475700" lon="103.974487">
<ele>91.624084</ele>
<time>2011-04-22T01:47:40Z</time>
<desc>lat.=22.475700, lon.=103.974487, Alt.=91.624084m. Speed=0.216000m/h.</desc>
<speed>0.060000</speed>
</trkpt>
<trkpt lat="22.475700" lon="103.974487">
<ele>91.690491</ele>
<time>2011-04-22T01:47:45Z</time>
<desc>lat.=22.475700, lon.=103.974487, Alt.=91.690491m. Speed=0.396000m/h.</desc>
<speed>0.110000</speed>
</trkpt>
<trkpt lat="22.475670" lon="103.974457">
<ele>91.893616</ele>
<time>2011-04-22T01:47:50Z</time>
<desc>lat.=22.475670, lon.=103.974457, Alt.=91.893616m. Speed=9.000000m/h.</desc>
<speed>2.500000</speed>
</trkpt>
<trkpt lat="22.475578" lon="103.974304">
<ele>91.794006</ele>
<time>2011-04-22T01:47:55Z</time>
<desc>lat.=22.475578, lon.=103.974304, Alt.=91.794006m. Speed=13.932000m/h.</desc>
<speed>3.870000</speed>
</trkpt>
<trkpt lat="22.475473" lon="103.974136">
<ele>91.254944</ele>
<time>2011-04-22T01:48:00Z</time>
<desc>lat.=22.475473, lon.=103.974136, Alt.=91.254944m. Speed=14.148000m/h.</desc>
<speed>3.930000</speed>
</trkpt>
<trkpt lat="22.475407" lon="103.973946">
<ele>91.237366</ele>
<time>2011-04-22T01:48:05Z</time>
<desc>lat.=22.475407, lon.=103.973946, Alt.=91.237366m. Speed=15.912000m/h.</desc>
<speed>4.420000</speed>
</trkpt>
<trkpt lat="22.475327" lon="103.973724">
<ele>90.192444</ele>
<time>2011-04-22T01:48:10Z</time>
<desc>lat.=22.475327, lon.=103.973724, Alt.=90.192444m. Speed=18.576000m/h.</desc>
<speed>5.160000</speed>
</trkpt>
<trkpt lat="22.475245" lon="103.973511">
<ele>88.706116</ele>
<time>2011-04-22T01:48:15Z</time>
<desc>lat.=22.475245, lon.=103.973511, Alt.=88.706116m. Speed=11.016000m/h.</desc>
<speed>3.060000</speed>
</trkpt>
<trkpt lat="22.475224" lon="103.973450">
<ele>88.374084</ele>
<time>2011-04-22T01:48:20Z</time>
<desc>lat.=22.475224, lon.=103.973450, Alt.=88.374084m. Speed=0.828000m/h.</desc>
<speed>0.230000</speed>
</trkpt>
<trkpt lat="22.475231" lon="103.973442">
<ele>87.725647</ele>
<time>2011-04-22T01:48:25Z</time>
<desc>lat.=22.475231, lon.=103.973442, Alt.=87.725647m. Speed=0.216000m/h.</desc>
<speed>0.060000</speed>
</trkpt>
<trkpt lat="22.475233" lon="103.973442">
<ele>87.594788</ele>
<time>2011-04-22T01:48:30Z</time>
<desc>lat.=22.475233, lon.=103.973442, Alt.=87.594788m. Speed=0.252000m/h.</desc>
<speed>0.070000</speed>
</trkpt>
<trkpt lat="22.475233" lon="103.973442">
<ele>87.637756</ele>
<time>2011-04-22T01:48:35Z</time>
<desc>lat.=22.475233, lon.=103.973442, Alt.=87.637756m. Speed=0.144000m/h.</desc>
<speed>0.040000</speed>
</trkpt>
<trkpt lat="22.475229" lon="103.973434">
<ele>87.669006</ele>
<time>2011-04-22T01:48:40Z</time>
<desc>lat.=22.475229, lon.=103.973434, Alt.=87.669006m. Speed=4.284000m/h.</desc>
<speed>1.190000</speed>
</trkpt>
<trkpt lat="22.475166" lon="103.973320">
<ele>87.321350</ele>
<time>2011-04-22T01:48:45Z</time>
<desc>lat.=22.475166, lon.=103.973320, Alt.=87.321350m. Speed=13.032000m/h.</desc>
<speed>3.620000</speed>
</trkpt>
<trkpt lat="22.474989" lon="103.973221">
<ele>87.335022</ele>
<time>2011-04-22T01:48:50Z</time>
<desc>lat.=22.474989, lon.=103.973221, Alt.=87.335022m. Speed=16.992001m/h.</desc>
<speed>4.720000</speed>
</trkpt>
<trkpt lat="22.474773" lon="103.973160">
<ele>87.419006</ele>
<time>2011-04-22T01:48:55Z</time>
<desc>lat.=22.474773, lon.=103.973160, Alt.=87.419006m. Speed=17.639999m/h.</desc>
<speed>4.900000</speed>
</trkpt>
<trkpt lat="22.474554" lon="103.973076">
<ele>88.169006</ele>
<time>2011-04-22T01:49:00Z</time>
<desc>lat.=22.474554, lon.=103.973076, Alt.=88.169006m. Speed=18.936001m/h.</desc>
<speed>5.260000</speed>
</trkpt>
<trkpt lat="22.474342" lon="103.973007">
<ele>89.526428</ele>
<time>2011-04-22T01:49:05Z</time>
<desc>lat.=22.474342, lon.=103.973007, Alt.=89.526428m. Speed=17.136000m/h.</desc>
<speed>4.760000</speed>
</trkpt>
<trkpt lat="22.474131" lon="103.972946">
<ele>90.788147</ele>
<time>2011-04-22T01:49:10Z</time>
<desc>lat.=22.474131, lon.=103.972946, Alt.=90.788147m. Speed=17.639999m/h.</desc>
<speed>4.900000</speed>
</trkpt>
<trkpt lat="22.473921" lon="103.972862">
<ele>92.501038</ele>
<time>2011-04-22T01:49:15Z</time>
<desc>lat.=22.473921, lon.=103.972862, Alt.=92.501038m. Speed=18.756001m/h.</desc>
<speed>5.210000</speed>
</trkpt>
<trkpt lat="22.473740" lon="103.972710">
<ele>93.545959</ele>
<time>2011-04-22T01:49:20Z</time>
<desc>lat.=22.473740, lon.=103.972710, Alt.=93.545959m. Speed=18.972000m/h.</desc>
<speed>5.270000</speed>
</trkpt>
<trkpt lat="22.473579" lon="103.972519">
<ele>93.270569</ele>
<time>2011-04-22T01:49:25Z</time>
<desc>lat.=22.473579, lon.=103.972519, Alt.=93.270569m. Speed=17.892000m/h.</desc>
<speed>4.970000</speed>
</trkpt>
<trkpt lat="22.473421" lon="103.972351">
<ele>93.456116</ele>
<time>2011-04-22T01:49:30Z</time>
<desc>lat.=22.473421, lon.=103.972351, Alt.=93.456116m. Speed=17.892000m/h.</desc>
<speed>4.970000</speed>
</trkpt>
<trkpt lat="22.473289" lon="103.972115">
<ele>91.780334</ele>
<time>2011-04-22T01:49:35Z</time>
<desc>lat.=22.473289, lon.=103.972115, Alt.=91.780334m. Speed=21.348000m/h.</desc>
<speed>5.930000</speed>
</trkpt>
<trkpt lat="22.473232" lon="103.971817">
<ele>91.210022</ele>
<time>2011-04-22T01:49:40Z</time>
<desc>lat.=22.473232, lon.=103.971817, Alt.=91.210022m. Speed=21.959999m/h.</desc>
<speed>6.100000</speed>
</trkpt>
<trkpt lat="22.473175" lon="103.971527">
<ele>91.192444</ele>
<time>2011-04-22T01:49:45Z</time>
<desc>lat.=22.473175, lon.=103.971527, Alt.=91.192444m. Speed=21.492001m/h.</desc>
<speed>5.970000</speed>
</trkpt>
<trkpt lat="22.473127" lon="103.971230">
<ele>90.969788</ele>
<time>2011-04-22T01:49:50Z</time>
<desc>lat.=22.473127, lon.=103.971230, Alt.=90.969788m. Speed=21.455999m/h.</desc>
<speed>5.960000</speed>
</trkpt>
<trkpt lat="22.473063" lon="103.970955">
<ele>90.930725</ele>
<time>2011-04-22T01:49:55Z</time>
<desc>lat.=22.473063, lon.=103.970955, Alt.=90.930725m. Speed=19.044001m/h.</desc>
<speed>5.290000</speed>
</trkpt>
<trkpt lat="22.472980" lon="103.970711">
<ele>90.456116</ele>
<time>2011-04-22T01:50:00Z</time>
<desc>lat.=22.472980, lon.=103.970711, Alt.=90.456116m. Speed=19.152000m/h.</desc>
<speed>5.320000</speed>
</trkpt>
<trkpt lat="22.472878" lon="103.970482">
<ele>91.211975</ele>
<time>2011-04-22T01:50:05Z</time>
<desc>lat.=22.472878, lon.=103.970482, Alt.=91.211975m. Speed=19.152000m/h.</desc>
<speed>5.320000</speed>
</trkpt>
<trkpt lat="22.472773" lon="103.970253">
<ele>92.467834</ele>
<time>2011-04-22T01:50:10Z</time>
<desc>lat.=22.472773, lon.=103.970253, Alt.=92.467834m. Speed=17.820000m/h.</desc>
<speed>4.950000</speed>
</trkpt>
<trkpt lat="22.472736" lon="103.970016">
<ele>92.694397</ele>
<time>2011-04-22T01:50:15Z</time>
<desc>lat.=22.472736, lon.=103.970016, Alt.=92.694397m. Speed=18.323999m/h.</desc>
<speed>5.090000</speed>
</trkpt>
<trkpt lat="22.472834" lon="103.969788">
<ele>91.219788</ele>
<time>2011-04-22T01:50:20Z</time>
<desc>lat.=22.472834, lon.=103.969788, Alt.=91.219788m. Speed=18.864000m/h.</desc>
<speed>5.240000</speed>
</trkpt>
<trkpt lat="22.473047" lon="103.969635">
<ele>92.670959</ele>
<time>2011-04-22T01:50:25Z</time>
<desc>lat.=22.473047, lon.=103.969635, Alt.=92.670959m. Speed=20.736000m/h.</desc>
<speed>5.760000</speed>
</trkpt>
<trkpt lat="22.473276" lon="103.969513">
<ele>94.637756</ele>
<time>2011-04-22T01:50:30Z</time>
<desc>lat.=22.473276, lon.=103.969513, Alt.=94.637756m. Speed=19.007999m/h.</desc>
<speed>5.280000</speed>
</trkpt>
<trkpt lat="22.473499" lon="103.969391">
<ele>95.684631</ele>
<time>2011-04-22T01:50:35Z</time>
<desc>lat.=22.473499, lon.=103.969391, Alt.=95.684631m. Speed=20.375999m/h.</desc>
<speed>5.660000</speed>
</trkpt>
<trkpt lat="22.473751" lon="103.969276">
<ele>94.969788</ele>
<time>2011-04-22T01:50:40Z</time>
<desc>lat.=22.473751, lon.=103.969276, Alt.=94.969788m. Speed=21.672001m/h.</desc>
<speed>6.020000</speed>
</trkpt>
<trkpt lat="22.474020" lon="103.969193">
<ele>95.235413</ele>
<time>2011-04-22T01:50:45Z</time>
<desc>lat.=22.474020, lon.=103.969193, Alt.=95.235413m. Speed=22.968000m/h.</desc>
<speed>6.380000</speed>
</trkpt>
<trkpt lat="22.474304" lon="103.969124">
<ele>95.145569</ele>
<time>2011-04-22T01:50:50Z</time>
<desc>lat.=22.474304, lon.=103.969124, Alt.=95.145569m. Speed=21.851999m/h.</desc>
<speed>6.070000</speed>
</trkpt>
<trkpt lat="22.474562" lon="103.969032">
<ele>94.741272</ele>
<time>2011-04-22T01:50:55Z</time>
<desc>lat.=22.474562, lon.=103.969032, Alt.=94.741272m. Speed=23.364000m/h.</desc>
<speed>6.490000</speed>
</trkpt>
<trkpt lat="22.474812" lon="103.968864">
<ele>93.991272</ele>
<time>2011-04-22T01:51:00Z</time>
<desc>lat.=22.474812, lon.=103.968864, Alt.=93.991272m. Speed=22.643999m/h.</desc>
<speed>6.290000</speed>
</trkpt>
<trkpt lat="22.474995" lon="103.968636">
<ele>91.502991</ele>
<time>2011-04-22T01:51:05Z</time>
<desc>lat.=22.474995, lon.=103.968636, Alt.=91.502991m. Speed=22.427999m/h.</desc>
<speed>6.230000</speed>
</trkpt>
<trkpt lat="22.475077" lon="103.968361">
<ele>91.629944</ele>
<time>2011-04-22T01:51:10Z</time>
<desc>lat.=22.475077, lon.=103.968361, Alt.=91.629944m. Speed=21.924000m/h.</desc>
<speed>6.090000</speed>
</trkpt>
<trkpt lat="22.475050" lon="103.968056">
<ele>91.090881</ele>
<time>2011-04-22T01:51:15Z</time>
<desc>lat.=22.475050, lon.=103.968056, Alt.=91.090881m. Speed=23.112000m/h.</desc>
<speed>6.420000</speed>
</trkpt>
<trkpt lat="22.475002" lon="103.967758">
<ele>90.239319</ele>
<time>2011-04-22T01:51:20Z</time>
<desc>lat.=22.475002, lon.=103.967758, Alt.=90.239319m. Speed=21.924000m/h.</desc>
<speed>6.090000</speed>
</trkpt>
<trkpt lat="22.474934" lon="103.967476">
<ele>89.688538</ele>
<time>2011-04-22T01:51:25Z</time>
<desc>lat.=22.474934, lon.=103.967476, Alt.=89.688538m. Speed=22.176001m/h.</desc>
<speed>6.160000</speed>
</trkpt>
<trkpt lat="22.474806" lon="103.967224">
<ele>89.219788</ele>
<time>2011-04-22T01:51:30Z</time>
<desc>lat.=22.474806, lon.=103.967224, Alt.=89.219788m. Speed=20.771999m/h.</desc>
<speed>5.770000</speed>
</trkpt>
<trkpt lat="22.474628" lon="103.967003">
<ele>90.045959</ele>
<time>2011-04-22T01:51:35Z</time>
<desc>lat.=22.474628, lon.=103.967003, Alt.=90.045959m. Speed=21.384001m/h.</desc>
<speed>5.940000</speed>
</trkpt>
<trkpt lat="22.474449" lon="103.966820">
<ele>90.264709</ele>
<time>2011-04-22T01:51:40Z</time>
<desc>lat.=22.474449, lon.=103.966820, Alt.=90.264709m. Speed=18.756001m/h.</desc>
<speed>5.210000</speed>
</trkpt>
<trkpt lat="22.474283" lon="103.966599">
<ele>90.704163</ele>
<time>2011-04-22T01:51:45Z</time>
<desc>lat.=22.474283, lon.=103.966599, Alt.=90.704163m. Speed=23.219999m/h.</desc>
<speed>6.450000</speed>
</trkpt>
<trkpt lat="22.474115" lon="103.966324">
<ele>90.012756</ele>
<time>2011-04-22T01:51:50Z</time>
<desc>lat.=22.474115, lon.=103.966324, Alt.=90.012756m. Speed=24.732000m/h.</desc>
<speed>6.870000</speed>
</trkpt>
<trkpt lat="22.473951" lon="103.966057">
<ele>89.383850</ele>
<time>2011-04-22T01:51:55Z</time>
<desc>lat.=22.473951, lon.=103.966057, Alt.=89.383850m. Speed=21.743999m/h.</desc>
<speed>6.040000</speed>
</trkpt>
<trkpt lat="22.473745" lon="103.965843">
<ele>88.454163</ele>
<time>2011-04-22T01:52:00Z</time>
<desc>lat.=22.473745, lon.=103.965843, Alt.=88.454163m. Speed=23.615999m/h.</desc>
<speed>6.560000</speed>
</trkpt>
<trkpt lat="22.473490" lon="103.965698">
<ele>87.897522</ele>
<time>2011-04-22T01:52:05Z</time>
<desc>lat.=22.473490, lon.=103.965698, Alt.=87.897522m. Speed=22.356001m/h.</desc>
<speed>6.210000</speed>
</trkpt>
<trkpt lat="22.473228" lon="103.965637">
<ele>88.280334</ele>
<time>2011-04-22T01:52:10Z</time>
<desc>lat.=22.473228, lon.=103.965637, Alt.=88.280334m. Speed=21.240000m/h.</desc>
<speed>5.900000</speed>
</trkpt>
<trkpt lat="22.472946" lon="103.965630">
<ele>87.922913</ele>
<time>2011-04-22T01:52:15Z</time>
<desc>lat.=22.472946, lon.=103.965630, Alt.=87.922913m. Speed=23.219999m/h.</desc>
<speed>6.450000</speed>
</trkpt>
<trkpt lat="22.472654" lon="103.965622">
<ele>87.688538</ele>
<time>2011-04-22T01:52:20Z</time>
<desc>lat.=22.472654, lon.=103.965622, Alt.=87.688538m. Speed=22.896000m/h.</desc>
<speed>6.360000</speed>
</trkpt>
<trkpt lat="22.472382" lon="103.965515">
<ele>87.565491</ele>
<time>2011-04-22T01:52:25Z</time>
<desc>lat.=22.472382, lon.=103.965515, Alt.=87.565491m. Speed=22.608000m/h.</desc>
<speed>6.280000</speed>
</trkpt>
<trkpt lat="22.472191" lon="103.965317">
<ele>87.129944</ele>
<time>2011-04-22T01:52:30Z</time>
<desc>lat.=22.472191, lon.=103.965317, Alt.=87.129944m. Speed=21.096001m/h.</desc>
<speed>5.860000</speed>
</trkpt>
<trkpt lat="22.472048" lon="103.965080">
<ele>87.313538</ele>
<time>2011-04-22T01:52:35Z</time>
<desc>lat.=22.472048, lon.=103.965080, Alt.=87.313538m. Speed=21.384001m/h.</desc>
<speed>5.940000</speed>
</trkpt>
<trkpt lat="22.471893" lon="103.964844">
<ele>87.249084</ele>
<time>2011-04-22T01:52:40Z</time>
<desc>lat.=22.471893, lon.=103.964844, Alt.=87.249084m. Speed=21.708000m/h.</desc>
<speed>6.030000</speed>
</trkpt>
<trkpt lat="22.471706" lon="103.964630">
<ele>87.102600</ele>
<time>2011-04-22T01:52:45Z</time>
<desc>lat.=22.471706, lon.=103.964630, Alt.=87.102600m. Speed=21.384001m/h.</desc>
<speed>5.940000</speed>
</trkpt>
<trkpt lat="22.471508" lon="103.964432">
<ele>87.342834</ele>
<time>2011-04-22T01:52:50Z</time>
<desc>lat.=22.471508, lon.=103.964432, Alt.=87.342834m. Speed=21.096001m/h.</desc>
<speed>5.860000</speed>
</trkpt>
<trkpt lat="22.471333" lon="103.964241">
<ele>88.313538</ele>
<time>2011-04-22T01:52:55Z</time>
<desc>lat.=22.471333, lon.=103.964241, Alt.=88.313538m. Speed=18.108000m/h.</desc>
<speed>5.030000</speed>
</trkpt>
<trkpt lat="22.471186" lon="103.964096">
<ele>89.030334</ele>
<time>2011-04-22T01:53:00Z</time>
<desc>lat.=22.471186, lon.=103.964096, Alt.=89.030334m. Speed=15.444000m/h.</desc>
<speed>4.290000</speed>
</trkpt>
<trkpt lat="22.471043" lon="103.963966">
<ele>89.942444</ele>
<time>2011-04-22T01:53:05Z</time>
<desc>lat.=22.471043, lon.=103.963966, Alt.=89.942444m. Speed=13.428000m/h.</desc>
<speed>3.730000</speed>
</trkpt>
<trkpt lat="22.470886" lon="103.963882">
<ele>90.700256</ele>
<time>2011-04-22T01:53:10Z</time>
<desc>lat.=22.470886, lon.=103.963882, Alt.=90.700256m. Speed=15.480000m/h.</desc>
<speed>4.300000</speed>
</trkpt>
<trkpt lat="22.470676" lon="103.963821">
<ele>91.370178</ele>
<time>2011-04-22T01:53:15Z</time>
<desc>lat.=22.470676, lon.=103.963821, Alt.=91.370178m. Speed=17.388000m/h.</desc>
<speed>4.830000</speed>
</trkpt>
<trkpt lat="22.470470" lon="103.963753">
<ele>92.088928</ele>
<time>2011-04-22T01:53:20Z</time>
<desc>lat.=22.470470, lon.=103.963753, Alt.=92.088928m. Speed=17.028000m/h.</desc>
<speed>4.730000</speed>
</trkpt>
<trkpt lat="22.470293" lon="103.963600">
<ele>92.528381</ele>
<time>2011-04-22T01:53:25Z</time>
<desc>lat.=22.470293, lon.=103.963600, Alt.=92.528381m. Speed=18.288000m/h.</desc>
<speed>5.080000</speed>
</trkpt>
<trkpt lat="22.470156" lon="103.963371">
<ele>92.284241</ele>
<time>2011-04-22T01:53:30Z</time>
<desc>lat.=22.470156, lon.=103.963371, Alt.=92.284241m. Speed=22.680000m/h.</desc>
<speed>6.300000</speed>
</trkpt>
<trkpt lat="22.469994" lon="103.963066">
<ele>91.223694</ele>
<time>2011-04-22T01:53:35Z</time>
<desc>lat.=22.469994, lon.=103.963066, Alt.=91.223694m. Speed=27.827999m/h.</desc>
<speed>7.730000</speed>
</trkpt>
<trkpt lat="22.469812" lon="103.962723">
<ele>89.676819</ele>
<time>2011-04-22T01:53:40Z</time>
<desc>lat.=22.469812, lon.=103.962723, Alt.=89.676819m. Speed=29.988001m/h.</desc>
<speed>8.330000</speed>
</trkpt>
<trkpt lat="22.469629" lon="103.962364">
<ele>87.426819</ele>
<time>2011-04-22T01:53:45Z</time>
<desc>lat.=22.469629, lon.=103.962364, Alt.=87.426819m. Speed=31.284000m/h.</desc>
<speed>8.690000</speed>
</trkpt>
<trkpt lat="22.469435" lon="103.961990">
<ele>86.608459</ele>
<time>2011-04-22T01:53:50Z</time>
<desc>lat.=22.469435, lon.=103.961990, Alt.=86.608459m. Speed=31.823999m/h.</desc>
<speed>8.840000</speed>
</trkpt>
<trkpt lat="22.469173" lon="103.961700">
<ele>87.247131</ele>
<time>2011-04-22T01:53:55Z</time>
<desc>lat.=22.469173, lon.=103.961700, Alt.=87.247131m. Speed=27.576000m/h.</desc>
<speed>7.660000</speed>
</trkpt>
<trkpt lat="22.468870" lon="103.961601">
<ele>87.835022</ele>
<time>2011-04-22T01:54:00Z</time>
<desc>lat.=22.468870, lon.=103.961601, Alt.=87.835022m. Speed=24.408001m/h.</desc>
<speed>6.780000</speed>
</trkpt>
<trkpt lat="22.468582" lon="103.961647">
<ele>87.704163</ele>
<time>2011-04-22T01:54:05Z</time>
<desc>lat.=22.468582, lon.=103.961647, Alt.=87.704163m. Speed=22.643999m/h.</desc>
<speed>6.290000</speed>
</trkpt>
<trkpt lat="22.468321" lon="103.961792">
<ele>88.823303</ele>
<time>2011-04-22T01:54:10Z</time>
<desc>lat.=22.468321, lon.=103.961792, Alt.=88.823303m. Speed=23.292000m/h.</desc>
<speed>6.470000</speed>
</trkpt>
<trkpt lat="22.468107" lon="103.961990">
<ele>89.131897</ele>
<time>2011-04-22T01:54:15Z</time>
<desc>lat.=22.468107, lon.=103.961990, Alt.=89.131897m. Speed=20.664000m/h.</desc>
<speed>5.740000</speed>
</trkpt>
<trkpt lat="22.467932" lon="103.962181">
<ele>89.469788</ele>
<time>2011-04-22T01:54:20Z</time>
<desc>lat.=22.467932, lon.=103.962181, Alt.=89.469788m. Speed=19.620001m/h.</desc>
<speed>5.450000</speed>
</trkpt>
<trkpt lat="22.467756" lon="103.962372">
<ele>89.440491</ele>
<time>2011-04-22T01:54:25Z</time>
<desc>lat.=22.467756, lon.=103.962372, Alt.=89.440491m. Speed=20.628000m/h.</desc>
<speed>5.730000</speed>
</trkpt>
<trkpt lat="22.467588" lon="103.962585">
<ele>88.961975</ele>
<time>2011-04-22T01:54:30Z</time>
<desc>lat.=22.467588, lon.=103.962585, Alt.=88.961975m. Speed=21.024000m/h.</desc>
<speed>5.840000</speed>
</trkpt>
<trkpt lat="22.467449" lon="103.962845">
<ele>88.417053</ele>
<time>2011-04-22T01:54:35Z</time>
<desc>lat.=22.467449, lon.=103.962845, Alt.=88.417053m. Speed=23.760000m/h.</desc>
<speed>6.600000</speed>
</trkpt>
<trkpt lat="22.467321" lon="103.963142">
<ele>88.922913</ele>
<time>2011-04-22T01:54:40Z</time>
<desc>lat.=22.467321, lon.=103.963142, Alt.=88.922913m. Speed=23.472000m/h.</desc>
<speed>6.520000</speed>
</trkpt>
<trkpt lat="22.467173" lon="103.963387">
<ele>90.335022</ele>
<time>2011-04-22T01:54:45Z</time>
<desc>lat.=22.467173, lon.=103.963387, Alt.=90.335022m. Speed=19.764000m/h.</desc>
<speed>5.490000</speed>
</trkpt>
<trkpt lat="22.466980" lon="103.963547">
<ele>90.268616</ele>
<time>2011-04-22T01:54:50Z</time>
<desc>lat.=22.466980, lon.=103.963547, Alt.=90.268616m. Speed=19.511999m/h.</desc>
<speed>5.420000</speed>
</trkpt>
<trkpt lat="22.466763" lon="103.963676">
<ele>89.561584</ele>
<time>2011-04-22T01:54:55Z</time>
<desc>lat.=22.466763, lon.=103.963676, Alt.=89.561584m. Speed=20.591999m/h.</desc>
<speed>5.720000</speed>
</trkpt>
<trkpt lat="22.466503" lon="103.963707">
<ele>89.719788</ele>
<time>2011-04-22T01:55:00Z</time>
<desc>lat.=22.466503, lon.=103.963707, Alt.=89.719788m. Speed=21.348000m/h.</desc>
<speed>5.930000</speed>
</trkpt>
<trkpt lat="22.466297" lon="103.963554">
<ele>90.842834</ele>
<time>2011-04-22T01:55:05Z</time>
<desc>lat.=22.466297, lon.=103.963554, Alt.=90.842834m. Speed=20.052000m/h.</desc>
<speed>5.570000</speed>
</trkpt>
<trkpt lat="22.466185" lon="103.963310">
<ele>90.950256</ele>
<time>2011-04-22T01:55:10Z</time>
<desc>lat.=22.466185, lon.=103.963310, Alt.=90.950256m. Speed=21.384001m/h.</desc>
<speed>5.940000</speed>
</trkpt>
<trkpt lat="22.466066" lon="103.963036">
<ele>89.899475</ele>
<time>2011-04-22T01:55:15Z</time>
<desc>lat.=22.466066, lon.=103.963036, Alt.=89.899475m. Speed=23.004000m/h.</desc>
<speed>6.390000</speed>
</trkpt>
<trkpt lat="22.465885" lon="103.962791">
<ele>90.469788</ele>
<time>2011-04-22T01:55:20Z</time>
<desc>lat.=22.465885, lon.=103.962791, Alt.=90.469788m. Speed=23.004000m/h.</desc>
<speed>6.390000</speed>
</trkpt>
<trkpt lat="22.465675" lon="103.962608">
<ele>90.704163</ele>
<time>2011-04-22T01:55:25Z</time>
<desc>lat.=22.465675, lon.=103.962608, Alt.=90.704163m. Speed=20.160000m/h.</desc>
<speed>5.600000</speed>
</trkpt>
<trkpt lat="22.465477" lon="103.962463">
<ele>91.135803</ele>
<time>2011-04-22T01:55:30Z</time>
<desc>lat.=22.465477, lon.=103.962463, Alt.=91.135803m. Speed=18.900000m/h.</desc>
<speed>5.250000</speed>
</trkpt>
<trkpt lat="22.465281" lon="103.962311">
<ele>92.260803</ele>
<time>2011-04-22T01:55:35Z</time>
<desc>lat.=22.465281, lon.=103.962311, Alt.=92.260803m. Speed=18.431999m/h.</desc>
<speed>5.120000</speed>
</trkpt>
<trkpt lat="22.465120" lon="103.962196">
<ele>93.188538</ele>
<time>2011-04-22T01:55:40Z</time>
<desc>lat.=22.465120, lon.=103.962196, Alt.=93.188538m. Speed=13.500000m/h.</desc>
<speed>3.750000</speed>
</trkpt>
<trkpt lat="22.464972" lon="103.962082">
<ele>94.061584</ele>
<time>2011-04-22T01:55:45Z</time>
<desc>lat.=22.464972, lon.=103.962082, Alt.=94.061584m. Speed=16.452000m/h.</desc>
<speed>4.570000</speed>
</trkpt>
<trkpt lat="22.464800" lon="103.961929">
<ele>93.303772</ele>
<time>2011-04-22T01:55:50Z</time>
<desc>lat.=22.464800, lon.=103.961929, Alt.=93.303772m. Speed=16.379999m/h.</desc>
<speed>4.550000</speed>
</trkpt>
<trkpt lat="22.464676" lon="103.961823">
<ele>91.846741</ele>
<time>2011-04-22T01:55:55Z</time>
<desc>lat.=22.464676, lon.=103.961823, Alt.=91.846741m. Speed=5.976000m/h.</desc>
<speed>1.660000</speed>
</trkpt>
<trkpt lat="22.464619" lon="103.961807">
<ele>91.243225</ele>
<time>2011-04-22T01:56:00Z</time>
<desc>lat.=22.464619, lon.=103.961807, Alt.=91.243225m. Speed=5.796000m/h.</desc>
<speed>1.610000</speed>
</trkpt>
<trkpt lat="22.464594" lon="103.961823">
<ele>91.106506</ele>
<time>2011-04-22T01:56:05Z</time>
<desc>lat.=22.464594, lon.=103.961823, Alt.=91.106506m. Speed=0.972000m/h.</desc>
<speed>0.270000</speed>
</trkpt>
<trkpt lat="22.464596" lon="103.961830">
<ele>91.137756</ele>
<time>2011-04-22T01:56:10Z</time>
<desc>lat.=22.464596, lon.=103.961830, Alt.=91.137756m. Speed=0.072000m/h.</desc>
<speed>0.020000</speed>
</trkpt>
<trkpt lat="22.464596" lon="103.961830">
<ele>91.143616</ele>
<time>2011-04-22T01:56:15Z</time>
<desc>lat.=22.464596, lon.=103.961830, Alt.=91.143616m. Speed=0.252000m/h.</desc>
<speed>0.070000</speed>
</trkpt>
<trkpt lat="22.464596" lon="103.961830">
<ele>91.159241</ele>
<time>2011-04-22T01:56:20Z</time>
<desc>lat.=22.464596, lon.=103.961830, Alt.=91.159241m. Speed=0.252000m/h.</desc>
<speed>0.070000</speed>
</trkpt>
<trkpt lat="22.464596" lon="103.961823">
<ele>91.157288</ele>
<time>2011-04-22T01:56:25Z</time>
<desc>lat.=22.464596, lon.=103.961823, Alt.=91.157288m. Speed=0.360000m/h.</desc>
<speed>0.100000</speed>
</trkpt>
<trkpt lat="22.464594" lon="103.961823">
<ele>91.147522</ele>
<time>2011-04-22T01:56:30Z</time>
<desc>lat.=22.464594, lon.=103.961823, Alt.=91.147522m. Speed=0.540000m/h.</desc>
<speed>0.150000</speed>
</trkpt>
<trkpt lat="22.464590" lon="103.961815">
<ele>91.139709</ele>
<time>2011-04-22T01:56:35Z</time>
<desc>lat.=22.464590, lon.=103.961815, Alt.=91.139709m. Speed=0.216000m/h.</desc>
<speed>0.060000</speed>
</trkpt>
<trkpt lat="22.464590" lon="103.961823">
<ele>91.161194</ele>
<time>2011-04-22T01:56:40Z</time>
<desc>lat.=22.464590, lon.=103.961823, Alt.=91.161194m. Speed=0.504000m/h.</desc>
<speed>0.140000</speed>
</trkpt>
<trkpt lat="22.464588" lon="103.961823">
<ele>91.202209</ele>
<time>2011-04-22T01:56:45Z</time>
<desc>lat.=22.464588, lon.=103.961823, Alt.=91.202209m. Speed=0.288000m/h.</desc>
<speed>0.080000</speed>
</trkpt>
<trkpt lat="22.464590" lon="103.961823">
<ele>91.241272</ele>
<time>2011-04-22T01:56:50Z</time>
<desc>lat.=22.464590, lon.=103.961823, Alt.=91.241272m. Speed=0.108000m/h.</desc>
<speed>0.030000</speed>
</trkpt>
<trkpt lat="22.464590" lon="103.961823">
<ele>91.237366</ele>
<time>2011-04-22T01:56:55Z</time>
<desc>lat.=22.464590, lon.=103.961823, Alt.=91.237366m. Speed=0.000000m/h.</desc>
<speed>0.000000</speed>
</trkpt>
<trkpt lat="22.464590" lon="103.961823">
<ele>91.235413</ele>
<time>2011-04-22T01:57:00Z</time>
<desc>lat.=22.464590, lon.=103.961823, Alt.=91.235413m. Speed=0.000000m/h.</desc>
<speed>0.000000</speed>
</trkpt>
<trkpt lat="22.464598" lon="103.961823">
<ele>91.249084</ele>
<time>2011-04-22T01:57:05Z</time>
<desc>lat.=22.464598, lon.=103.961823, Alt.=91.249084m. Speed=0.828000m/h.</desc>
<speed>0.230000</speed>
</trkpt>
<trkpt lat="22.464603" lon="103.961823">
<ele>90.221741</ele>
<time>2011-04-22T01:57:10Z</time>
<desc>lat.=22.464603, lon.=103.961823, Alt.=90.221741m. Speed=2.124000m/h.</desc>
<speed>0.590000</speed>
</trkpt>
<trkpt lat="22.464600" lon="103.961830">
<ele>89.786194</ele>
<time>2011-04-22T01:57:15Z</time>
<desc>lat.=22.464600, lon.=103.961830, Alt.=89.786194m. Speed=1.656000m/h.</desc>
<speed>0.460000</speed>
</trkpt>
<trkpt lat="22.464586" lon="103.961815">
<ele>89.512756</ele>
<time>2011-04-22T01:57:20Z</time>
<desc>lat.=22.464586, lon.=103.961815, Alt.=89.512756m. Speed=0.180000m/h.</desc>
<speed>0.050000</speed>
</trkpt>
<trkpt lat="22.464586" lon="103.961815">
<ele>89.348694</ele>
<time>2011-04-22T01:57:25Z</time>
<desc>lat.=22.464586, lon.=103.961815, Alt.=89.348694m. Speed=0.072000m/h.</desc>
<speed>0.020000</speed>
</trkpt>
<trkpt lat="22.464563" lon="103.961754">
<ele>89.264709</ele>
<time>2011-04-22T01:57:30Z</time>
<desc>lat.=22.464563, lon.=103.961754, Alt.=89.264709m. Speed=10.656000m/h.</desc>
<speed>2.960000</speed>
</trkpt>
<trkpt lat="22.464388" lon="103.961662">
<ele>88.555725</ele>
<time>2011-04-22T01:57:35Z</time>
<desc>lat.=22.464388, lon.=103.961662, Alt.=88.555725m. Speed=20.160000m/h.</desc>
<speed>5.600000</speed>
</trkpt>
<trkpt lat="22.464062" lon="103.961647">
<ele>86.622131</ele>
<time>2011-04-22T01:57:40Z</time>
<desc>lat.=22.464062, lon.=103.961647, Alt.=86.622131m. Speed=28.872000m/h.</desc>
<speed>8.020000</speed>
</trkpt>
<trkpt lat="22.463684" lon="103.961708">
<ele>86.204163</ele>
<time>2011-04-22T01:57:45Z</time>
<desc>lat.=22.463684, lon.=103.961708, Alt.=86.204163m. Speed=30.132000m/h.</desc>
<speed>8.370000</speed>
</trkpt>
<trkpt lat="22.463312" lon="103.961777">
<ele>86.782288</ele>
<time>2011-04-22T01:57:50Z</time>
<desc>lat.=22.463312, lon.=103.961777, Alt.=86.782288m. Speed=29.952000m/h.</desc>
<speed>8.320000</speed>
</trkpt>
<trkpt lat="22.462946" lon="103.961884">
<ele>87.954163</ele>
<time>2011-04-22T01:57:55Z</time>
<desc>lat.=22.462946, lon.=103.961884, Alt.=87.954163m. Speed=30.059999m/h.</desc>
<speed>8.350000</speed>
</trkpt>
<trkpt lat="22.462593" lon="103.962021">
<ele>88.542053</ele>
<time>2011-04-22T01:58:00Z</time>
<desc>lat.=22.462593, lon.=103.962021, Alt.=88.542053m. Speed=30.204000m/h.</desc>
<speed>8.390000</speed>
</trkpt>
<trkpt lat="22.462225" lon="103.962151">
<ele>89.633850</ele>
<time>2011-04-22T01:58:05Z</time>
<desc>lat.=22.462225, lon.=103.962151, Alt.=89.633850m. Speed=30.959999m/h.</desc>
<speed>8.600000</speed>
</trkpt>
<trkpt lat="22.461885" lon="103.962334">
<ele>90.210022</ele>
<time>2011-04-22T01:58:10Z</time>
<desc>lat.=22.461885, lon.=103.962334, Alt.=90.210022m. Speed=30.348000m/h.</desc>
<speed>8.430000</speed>
</trkpt>
<trkpt lat="22.461576" lon="103.962563">
<ele>90.784241</ele>
<time>2011-04-22T01:58:15Z</time>
<desc>lat.=22.461576, lon.=103.962563, Alt.=90.784241m. Speed=28.332001m/h.</desc>
<speed>7.870000</speed>
</trkpt>
<trkpt lat="22.461298" lon="103.962723">
<ele>92.278381</ele>
<time>2011-04-22T01:58:20Z</time>
<desc>lat.=22.461298, lon.=103.962723, Alt.=92.278381m. Speed=22.212000m/h.</desc>
<speed>6.170000</speed>
</trkpt>
<trkpt lat="22.461054" lon="103.962685">
<ele>93.069397</ele>
<time>2011-04-22T01:58:25Z</time>
<desc>lat.=22.461054, lon.=103.962685, Alt.=93.069397m. Speed=18.936001m/h.</desc>
<speed>5.260000</speed>
</trkpt>
<trkpt lat="22.460886" lon="103.962540">
<ele>94.655334</ele>
<time>2011-04-22T01:58:30Z</time>
<desc>lat.=22.460886, lon.=103.962540, Alt.=94.655334m. Speed=16.812000m/h.</desc>
<speed>4.670000</speed>
</trkpt>
<trkpt lat="22.460743" lon="103.962387">
<ele>96.430725</ele>
<time>2011-04-22T01:58:35Z</time>
<desc>lat.=22.460743, lon.=103.962387, Alt.=96.430725m. Speed=16.596001m/h.</desc>
<speed>4.610000</speed>
</trkpt>
<trkpt lat="22.460606" lon="103.962242">
<ele>97.356506</ele>
<time>2011-04-22T01:58:40Z</time>
<desc>lat.=22.460606, lon.=103.962242, Alt.=97.356506m. Speed=14.256000m/h.</desc>
<speed>3.960000</speed>
</trkpt>
<trkpt lat="22.460455" lon="103.962151">
<ele>97.819397</ele>
<time>2011-04-22T01:58:45Z</time>
<desc>lat.=22.460455, lon.=103.962151, Alt.=97.819397m. Speed=12.780000m/h.</desc>
<speed>3.550000</speed>
</trkpt>
<trkpt lat="22.460302" lon="103.962090">
<ele>98.840881</ele>
<time>2011-04-22T01:58:50Z</time>
<desc>lat.=22.460302, lon.=103.962090, Alt.=98.840881m. Speed=12.060000m/h.</desc>
<speed>3.350000</speed>
</trkpt>
<trkpt lat="22.460165" lon="103.962029">
<ele>98.766663</ele>
<time>2011-04-22T01:58:55Z</time>
<desc>lat.=22.460165, lon.=103.962029, Alt.=98.766663m. Speed=12.276000m/h.</desc>
<speed>3.410000</speed>
</trkpt>
<trkpt lat="22.460032" lon="103.961937">
<ele>98.938538</ele>
<time>2011-04-22T01:59:00Z</time>
<desc>lat.=22.460032, lon.=103.961937, Alt.=98.938538m. Speed=12.492000m/h.</desc>
<speed>3.470000</speed>
</trkpt>
<trkpt lat="22.459909" lon="103.961800">
<ele>98.526428</ele>
<time>2011-04-22T01:59:05Z</time>
<desc>lat.=22.459909, lon.=103.961800, Alt.=98.526428m. Speed=16.704000m/h.</desc>
<speed>4.640000</speed>
</trkpt>
<trkpt lat="22.459793" lon="103.961571">
<ele>97.260803</ele>
<time>2011-04-22T01:59:10Z</time>
<desc>lat.=22.459793, lon.=103.961571, Alt.=97.260803m. Speed=21.312000m/h.</desc>
<speed>5.920000</speed>
</trkpt>
<trkpt lat="22.459681" lon="103.961273">
<ele>95.397522</ele>
<time>2011-04-22T01:59:15Z</time>
<desc>lat.=22.459681, lon.=103.961273, Alt.=95.397522m. Speed=24.587999m/h.</desc>
<speed>6.830000</speed>
</trkpt>
<trkpt lat="22.459518" lon="103.960991">
<ele>94.360413</ele>
<time>2011-04-22T01:59:20Z</time>
<desc>lat.=22.459518, lon.=103.960991, Alt.=94.360413m. Speed=25.452000m/h.</desc>
<speed>7.070000</speed>
</trkpt>
<trkpt lat="22.459253" lon="103.960800">
<ele>94.252991</ele>
<time>2011-04-22T01:59:25Z</time>
<desc>lat.=22.459253, lon.=103.960800, Alt.=94.252991m. Speed=25.632000m/h.</desc>
<speed>7.120000</speed>
</trkpt>
<trkpt lat="22.458981" lon="103.960609">
<ele>93.210022</ele>
<time>2011-04-22T01:59:30Z</time>
<desc>lat.=22.458981, lon.=103.960609, Alt.=93.210022m. Speed=26.532000m/h.</desc>
<speed>7.370000</speed>
</trkpt>
<trkpt lat="22.458757" lon="103.960335">
<ele>91.409241</ele>
<time>2011-04-22T01:59:35Z</time>
<desc>lat.=22.458757, lon.=103.960335, Alt.=91.409241m. Speed=22.896000m/h.</desc>
<speed>6.360000</speed>
</trkpt>
<trkpt lat="22.458670" lon="103.960144">
<ele>90.833069</ele>
<time>2011-04-22T01:59:40Z</time>
<desc>lat.=22.458670, lon.=103.960144, Alt.=90.833069m. Speed=12.492000m/h.</desc>
<speed>3.470000</speed>
</trkpt>
<trkpt lat="22.458637" lon="103.960037">
<ele>90.862366</ele>
<time>2011-04-22T01:59:45Z</time>
<desc>lat.=22.458637, lon.=103.960037, Alt.=90.862366m. Speed=9.792000m/h.</desc>
<speed>2.720000</speed>
</trkpt>
<trkpt lat="22.458601" lon="103.959892">
<ele>90.501038</ele>
<time>2011-04-22T01:59:50Z</time>
<desc>lat.=22.458601, lon.=103.959892, Alt.=90.501038m. Speed=12.672000m/h.</desc>
<speed>3.520000</speed>
</trkpt>
<trkpt lat="22.458548" lon="103.959717">
<ele>89.981506</ele>
<time>2011-04-22T01:59:55Z</time>
<desc>lat.=22.458548, lon.=103.959717, Alt.=89.981506m. Speed=14.328000m/h.</desc>
<speed>3.980000</speed>
</trkpt>
<trkpt lat="22.458511" lon="103.959541">
<ele>89.137756</ele>
<time>2011-04-22T02:00:00Z</time>
<desc>lat.=22.458511, lon.=103.959541, Alt.=89.137756m. Speed=11.232000m/h.</desc>
<speed>3.120000</speed>
</trkpt>
<trkpt lat="22.458464" lon="103.959465">
<ele>88.563538</ele>
<time>2011-04-22T02:00:05Z</time>
<desc>lat.=22.458464, lon.=103.959465, Alt.=88.563538m. Speed=4.464000m/h.</desc>
<speed>1.240000</speed>
</trkpt>
<trkpt lat="22.458448" lon="103.959442">
<ele>89.260803</ele>
<time>2011-04-22T02:00:10Z</time>
<desc>lat.=22.458448, lon.=103.959442, Alt.=89.260803m. Speed=0.468000m/h.</desc>
<speed>0.130000</speed>
</trkpt>
<trkpt lat="22.458450" lon="103.959442">
<ele>89.350647</ele>
<time>2011-04-22T02:00:15Z</time>
<desc>lat.=22.458450, lon.=103.959442, Alt.=89.350647m. Speed=0.432000m/h.</desc>
<speed>0.120000</speed>
</trkpt>
<trkpt lat="22.458450" lon="103.959435">
<ele>89.321350</ele>
<time>2011-04-22T02:00:20Z</time>
<desc>lat.=22.458450, lon.=103.959435, Alt.=89.321350m. Speed=0.180000m/h.</desc>
<speed>0.050000</speed>
</trkpt>
<trkpt lat="22.458447" lon="103.959427">
<ele>89.305725</ele>
<time>2011-04-22T02:00:25Z</time>
<desc>lat.=22.458447, lon.=103.959427, Alt.=89.305725m. Speed=0.216000m/h.</desc>
<speed>0.060000</speed>
</trkpt>
<trkpt lat="22.458441" lon="103.959419">
<ele>89.379944</ele>
<time>2011-04-22T02:00:30Z</time>
<desc>lat.=22.458441, lon.=103.959419, Alt.=89.379944m. Speed=0.144000m/h.</desc>
<speed>0.040000</speed>
</trkpt>
<trkpt lat="22.458441" lon="103.959419">
<ele>89.415100</ele>
<time>2011-04-22T02:00:35Z</time>
<desc>lat.=22.458441, lon.=103.959419, Alt.=89.415100m. Speed=0.144000m/h.</desc>
<speed>0.040000</speed>
</trkpt>
<trkpt lat="22.458441" lon="103.959419">
<ele>89.368225</ele>
<time>2011-04-22T02:00:40Z</time>
<desc>lat.=22.458441, lon.=103.959419, Alt.=89.368225m. Speed=0.036000m/h.</desc>
<speed>0.010000</speed>
</trkpt>
<trkpt lat="22.458441" lon="103.959419">
<ele>89.284241</ele>
<time>2011-04-22T02:00:45Z</time>
<desc>lat.=22.458441, lon.=103.959419, Alt.=89.284241m. Speed=0.036000m/h.</desc>
<speed>0.010000</speed>
</trkpt>
<trkpt lat="22.458441" lon="103.959419">
<ele>89.276428</ele>
<time>2011-04-22T02:00:50Z</time>
<desc>lat.=22.458441, lon.=103.959419, Alt.=89.276428m. Speed=0.036000m/h.</desc>
<speed>0.010000</speed>
</trkpt>
<trkpt lat="22.458443" lon="103.959419">
<ele>89.215881</ele>
<time>2011-04-22T02:00:55Z</time>
<desc>lat.=22.458443, lon.=103.959419, Alt.=89.215881m. Speed=0.036000m/h.</desc>
<speed>0.010000</speed>
</trkpt>
<trkpt lat="22.458443" lon="103.959419">
<ele>89.221741</ele>
<time>2011-04-22T02:01:00Z</time>
<desc>lat.=22.458443, lon.=103.959419, Alt.=89.221741m. Speed=0.036000m/h.</desc>
<speed>0.010000</speed>
</trkpt>
<trkpt lat="22.458443" lon="103.959419">
<ele>89.196350</ele>
<time>2011-04-22T02:01:05Z</time>
<desc>lat.=22.458443, lon.=103.959419, Alt.=89.196350m. Speed=0.000000m/h.</desc>
<speed>0.000000</speed>
</trkpt>
<trkpt lat="22.458445" lon="103.959419">
<ele>89.174866</ele>
<time>2011-04-22T02:01:10Z</time>
<desc>lat.=22.458445, lon.=103.959419, Alt.=89.174866m. Speed=0.036000m/h.</desc>
<speed>0.010000</speed>
</trkpt>
<trkpt lat="22.458445" lon="103.959419">
<ele>89.151428</ele>
<time>2011-04-22T02:01:15Z</time>
<desc>lat.=22.458445, lon.=103.959419, Alt.=89.151428m. Speed=0.000000m/h.</desc>
<speed>0.000000</speed>
</trkpt>
<trkpt lat="22.458445" lon="103.959419">
<ele>89.133850</ele>
<time>2011-04-22T02:01:20Z</time>
<desc>lat.=22.458445, lon.=103.959419, Alt.=89.133850m. Speed=0.000000m/h.</desc>
<speed>0.000000</speed>
</trkpt>
<trkpt lat="22.458445" lon="103.959419">
<ele>89.135803</ele>
<time>2011-04-22T02:01:25Z</time>
<desc>lat.=22.458445, lon.=103.959419, Alt.=89.135803m. Speed=0.036000m/h.</desc>
<speed>0.010000</speed>
</trkpt>
<trkpt lat="22.458445" lon="103.959419">
<ele>89.145569</ele>
<time>2011-04-22T02:01:30Z</time>
<desc>lat.=22.458445, lon.=103.959419, Alt.=89.145569m. Speed=0.000000m/h.</desc>
<speed>0.000000</speed>
</trkpt>
<trkpt lat="22.458445" lon="103.959419">
<ele>89.159241</ele>
<time>2011-04-22T02:01:35Z</time>
<desc>lat.=22.458445, lon.=103.959419, Alt.=89.159241m. Speed=0.000000m/h.</desc>
<speed>0.000000</speed>
</trkpt>
<trkpt lat="22.458445" lon="103.959419">
<ele>89.174866</ele>
<time>2011-04-22T02:01:40Z</time>
<desc>lat.=22.458445, lon.=103.959419, Alt.=89.174866m. Speed=0.144000m/h.</desc>
<speed>0.040000</speed>
</trkpt>
<trkpt lat="22.458445" lon="103.959419">
<ele>89.178772</ele>
<time>2011-04-22T02:01:45Z</time>
<desc>lat.=22.458445, lon.=103.959419, Alt.=89.178772m. Speed=0.036000m/h.</desc>
<speed>0.010000</speed>
</trkpt>
<trkpt lat="22.458445" lon="103.959419">
<ele>89.180725</ele>
<time>2011-04-22T02:01:50Z</time>
<desc>lat.=22.458445, lon.=103.959419, Alt.=89.180725m. Speed=0.252000m/h.</desc>
<speed>0.070000</speed>
</trkpt>
<trkpt lat="22.458445" lon="103.959419">
<ele>89.174866</ele>
<time>2011-04-22T02:01:55Z</time>
<desc>lat.=22.458445, lon.=103.959419, Alt.=89.174866m. Speed=0.036000m/h.</desc>
<speed>0.010000</speed>
</trkpt>
<trkpt lat="22.458445" lon="103.959419">
<ele>89.169006</ele>
<time>2011-04-22T02:02:00Z</time>
<desc>lat.=22.458445, lon.=103.959419, Alt.=89.169006m. Speed=0.036000m/h.</desc>
<speed>0.010000</speed>
</trkpt>
<trkpt lat="22.458445" lon="103.959419">
<ele>89.178772</ele>
<time>2011-04-22T02:02:05Z</time>
<desc>lat.=22.458445, lon.=103.959419, Alt.=89.178772m. Speed=0.036000m/h.</desc>
<speed>0.010000</speed>
</trkpt>
<trkpt lat="22.458445" lon="103.959419">
<ele>89.167053</ele>
<time>2011-04-22T02:02:10Z</time>
<desc>lat.=22.458445, lon.=103.959419, Alt.=89.167053m. Speed=0.180000m/h.</desc>
<speed>0.050000</speed>
</trkpt>
<trkpt lat="22.458447" lon="103.959419">
<ele>89.153381</ele>
<time>2011-04-22T02:02:15Z</time>
<desc>lat.=22.458447, lon.=103.959419, Alt.=89.153381m. Speed=0.036000m/h.</desc>
<speed>0.010000</speed>
</trkpt>
<trkpt lat="22.458447" lon="103.959419">
<ele>89.127991</ele>
<time>2011-04-22T02:02:20Z</time>
<desc>lat.=22.458447, lon.=103.959419, Alt.=89.127991m. Speed=0.036000m/h.</desc>
<speed>0.010000</speed>
</trkpt>
<trkpt lat="22.458447" lon="103.959419">
<ele>89.104553</ele>
<time>2011-04-22T02:02:25Z</time>
<desc>lat.=22.458447, lon.=103.959419, Alt.=89.104553m. Speed=0.036000m/h.</desc>
<speed>0.010000</speed>
</trkpt>
<trkpt lat="22.458447" lon="103.959419">
<ele>89.098694</ele>
<time>2011-04-22T02:02:30Z</time>
<desc>lat.=22.458447, lon.=103.959419, Alt.=89.098694m. Speed=0.000000m/h.</desc>
<speed>0.000000</speed>
</trkpt>
<trkpt lat="22.458447" lon="103.959419">
<ele>89.071350</ele>
<time>2011-04-22T02:02:35Z</time>
<desc>lat.=22.458447, lon.=103.959419, Alt.=89.071350m. Speed=0.000000m/h.</desc>
<speed>0.000000</speed>
</trkpt>
<trkpt lat="22.458447" lon="103.959419">
<ele>89.045959</ele>
<time>2011-04-22T02:02:40Z</time>
<desc>lat.=22.458447, lon.=103.959419, Alt.=89.045959m. Speed=0.036000m/h.</desc>
<speed>0.010000</speed>
</trkpt>
<trkpt lat="22.458447" lon="103.959419">
<ele>89.030334</ele>
<time>2011-04-22T02:02:45Z</time>
<desc>lat.=22.458447, lon.=103.959419, Alt.=89.030334m. Speed=0.000000m/h.</desc>
<speed>0.000000</speed>
</trkpt>
<trkpt lat="22.458447" lon="103.959419">
<ele>88.997131</ele>
<time>2011-04-22T02:02:50Z</time>
<desc>lat.=22.458447, lon.=103.959419, Alt.=88.997131m. Speed=0.000000m/h.</desc>
<speed>0.000000</speed>
</trkpt>
<trkpt lat="22.458447" lon="103.959419">
<ele>88.985413</ele>
<time>2011-04-22T02:02:55Z</time>
<desc>lat.=22.458447, lon.=103.959419, Alt.=88.985413m. Speed=0.000000m/h.</desc>
<speed>0.000000</speed>
</trkpt>
<trkpt lat="22.458447" lon="103.959419">
<ele>88.977600</ele>
<time>2011-04-22T02:03:00Z</time>
<desc>lat.=22.458447, lon.=103.959419, Alt.=88.977600m. Speed=0.036000m/h.</desc>
<speed>0.010000</speed>
</trkpt>
<trkpt lat="22.458447" lon="103.959419">
<ele>88.971741</ele>
<time>2011-04-22T02:03:05Z</time>
<desc>lat.=22.458447, lon.=103.959419, Alt.=88.971741m. Speed=0.000000m/h.</desc>
<speed>0.000000</speed>
</trkpt>
<trkpt lat="22.458448" lon="103.959419">
<ele>88.961975</ele>
<time>2011-04-22T02:03:10Z</time>
<desc>lat.=22.458448, lon.=103.959419, Alt.=88.961975m. Speed=0.000000m/h.</desc>
<speed>0.000000</speed>
</trkpt>
<trkpt lat="22.458448" lon="103.959419">
<ele>88.963928</ele>
<time>2011-04-22T02:03:15Z</time>
<desc>lat.=22.458448, lon.=103.959419, Alt.=88.963928m. Speed=0.036000m/h.</desc>
<speed>0.010000</speed>
</trkpt>
<trkpt lat="22.458448" lon="103.959427">
<ele>88.944397</ele>
<time>2011-04-22T02:03:20Z</time>
<desc>lat.=22.458448, lon.=103.959427, Alt.=88.944397m. Speed=0.036000m/h.</desc>
<speed>0.010000</speed>
</trkpt>
<trkpt lat="22.458448" lon="103.959427">
<ele>88.934631</ele>
<time>2011-04-22T02:03:25Z</time>
<desc>lat.=22.458448, lon.=103.959427, Alt.=88.934631m. Speed=0.000000m/h.</desc>
<speed>0.000000</speed>
</trkpt>
<trkpt lat="22.458448" lon="103.959427">
<ele>88.936584</ele>
<time>2011-04-22T02:03:30Z</time>
<desc>lat.=22.458448, lon.=103.959427, Alt.=88.936584m. Speed=0.000000m/h.</desc>
<speed>0.000000</speed>
</trkpt>
<trkpt lat="22.458448" lon="103.959427">
<ele>88.940491</ele>
<time>2011-04-22T02:03:35Z</time>
<desc>lat.=22.458448, lon.=103.959427, Alt.=88.940491m. Speed=0.036000m/h.</desc>
<speed>0.010000</speed>
</trkpt>
<trkpt lat="22.458448" lon="103.959427">
<ele>88.930725</ele>
<time>2011-04-22T02:03:40Z</time>
<desc>lat.=22.458448, lon.=103.959427, Alt.=88.930725m. Speed=0.000000m/h.</desc>
<speed>0.000000</speed>
</trkpt>
<trkpt lat="22.458448" lon="103.959427">
<ele>88.924866</ele>
<time>2011-04-22T02:03:45Z</time>
<desc>lat.=22.458448, lon.=103.959427, Alt.=88.924866m. Speed=0.072000m/h.</desc>
<speed>0.020000</speed>
</trkpt>
<trkpt lat="22.458448" lon="103.959427">
<ele>88.932678</ele>
<time>2011-04-22T02:03:50Z</time>
<desc>lat.=22.458448, lon.=103.959427, Alt.=88.932678m. Speed=0.000000m/h.</desc>
<speed>0.000000</speed>
</trkpt>
<trkpt lat="22.458448" lon="103.959427">
<ele>88.942444</ele>
<time>2011-04-22T02:03:55Z</time>
<desc>lat.=22.458448, lon.=103.959427, Alt.=88.942444m. Speed=0.000000m/h.</desc>
<speed>0.000000</speed>
</trkpt>
<trkpt lat="22.458448" lon="103.959427">
<ele>88.934631</ele>
<time>2011-04-22T02:04:00Z</time>
<desc>lat.=22.458448, lon.=103.959427, Alt.=88.934631m. Speed=0.036000m/h.</desc>
<speed>0.010000</speed>
</trkpt>
<trkpt lat="22.458448" lon="103.959427">
<ele>88.917053</ele>
<time>2011-04-22T02:04:05Z</time>
<desc>lat.=22.458448, lon.=103.959427, Alt.=88.917053m. Speed=0.000000m/h.</desc>
<speed>0.000000</speed>
</trkpt>
<trkpt lat="22.458448" lon="103.959427">
<ele>88.913147</ele>
<time>2011-04-22T02:04:10Z</time>
<desc>lat.=22.458448, lon.=103.959427, Alt.=88.913147m. Speed=0.432000m/h.</desc>
<speed>0.120000</speed>
</trkpt>
<trkpt lat="22.458435" lon="103.959373">
<ele>89.024475</ele>
<time>2011-04-22T02:04:15Z</time>
<desc>lat.=22.458435, lon.=103.959373, Alt.=89.024475m. Speed=7.380000m/h.</desc>
<speed>2.050000</speed>
</trkpt>
<trkpt lat="22.458420" lon="103.959229">
<ele>89.294006</ele>
<time>2011-04-22T02:04:20Z</time>
<desc>lat.=22.458420, lon.=103.959229, Alt.=89.294006m. Speed=15.156000m/h.</desc>
<speed>4.210000</speed>
</trkpt>
<trkpt lat="22.458319" lon="103.958992">
<ele>88.327209</ele>
<time>2011-04-22T02:04:25Z</time>
<desc>lat.=22.458319, lon.=103.958992, Alt.=88.327209m. Speed=18.827999m/h.</desc>
<speed>5.230000</speed>
</trkpt>
<trkpt lat="22.458223" lon="103.958763">
<ele>87.643616</ele>
<time>2011-04-22T02:04:30Z</time>
<desc>lat.=22.458223, lon.=103.958763, Alt.=87.643616m. Speed=15.516000m/h.</desc>
<speed>4.310000</speed>
</trkpt>
<trkpt lat="22.458155" lon="103.958603">
<ele>87.801819</ele>
<time>2011-04-22T02:04:35Z</time>
<desc>lat.=22.458155, lon.=103.958603, Alt.=87.801819m. Speed=11.160000m/h.</desc>
<speed>3.100000</speed>
</trkpt>
<trkpt lat="22.458096" lon="103.958458">
<ele>89.432678</ele>
<time>2011-04-22T02:04:40Z</time>
<desc>lat.=22.458096, lon.=103.958458, Alt.=89.432678m. Speed=13.572000m/h.</desc>
<speed>3.770000</speed>
</trkpt>
<trkpt lat="22.458023" lon="103.958282">
<ele>91.307678</ele>
<time>2011-04-22T02:04:45Z</time>
<desc>lat.=22.458023, lon.=103.958282, Alt.=91.307678m. Speed=11.880000m/h.</desc>
<speed>3.300000</speed>
</trkpt>
<trkpt lat="22.457970" lon="103.958138">
<ele>92.417053</ele>
<time>2011-04-22T02:04:50Z</time>
<desc>lat.=22.457970, lon.=103.958138, Alt.=92.417053m. Speed=11.268000m/h.</desc>
<speed>3.130000</speed>
</trkpt>
<trkpt lat="22.457907" lon="103.958000">
<ele>94.163147</ele>
<time>2011-04-22T02:04:55Z</time>
<desc>lat.=22.457907, lon.=103.958000, Alt.=94.163147m. Speed=12.240000m/h.</desc>
<speed>3.400000</speed>
</trkpt>
<trkpt lat="22.457819" lon="103.957848">
<ele>95.008850</ele>
<time>2011-04-22T02:05:00Z</time>
<desc>lat.=22.457819, lon.=103.957848, Alt.=95.008850m. Speed=13.644000m/h.</desc>
<speed>3.790000</speed>
</trkpt>
<trkpt lat="22.457676" lon="103.957733">
<ele>95.079163</ele>
<time>2011-04-22T02:05:05Z</time>
<desc>lat.=22.457676, lon.=103.957733, Alt.=95.079163m. Speed=14.976000m/h.</desc>
<speed>4.160000</speed>
</trkpt>
<trkpt lat="22.457502" lon="103.957634">
<ele>94.022522</ele>
<time>2011-04-22T02:05:10Z</time>
<desc>lat.=22.457502, lon.=103.957634, Alt.=94.022522m. Speed=14.760000m/h.</desc>
<speed>4.100000</speed>
</trkpt>
<trkpt lat="22.457336" lon="103.957504">
<ele>93.606506</ele>
<time>2011-04-22T02:05:15Z</time>
<desc>lat.=22.457336, lon.=103.957504, Alt.=93.606506m. Speed=17.532000m/h.</desc>
<speed>4.870000</speed>
</trkpt>
<trkpt lat="22.457207" lon="103.957314">
<ele>93.844788</ele>
<time>2011-04-22T02:05:20Z</time>
<desc>lat.=22.457207, lon.=103.957314, Alt.=93.844788m. Speed=17.208000m/h.</desc>
<speed>4.780000</speed>
</trkpt>
<trkpt lat="22.457106" lon="103.957100">
<ele>93.669006</ele>
<time>2011-04-22T02:05:25Z</time>
<desc>lat.=22.457106, lon.=103.957100, Alt.=93.669006m. Speed=18.108000m/h.</desc>
<speed>5.030000</speed>
</trkpt>
<trkpt lat="22.457026" lon="103.956879">
<ele>93.495178</ele>
<time>2011-04-22T02:05:30Z</time>
<desc>lat.=22.457026, lon.=103.956879, Alt.=93.495178m. Speed=17.351999m/h.</desc>
<speed>4.820000</speed>
</trkpt>
<trkpt lat="22.457003" lon="103.956642">
<ele>93.143616</ele>
<time>2011-04-22T02:05:35Z</time>
<desc>lat.=22.457003, lon.=103.956642, Alt.=93.143616m. Speed=17.496000m/h.</desc>
<speed>4.860000</speed>
</trkpt>
<trkpt lat="22.457018" lon="103.956390">
<ele>92.098694</ele>
<time>2011-04-22T02:05:40Z</time>
<desc>lat.=22.457018, lon.=103.956390, Alt.=92.098694m. Speed=21.167999m/h.</desc>
<speed>5.880000</speed>
</trkpt>
<trkpt lat="22.457060" lon="103.956062">
<ele>91.374084</ele>
<time>2011-04-22T02:05:45Z</time>
<desc>lat.=22.457060, lon.=103.956062, Alt.=91.374084m. Speed=26.927999m/h.</desc>
<speed>7.480000</speed>
</trkpt>
<trkpt lat="22.457115" lon="103.955704">
<ele>90.985413</ele>
<time>2011-04-22T02:05:50Z</time>
<desc>lat.=22.457115, lon.=103.955704, Alt.=90.985413m. Speed=25.596001m/h.</desc>
<speed>7.110000</speed>
</trkpt>
<trkpt lat="22.457186" lon="103.955391">
<ele>90.995178</ele>
<time>2011-04-22T02:05:55Z</time>
<desc>lat.=22.457186, lon.=103.955391, Alt.=90.995178m. Speed=22.500000m/h.</desc>
<speed>6.250000</speed>
</trkpt>
<trkpt lat="22.457327" lon="103.955154">
<ele>91.536194</ele>
<time>2011-04-22T02:06:00Z</time>
<desc>lat.=22.457327, lon.=103.955154, Alt.=91.536194m. Speed=19.584000m/h.</desc>
<speed>5.440000</speed>
</trkpt>
<trkpt lat="22.457476" lon="103.954941">
<ele>92.604553</ele>
<time>2011-04-22T02:06:05Z</time>
<desc>lat.=22.457476, lon.=103.954941, Alt.=92.604553m. Speed=19.944000m/h.</desc>
<speed>5.540000</speed>
</trkpt>
<trkpt lat="22.457624" lon="103.954735">
<ele>94.391663</ele>
<time>2011-04-22T02:06:10Z</time>
<desc>lat.=22.457624, lon.=103.954735, Alt.=94.391663m. Speed=17.964001m/h.</desc>
<speed>4.990000</speed>
</trkpt>
<trkpt lat="22.457735" lon="103.954529">
<ele>96.042053</ele>
<time>2011-04-22T02:06:15Z</time>
<desc>lat.=22.457735, lon.=103.954529, Alt.=96.042053m. Speed=18.252001m/h.</desc>
<speed>5.070000</speed>
</trkpt>
<trkpt lat="22.457808" lon="103.954300">
<ele>97.922913</ele>
<time>2011-04-22T02:06:20Z</time>
<desc>lat.=22.457808, lon.=103.954300, Alt.=97.922913m. Speed=15.480000m/h.</desc>
<speed>4.300000</speed>
</trkpt>
<trkpt lat="22.457829" lon="103.954102">
<ele>99.778381</ele>
<time>2011-04-22T02:06:25Z</time>
<desc>lat.=22.457829, lon.=103.954102, Alt.=99.778381m. Speed=17.604000m/h.</desc>
<speed>4.890000</speed>
</trkpt>
<trkpt lat="22.457804" lon="103.953835">
<ele>101.145569</ele>
<time>2011-04-22T02:06:30Z</time>
<desc>lat.=22.457804, lon.=103.953835, Alt.=101.145569m. Speed=20.195999m/h.</desc>
<speed>5.610000</speed>
</trkpt>
<trkpt lat="22.457733" lon="103.953613">
<ele>104.071350</ele>
<time>2011-04-22T02:06:35Z</time>
<desc>lat.=22.457733, lon.=103.953613, Alt.=104.071350m. Speed=15.012000m/h.</desc>
<speed>4.170000</speed>
</trkpt>
<trkpt lat="22.457670" lon="103.953430">
<ele>106.506897</ele>
<time>2011-04-22T02:06:40Z</time>
<desc>lat.=22.457670, lon.=103.953430, Alt.=106.506897m. Speed=13.464000m/h.</desc>
<speed>3.740000</speed>
</trkpt>
<trkpt lat="22.457615" lon="103.953255">
<ele>106.766663</ele>
<time>2011-04-22T02:06:45Z</time>
<desc>lat.=22.457615, lon.=103.953255, Alt.=106.766663m. Speed=13.644000m/h.</desc>
<speed>3.790000</speed>
</trkpt>
<trkpt lat="22.457602" lon="103.953079">
<ele>104.852600</ele>
<time>2011-04-22T02:06:50Z</time>
<desc>lat.=22.457602, lon.=103.953079, Alt.=104.852600m. Speed=13.644000m/h.</desc>
<speed>3.790000</speed>
</trkpt>
<trkpt lat="22.457634" lon="103.952911">
<ele>106.852600</ele>
<time>2011-04-22T02:06:55Z</time>
<desc>lat.=22.457634, lon.=103.952911, Alt.=106.852600m. Speed=13.104000m/h.</desc>
<speed>3.640000</speed>
</trkpt>
<trkpt lat="22.457708" lon="103.952751">
<ele>109.946350</ele>
<time>2011-04-22T02:07:00Z</time>
<desc>lat.=22.457708, lon.=103.952751, Alt.=109.946350m. Speed=12.528000m/h.</desc>
<speed>3.480000</speed>
</trkpt>
<trkpt lat="22.457819" lon="103.952637">
<ele>112.083069</ele>
<time>2011-04-22T02:07:05Z</time>
<desc>lat.=22.457819, lon.=103.952637, Alt.=112.083069m. Speed=12.060000m/h.</desc>
<speed>3.350000</speed>
</trkpt>
<trkpt lat="22.457935" lon="103.952538">
<ele>114.352600</ele>
<time>2011-04-22T02:07:10Z</time>
<desc>lat.=22.457935, lon.=103.952538, Alt.=114.352600m. Speed=11.052000m/h.</desc>
<speed>3.070000</speed>
</trkpt>
<trkpt lat="22.458052" lon="103.952454">
<ele>116.106506</ele>
<time>2011-04-22T02:07:15Z</time>
<desc>lat.=22.458052, lon.=103.952454, Alt.=116.106506m. Speed=12.096000m/h.</desc>
<speed>3.360000</speed>
</trkpt>
<trkpt lat="22.458178" lon="103.952362">
<ele>118.022522</ele>
<time>2011-04-22T02:07:20Z</time>
<desc>lat.=22.458178, lon.=103.952362, Alt.=118.022522m. Speed=12.492000m/h.</desc>
<speed>3.470000</speed>
</trkpt>
<trkpt lat="22.458300" lon="103.952271">
<ele>119.120178</ele>
<time>2011-04-22T02:07:25Z</time>
<desc>lat.=22.458300, lon.=103.952271, Alt.=119.120178m. Speed=11.556000m/h.</desc>
<speed>3.210000</speed>
</trkpt>
<trkpt lat="22.458420" lon="103.952179">
<ele>119.663147</ele>
<time>2011-04-22T02:07:30Z</time>
<desc>lat.=22.458420, lon.=103.952179, Alt.=119.663147m. Speed=12.168000m/h.</desc>
<speed>3.380000</speed>
</trkpt>
<trkpt lat="22.458549" lon="103.952087">
<ele>120.586975</ele>
<time>2011-04-22T02:07:35Z</time>
<desc>lat.=22.458549, lon.=103.952087, Alt.=120.586975m. Speed=12.168000m/h.</desc>
<speed>3.380000</speed>
</trkpt>
<trkpt lat="22.458673" lon="103.951988">
<ele>121.645569</ele>
<time>2011-04-22T02:07:40Z</time>
<desc>lat.=22.458673, lon.=103.951988, Alt.=121.645569m. Speed=11.268000m/h.</desc>
<speed>3.130000</speed>
</trkpt>
<trkpt lat="22.458775" lon="103.951904">
<ele>122.360413</ele>
<time>2011-04-22T02:07:45Z</time>
<desc>lat.=22.458775, lon.=103.951904, Alt.=122.360413m. Speed=10.620000m/h.</desc>
<speed>2.950000</speed>
</trkpt>
<trkpt lat="22.458866" lon="103.951797">
<ele>122.698303</ele>
<time>2011-04-22T02:07:50Z</time>
<desc>lat.=22.458866, lon.=103.951797, Alt.=122.698303m. Speed=10.692000m/h.</desc>
<speed>2.970000</speed>
</trkpt>
<trkpt lat="22.458944" lon="103.951675">
<ele>124.127991</ele>
<time>2011-04-22T02:07:55Z</time>
<desc>lat.=22.458944, lon.=103.951675, Alt.=124.127991m. Speed=11.124000m/h.</desc>
<speed>3.090000</speed>
</trkpt>
<trkpt lat="22.459013" lon="103.951553">
<ele>123.819397</ele>
<time>2011-04-22T02:08:00Z</time>
<desc>lat.=22.459013, lon.=103.951553, Alt.=123.819397m. Speed=11.268000m/h.</desc>
<speed>3.130000</speed>
</trkpt>
<trkpt lat="22.459078" lon="103.951431">
<ele>125.422913</ele>
<time>2011-04-22T02:08:05Z</time>
<desc>lat.=22.459078, lon.=103.951431, Alt.=125.422913m. Speed=9.864000m/h.</desc>
<speed>2.740000</speed>
</trkpt>
<trkpt lat="22.459154" lon="103.951302">
<ele>127.104553</ele>
<time>2011-04-22T02:08:10Z</time>
<desc>lat.=22.459154, lon.=103.951302, Alt.=127.104553m. Speed=11.376000m/h.</desc>
<speed>3.160000</speed>
</trkpt>
<trkpt lat="22.459251" lon="103.951195">
<ele>128.443481</ele>
<time>2011-04-22T02:08:15Z</time>
<desc>lat.=22.459251, lon.=103.951195, Alt.=128.443481m. Speed=10.872000m/h.</desc>
<speed>3.020000</speed>
</trkpt>
<trkpt lat="22.459356" lon="103.951111">
<ele>130.802856</ele>
<time>2011-04-22T02:08:20Z</time>
<desc>lat.=22.459356, lon.=103.951111, Alt.=130.802856m. Speed=9.684000m/h.</desc>
<speed>2.690000</speed>
</trkpt>
<trkpt lat="22.459459" lon="103.951019">
<ele>131.099731</ele>
<time>2011-04-22T02:08:25Z</time>
<desc>lat.=22.459459, lon.=103.951019, Alt.=131.099731m. Speed=10.764000m/h.</desc>
<speed>2.990000</speed>
</trkpt>
<trkpt lat="22.459570" lon="103.950935">
<ele>132.646606</ele>
<time>2011-04-22T02:08:30Z</time>
<desc>lat.=22.459570, lon.=103.950935, Alt.=132.646606m. Speed=11.448000m/h.</desc>
<speed>3.180000</speed>
</trkpt>
<trkpt lat="22.459663" lon="103.950821">
<ele>133.330200</ele>
<time>2011-04-22T02:08:35Z</time>
<desc>lat.=22.459663, lon.=103.950821, Alt.=133.330200m. Speed=12.528000m/h.</desc>
<speed>3.480000</speed>
</trkpt>
<trkpt lat="22.459736" lon="103.950653">
<ele>132.927856</ele>
<time>2011-04-22T02:08:40Z</time>
<desc>lat.=22.459736, lon.=103.950653, Alt.=132.927856m. Speed=13.860000m/h.</desc>
<speed>3.850000</speed>
</trkpt>
<trkpt lat="22.459810" lon="103.950455">
<ele>132.545044</ele>
<time>2011-04-22T02:08:45Z</time>
<desc>lat.=22.459810, lon.=103.950455, Alt.=132.545044m. Speed=16.452000m/h.</desc>
<speed>4.570000</speed>
</trkpt>
<trkpt lat="22.459887" lon="103.950233">
<ele>130.966919</ele>
<time>2011-04-22T02:08:50Z</time>
<desc>lat.=22.459887, lon.=103.950233, Alt.=130.966919m. Speed=18.576000m/h.</desc>
<speed>5.160000</speed>
</trkpt>
<trkpt lat="22.459984" lon="103.949989">
<ele>130.388794</ele>
<time>2011-04-22T02:08:55Z</time>
<desc>lat.=22.459984, lon.=103.949989, Alt.=130.388794m. Speed=20.988001m/h.</desc>
<speed>5.830000</speed>
</trkpt>
<trkpt lat="22.460150" lon="103.949738">
<ele>128.603638</ele>
<time>2011-04-22T02:09:00Z</time>
<desc>lat.=22.460150, lon.=103.949738, Alt.=128.603638m. Speed=24.084000m/h.</desc>
<speed>6.690000</speed>
</trkpt>
<trkpt lat="22.460392" lon="103.949509">
<ele>127.090881</ele>
<time>2011-04-22T02:09:05Z</time>
<desc>lat.=22.460392, lon.=103.949509, Alt.=127.090881m. Speed=26.568001m/h.</desc>
<speed>7.380000</speed>
</trkpt>
<trkpt lat="22.460630" lon="103.949234">
<ele>126.294006</ele>
<time>2011-04-22T02:09:10Z</time>
<desc>lat.=22.460630, lon.=103.949234, Alt.=126.294006m. Speed=28.944000m/h.</desc>
<speed>8.040000</speed>
</trkpt>
<trkpt lat="22.460842" lon="103.948898">
<ele>125.809631</ele>
<time>2011-04-22T02:09:15Z</time>
<desc>lat.=22.460842, lon.=103.948898, Alt.=125.809631m. Speed=31.320000m/h.</desc>
<speed>8.700000</speed>
</trkpt>
<trkpt lat="22.461069" lon="103.948540">
<ele>124.022522</ele>
<time>2011-04-22T02:09:20Z</time>
<desc>lat.=22.461069, lon.=103.948540, Alt.=124.022522m. Speed=32.040001m/h.</desc>
<speed>8.900000</speed>
</trkpt>
<trkpt lat="22.461338" lon="103.948219">
<ele>122.747131</ele>
<time>2011-04-22T02:09:25Z</time>
<desc>lat.=22.461338, lon.=103.948219, Alt.=122.747131m. Speed=31.500000m/h.</desc>
<speed>8.750000</speed>
</trkpt>
<trkpt lat="22.461637" lon="103.947975">
<ele>122.846741</ele>
<time>2011-04-22T02:09:30Z</time>
<desc>lat.=22.461637, lon.=103.947975, Alt.=122.846741m. Speed=28.872000m/h.</desc>
<speed>8.020000</speed>
</trkpt>
<trkpt lat="22.461927" lon="103.947800">
<ele>122.069397</ele>
<time>2011-04-22T02:09:35Z</time>
<desc>lat.=22.461927, lon.=103.947800, Alt.=122.069397m. Speed=24.695999m/h.</desc>
<speed>6.860000</speed>
</trkpt>
<trkpt lat="22.462206" lon="103.947701">
<ele>120.526428</ele>
<time>2011-04-22T02:09:40Z</time>
<desc>lat.=22.462206, lon.=103.947701, Alt.=120.526428m. Speed=22.788000m/h.</desc>
<speed>6.330000</speed>
</trkpt>
<trkpt lat="22.462492" lon="103.947632">
<ele>117.333069</ele>
<time>2011-04-22T02:09:45Z</time>
<desc>lat.=22.462492, lon.=103.947632, Alt.=117.333069m. Speed=23.688000m/h.</desc>
<speed>6.580000</speed>
</trkpt>
<trkpt lat="22.462780" lon="103.947571">
<ele>114.051819</ele>
<time>2011-04-22T02:09:50Z</time>
<desc>lat.=22.462780, lon.=103.947571, Alt.=114.051819m. Speed=23.256001m/h.</desc>
<speed>6.460000</speed>
</trkpt>
<trkpt lat="22.463078" lon="103.947495">
<ele>112.504944</ele>
<time>2011-04-22T02:09:55Z</time>
<desc>lat.=22.463078, lon.=103.947495, Alt.=112.504944m. Speed=25.164000m/h.</desc>
<speed>6.990000</speed>
</trkpt>
<trkpt lat="22.463390" lon="103.947411">
<ele>111.897522</ele>
<time>2011-04-22T02:10:00Z</time>
<desc>lat.=22.463390, lon.=103.947411, Alt.=111.897522m. Speed=26.316000m/h.</desc>
<speed>7.310000</speed>
</trkpt>
<trkpt lat="22.463665" lon="103.947296">
<ele>115.047913</ele>
<time>2011-04-22T02:10:05Z</time>
<desc>lat.=22.463665, lon.=103.947296, Alt.=115.047913m. Speed=21.312000m/h.</desc>
<speed>5.920000</speed>
</trkpt>
<trkpt lat="22.463903" lon="103.947159">
<ele>111.786194</ele>
<time>2011-04-22T02:10:10Z</time>
<desc>lat.=22.463903, lon.=103.947159, Alt.=111.786194m. Speed=20.520000m/h.</desc>
<speed>5.700000</speed>
</trkpt>
<trkpt lat="22.464058" lon="103.946960">
<ele>111.870178</ele>
<time>2011-04-22T02:10:15Z</time>
<desc>lat.=22.464058, lon.=103.946960, Alt.=111.870178m. Speed=19.728001m/h.</desc>
<speed>5.480000</speed>
</trkpt>
<trkpt lat="22.464178" lon="103.946716">
<ele>112.282288</ele>
<time>2011-04-22T02:10:20Z</time>
<desc>lat.=22.464178, lon.=103.946716, Alt.=112.282288m. Speed=20.232000m/h.</desc>
<speed>5.620000</speed>
</trkpt>
<trkpt lat="22.464272" lon="103.946472">
<ele>112.348694</ele>
<time>2011-04-22T02:10:25Z</time>
<desc>lat.=22.464272, lon.=103.946472, Alt.=112.348694m. Speed=18.792000m/h.</desc>
<speed>5.220000</speed>
</trkpt>
<trkpt lat="22.464359" lon="103.946259">
<ele>111.303772</ele>
<time>2011-04-22T02:10:30Z</time>
<desc>lat.=22.464359, lon.=103.946259, Alt.=111.303772m. Speed=16.128000m/h.</desc>
<speed>4.480000</speed>
</trkpt>
<trkpt lat="22.464434" lon="103.946068">
<ele>111.512756</ele>
<time>2011-04-22T02:10:35Z</time>
<desc>lat.=22.464434, lon.=103.946068, Alt.=111.512756m. Speed=15.336000m/h.</desc>
<speed>4.260000</speed>
</trkpt>
<trkpt lat="22.464514" lon="103.945854">
<ele>110.460022</ele>
<time>2011-04-22T02:10:40Z</time>
<desc>lat.=22.464514, lon.=103.945854, Alt.=110.460022m. Speed=17.927999m/h.</desc>
<speed>4.980000</speed>
</trkpt>
<trkpt lat="22.464602" lon="103.945625">
<ele>108.442444</ele>
<time>2011-04-22T02:10:45Z</time>
<desc>lat.=22.464602, lon.=103.945625, Alt.=108.442444m. Speed=20.268000m/h.</desc>
<speed>5.630000</speed>
</trkpt>
<trkpt lat="22.464706" lon="103.945328">
<ele>107.659241</ele>
<time>2011-04-22T02:10:50Z</time>
<desc>lat.=22.464706, lon.=103.945328, Alt.=107.659241m. Speed=25.596001m/h.</desc>
<speed>7.110000</speed>
</trkpt>
<trkpt lat="22.464827" lon="103.944977">
<ele>107.614319</ele>
<time>2011-04-22T02:10:55Z</time>
<desc>lat.=22.464827, lon.=103.944977, Alt.=107.614319m. Speed=27.864000m/h.</desc>
<speed>7.740000</speed>
</trkpt>
<trkpt lat="22.464975" lon="103.944595">
<ele>106.489319</ele>
<time>2011-04-22T02:11:00Z</time>
<desc>lat.=22.464975, lon.=103.944595, Alt.=106.489319m. Speed=31.752001m/h.</desc>
<speed>8.820000</speed>
</trkpt>
<trkpt lat="22.465115" lon="103.944229">
<ele>105.688538</ele>
<time>2011-04-22T02:11:05Z</time>
<desc>lat.=22.465115, lon.=103.944229, Alt.=105.688538m. Speed=23.184000m/h.</desc>
<speed>6.440000</speed>
</trkpt>
<trkpt lat="22.465212" lon="103.943970">
<ele>105.514709</ele>
<time>2011-04-22T02:11:10Z</time>
<desc>lat.=22.465212, lon.=103.943970, Alt.=105.514709m. Speed=22.247999m/h.</desc>
<speed>6.180000</speed>
</trkpt>
<trkpt lat="22.465275" lon="103.943649">
<ele>104.559631</ele>
<time>2011-04-22T02:11:15Z</time>
<desc>lat.=22.465275, lon.=103.943649, Alt.=104.559631m. Speed=24.444000m/h.</desc>
<speed>6.790000</speed>
</trkpt>
<trkpt lat="22.465214" lon="103.943321">
<ele>104.336975</ele>
<time>2011-04-22T02:11:20Z</time>
<desc>lat.=22.465214, lon.=103.943321, Alt.=104.336975m. Speed=25.271999m/h.</desc>
<speed>7.020000</speed>
</trkpt>
<trkpt lat="22.465029" lon="103.943047">
<ele>102.883850</ele>
<time>2011-04-22T02:11:25Z</time>
<desc>lat.=22.465029, lon.=103.943047, Alt.=102.883850m. Speed=23.940001m/h.</desc>
<speed>6.650000</speed>
</trkpt>
<trkpt lat="22.464846" lon="103.942802">
<ele>102.633850</ele>
<time>2011-04-22T02:11:30Z</time>
<desc>lat.=22.464846, lon.=103.942802, Alt.=102.633850m. Speed=22.139999m/h.</desc>
<speed>6.150000</speed>
</trkpt>
<trkpt lat="22.464674" lon="103.942581">
<ele>101.532288</ele>
<time>2011-04-22T02:11:35Z</time>
<desc>lat.=22.464674, lon.=103.942581, Alt.=101.532288m. Speed=21.492001m/h.</desc>
<speed>5.970000</speed>
</trkpt>
<trkpt lat="22.464508" lon="103.942360">
<ele>101.243225</ele>
<time>2011-04-22T02:11:40Z</time>
<desc>lat.=22.464508, lon.=103.942360, Alt.=101.243225m. Speed=19.980000m/h.</desc>
<speed>5.550000</speed>
</trkpt>
<trkpt lat="22.464363" lon="103.942169">
<ele>101.030334</ele>
<time>2011-04-22T02:11:45Z</time>
<desc>lat.=22.464363, lon.=103.942169, Alt.=101.030334m. Speed=18.035999m/h.</desc>
<speed>5.010000</speed>
</trkpt>
<trkpt lat="22.464222" lon="103.941994">
<ele>101.239319</ele>
<time>2011-04-22T02:11:50Z</time>
<desc>lat.=22.464222, lon.=103.941994, Alt.=101.239319m. Speed=17.532000m/h.</desc>
<speed>4.870000</speed>
</trkpt>
<trkpt lat="22.464077" lon="103.941795">
<ele>101.495178</ele>
<time>2011-04-22T02:11:55Z</time>
<desc>lat.=22.464077, lon.=103.941795, Alt.=101.495178m. Speed=19.332001m/h.</desc>
<speed>5.370000</speed>
</trkpt>
<trkpt lat="22.463890" lon="103.941666">
<ele>101.733459</ele>
<time>2011-04-22T02:12:00Z</time>
<desc>lat.=22.463890, lon.=103.941666, Alt.=101.733459m. Speed=15.840000m/h.</desc>
<speed>4.400000</speed>
</trkpt>
<trkpt lat="22.463730" lon="103.941673">
<ele>102.436584</ele>
<time>2011-04-22T02:12:05Z</time>
<desc>lat.=22.463730, lon.=103.941673, Alt.=102.436584m. Speed=11.736000m/h.</desc>
<speed>3.260000</speed>
</trkpt>
<trkpt lat="22.463594" lon="103.941750">
<ele>103.686584</ele>
<time>2011-04-22T02:12:10Z</time>
<desc>lat.=22.463594, lon.=103.941750, Alt.=103.686584m. Speed=12.528000m/h.</desc>
<speed>3.480000</speed>
</trkpt>
<trkpt lat="22.463465" lon="103.941856">
<ele>105.987366</ele>
<time>2011-04-22T02:12:15Z</time>
<desc>lat.=22.463465, lon.=103.941856, Alt.=105.987366m. Speed=11.988000m/h.</desc>
<speed>3.330000</speed>
</trkpt>
<trkpt lat="22.463348" lon="103.941948">
<ele>107.710022</ele>
<time>2011-04-22T02:12:20Z</time>
<desc>lat.=22.463348, lon.=103.941948, Alt.=107.710022m. Speed=11.700000m/h.</desc>
<speed>3.250000</speed>
</trkpt>
<trkpt lat="22.463236" lon="103.942047">
<ele>108.391663</ele>
<time>2011-04-22T02:12:25Z</time>
<desc>lat.=22.463236, lon.=103.942047, Alt.=108.391663m. Speed=10.980000m/h.</desc>
<speed>3.050000</speed>
</trkpt>
<trkpt lat="22.463127" lon="103.942139">
<ele>109.344788</ele>
<time>2011-04-22T02:12:30Z</time>
<desc>lat.=22.463127, lon.=103.942139, Alt.=109.344788m. Speed=10.944000m/h.</desc>
<speed>3.040000</speed>
</trkpt>
<trkpt lat="22.463017" lon="103.942230">
<ele>110.217834</ele>
<time>2011-04-22T02:12:35Z</time>
<desc>lat.=22.463017, lon.=103.942230, Alt.=110.217834m. Speed=10.656000m/h.</desc>
<speed>2.960000</speed>
</trkpt>
<trkpt lat="22.462908" lon="103.942314">
<ele>110.823303</ele>
<time>2011-04-22T02:12:40Z</time>
<desc>lat.=22.462908, lon.=103.942314, Alt.=110.823303m. Speed=10.260000m/h.</desc>
<speed>2.850000</speed>
</trkpt>
<trkpt lat="22.462805" lon="103.942398">
<ele>111.629944</ele>
<time>2011-04-22T02:12:45Z</time>
<desc>lat.=22.462805, lon.=103.942398, Alt.=111.629944m. Speed=10.404000m/h.</desc>
<speed>2.890000</speed>
</trkpt>
<trkpt lat="22.462698" lon="103.942467">
<ele>113.258850</ele>
<time>2011-04-22T02:12:50Z</time>
<desc>lat.=22.462698, lon.=103.942467, Alt.=113.258850m. Speed=9.288000m/h.</desc>
<speed>2.580000</speed>
</trkpt>
<trkpt lat="22.462599" lon="103.942535">
<ele>114.797913</ele>
<time>2011-04-22T02:12:55Z</time>
<desc>lat.=22.462599, lon.=103.942535, Alt.=114.797913m. Speed=9.216000m/h.</desc>
<speed>2.560000</speed>
</trkpt>
<trkpt lat="22.462500" lon="103.942581">
<ele>115.670959</ele>
<time>2011-04-22T02:13:00Z</time>
<desc>lat.=22.462500, lon.=103.942581, Alt.=115.670959m. Speed=8.640000m/h.</desc>
<speed>2.400000</speed>
</trkpt>
<trkpt lat="22.462404" lon="103.942627">
<ele>116.704163</ele>
<time>2011-04-22T02:13:05Z</time>
<desc>lat.=22.462404, lon.=103.942627, Alt.=116.704163m. Speed=9.072000m/h.</desc>
<speed>2.520000</speed>
</trkpt>
<trkpt lat="22.462303" lon="103.942703">
<ele>118.108459</ele>
<time>2011-04-22T02:13:10Z</time>
<desc>lat.=22.462303, lon.=103.942703, Alt.=118.108459m. Speed=12.204000m/h.</desc>
<speed>3.390000</speed>
</trkpt>
<trkpt lat="22.462166" lon="103.942772">
<ele>119.012756</ele>
<time>2011-04-22T02:13:15Z</time>
<desc>lat.=22.462166, lon.=103.942772, Alt.=119.012756m. Speed=10.980000m/h.</desc>
<speed>3.050000</speed>
</trkpt>
<trkpt lat="22.462046" lon="103.942833">
<ele>119.799866</ele>
<time>2011-04-22T02:13:20Z</time>
<desc>lat.=22.462046, lon.=103.942833, Alt.=119.799866m. Speed=10.044000m/h.</desc>
<speed>2.790000</speed>
</trkpt>
<trkpt lat="22.461937" lon="103.942894">
<ele>120.776428</ele>
<time>2011-04-22T02:13:25Z</time>
<desc>lat.=22.461937, lon.=103.942894, Alt.=120.776428m. Speed=9.648000m/h.</desc>
<speed>2.680000</speed>
</trkpt>
<trkpt lat="22.461828" lon="103.942947">
<ele>121.688538</ele>
<time>2011-04-22T02:13:30Z</time>
<desc>lat.=22.461828, lon.=103.942947, Alt.=121.688538m. Speed=9.000000m/h.</desc>
<speed>2.500000</speed>
</trkpt>
<trkpt lat="22.461725" lon="103.942978">
<ele>122.784241</ele>
<time>2011-04-22T02:13:35Z</time>
<desc>lat.=22.461725, lon.=103.942978, Alt.=122.784241m. Speed=9.180000m/h.</desc>
<speed>2.550000</speed>
</trkpt>
<trkpt lat="22.461611" lon="103.942993">
<ele>123.426819</ele>
<time>2011-04-22T02:13:40Z</time>
<desc>lat.=22.461611, lon.=103.942993, Alt.=123.426819m. Speed=8.748000m/h.</desc>
<speed>2.430000</speed>
</trkpt>
<trkpt lat="22.461504" lon="103.942986">
<ele>123.651428</ele>
<time>2011-04-22T02:13:45Z</time>
<desc>lat.=22.461504, lon.=103.942986, Alt.=123.651428m. Speed=8.316000m/h.</desc>
<speed>2.310000</speed>
</trkpt>
<trkpt lat="22.461401" lon="103.942963">
<ele>124.336975</ele>
<time>2011-04-22T02:13:50Z</time>
<desc>lat.=22.461401, lon.=103.942963, Alt.=124.336975m. Speed=7.668000m/h.</desc>
<speed>2.130000</speed>
</trkpt>
<trkpt lat="22.461311" lon="103.942924">
<ele>124.940491</ele>
<time>2011-04-22T02:13:55Z</time>
<desc>lat.=22.461311, lon.=103.942924, Alt.=124.940491m. Speed=7.308000m/h.</desc>
<speed>2.030000</speed>
</trkpt>
<trkpt lat="22.461233" lon="103.942886">
<ele>125.872131</ele>
<time>2011-04-22T02:14:00Z</time>
<desc>lat.=22.461233, lon.=103.942886, Alt.=125.872131m. Speed=6.372000m/h.</desc>
<speed>1.770000</speed>
</trkpt>
<trkpt lat="22.461174" lon="103.942841">
<ele>126.252991</ele>
<time>2011-04-22T02:14:05Z</time>
<desc>lat.=22.461174, lon.=103.942841, Alt.=126.252991m. Speed=4.752000m/h.</desc>
<speed>1.320000</speed>
</trkpt>
<trkpt lat="22.461132" lon="103.942810">
<ele>126.475647</ele>
<time>2011-04-22T02:14:10Z</time>
<desc>lat.=22.461132, lon.=103.942810, Alt.=126.475647m. Speed=0.972000m/h.</desc>
<speed>0.270000</speed>
</trkpt>
<trkpt lat="22.461132" lon="103.942810">
<ele>126.085022</ele>
<time>2011-04-22T02:14:15Z</time>
<desc>lat.=22.461132, lon.=103.942810, Alt.=126.085022m. Speed=1.656000m/h.</desc>
<speed>0.460000</speed>
</trkpt>
<trkpt lat="22.461117" lon="103.942780">
<ele>126.391663</ele>
<time>2011-04-22T02:14:20Z</time>
<desc>lat.=22.461117, lon.=103.942780, Alt.=126.391663m. Speed=6.228000m/h.</desc>
<speed>1.730000</speed>
</trkpt>
<trkpt lat="22.461046" lon="103.942711">
<ele>127.569397</ele>
<time>2011-04-22T02:14:25Z</time>
<desc>lat.=22.461046, lon.=103.942711, Alt.=127.569397m. Speed=6.984000m/h.</desc>
<speed>1.940000</speed>
</trkpt>
<trkpt lat="22.460993" lon="103.942635">
<ele>128.560669</ele>
<time>2011-04-22T02:14:30Z</time>
<desc>lat.=22.460993, lon.=103.942635, Alt.=128.560669m. Speed=7.164000m/h.</desc>
<speed>1.990000</speed>
</trkpt>
<trkpt lat="22.460949" lon="103.942574">
<ele>129.377075</ele>
<time>2011-04-22T02:14:35Z</time>
<desc>lat.=22.460949, lon.=103.942574, Alt.=129.377075m. Speed=5.292000m/h.</desc>
<speed>1.470000</speed>
</trkpt>
<trkpt lat="22.460905" lon="103.942520">
<ele>130.502075</ele>
<time>2011-04-22T02:14:40Z</time>
<desc>lat.=22.460905, lon.=103.942520, Alt.=130.502075m. Speed=4.644000m/h.</desc>
<speed>1.290000</speed>
</trkpt>
<trkpt lat="22.460861" lon="103.942467">
<ele>131.654419</ele>
<time>2011-04-22T02:14:45Z</time>
<desc>lat.=22.460861, lon.=103.942467, Alt.=131.654419m. Speed=5.112000m/h.</desc>
<speed>1.420000</speed>
</trkpt>
<trkpt lat="22.460817" lon="103.942413">
<ele>131.947388</ele>
<time>2011-04-22T02:14:50Z</time>
<desc>lat.=22.460817, lon.=103.942413, Alt.=131.947388m. Speed=5.508000m/h.</desc>
<speed>1.530000</speed>
</trkpt>
<trkpt lat="22.460777" lon="103.942345">
<ele>131.916138</ele>
<time>2011-04-22T02:14:55Z</time>
<desc>lat.=22.460777, lon.=103.942345, Alt.=131.916138m. Speed=6.588000m/h.</desc>
<speed>1.830000</speed>
</trkpt>
<trkpt lat="22.460735" lon="103.942268">
<ele>132.201294</ele>
<time>2011-04-22T02:15:00Z</time>
<desc>lat.=22.460735, lon.=103.942268, Alt.=132.201294m. Speed=6.120000m/h.</desc>
<speed>1.700000</speed>
</trkpt>
<trkpt lat="22.460691" lon="103.942192">
<ele>132.896606</ele>
<time>2011-04-22T02:15:05Z</time>
<desc>lat.=22.460691, lon.=103.942192, Alt.=132.896606m. Speed=6.408000m/h.</desc>
<speed>1.780000</speed>
</trkpt>
<trkpt lat="22.460667" lon="103.942108">
<ele>133.306763</ele>
<time>2011-04-22T02:15:10Z</time>
<desc>lat.=22.460667, lon.=103.942108, Alt.=133.306763m. Speed=6.552000m/h.</desc>
<speed>1.820000</speed>
</trkpt>
<trkpt lat="22.460642" lon="103.942032">
<ele>133.525513</ele>
<time>2011-04-22T02:15:15Z</time>
<desc>lat.=22.460642, lon.=103.942032, Alt.=133.525513m. Speed=6.804000m/h.</desc>
<speed>1.890000</speed>
</trkpt>
<trkpt lat="22.460617" lon="103.941956">
<ele>134.084106</ele>
<time>2011-04-22T02:15:20Z</time>
<desc>lat.=22.460617, lon.=103.941956, Alt.=134.084106m. Speed=6.336000m/h.</desc>
<speed>1.760000</speed>
</trkpt>
<trkpt lat="22.460598" lon="103.941872">
<ele>134.685669</ele>
<time>2011-04-22T02:15:25Z</time>
<desc>lat.=22.460598, lon.=103.941872, Alt.=134.685669m. Speed=6.048000m/h.</desc>
<speed>1.680000</speed>
</trkpt>
<trkpt lat="22.460577" lon="103.941795">
<ele>134.693481</ele>
<time>2011-04-22T02:15:30Z</time>
<desc>lat.=22.460577, lon.=103.941795, Alt.=134.693481m. Speed=5.256000m/h.</desc>
<speed>1.460000</speed>
</trkpt>
<trkpt lat="22.460571" lon="103.941711">
<ele>134.970825</ele>
<time>2011-04-22T02:15:35Z</time>
<desc>lat.=22.460571, lon.=103.941711, Alt.=134.970825m. Speed=6.408000m/h.</desc>
<speed>1.780000</speed>
</trkpt>
<trkpt lat="22.460554" lon="103.941628">
<ele>136.041138</ele>
<time>2011-04-22T02:15:40Z</time>
<desc>lat.=22.460554, lon.=103.941628, Alt.=136.041138m. Speed=5.544000m/h.</desc>
<speed>1.540000</speed>
</trkpt>
<trkpt lat="22.460520" lon="103.941544">
<ele>136.314575</ele>
<time>2011-04-22T02:15:45Z</time>
<desc>lat.=22.460520, lon.=103.941544, Alt.=136.314575m. Speed=7.488000m/h.</desc>
<speed>2.080000</speed>
</trkpt>
<trkpt lat="22.460466" lon="103.941475">
<ele>136.974731</ele>
<time>2011-04-22T02:15:50Z</time>
<desc>lat.=22.460466, lon.=103.941475, Alt.=136.974731m. Speed=6.552000m/h.</desc>
<speed>1.820000</speed>
</trkpt>
<trkpt lat="22.460390" lon="103.941444">
<ele>137.701294</ele>
<time>2011-04-22T02:15:55Z</time>
<desc>lat.=22.460390, lon.=103.941444, Alt.=137.701294m. Speed=6.264000m/h.</desc>
<speed>1.740000</speed>
</trkpt>
<trkpt lat="22.460314" lon="103.941429">
<ele>138.170044</ele>
<time>2011-04-22T02:16:00Z</time>
<desc>lat.=22.460314, lon.=103.941429, Alt.=138.170044m. Speed=5.436000m/h.</desc>
<speed>1.510000</speed>
</trkpt>
<trkpt lat="22.460251" lon="103.941429">
<ele>138.388794</ele>
<time>2011-04-22T02:16:05Z</time>
<desc>lat.=22.460251, lon.=103.941429, Alt.=138.388794m. Speed=6.192000m/h.</desc>
<speed>1.720000</speed>
</trkpt>
<trkpt lat="22.460169" lon="103.941437">
<ele>139.205200</ele>
<time>2011-04-22T02:16:10Z</time>
<desc>lat.=22.460169, lon.=103.941437, Alt.=139.205200m. Speed=6.408000m/h.</desc>
<speed>1.780000</speed>
</trkpt>
<trkpt lat="22.460085" lon="103.941437">
<ele>140.193481</ele>
<time>2011-04-22T02:16:15Z</time>
<desc>lat.=22.460085, lon.=103.941437, Alt.=140.193481m. Speed=6.696000m/h.</desc>
<speed>1.860000</speed>
</trkpt>
<trkpt lat="22.460005" lon="103.941452">
<ele>140.728638</ele>
<time>2011-04-22T02:16:20Z</time>
<desc>lat.=22.460005, lon.=103.941452, Alt.=140.728638m. Speed=6.660000m/h.</desc>
<speed>1.850000</speed>
</trkpt>
<trkpt lat="22.459929" lon="103.941460">
<ele>141.115356</ele>
<time>2011-04-22T02:16:25Z</time>
<desc>lat.=22.459929, lon.=103.941460, Alt.=141.115356m. Speed=6.552000m/h.</desc>
<speed>1.820000</speed>
</trkpt>
<trkpt lat="22.459841" lon="103.941460">
<ele>141.670044</ele>
<time>2011-04-22T02:16:30Z</time>
<desc>lat.=22.459841, lon.=103.941460, Alt.=141.670044m. Speed=6.552000m/h.</desc>
<speed>1.820000</speed>
</trkpt>
<trkpt lat="22.459789" lon="103.941452">
<ele>142.068481</ele>
<time>2011-04-22T02:16:35Z</time>
<desc>lat.=22.459789, lon.=103.941452, Alt.=142.068481m. Speed=0.900000m/h.</desc>
<speed>0.250000</speed>
</trkpt>
<trkpt lat="22.459778" lon="103.941452">
<ele>141.931763</ele>
<time>2011-04-22T02:16:40Z</time>
<desc>lat.=22.459778, lon.=103.941452, Alt.=141.931763m. Speed=2.484000m/h.</desc>
<speed>0.690000</speed>
</trkpt>
<trkpt lat="22.459743" lon="103.941452">
<ele>142.595825</ele>
<time>2011-04-22T02:16:45Z</time>
<desc>lat.=22.459743, lon.=103.941452, Alt.=142.595825m. Speed=4.428000m/h.</desc>
<speed>1.230000</speed>
</trkpt>
<trkpt lat="22.459663" lon="103.941429">
<ele>143.099731</ele>
<time>2011-04-22T02:16:50Z</time>
<desc>lat.=22.459663, lon.=103.941429, Alt.=143.099731m. Speed=6.480000m/h.</desc>
<speed>1.800000</speed>
</trkpt>
<trkpt lat="22.459597" lon="103.941391">
<ele>143.798950</ele>
<time>2011-04-22T02:16:55Z</time>
<desc>lat.=22.459597, lon.=103.941391, Alt.=143.798950m. Speed=6.012000m/h.</desc>
<speed>1.670000</speed>
</trkpt>
<trkpt lat="22.459539" lon="103.941345">
<ele>144.138794</ele>
<time>2011-04-22T02:17:00Z</time>
<desc>lat.=22.459539, lon.=103.941345, Alt.=144.138794m. Speed=5.688000m/h.</desc>
<speed>1.580000</speed>
</trkpt>
<trkpt lat="22.459488" lon="103.941284">
<ele>144.732544</ele>
<time>2011-04-22T02:17:05Z</time>
<desc>lat.=22.459488, lon.=103.941284, Alt.=144.732544m. Speed=6.048000m/h.</desc>
<speed>1.680000</speed>
</trkpt>
<trkpt lat="22.459457" lon="103.941216">
<ele>145.576294</ele>
<time>2011-04-22T02:17:10Z</time>
<desc>lat.=22.459457, lon.=103.941216, Alt.=145.576294m. Speed=5.184000m/h.</desc>
<speed>1.440000</speed>
</trkpt>
<trkpt lat="22.459440" lon="103.941147">
<ele>146.509888</ele>
<time>2011-04-22T02:17:15Z</time>
<desc>lat.=22.459440, lon.=103.941147, Alt.=146.509888m. Speed=6.264000m/h.</desc>
<speed>1.740000</speed>
</trkpt>
<trkpt lat="22.459433" lon="103.941032">
<ele>147.654419</ele>
<time>2011-04-22T02:17:20Z</time>
<desc>lat.=22.459433, lon.=103.941032, Alt.=147.654419m. Speed=9.072000m/h.</desc>
<speed>2.520000</speed>
</trkpt>
<trkpt lat="22.459452" lon="103.940918">
<ele>148.990356</ele>
<time>2011-04-22T02:17:25Z</time>
<desc>lat.=22.459452, lon.=103.940918, Alt.=148.990356m. Speed=8.604000m/h.</desc>
<speed>2.390000</speed>
</trkpt>
<trkpt lat="22.459480" lon="103.940811">
<ele>149.877075</ele>
<time>2011-04-22T02:17:30Z</time>
<desc>lat.=22.459480, lon.=103.940811, Alt.=149.877075m. Speed=6.984000m/h.</desc>
<speed>1.940000</speed>
</trkpt>
<trkpt lat="22.459476" lon="103.940781">
<ele>150.338013</ele>
<time>2011-04-22T02:17:35Z</time>
<desc>lat.=22.459476, lon.=103.940781, Alt.=150.338013m. Speed=0.216000m/h.</desc>
<speed>0.060000</speed>
</trkpt>
<trkpt lat="22.459476" lon="103.940788">
<ele>150.322388</ele>
<time>2011-04-22T02:17:40Z</time>
<desc>lat.=22.459476, lon.=103.940788, Alt.=150.322388m. Speed=0.936000m/h.</desc>
<speed>0.260000</speed>
</trkpt>
<trkpt lat="22.459494" lon="103.940742">
<ele>151.123169</ele>
<time>2011-04-22T02:17:45Z</time>
<desc>lat.=22.459494, lon.=103.940742, Alt.=151.123169m. Speed=7.344000m/h.</desc>
<speed>2.040000</speed>
</trkpt>
<trkpt lat="22.459522" lon="103.940651">
<ele>151.884888</ele>
<time>2011-04-22T02:17:50Z</time>
<desc>lat.=22.459522, lon.=103.940651, Alt.=151.884888m. Speed=6.300000m/h.</desc>
<speed>1.750000</speed>
</trkpt>
<trkpt lat="22.459549" lon="103.940559">
<ele>152.865356</ele>
<time>2011-04-22T02:17:55Z</time>
<desc>lat.=22.459549, lon.=103.940559, Alt.=152.865356m. Speed=7.560000m/h.</desc>
<speed>2.100000</speed>
</trkpt>
<trkpt lat="22.459576" lon="103.940453">
<ele>153.134888</ele>
<time>2011-04-22T02:18:00Z</time>
<desc>lat.=22.459576, lon.=103.940453, Alt.=153.134888m. Speed=7.884000m/h.</desc>
<speed>2.190000</speed>
</trkpt>
<trkpt lat="22.459600" lon="103.940361">
<ele>153.822388</ele>
<time>2011-04-22T02:18:05Z</time>
<desc>lat.=22.459600, lon.=103.940361, Alt.=153.822388m. Speed=8.064000m/h.</desc>
<speed>2.240000</speed>
</trkpt>
<trkpt lat="22.459627" lon="103.940224">
<ele>154.216919</ele>
<time>2011-04-22T02:18:10Z</time>
<desc>lat.=22.459627, lon.=103.940224, Alt.=154.216919m. Speed=9.828000m/h.</desc>
<speed>2.730000</speed>
</trkpt>
<trkpt lat="22.459627" lon="103.940178">
<ele>154.752075</ele>
<time>2011-04-22T02:18:15Z</time>
<desc>lat.=22.459627, lon.=103.940178, Alt.=154.752075m. Speed=0.360000m/h.</desc>
<speed>0.100000</speed>
</trkpt>
<trkpt lat="22.459627" lon="103.940186">
<ele>154.927856</ele>
<time>2011-04-22T02:18:20Z</time>
<desc>lat.=22.459627, lon.=103.940186, Alt.=154.927856m. Speed=0.468000m/h.</desc>
<speed>0.130000</speed>
</trkpt>
<trkpt lat="22.459631" lon="103.940186">
<ele>155.041138</ele>
<time>2011-04-22T02:18:25Z</time>
<desc>lat.=22.459631, lon.=103.940186, Alt.=155.041138m. Speed=0.072000m/h.</desc>
<speed>0.020000</speed>
</trkpt>
<trkpt lat="22.459631" lon="103.940186">
<ele>155.146606</ele>
<time>2011-04-22T02:18:30Z</time>
<desc>lat.=22.459631, lon.=103.940186, Alt.=155.146606m. Speed=0.216000m/h.</desc>
<speed>0.060000</speed>
</trkpt>
<trkpt lat="22.459631" lon="103.940186">
<ele>155.220825</ele>
<time>2011-04-22T02:18:35Z</time>
<desc>lat.=22.459631, lon.=103.940186, Alt.=155.220825m. Speed=0.036000m/h.</desc>
<speed>0.010000</speed>
</trkpt>
<trkpt lat="22.459631" lon="103.940186">
<ele>155.232544</ele>
<time>2011-04-22T02:18:40Z</time>
<desc>lat.=22.459631, lon.=103.940186, Alt.=155.232544m. Speed=0.144000m/h.</desc>
<speed>0.040000</speed>
</trkpt>
<trkpt lat="22.459631" lon="103.940186">
<ele>155.240356</ele>
<time>2011-04-22T02:18:45Z</time>
<desc>lat.=22.459631, lon.=103.940186, Alt.=155.240356m. Speed=0.288000m/h.</desc>
<speed>0.080000</speed>
</trkpt>
<trkpt lat="22.459633" lon="103.940178">
<ele>155.248169</ele>
<time>2011-04-22T02:18:50Z</time>
<desc>lat.=22.459633, lon.=103.940178, Alt.=155.248169m. Speed=0.648000m/h.</desc>
<speed>0.180000</speed>
</trkpt>
<trkpt lat="22.459635" lon="103.940163">
<ele>155.642700</ele>
<time>2011-04-22T02:18:55Z</time>
<desc>lat.=22.459635, lon.=103.940163, Alt.=155.642700m. Speed=1.584000m/h.</desc>
<speed>0.440000</speed>
</trkpt>
<trkpt lat="22.459650" lon="103.940094">
<ele>156.173950</ele>
<time>2011-04-22T02:19:00Z</time>
<desc>lat.=22.459650, lon.=103.940094, Alt.=156.173950m. Speed=0.828000m/h.</desc>
<speed>0.230000</speed>
</trkpt>
<trkpt lat="22.459648" lon="103.940086">
<ele>156.681763</ele>
<time>2011-04-22T02:19:05Z</time>
<desc>lat.=22.459648, lon.=103.940086, Alt.=156.681763m. Speed=0.360000m/h.</desc>
<speed>0.100000</speed>
</trkpt>
<trkpt lat="22.459648" lon="103.940086">
<ele>156.478638</ele>
<time>2011-04-22T02:19:10Z</time>
<desc>lat.=22.459648, lon.=103.940086, Alt.=156.478638m. Speed=0.036000m/h.</desc>
<speed>0.010000</speed>
</trkpt>
<trkpt lat="22.459646" lon="103.940086">
<ele>156.283325</ele>
<time>2011-04-22T02:19:15Z</time>
<desc>lat.=22.459646, lon.=103.940086, Alt.=156.283325m. Speed=0.180000m/h.</desc>
<speed>0.050000</speed>
</trkpt>
<trkpt lat="22.459646" lon="103.940086">
<ele>156.130981</ele>
<time>2011-04-22T02:19:20Z</time>
<desc>lat.=22.459646, lon.=103.940086, Alt.=156.130981m. Speed=0.036000m/h.</desc>
<speed>0.010000</speed>
</trkpt>
<trkpt lat="22.459646" lon="103.940086">
<ele>156.134888</ele>
<time>2011-04-22T02:19:25Z</time>
<desc>lat.=22.459646, lon.=103.940086, Alt.=156.134888m. Speed=0.072000m/h.</desc>
<speed>0.020000</speed>
</trkpt>
<trkpt lat="22.459646" lon="103.940086">
<ele>156.138794</ele>
<time>2011-04-22T02:19:30Z</time>
<desc>lat.=22.459646, lon.=103.940086, Alt.=156.138794m. Speed=0.036000m/h.</desc>
<speed>0.010000</speed>
</trkpt>
<trkpt lat="22.459646" lon="103.940086">
<ele>156.142700</ele>
<time>2011-04-22T02:19:35Z</time>
<desc>lat.=22.459646, lon.=103.940086, Alt.=156.142700m. Speed=0.000000m/h.</desc>
<speed>0.000000</speed>
</trkpt>
<trkpt lat="22.459646" lon="103.940086">
<ele>156.138794</ele>
<time>2011-04-22T02:19:40Z</time>
<desc>lat.=22.459646, lon.=103.940086, Alt.=156.138794m. Speed=0.144000m/h.</desc>
<speed>0.040000</speed>
</trkpt>
<trkpt lat="22.459646" lon="103.940086">
<ele>156.142700</ele>
<time>2011-04-22T02:19:45Z</time>
<desc>lat.=22.459646, lon.=103.940086, Alt.=156.142700m. Speed=0.180000m/h.</desc>
<speed>0.050000</speed>
</trkpt>
<trkpt lat="22.459646" lon="103.940086">
<ele>156.142700</ele>
<time>2011-04-22T02:19:50Z</time>
<desc>lat.=22.459646, lon.=103.940086, Alt.=156.142700m. Speed=0.036000m/h.</desc>
<speed>0.010000</speed>
</trkpt>
<trkpt lat="22.459646" lon="103.940086">
<ele>156.150513</ele>
<time>2011-04-22T02:19:55Z</time>
<desc>lat.=22.459646, lon.=103.940086, Alt.=156.150513m. Speed=0.000000m/h.</desc>
<speed>0.000000</speed>
</trkpt>
<trkpt lat="22.459646" lon="103.940086">
<ele>156.150513</ele>
<time>2011-04-22T02:20:00Z</time>
<desc>lat.=22.459646, lon.=103.940086, Alt.=156.150513m. Speed=0.000000m/h.</desc>
<speed>0.000000</speed>
</trkpt>
<trkpt lat="22.459646" lon="103.940086">
<ele>156.158325</ele>
<time>2011-04-22T02:20:05Z</time>
<desc>lat.=22.459646, lon.=103.940086, Alt.=156.158325m. Speed=0.036000m/h.</desc>
<speed>0.010000</speed>
</trkpt>
<trkpt lat="22.459646" lon="103.940086">
<ele>156.166138</ele>
<time>2011-04-22T02:20:10Z</time>
<desc>lat.=22.459646, lon.=103.940086, Alt.=156.166138m. Speed=0.036000m/h.</desc>
<speed>0.010000</speed>
</trkpt>
<trkpt lat="22.459646" lon="103.940086">
<ele>156.166138</ele>
<time>2011-04-22T02:20:15Z</time>
<desc>lat.=22.459646, lon.=103.940086, Alt.=156.166138m. Speed=0.000000m/h.</desc>
<speed>0.000000</speed>
</trkpt>
<trkpt lat="22.459646" lon="103.940086">
<ele>156.162231</ele>
<time>2011-04-22T02:20:20Z</time>
<desc>lat.=22.459646, lon.=103.940086, Alt.=156.162231m. Speed=0.072000m/h.</desc>
<speed>0.020000</speed>
</trkpt>
<trkpt lat="22.459646" lon="103.940086">
<ele>156.158325</ele>
<time>2011-04-22T02:20:25Z</time>
<desc>lat.=22.459646, lon.=103.940086, Alt.=156.158325m. Speed=0.000000m/h.</desc>
<speed>0.000000</speed>
</trkpt>
<trkpt lat="22.459646" lon="103.940086">
<ele>156.162231</ele>
<time>2011-04-22T02:20:30Z</time>
<desc>lat.=22.459646, lon.=103.940086, Alt.=156.162231m. Speed=0.036000m/h.</desc>
<speed>0.010000</speed>
</trkpt>
<trkpt lat="22.459648" lon="103.940086">
<ele>156.154419</ele>
<time>2011-04-22T02:20:35Z</time>
<desc>lat.=22.459648, lon.=103.940086, Alt.=156.154419m. Speed=0.144000m/h.</desc>
<speed>0.040000</speed>
</trkpt>
<trkpt lat="22.459648" lon="103.940086">
<ele>156.107544</ele>
<time>2011-04-22T02:20:40Z</time>
<desc>lat.=22.459648, lon.=103.940086, Alt.=156.107544m. Speed=0.000000m/h.</desc>
<speed>0.000000</speed>
</trkpt>
<trkpt lat="22.459648" lon="103.940086">
<ele>156.060669</ele>
<time>2011-04-22T02:20:45Z</time>
<desc>lat.=22.459648, lon.=103.940086, Alt.=156.060669m. Speed=0.036000m/h.</desc>
<speed>0.010000</speed>
</trkpt>
<trkpt lat="22.459648" lon="103.940086">
<ele>156.088013</ele>
<time>2011-04-22T02:20:50Z</time>
<desc>lat.=22.459648, lon.=103.940086, Alt.=156.088013m. Speed=0.108000m/h.</desc>
<speed>0.030000</speed>
</trkpt>
<trkpt lat="22.459646" lon="103.940086">
<ele>156.142700</ele>
<time>2011-04-22T02:20:55Z</time>
<desc>lat.=22.459646, lon.=103.940086, Alt.=156.142700m. Speed=0.000000m/h.</desc>
<speed>0.000000</speed>
</trkpt>
<trkpt lat="22.459646" lon="103.940086">
<ele>156.170044</ele>
<time>2011-04-22T02:21:00Z</time>
<desc>lat.=22.459646, lon.=103.940086, Alt.=156.170044m. Speed=0.036000m/h.</desc>
<speed>0.010000</speed>
</trkpt>
<trkpt lat="22.459646" lon="103.940086">
<ele>156.189575</ele>
<time>2011-04-22T02:21:05Z</time>
<desc>lat.=22.459646, lon.=103.940086, Alt.=156.189575m. Speed=0.108000m/h.</desc>
<speed>0.030000</speed>
</trkpt>
<trkpt lat="22.459646" lon="103.940079">
<ele>156.224731</ele>
<time>2011-04-22T02:21:10Z</time>
<desc>lat.=22.459646, lon.=103.940079, Alt.=156.224731m. Speed=0.000000m/h.</desc>
<speed>0.000000</speed>
</trkpt>
<trkpt lat="22.459646" lon="103.940079">
<ele>156.263794</ele>
<time>2011-04-22T02:21:15Z</time>
<desc>lat.=22.459646, lon.=103.940079, Alt.=156.263794m. Speed=0.036000m/h.</desc>
<speed>0.010000</speed>
</trkpt>
<trkpt lat="22.459646" lon="103.940079">
<ele>156.275513</ele>
<time>2011-04-22T02:21:20Z</time>
<desc>lat.=22.459646, lon.=103.940079, Alt.=156.275513m. Speed=0.000000m/h.</desc>
<speed>0.000000</speed>
</trkpt>
<trkpt lat="22.459648" lon="103.940079">
<ele>156.298950</ele>
<time>2011-04-22T02:21:25Z</time>
<desc>lat.=22.459648, lon.=103.940079, Alt.=156.298950m. Speed=0.000000m/h.</desc>
<speed>0.000000</speed>
</trkpt>
<trkpt lat="22.459648" lon="103.940079">
<ele>156.322388</ele>
<time>2011-04-22T02:21:30Z</time>
<desc>lat.=22.459648, lon.=103.940079, Alt.=156.322388m. Speed=0.036000m/h.</desc>
<speed>0.010000</speed>
</trkpt>
<trkpt lat="22.459648" lon="103.940079">
<ele>156.341919</ele>
<time>2011-04-22T02:21:35Z</time>
<desc>lat.=22.459648, lon.=103.940079, Alt.=156.341919m. Speed=0.036000m/h.</desc>
<speed>0.010000</speed>
</trkpt>
<trkpt lat="22.459648" lon="103.940079">
<ele>156.380981</ele>
<time>2011-04-22T02:21:40Z</time>
<desc>lat.=22.459648, lon.=103.940079, Alt.=156.380981m. Speed=0.036000m/h.</desc>
<speed>0.010000</speed>
</trkpt>
<trkpt lat="22.459650" lon="103.940079">
<ele>156.404419</ele>
<time>2011-04-22T02:21:45Z</time>
<desc>lat.=22.459650, lon.=103.940079, Alt.=156.404419m. Speed=0.036000m/h.</desc>
<speed>0.010000</speed>
</trkpt>
<trkpt lat="22.459650" lon="103.940079">
<ele>156.427856</ele>
<time>2011-04-22T02:21:50Z</time>
<desc>lat.=22.459650, lon.=103.940079, Alt.=156.427856m. Speed=0.000000m/h.</desc>
<speed>0.000000</speed>
</trkpt>
<trkpt lat="22.459650" lon="103.940079">
<ele>156.423950</ele>
<time>2011-04-22T02:21:55Z</time>
<desc>lat.=22.459650, lon.=103.940079, Alt.=156.423950m. Speed=0.000000m/h.</desc>
<speed>0.000000</speed>
</trkpt>
<trkpt lat="22.459650" lon="103.940079">
<ele>156.451294</ele>
<time>2011-04-22T02:22:00Z</time>
<desc>lat.=22.459650, lon.=103.940079, Alt.=156.451294m. Speed=0.000000m/h.</desc>
<speed>0.000000</speed>
</trkpt>
<trkpt lat="22.459648" lon="103.940079">
<ele>156.474731</ele>
<time>2011-04-22T02:22:05Z</time>
<desc>lat.=22.459648, lon.=103.940079, Alt.=156.474731m. Speed=0.000000m/h.</desc>
<speed>0.000000</speed>
</trkpt>
<trkpt lat="22.459648" lon="103.940079">
<ele>156.525513</ele>
<time>2011-04-22T02:22:10Z</time>
<desc>lat.=22.459648, lon.=103.940079, Alt.=156.525513m. Speed=0.036000m/h.</desc>
<speed>0.010000</speed>
</trkpt>
<trkpt lat="22.459648" lon="103.940079">
<ele>156.568481</ele>
<time>2011-04-22T02:22:15Z</time>
<desc>lat.=22.459648, lon.=103.940079, Alt.=156.568481m. Speed=0.036000m/h.</desc>
<speed>0.010000</speed>
</trkpt>
<trkpt lat="22.459648" lon="103.940079">
<ele>156.619263</ele>
<time>2011-04-22T02:22:20Z</time>
<desc>lat.=22.459648, lon.=103.940079, Alt.=156.619263m. Speed=0.036000m/h.</desc>
<speed>0.010000</speed>
</trkpt>
<trkpt lat="22.459648" lon="103.940079">
<ele>156.654419</ele>
<time>2011-04-22T02:22:25Z</time>
<desc>lat.=22.459648, lon.=103.940079, Alt.=156.654419m. Speed=0.252000m/h.</desc>
<speed>0.070000</speed>
</trkpt>
<trkpt lat="22.459648" lon="103.940079">
<ele>156.701294</ele>
<time>2011-04-22T02:22:30Z</time>
<desc>lat.=22.459648, lon.=103.940079, Alt.=156.701294m. Speed=0.000000m/h.</desc>
<speed>0.000000</speed>
</trkpt>
<trkpt lat="22.459648" lon="103.940079">
<ele>156.716919</ele>
<time>2011-04-22T02:22:35Z</time>
<desc>lat.=22.459648, lon.=103.940079, Alt.=156.716919m. Speed=0.036000m/h.</desc>
<speed>0.010000</speed>
</trkpt>
<trkpt lat="22.459648" lon="103.940079">
<ele>156.728638</ele>
<time>2011-04-22T02:22:40Z</time>
<desc>lat.=22.459648, lon.=103.940079, Alt.=156.728638m. Speed=0.360000m/h.</desc>
<speed>0.100000</speed>
</trkpt>
<trkpt lat="22.459646" lon="103.940086">
<ele>157.302856</ele>
<time>2011-04-22T02:22:45Z</time>
<desc>lat.=22.459646, lon.=103.940086, Alt.=157.302856m. Speed=0.108000m/h.</desc>
<speed>0.030000</speed>
</trkpt>
<trkpt lat="22.459646" lon="103.940094">
<ele>157.134888</ele>
<time>2011-04-22T02:22:50Z</time>
<desc>lat.=22.459646, lon.=103.940094, Alt.=157.134888m. Speed=0.180000m/h.</desc>
<speed>0.050000</speed>
</trkpt>
<trkpt lat="22.459648" lon="103.940094">
<ele>157.138794</ele>
<time>2011-04-22T02:22:55Z</time>
<desc>lat.=22.459648, lon.=103.940094, Alt.=157.138794m. Speed=0.000000m/h.</desc>
<speed>0.000000</speed>
</trkpt>
<trkpt lat="22.459648" lon="103.940094">
<ele>157.150513</ele>
<time>2011-04-22T02:23:00Z</time>
<desc>lat.=22.459648, lon.=103.940094, Alt.=157.150513m. Speed=0.216000m/h.</desc>
<speed>0.060000</speed>
</trkpt>
<trkpt lat="22.459648" lon="103.940094">
<ele>157.158325</ele>
<time>2011-04-22T02:23:05Z</time>
<desc>lat.=22.459648, lon.=103.940094, Alt.=157.158325m. Speed=0.756000m/h.</desc>
<speed>0.210000</speed>
</trkpt>
<trkpt lat="22.459641" lon="103.940010">
<ele>157.923950</ele>
<time>2011-04-22T02:23:10Z</time>
<desc>lat.=22.459641, lon.=103.940010, Alt.=157.923950m. Speed=9.216000m/h.</desc>
<speed>2.560000</speed>
</trkpt>
<trkpt lat="22.459639" lon="103.939880">
<ele>158.478638</ele>
<time>2011-04-22T02:23:15Z</time>
<desc>lat.=22.459639, lon.=103.939880, Alt.=158.478638m. Speed=9.540000m/h.</desc>
<speed>2.650000</speed>
</trkpt>
<trkpt lat="22.459621" lon="103.939751">
<ele>159.119263</ele>
<time>2011-04-22T02:23:20Z</time>
<desc>lat.=22.459621, lon.=103.939751, Alt.=159.119263m. Speed=9.324000m/h.</desc>
<speed>2.590000</speed>
</trkpt>
<trkpt lat="22.459604" lon="103.939621">
<ele>160.384888</ele>
<time>2011-04-22T02:23:25Z</time>
<desc>lat.=22.459604, lon.=103.939621, Alt.=160.384888m. Speed=10.728000m/h.</desc>
<speed>2.980000</speed>
</trkpt>
<trkpt lat="22.459587" lon="103.939461">
<ele>160.818481</ele>
<time>2011-04-22T02:23:30Z</time>
<desc>lat.=22.459587, lon.=103.939461, Alt.=160.818481m. Speed=10.908000m/h.</desc>
<speed>3.030000</speed>
</trkpt>
<trkpt lat="22.459560" lon="103.939308">
<ele>162.470825</ele>
<time>2011-04-22T02:23:35Z</time>
<desc>lat.=22.459560, lon.=103.939308, Alt.=162.470825m. Speed=11.160000m/h.</desc>
<speed>3.100000</speed>
</trkpt>
<trkpt lat="22.459501" lon="103.939186">
<ele>163.502075</ele>
<time>2011-04-22T02:23:40Z</time>
<desc>lat.=22.459501, lon.=103.939186, Alt.=163.502075m. Speed=9.324000m/h.</desc>
<speed>2.590000</speed>
</trkpt>
<trkpt lat="22.459393" lon="103.939110">
<ele>163.892700</ele>
<time>2011-04-22T02:23:45Z</time>
<desc>lat.=22.459393, lon.=103.939110, Alt.=163.892700m. Speed=10.584000m/h.</desc>
<speed>2.940000</speed>
</trkpt>
<trkpt lat="22.459251" lon="103.939102">
<ele>164.802856</ele>
<time>2011-04-22T02:23:50Z</time>
<desc>lat.=22.459251, lon.=103.939102, Alt.=164.802856m. Speed=10.944000m/h.</desc>
<speed>3.040000</speed>
</trkpt>
<trkpt lat="22.459101" lon="103.939133">
<ele>167.025513</ele>
<time>2011-04-22T02:23:55Z</time>
<desc>lat.=22.459101, lon.=103.939133, Alt.=167.025513m. Speed=12.276000m/h.</desc>
<speed>3.410000</speed>
</trkpt>
<trkpt lat="22.458946" lon="103.939163">
<ele>169.072388</ele>
<time>2011-04-22T02:24:00Z</time>
<desc>lat.=22.458946, lon.=103.939163, Alt.=169.072388m. Speed=11.592000m/h.</desc>
<speed>3.220000</speed>
</trkpt>
<trkpt lat="22.458809" lon="103.939194">
<ele>172.177856</ele>
<time>2011-04-22T02:24:05Z</time>
<desc>lat.=22.458809, lon.=103.939194, Alt.=172.177856m. Speed=9.720000m/h.</desc>
<speed>2.700000</speed>
</trkpt>
<trkpt lat="22.458693" lon="103.939217">
<ele>172.713013</ele>
<time>2011-04-22T02:24:10Z</time>
<desc>lat.=22.458693, lon.=103.939217, Alt.=172.713013m. Speed=10.188000m/h.</desc>
<speed>2.830000</speed>
</trkpt>
<trkpt lat="22.458586" lon="103.939278">
<ele>173.482544</ele>
<time>2011-04-22T02:24:15Z</time>
<desc>lat.=22.458586, lon.=103.939278, Alt.=173.482544m. Speed=9.612000m/h.</desc>
<speed>2.670000</speed>
</trkpt>
<trkpt lat="22.458490" lon="103.939339">
<ele>174.736450</ele>
<time>2011-04-22T02:24:20Z</time>
<desc>lat.=22.458490, lon.=103.939339, Alt.=174.736450m. Speed=9.036000m/h.</desc>
<speed>2.510000</speed>
</trkpt>
<trkpt lat="22.458384" lon="103.939384">
<ele>175.927856</ele>
<time>2011-04-22T02:24:25Z</time>
<desc>lat.=22.458384, lon.=103.939384, Alt.=175.927856m. Speed=12.384000m/h.</desc>
<speed>3.440000</speed>
</trkpt>
<trkpt lat="22.458227" lon="103.939430">
<ele>176.947388</ele>
<time>2011-04-22T02:24:30Z</time>
<desc>lat.=22.458227, lon.=103.939430, Alt.=176.947388m. Speed=12.600000m/h.</desc>
<speed>3.500000</speed>
</trkpt>
<trkpt lat="22.458086" lon="103.939369">
<ele>178.326294</ele>
<time>2011-04-22T02:24:35Z</time>
<desc>lat.=22.458086, lon.=103.939369, Alt.=178.326294m. Speed=10.944000m/h.</desc>
<speed>3.040000</speed>
</trkpt>
<trkpt lat="22.457972" lon="103.939293">
<ele>178.576294</ele>
<time>2011-04-22T02:24:40Z</time>
<desc>lat.=22.457972, lon.=103.939293, Alt.=178.576294m. Speed=10.908000m/h.</desc>
<speed>3.030000</speed>
</trkpt>
<trkpt lat="22.457878" lon="103.939186">
<ele>178.736450</ele>
<time>2011-04-22T02:24:45Z</time>
<desc>lat.=22.457878, lon.=103.939186, Alt.=178.736450m. Speed=10.908000m/h.</desc>
<speed>3.030000</speed>
</trkpt>
<trkpt lat="22.457819" lon="103.939056">
<ele>179.560669</ele>
<time>2011-04-22T02:24:50Z</time>
<desc>lat.=22.457819, lon.=103.939056, Alt.=179.560669m. Speed=10.548000m/h.</desc>
<speed>2.930000</speed>
</trkpt>
<trkpt lat="22.457825" lon="103.938927">
<ele>180.787231</ele>
<time>2011-04-22T02:24:55Z</time>
<desc>lat.=22.457825, lon.=103.938927, Alt.=180.787231m. Speed=7.740000m/h.</desc>
<speed>2.150000</speed>
</trkpt>
<trkpt lat="22.457861" lon="103.938820">
<ele>180.927856</ele>
<time>2011-04-22T02:25:00Z</time>
<desc>lat.=22.457861, lon.=103.938820, Alt.=180.927856m. Speed=9.540000m/h.</desc>
<speed>2.650000</speed>
</trkpt>
<trkpt lat="22.457924" lon="103.938698">
<ele>181.642700</ele>
<time>2011-04-22T02:25:05Z</time>
<desc>lat.=22.457924, lon.=103.938698, Alt.=181.642700m. Speed=9.396000m/h.</desc>
<speed>2.610000</speed>
</trkpt>
<trkpt lat="22.457983" lon="103.938591">
<ele>183.310669</ele>
<time>2011-04-22T02:25:10Z</time>
<desc>lat.=22.457983, lon.=103.938591, Alt.=183.310669m. Speed=9.396000m/h.</desc>
<speed>2.610000</speed>
</trkpt>
<trkpt lat="22.458040" lon="103.938477">
<ele>184.888794</ele>
<time>2011-04-22T02:25:15Z</time>
<desc>lat.=22.458040, lon.=103.938477, Alt.=184.888794m. Speed=8.496000m/h.</desc>
<speed>2.360000</speed>
</trkpt>
<trkpt lat="22.458090" lon="103.938377">
<ele>186.701294</ele>
<time>2011-04-22T02:25:20Z</time>
<desc>lat.=22.458090, lon.=103.938377, Alt.=186.701294m. Speed=8.784000m/h.</desc>
<speed>2.440000</speed>
</trkpt>
<trkpt lat="22.458141" lon="103.938271">
<ele>188.779419</ele>
<time>2011-04-22T02:25:25Z</time>
<desc>lat.=22.458141, lon.=103.938271, Alt.=188.779419m. Speed=8.928000m/h.</desc>
<speed>2.480000</speed>
</trkpt>
<trkpt lat="22.458187" lon="103.938171">
<ele>190.748169</ele>
<time>2011-04-22T02:25:30Z</time>
<desc>lat.=22.458187, lon.=103.938171, Alt.=190.748169m. Speed=7.884000m/h.</desc>
<speed>2.190000</speed>
</trkpt>
<trkpt lat="22.458237" lon="103.938080">
<ele>192.404419</ele>
<time>2011-04-22T02:25:35Z</time>
<desc>lat.=22.458237, lon.=103.938080, Alt.=192.404419m. Speed=8.496000m/h.</desc>
<speed>2.360000</speed>
</trkpt>
<trkpt lat="22.458288" lon="103.937973">
<ele>194.009888</ele>
<time>2011-04-22T02:25:40Z</time>
<desc>lat.=22.458288, lon.=103.937973, Alt.=194.009888m. Speed=8.856000m/h.</desc>
<speed>2.460000</speed>
</trkpt>
<trkpt lat="22.458349" lon="103.937866">
<ele>195.658325</ele>
<time>2011-04-22T02:25:45Z</time>
<desc>lat.=22.458349, lon.=103.937866, Alt.=195.658325m. Speed=9.432000m/h.</desc>
<speed>2.620000</speed>
</trkpt>
<trkpt lat="22.458401" lon="103.937759">
<ele>197.338013</ele>
<time>2011-04-22T02:25:50Z</time>
<desc>lat.=22.458401, lon.=103.937759, Alt.=197.338013m. Speed=8.784000m/h.</desc>
<speed>2.440000</speed>
</trkpt>
<trkpt lat="22.458427" lon="103.937653">
<ele>200.005981</ele>
<time>2011-04-22T02:25:55Z</time>
<desc>lat.=22.458427, lon.=103.937653, Alt.=200.005981m. Speed=9.684000m/h.</desc>
<speed>2.690000</speed>
</trkpt>
<trkpt lat="22.458406" lon="103.937531">
<ele>202.209106</ele>
<time>2011-04-22T02:26:00Z</time>
<desc>lat.=22.458406, lon.=103.937531, Alt.=202.209106m. Speed=9.252000m/h.</desc>
<speed>2.570000</speed>
</trkpt>
<trkpt lat="22.458349" lon="103.937447">
<ele>203.388794</ele>
<time>2011-04-22T02:26:05Z</time>
<desc>lat.=22.458349, lon.=103.937447, Alt.=203.388794m. Speed=3.924000m/h.</desc>
<speed>1.090000</speed>
</trkpt>
<trkpt lat="22.458351" lon="103.937439">
<ele>201.814575</ele>
<time>2011-04-22T02:26:10Z</time>
<desc>lat.=22.458351, lon.=103.937439, Alt.=201.814575m. Speed=0.972000m/h.</desc>
<speed>0.270000</speed>
</trkpt>
<trkpt lat="22.458305" lon="103.937416">
<ele>201.943481</ele>
<time>2011-04-22T02:26:15Z</time>
<desc>lat.=22.458305, lon.=103.937416, Alt.=201.943481m. Speed=7.884000m/h.</desc>
<speed>2.190000</speed>
</trkpt>
<trkpt lat="22.458206" lon="103.937363">
<ele>201.935669</ele>
<time>2011-04-22T02:26:20Z</time>
<desc>lat.=22.458206, lon.=103.937363, Alt.=201.935669m. Speed=8.784000m/h.</desc>
<speed>2.440000</speed>
</trkpt>
<trkpt lat="22.458096" lon="103.937386">
<ele>201.345825</ele>
<time>2011-04-22T02:26:25Z</time>
<desc>lat.=22.458096, lon.=103.937386, Alt.=201.345825m. Speed=8.856000m/h.</desc>
<speed>2.460000</speed>
</trkpt>
<trkpt lat="22.457996" lon="103.937439">
<ele>199.662231</ele>
<time>2011-04-22T02:26:30Z</time>
<desc>lat.=22.457996, lon.=103.937439, Alt.=199.662231m. Speed=8.604000m/h.</desc>
<speed>2.390000</speed>
</trkpt>
<trkpt lat="22.457899" lon="103.937492">
<ele>200.189575</ele>
<time>2011-04-22T02:26:35Z</time>
<desc>lat.=22.457899, lon.=103.937492, Alt.=200.189575m. Speed=8.532000m/h.</desc>
<speed>2.370000</speed>
</trkpt>
<trkpt lat="22.457842" lon="103.937531">
<ele>199.584106</ele>
<time>2011-04-22T02:26:40Z</time>
<desc>lat.=22.457842, lon.=103.937531, Alt.=199.584106m. Speed=0.936000m/h.</desc>
<speed>0.260000</speed>
</trkpt>
<trkpt lat="22.457811" lon="103.937531">
<ele>199.845825</ele>
<time>2011-04-22T02:26:45Z</time>
<desc>lat.=22.457811, lon.=103.937531, Alt.=199.845825m. Speed=0.396000m/h.</desc>
<speed>0.110000</speed>
</trkpt>
<trkpt lat="22.457809" lon="103.937523">
<ele>200.216919</ele>
<time>2011-04-22T02:26:50Z</time>
<desc>lat.=22.457809, lon.=103.937523, Alt.=200.216919m. Speed=0.144000m/h.</desc>
<speed>0.040000</speed>
</trkpt>
<trkpt lat="22.457811" lon="103.937523">
<ele>200.220825</ele>
<time>2011-04-22T02:26:55Z</time>
<desc>lat.=22.457811, lon.=103.937523, Alt.=200.220825m. Speed=0.108000m/h.</desc>
<speed>0.030000</speed>
</trkpt>
<trkpt lat="22.457811" lon="103.937523">
<ele>200.060669</ele>
<time>2011-04-22T02:27:00Z</time>
<desc>lat.=22.457811, lon.=103.937523, Alt.=200.060669m. Speed=0.036000m/h.</desc>
<speed>0.010000</speed>
</trkpt>
<trkpt lat="22.457811" lon="103.937523">
<ele>200.033325</ele>
<time>2011-04-22T02:27:05Z</time>
<desc>lat.=22.457811, lon.=103.937523, Alt.=200.033325m. Speed=0.036000m/h.</desc>
<speed>0.010000</speed>
</trkpt>
<trkpt lat="22.457811" lon="103.937523">
<ele>200.013794</ele>
<time>2011-04-22T02:27:10Z</time>
<desc>lat.=22.457811, lon.=103.937523, Alt.=200.013794m. Speed=0.036000m/h.</desc>
<speed>0.010000</speed>
</trkpt>
<trkpt lat="22.457811" lon="103.937523">
<ele>200.048950</ele>
<time>2011-04-22T02:27:15Z</time>
<desc>lat.=22.457811, lon.=103.937523, Alt.=200.048950m. Speed=0.036000m/h.</desc>
<speed>0.010000</speed>
</trkpt>
<trkpt lat="22.457811" lon="103.937523">
<ele>200.091919</ele>
<time>2011-04-22T02:27:20Z</time>
<desc>lat.=22.457811, lon.=103.937523, Alt.=200.091919m. Speed=0.504000m/h.</desc>
<speed>0.140000</speed>
</trkpt>
<trkpt lat="22.457802" lon="103.937531">
<ele>200.314575</ele>
<time>2011-04-22T02:27:25Z</time>
<desc>lat.=22.457802, lon.=103.937531, Alt.=200.314575m. Speed=5.796000m/h.</desc>
<speed>1.610000</speed>
</trkpt>
<trkpt lat="22.457708" lon="103.937592">
<ele>202.181763</ele>
<time>2011-04-22T02:27:30Z</time>
<desc>lat.=22.457708, lon.=103.937592, Alt.=202.181763m. Speed=9.504000m/h.</desc>
<speed>2.640000</speed>
</trkpt>
<trkpt lat="22.457598" lon="103.937653">
<ele>202.091919</ele>
<time>2011-04-22T02:27:35Z</time>
<desc>lat.=22.457598, lon.=103.937653, Alt.=202.091919m. Speed=9.936000m/h.</desc>
<speed>2.760000</speed>
</trkpt>
<trkpt lat="22.457483" lon="103.937698">
<ele>202.482544</ele>
<time>2011-04-22T02:27:40Z</time>
<desc>lat.=22.457483, lon.=103.937698, Alt.=202.482544m. Speed=9.864000m/h.</desc>
<speed>2.740000</speed>
</trkpt>
<trkpt lat="22.457359" lon="103.937714">
<ele>202.451294</ele>
<time>2011-04-22T02:27:45Z</time>
<desc>lat.=22.457359, lon.=103.937714, Alt.=202.451294m. Speed=9.360000m/h.</desc>
<speed>2.600000</speed>
</trkpt>
<trkpt lat="22.457235" lon="103.937698">
<ele>202.341919</ele>
<time>2011-04-22T02:27:50Z</time>
<desc>lat.=22.457235, lon.=103.937698, Alt.=202.341919m. Speed=9.720000m/h.</desc>
<speed>2.700000</speed>
</trkpt>
<trkpt lat="22.457115" lon="103.937668">
<ele>202.259888</ele>
<time>2011-04-22T02:27:55Z</time>
<desc>lat.=22.457115, lon.=103.937668, Alt.=202.259888m. Speed=9.972000m/h.</desc>
<speed>2.770000</speed>
</trkpt>
<trkpt lat="22.456987" lon="103.937637">
<ele>202.474731</ele>
<time>2011-04-22T02:28:00Z</time>
<desc>lat.=22.456987, lon.=103.937637, Alt.=202.474731m. Speed=10.080000m/h.</desc>
<speed>2.800000</speed>
</trkpt>
<trkpt lat="22.456860" lon="103.937607">
<ele>202.482544</ele>
<time>2011-04-22T02:28:05Z</time>
<desc>lat.=22.456860, lon.=103.937607, Alt.=202.482544m. Speed=9.468000m/h.</desc>
<speed>2.630000</speed>
</trkpt>
<trkpt lat="22.456757" lon="103.937576">
<ele>202.736450</ele>
<time>2011-04-22T02:28:10Z</time>
<desc>lat.=22.456757, lon.=103.937576, Alt.=202.736450m. Speed=8.172000m/h.</desc>
<speed>2.270000</speed>
</trkpt>
<trkpt lat="22.456648" lon="103.937553">
<ele>203.533325</ele>
<time>2011-04-22T02:28:15Z</time>
<desc>lat.=22.456648, lon.=103.937553, Alt.=203.533325m. Speed=9.396000m/h.</desc>
<speed>2.610000</speed>
</trkpt>
<trkpt lat="22.456528" lon="103.937523">
<ele>204.779419</ele>
<time>2011-04-22T02:28:20Z</time>
<desc>lat.=22.456528, lon.=103.937523, Alt.=204.779419m. Speed=10.224000m/h.</desc>
<speed>2.840000</speed>
</trkpt>
<trkpt lat="22.456408" lon="103.937538">
<ele>206.310669</ele>
<time>2011-04-22T02:28:25Z</time>
<desc>lat.=22.456408, lon.=103.937538, Alt.=206.310669m. Speed=7.920000m/h.</desc>
<speed>2.200000</speed>
</trkpt>
<trkpt lat="22.456314" lon="103.937500">
<ele>207.091919</ele>
<time>2011-04-22T02:28:30Z</time>
<desc>lat.=22.456314, lon.=103.937500, Alt.=207.091919m. Speed=6.516000m/h.</desc>
<speed>1.810000</speed>
</trkpt>
<trkpt lat="22.456253" lon="103.937500">
<ele>206.302856</ele>
<time>2011-04-22T02:28:35Z</time>
<desc>lat.=22.456253, lon.=103.937500, Alt.=206.302856m. Speed=2.232000m/h.</desc>
<speed>0.620000</speed>
</trkpt>
<trkpt lat="22.456245" lon="103.937492">
<ele>206.259888</ele>
<time>2011-04-22T02:28:40Z</time>
<desc>lat.=22.456245, lon.=103.937492, Alt.=206.259888m. Speed=0.432000m/h.</desc>
<speed>0.120000</speed>
</trkpt>
<trkpt lat="22.456245" lon="103.937492">
<ele>206.048950</ele>
<time>2011-04-22T02:28:45Z</time>
<desc>lat.=22.456245, lon.=103.937492, Alt.=206.048950m. Speed=0.144000m/h.</desc>
<speed>0.040000</speed>
</trkpt>
<trkpt lat="22.456247" lon="103.937492">
<ele>205.849731</ele>
<time>2011-04-22T02:28:50Z</time>
<desc>lat.=22.456247, lon.=103.937492, Alt.=205.849731m. Speed=0.360000m/h.</desc>
<speed>0.100000</speed>
</trkpt>
<trkpt lat="22.456251" lon="103.937492">
<ele>205.724731</ele>
<time>2011-04-22T02:28:55Z</time>
<desc>lat.=22.456251, lon.=103.937492, Alt.=205.724731m. Speed=0.036000m/h.</desc>
<speed>0.010000</speed>
</trkpt>
<trkpt lat="22.456251" lon="103.937492">
<ele>205.720825</ele>
<time>2011-04-22T02:29:00Z</time>
<desc>lat.=22.456251, lon.=103.937492, Alt.=205.720825m. Speed=0.036000m/h.</desc>
<speed>0.010000</speed>
</trkpt>
<trkpt lat="22.456251" lon="103.937492">
<ele>205.736450</ele>
<time>2011-04-22T02:29:05Z</time>
<desc>lat.=22.456251, lon.=103.937492, Alt.=205.736450m. Speed=0.144000m/h.</desc>
<speed>0.040000</speed>
</trkpt>
<trkpt lat="22.456251" lon="103.937492">
<ele>205.740356</ele>
<time>2011-04-22T02:29:10Z</time>
<desc>lat.=22.456251, lon.=103.937492, Alt.=205.740356m. Speed=0.324000m/h.</desc>
<speed>0.090000</speed>
</trkpt>
<trkpt lat="22.456251" lon="103.937492">
<ele>205.748169</ele>
<time>2011-04-22T02:29:15Z</time>
<desc>lat.=22.456251, lon.=103.937492, Alt.=205.748169m. Speed=0.036000m/h.</desc>
<speed>0.010000</speed>
</trkpt>
<trkpt lat="22.456251" lon="103.937492">
<ele>205.752075</ele>
<time>2011-04-22T02:29:20Z</time>
<desc>lat.=22.456251, lon.=103.937492, Alt.=205.752075m. Speed=0.000000m/h.</desc>
<speed>0.000000</speed>
</trkpt>
<trkpt lat="22.456251" lon="103.937492">
<ele>205.759888</ele>
<time>2011-04-22T02:29:25Z</time>
<desc>lat.=22.456251, lon.=103.937492, Alt.=205.759888m. Speed=0.036000m/h.</desc>
<speed>0.010000</speed>
</trkpt>
<trkpt lat="22.456251" lon="103.937492">
<ele>205.775513</ele>
<time>2011-04-22T02:29:30Z</time>
<desc>lat.=22.456251, lon.=103.937492, Alt.=205.775513m. Speed=0.000000m/h.</desc>
<speed>0.000000</speed>
</trkpt>
<trkpt lat="22.456251" lon="103.937492">
<ele>205.779419</ele>
<time>2011-04-22T02:29:35Z</time>
<desc>lat.=22.456251, lon.=103.937492, Alt.=205.779419m. Speed=0.252000m/h.</desc>
<speed>0.070000</speed>
</trkpt>
<trkpt lat="22.456251" lon="103.937492">
<ele>205.791138</ele>
<time>2011-04-22T02:29:40Z</time>
<desc>lat.=22.456251, lon.=103.937492, Alt.=205.791138m. Speed=0.072000m/h.</desc>
<speed>0.020000</speed>
</trkpt>
<trkpt lat="22.456251" lon="103.937492">
<ele>205.798950</ele>
<time>2011-04-22T02:29:45Z</time>
<desc>lat.=22.456251, lon.=103.937492, Alt.=205.798950m. Speed=0.036000m/h.</desc>
<speed>0.010000</speed>
</trkpt>
<trkpt lat="22.456251" lon="103.937492">
<ele>205.798950</ele>
<time>2011-04-22T02:29:50Z</time>
<desc>lat.=22.456251, lon.=103.937492, Alt.=205.798950m. Speed=0.036000m/h.</desc>
<speed>0.010000</speed>
</trkpt>
<trkpt lat="22.456251" lon="103.937492">
<ele>205.798950</ele>
<time>2011-04-22T02:29:55Z</time>
<desc>lat.=22.456251, lon.=103.937492, Alt.=205.798950m. Speed=0.216000m/h.</desc>
<speed>0.060000</speed>
</trkpt>
<trkpt lat="22.456251" lon="103.937492">
<ele>205.795044</ele>
<time>2011-04-22T02:30:00Z</time>
<desc>lat.=22.456251, lon.=103.937492, Alt.=205.795044m. Speed=0.072000m/h.</desc>
<speed>0.020000</speed>
</trkpt>
<trkpt lat="22.456251" lon="103.937492">
<ele>205.795044</ele>
<time>2011-04-22T02:30:05Z</time>
<desc>lat.=22.456251, lon.=103.937492, Alt.=205.795044m. Speed=0.108000m/h.</desc>
<speed>0.030000</speed>
</trkpt>
<trkpt lat="22.456251" lon="103.937492">
<ele>205.783325</ele>
<time>2011-04-22T02:30:10Z</time>
<desc>lat.=22.456251, lon.=103.937492, Alt.=205.783325m. Speed=0.072000m/h.</desc>
<speed>0.020000</speed>
</trkpt>
<trkpt lat="22.456251" lon="103.937492">
<ele>205.787231</ele>
<time>2011-04-22T02:30:15Z</time>
<desc>lat.=22.456251, lon.=103.937492, Alt.=205.787231m. Speed=0.072000m/h.</desc>
<speed>0.020000</speed>
</trkpt>
<trkpt lat="22.456251" lon="103.937492">
<ele>205.795044</ele>
<time>2011-04-22T02:30:20Z</time>
<desc>lat.=22.456251, lon.=103.937492, Alt.=205.795044m. Speed=0.072000m/h.</desc>
<speed>0.020000</speed>
</trkpt>
<trkpt lat="22.456251" lon="103.937492">
<ele>205.798950</ele>
<time>2011-04-22T02:30:25Z</time>
<desc>lat.=22.456251, lon.=103.937492, Alt.=205.798950m. Speed=0.036000m/h.</desc>
<speed>0.010000</speed>
</trkpt>
<trkpt lat="22.456251" lon="103.937492">
<ele>205.806763</ele>
<time>2011-04-22T02:30:30Z</time>
<desc>lat.=22.456251, lon.=103.937492, Alt.=205.806763m. Speed=0.000000m/h.</desc>
<speed>0.000000</speed>
</trkpt>
<trkpt lat="22.456251" lon="103.937492">
<ele>205.826294</ele>
<time>2011-04-22T02:30:35Z</time>
<desc>lat.=22.456251, lon.=103.937492, Alt.=205.826294m. Speed=0.036000m/h.</desc>
<speed>0.010000</speed>
</trkpt>
<trkpt lat="22.456251" lon="103.937492">
<ele>205.838013</ele>
<time>2011-04-22T02:30:40Z</time>
<desc>lat.=22.456251, lon.=103.937492, Alt.=205.838013m. Speed=0.036000m/h.</desc>
<speed>0.010000</speed>
</trkpt>
<trkpt lat="22.456251" lon="103.937492">
<ele>205.853638</ele>
<time>2011-04-22T02:30:45Z</time>
<desc>lat.=22.456251, lon.=103.937492, Alt.=205.853638m. Speed=0.000000m/h.</desc>
<speed>0.000000</speed>
</trkpt>
<trkpt lat="22.456251" lon="103.937492">
<ele>205.873169</ele>
<time>2011-04-22T02:30:50Z</time>
<desc>lat.=22.456251, lon.=103.937492, Alt.=205.873169m. Speed=0.000000m/h.</desc>
<speed>0.000000</speed>
</trkpt>
<trkpt lat="22.456251" lon="103.937492">
<ele>205.880981</ele>
<time>2011-04-22T02:30:55Z</time>
<desc>lat.=22.456251, lon.=103.937492, Alt.=205.880981m. Speed=0.036000m/h.</desc>
<speed>0.010000</speed>
</trkpt>
<trkpt lat="22.456251" lon="103.937492">
<ele>205.904419</ele>
<time>2011-04-22T02:31:00Z</time>
<desc>lat.=22.456251, lon.=103.937492, Alt.=205.904419m. Speed=0.108000m/h.</desc>
<speed>0.030000</speed>
</trkpt>
<trkpt lat="22.456251" lon="103.937492">
<ele>205.923950</ele>
<time>2011-04-22T02:31:05Z</time>
<desc>lat.=22.456251, lon.=103.937492, Alt.=205.923950m. Speed=0.000000m/h.</desc>
<speed>0.000000</speed>
</trkpt>
<trkpt lat="22.456251" lon="103.937492">
<ele>205.939575</ele>
<time>2011-04-22T02:31:10Z</time>
<desc>lat.=22.456251, lon.=103.937492, Alt.=205.939575m. Speed=0.108000m/h.</desc>
<speed>0.030000</speed>
</trkpt>
<trkpt lat="22.456251" lon="103.937492">
<ele>205.951294</ele>
<time>2011-04-22T02:31:15Z</time>
<desc>lat.=22.456251, lon.=103.937492, Alt.=205.951294m. Speed=0.036000m/h.</desc>
<speed>0.010000</speed>
</trkpt>
<trkpt lat="22.456251" lon="103.937492">
<ele>205.951294</ele>
<time>2011-04-22T02:31:20Z</time>
<desc>lat.=22.456251, lon.=103.937492, Alt.=205.951294m. Speed=0.000000m/h.</desc>
<speed>0.000000</speed>
</trkpt>
<trkpt lat="22.456251" lon="103.937492">
<ele>205.974731</ele>
<time>2011-04-22T02:31:25Z</time>
<desc>lat.=22.456251, lon.=103.937492, Alt.=205.974731m. Speed=0.036000m/h.</desc>
<speed>0.010000</speed>
</trkpt>
<trkpt lat="22.456251" lon="103.937492">
<ele>205.978638</ele>
<time>2011-04-22T02:31:30Z</time>
<desc>lat.=22.456251, lon.=103.937492, Alt.=205.978638m. Speed=0.036000m/h.</desc>
<speed>0.010000</speed>
</trkpt>
<trkpt lat="22.456251" lon="103.937492">
<ele>206.009888</ele>
<time>2011-04-22T02:31:35Z</time>
<desc>lat.=22.456251, lon.=103.937492, Alt.=206.009888m. Speed=0.000000m/h.</desc>
<speed>0.000000</speed>
</trkpt>
<trkpt lat="22.456251" lon="103.937492">
<ele>206.025513</ele>
<time>2011-04-22T02:31:40Z</time>
<desc>lat.=22.456251, lon.=103.937492, Alt.=206.025513m. Speed=0.036000m/h.</desc>
<speed>0.010000</speed>
</trkpt>
<trkpt lat="22.456251" lon="103.937492">
<ele>206.037231</ele>
<time>2011-04-22T02:31:45Z</time>
<desc>lat.=22.456251, lon.=103.937492, Alt.=206.037231m. Speed=0.036000m/h.</desc>
<speed>0.010000</speed>
</trkpt>
<trkpt lat="22.456251" lon="103.937492">
<ele>206.064575</ele>
<time>2011-04-22T02:31:50Z</time>
<desc>lat.=22.456251, lon.=103.937492, Alt.=206.064575m. Speed=0.000000m/h.</desc>
<speed>0.000000</speed>
</trkpt>
<trkpt lat="22.456251" lon="103.937492">
<ele>206.064575</ele>
<time>2011-04-22T02:31:55Z</time>
<desc>lat.=22.456251, lon.=103.937492, Alt.=206.064575m. Speed=0.036000m/h.</desc>
<speed>0.010000</speed>
</trkpt>
<trkpt lat="22.456251" lon="103.937492">
<ele>206.076294</ele>
<time>2011-04-22T02:32:00Z</time>
<desc>lat.=22.456251, lon.=103.937492, Alt.=206.076294m. Speed=0.036000m/h.</desc>
<speed>0.010000</speed>
</trkpt>
<trkpt lat="22.456251" lon="103.937492">
<ele>206.103638</ele>
<time>2011-04-22T02:32:05Z</time>
<desc>lat.=22.456251, lon.=103.937492, Alt.=206.103638m. Speed=0.072000m/h.</desc>
<speed>0.020000</speed>
</trkpt>
<trkpt lat="22.456251" lon="103.937492">
<ele>206.127075</ele>
<time>2011-04-22T02:32:10Z</time>
<desc>lat.=22.456251, lon.=103.937492, Alt.=206.127075m. Speed=0.036000m/h.</desc>
<speed>0.010000</speed>
</trkpt>
<trkpt lat="22.456251" lon="103.937492">
<ele>206.146606</ele>
<time>2011-04-22T02:32:15Z</time>
<desc>lat.=22.456251, lon.=103.937492, Alt.=206.146606m. Speed=0.036000m/h.</desc>
<speed>0.010000</speed>
</trkpt>
<trkpt lat="22.456251" lon="103.937492">
<ele>206.185669</ele>
<time>2011-04-22T02:32:20Z</time>
<desc>lat.=22.456251, lon.=103.937492, Alt.=206.185669m. Speed=0.000000m/h.</desc>
<speed>0.000000</speed>
</trkpt>
<trkpt lat="22.456251" lon="103.937492">
<ele>206.205200</ele>
<time>2011-04-22T02:32:25Z</time>
<desc>lat.=22.456251, lon.=103.937492, Alt.=206.205200m. Speed=0.000000m/h.</desc>
<speed>0.000000</speed>
</trkpt>
<trkpt lat="22.456251" lon="103.937492">
<ele>206.228638</ele>
<time>2011-04-22T02:32:30Z</time>
<desc>lat.=22.456251, lon.=103.937492, Alt.=206.228638m. Speed=0.036000m/h.</desc>
<speed>0.010000</speed>
</trkpt>
<trkpt lat="22.456251" lon="103.937492">
<ele>206.252075</ele>
<time>2011-04-22T02:32:35Z</time>
<desc>lat.=22.456251, lon.=103.937492, Alt.=206.252075m. Speed=0.000000m/h.</desc>
<speed>0.000000</speed>
</trkpt>
<trkpt lat="22.456251" lon="103.937492">
<ele>206.267700</ele>
<time>2011-04-22T02:32:40Z</time>
<desc>lat.=22.456251, lon.=103.937492, Alt.=206.267700m. Speed=0.036000m/h.</desc>
<speed>0.010000</speed>
</trkpt>
<trkpt lat="22.456253" lon="103.937492">
<ele>206.295044</ele>
<time>2011-04-22T02:32:45Z</time>
<desc>lat.=22.456253, lon.=103.937492, Alt.=206.295044m. Speed=0.036000m/h.</desc>
<speed>0.010000</speed>
</trkpt>
<trkpt lat="22.456253" lon="103.937492">
<ele>206.330200</ele>
<time>2011-04-22T02:32:50Z</time>
<desc>lat.=22.456253, lon.=103.937492, Alt.=206.330200m. Speed=0.036000m/h.</desc>
<speed>0.010000</speed>
</trkpt>
<trkpt lat="22.456253" lon="103.937492">
<ele>206.349731</ele>
<time>2011-04-22T02:32:55Z</time>
<desc>lat.=22.456253, lon.=103.937492, Alt.=206.349731m. Speed=0.072000m/h.</desc>
<speed>0.020000</speed>
</trkpt>
<trkpt lat="22.456253" lon="103.937492">
<ele>206.365356</ele>
<time>2011-04-22T02:33:00Z</time>
<desc>lat.=22.456253, lon.=103.937492, Alt.=206.365356m. Speed=0.000000m/h.</desc>
<speed>0.000000</speed>
</trkpt>
<trkpt lat="22.456253" lon="103.937492">
<ele>206.373169</ele>
<time>2011-04-22T02:33:05Z</time>
<desc>lat.=22.456253, lon.=103.937492, Alt.=206.373169m. Speed=0.036000m/h.</desc>
<speed>0.010000</speed>
</trkpt>
<trkpt lat="22.456253" lon="103.937492">
<ele>206.392700</ele>
<time>2011-04-22T02:33:10Z</time>
<desc>lat.=22.456253, lon.=103.937492, Alt.=206.392700m. Speed=0.144000m/h.</desc>
<speed>0.040000</speed>
</trkpt>
<trkpt lat="22.456253" lon="103.937492">
<ele>206.427856</ele>
<time>2011-04-22T02:33:15Z</time>
<desc>lat.=22.456253, lon.=103.937492, Alt.=206.427856m. Speed=0.036000m/h.</desc>
<speed>0.010000</speed>
</trkpt>
<trkpt lat="22.456253" lon="103.937492">
<ele>206.459106</ele>
<time>2011-04-22T02:33:20Z</time>
<desc>lat.=22.456253, lon.=103.937492, Alt.=206.459106m. Speed=0.036000m/h.</desc>
<speed>0.010000</speed>
</trkpt>
<trkpt lat="22.456253" lon="103.937492">
<ele>206.478638</ele>
<time>2011-04-22T02:33:25Z</time>
<desc>lat.=22.456253, lon.=103.937492, Alt.=206.478638m. Speed=0.072000m/h.</desc>
<speed>0.020000</speed>
</trkpt>
<trkpt lat="22.456253" lon="103.937492">
<ele>206.482544</ele>
<time>2011-04-22T02:33:30Z</time>
<desc>lat.=22.456253, lon.=103.937492, Alt.=206.482544m. Speed=0.000000m/h.</desc>
<speed>0.000000</speed>
</trkpt>
<trkpt lat="22.456253" lon="103.937492">
<ele>206.509888</ele>
<time>2011-04-22T02:33:35Z</time>
<desc>lat.=22.456253, lon.=103.937492, Alt.=206.509888m. Speed=0.000000m/h.</desc>
<speed>0.000000</speed>
</trkpt>
<trkpt lat="22.456253" lon="103.937492">
<ele>206.517700</ele>
<time>2011-04-22T02:33:40Z</time>
<desc>lat.=22.456253, lon.=103.937492, Alt.=206.517700m. Speed=0.000000m/h.</desc>
<speed>0.000000</speed>
</trkpt>
<trkpt lat="22.456253" lon="103.937492">
<ele>206.525513</ele>
<time>2011-04-22T02:33:45Z</time>
<desc>lat.=22.456253, lon.=103.937492, Alt.=206.525513m. Speed=0.000000m/h.</desc>
<speed>0.000000</speed>
</trkpt>
<trkpt lat="22.456253" lon="103.937492">
<ele>206.545044</ele>
<time>2011-04-22T02:33:50Z</time>
<desc>lat.=22.456253, lon.=103.937492, Alt.=206.545044m. Speed=0.000000m/h.</desc>
<speed>0.000000</speed>
</trkpt>
<trkpt lat="22.456253" lon="103.937492">
<ele>206.564575</ele>
<time>2011-04-22T02:33:55Z</time>
<desc>lat.=22.456253, lon.=103.937492, Alt.=206.564575m. Speed=0.036000m/h.</desc>
<speed>0.010000</speed>
</trkpt>
<trkpt lat="22.456253" lon="103.937492">
<ele>206.576294</ele>
<time>2011-04-22T02:34:00Z</time>
<desc>lat.=22.456253, lon.=103.937492, Alt.=206.576294m. Speed=0.036000m/h.</desc>
<speed>0.010000</speed>
</trkpt>
<trkpt lat="22.456253" lon="103.937492">
<ele>206.595825</ele>
<time>2011-04-22T02:34:05Z</time>
<desc>lat.=22.456253, lon.=103.937492, Alt.=206.595825m. Speed=0.000000m/h.</desc>
<speed>0.000000</speed>
</trkpt>
<trkpt lat="22.456253" lon="103.937492">
<ele>206.619263</ele>
<time>2011-04-22T02:34:10Z</time>
<desc>lat.=22.456253, lon.=103.937492, Alt.=206.619263m. Speed=0.000000m/h.</desc>
<speed>0.000000</speed>
</trkpt>
<trkpt lat="22.456253" lon="103.937492">
<ele>206.650513</ele>
<time>2011-04-22T02:34:15Z</time>
<desc>lat.=22.456253, lon.=103.937492, Alt.=206.650513m. Speed=0.000000m/h.</desc>
<speed>0.000000</speed>
</trkpt>
<trkpt lat="22.456253" lon="103.937492">
<ele>206.662231</ele>
<time>2011-04-22T02:34:20Z</time>
<desc>lat.=22.456253, lon.=103.937492, Alt.=206.662231m. Speed=0.144000m/h.</desc>
<speed>0.040000</speed>
</trkpt>
<trkpt lat="22.456253" lon="103.937492">
<ele>206.677856</ele>
<time>2011-04-22T02:34:25Z</time>
<desc>lat.=22.456253, lon.=103.937492, Alt.=206.677856m. Speed=0.072000m/h.</desc>
<speed>0.020000</speed>
</trkpt>
<trkpt lat="22.456253" lon="103.937492">
<ele>206.670044</ele>
<time>2011-04-22T02:34:30Z</time>
<desc>lat.=22.456253, lon.=103.937492, Alt.=206.670044m. Speed=0.072000m/h.</desc>
<speed>0.020000</speed>
</trkpt>
<trkpt lat="22.456253" lon="103.937492">
<ele>206.615356</ele>
<time>2011-04-22T02:34:35Z</time>
<desc>lat.=22.456253, lon.=103.937492, Alt.=206.615356m. Speed=0.000000m/h.</desc>
<speed>0.000000</speed>
</trkpt>
<trkpt lat="22.456253" lon="103.937492">
<ele>206.607544</ele>
<time>2011-04-22T02:34:40Z</time>
<desc>lat.=22.456253, lon.=103.937492, Alt.=206.607544m. Speed=0.036000m/h.</desc>
<speed>0.010000</speed>
</trkpt>
<trkpt lat="22.456253" lon="103.937492">
<ele>206.611450</ele>
<time>2011-04-22T02:34:45Z</time>
<desc>lat.=22.456253, lon.=103.937492, Alt.=206.611450m. Speed=0.000000m/h.</desc>
<speed>0.000000</speed>
</trkpt>
<trkpt lat="22.456251" lon="103.937492">
<ele>206.603638</ele>
<time>2011-04-22T02:34:50Z</time>
<desc>lat.=22.456251, lon.=103.937492, Alt.=206.603638m. Speed=0.036000m/h.</desc>
<speed>0.010000</speed>
</trkpt>
<trkpt lat="22.456251" lon="103.937492">
<ele>206.591919</ele>
<time>2011-04-22T02:34:55Z</time>
<desc>lat.=22.456251, lon.=103.937492, Alt.=206.591919m. Speed=0.036000m/h.</desc>
<speed>0.010000</speed>
</trkpt>
<trkpt lat="22.456251" lon="103.937492">
<ele>206.591919</ele>
<time>2011-04-22T02:35:00Z</time>
<desc>lat.=22.456251, lon.=103.937492, Alt.=206.591919m. Speed=0.000000m/h.</desc>
<speed>0.000000</speed>
</trkpt>
<trkpt lat="22.456251" lon="103.937492">
<ele>206.584106</ele>
<time>2011-04-22T02:35:05Z</time>
<desc>lat.=22.456251, lon.=103.937492, Alt.=206.584106m. Speed=0.000000m/h.</desc>
<speed>0.000000</speed>
</trkpt>
<trkpt lat="22.456251" lon="103.937492">
<ele>206.584106</ele>
<time>2011-04-22T02:35:10Z</time>
<desc>lat.=22.456251, lon.=103.937492, Alt.=206.584106m. Speed=0.000000m/h.</desc>
<speed>0.000000</speed>
</trkpt>
<trkpt lat="22.456251" lon="103.937492">
<ele>206.564575</ele>
<time>2011-04-22T02:35:15Z</time>
<desc>lat.=22.456251, lon.=103.937492, Alt.=206.564575m. Speed=0.144000m/h.</desc>
<speed>0.040000</speed>
</trkpt>
<trkpt lat="22.456249" lon="103.937477">
<ele>206.845825</ele>
<time>2011-04-22T02:35:20Z</time>
<desc>lat.=22.456249, lon.=103.937477, Alt.=206.845825m. Speed=4.572000m/h.</desc>
<speed>1.270000</speed>
</trkpt>
<trkpt lat="22.456221" lon="103.937393">
<ele>207.111450</ele>
<time>2011-04-22T02:35:25Z</time>
<desc>lat.=22.456221, lon.=103.937393, Alt.=207.111450m. Speed=5.328000m/h.</desc>
<speed>1.480000</speed>
</trkpt>
<trkpt lat="22.456152" lon="103.937279">
<ele>208.134888</ele>
<time>2011-04-22T02:35:30Z</time>
<desc>lat.=22.456152, lon.=103.937279, Alt.=208.134888m. Speed=10.692000m/h.</desc>
<speed>2.970000</speed>
</trkpt>
<trkpt lat="22.456051" lon="103.937187">
<ele>209.572388</ele>
<time>2011-04-22T02:35:35Z</time>
<desc>lat.=22.456051, lon.=103.937187, Alt.=209.572388m. Speed=9.972000m/h.</desc>
<speed>2.770000</speed>
</trkpt>
<trkpt lat="22.455956" lon="103.937111">
<ele>209.470825</ele>
<time>2011-04-22T02:35:40Z</time>
<desc>lat.=22.455956, lon.=103.937111, Alt.=209.470825m. Speed=8.964000m/h.</desc>
<speed>2.490000</speed>
</trkpt>
<trkpt lat="22.455841" lon="103.937080">
<ele>209.798950</ele>
<time>2011-04-22T02:35:45Z</time>
<desc>lat.=22.455841, lon.=103.937080, Alt.=209.798950m. Speed=9.612000m/h.</desc>
<speed>2.670000</speed>
</trkpt>
<trkpt lat="22.455706" lon="103.937096">
<ele>211.037231</ele>
<time>2011-04-22T02:35:50Z</time>
<desc>lat.=22.455706, lon.=103.937096, Alt.=211.037231m. Speed=9.828000m/h.</desc>
<speed>2.730000</speed>
</trkpt>
<trkpt lat="22.455595" lon="103.937149">
<ele>213.201294</ele>
<time>2011-04-22T02:35:55Z</time>
<desc>lat.=22.455595, lon.=103.937149, Alt.=213.201294m. Speed=8.784000m/h.</desc>
<speed>2.440000</speed>
</trkpt>
<trkpt lat="22.455494" lon="103.937195">
<ele>214.154419</ele>
<time>2011-04-22T02:36:00Z</time>
<desc>lat.=22.455494, lon.=103.937195, Alt.=214.154419m. Speed=8.748000m/h.</desc>
<speed>2.430000</speed>
</trkpt>
<trkpt lat="22.455404" lon="103.937218">
<ele>215.369263</ele>
<time>2011-04-22T02:36:05Z</time>
<desc>lat.=22.455404, lon.=103.937218, Alt.=215.369263m. Speed=8.208000m/h.</desc>
<speed>2.280000</speed>
</trkpt>
<trkpt lat="22.455301" lon="103.937256">
<ele>215.650513</ele>
<time>2011-04-22T02:36:10Z</time>
<desc>lat.=22.455301, lon.=103.937256, Alt.=215.650513m. Speed=8.568000m/h.</desc>
<speed>2.380000</speed>
</trkpt>
<trkpt lat="22.455187" lon="103.937263">
<ele>215.724731</ele>
<time>2011-04-22T02:36:15Z</time>
<desc>lat.=22.455187, lon.=103.937263, Alt.=215.724731m. Speed=8.460000m/h.</desc>
<speed>2.350000</speed>
</trkpt>
<trkpt lat="22.455103" lon="103.937233">
<ele>216.568481</ele>
<time>2011-04-22T02:36:20Z</time>
<desc>lat.=22.455103, lon.=103.937233, Alt.=216.568481m. Speed=8.136000m/h.</desc>
<speed>2.260000</speed>
</trkpt>
<trkpt lat="22.455036" lon="103.937141">
<ele>217.576294</ele>
<time>2011-04-22T02:36:25Z</time>
<desc>lat.=22.455036, lon.=103.937141, Alt.=217.576294m. Speed=8.892000m/h.</desc>
<speed>2.470000</speed>
</trkpt>
<trkpt lat="22.455004" lon="103.937019">
<ele>218.384888</ele>
<time>2011-04-22T02:36:30Z</time>
<desc>lat.=22.455004, lon.=103.937019, Alt.=218.384888m. Speed=8.064000m/h.</desc>
<speed>2.240000</speed>
</trkpt>
<trkpt lat="22.454987" lon="103.936928">
<ele>219.400513</ele>
<time>2011-04-22T02:36:35Z</time>
<desc>lat.=22.454987, lon.=103.936928, Alt.=219.400513m. Speed=6.804000m/h.</desc>
<speed>1.890000</speed>
</trkpt>
<trkpt lat="22.454967" lon="103.936836">
<ele>221.302856</ele>
<time>2011-04-22T02:36:40Z</time>
<desc>lat.=22.454967, lon.=103.936836, Alt.=221.302856m. Speed=6.984000m/h.</desc>
<speed>1.940000</speed>
</trkpt>
<trkpt lat="22.454958" lon="103.936745">
<ele>222.220825</ele>
<time>2011-04-22T02:36:45Z</time>
<desc>lat.=22.454958, lon.=103.936745, Alt.=222.220825m. Speed=6.444000m/h.</desc>
<speed>1.790000</speed>
</trkpt>
<trkpt lat="22.454956" lon="103.936646">
<ele>221.380981</ele>
<time>2011-04-22T02:36:50Z</time>
<desc>lat.=22.454956, lon.=103.936646, Alt.=221.380981m. Speed=7.740000m/h.</desc>
<speed>2.150000</speed>
</trkpt>
<trkpt lat="22.454975" lon="103.936562">
<ele>223.802856</ele>
<time>2011-04-22T02:36:55Z</time>
<desc>lat.=22.454975, lon.=103.936562, Alt.=223.802856m. Speed=6.948000m/h.</desc>
<speed>1.930000</speed>
</trkpt>
<trkpt lat="22.454996" lon="103.936447">
<ele>224.443481</ele>
<time>2011-04-22T02:37:00Z</time>
<desc>lat.=22.454996, lon.=103.936447, Alt.=224.443481m. Speed=10.512000m/h.</desc>
<speed>2.920000</speed>
</trkpt>
<trkpt lat="22.455042" lon="103.936310">
<ele>225.201294</ele>
<time>2011-04-22T02:37:05Z</time>
<desc>lat.=22.455042, lon.=103.936310, Alt.=225.201294m. Speed=10.872000m/h.</desc>
<speed>3.020000</speed>
</trkpt>
<trkpt lat="22.455107" lon="103.936195">
<ele>227.627075</ele>
<time>2011-04-22T02:37:10Z</time>
<desc>lat.=22.455107, lon.=103.936195, Alt.=227.627075m. Speed=9.936000m/h.</desc>
<speed>2.760000</speed>
</trkpt>
<trkpt lat="22.455126" lon="103.936058">
<ele>229.338013</ele>
<time>2011-04-22T02:37:15Z</time>
<desc>lat.=22.455126, lon.=103.936058, Alt.=229.338013m. Speed=9.144000m/h.</desc>
<speed>2.540000</speed>
</trkpt>
<trkpt lat="22.455105" lon="103.935944">
<ele>231.134888</ele>
<time>2011-04-22T02:37:20Z</time>
<desc>lat.=22.455105, lon.=103.935944, Alt.=231.134888m. Speed=8.892000m/h.</desc>
<speed>2.470000</speed>
</trkpt>
<trkpt lat="22.455029" lon="103.935867">
<ele>231.920044</ele>
<time>2011-04-22T02:37:25Z</time>
<desc>lat.=22.455029, lon.=103.935867, Alt.=231.920044m. Speed=9.396000m/h.</desc>
<speed>2.610000</speed>
</trkpt>
<trkpt lat="22.454931" lon="103.935814">
<ele>232.275513</ele>
<time>2011-04-22T02:37:30Z</time>
<desc>lat.=22.454931, lon.=103.935814, Alt.=232.275513m. Speed=8.136000m/h.</desc>
<speed>2.260000</speed>
</trkpt>
<trkpt lat="22.454819" lon="103.935837">
<ele>233.490356</ele>
<time>2011-04-22T02:37:35Z</time>
<desc>lat.=22.454819, lon.=103.935837, Alt.=233.490356m. Speed=9.144000m/h.</desc>
<speed>2.540000</speed>
</trkpt>
<trkpt lat="22.454718" lon="103.935905">
<ele>234.216919</ele>
<time>2011-04-22T02:37:40Z</time>
<desc>lat.=22.454718, lon.=103.935905, Alt.=234.216919m. Speed=9.144000m/h.</desc>
<speed>2.540000</speed>
</trkpt>
<trkpt lat="22.454649" lon="103.936012">
<ele>235.810669</ele>
<time>2011-04-22T02:37:45Z</time>
<desc>lat.=22.454649, lon.=103.936012, Alt.=235.810669m. Speed=8.892000m/h.</desc>
<speed>2.470000</speed>
</trkpt>
<trkpt lat="22.454607" lon="103.936104">
<ele>238.341919</ele>
<time>2011-04-22T02:37:50Z</time>
<desc>lat.=22.454607, lon.=103.936104, Alt.=238.341919m. Speed=8.640000m/h.</desc>
<speed>2.400000</speed>
</trkpt>
<trkpt lat="22.454548" lon="103.936218">
<ele>240.107544</ele>
<time>2011-04-22T02:37:55Z</time>
<desc>lat.=22.454548, lon.=103.936218, Alt.=240.107544m. Speed=9.936000m/h.</desc>
<speed>2.760000</speed>
</trkpt>
<trkpt lat="22.454491" lon="103.936333">
<ele>241.939575</ele>
<time>2011-04-22T02:38:00Z</time>
<desc>lat.=22.454491, lon.=103.936333, Alt.=241.939575m. Speed=9.288000m/h.</desc>
<speed>2.580000</speed>
</trkpt>
<trkpt lat="22.454433" lon="103.936447">
<ele>243.666138</ele>
<time>2011-04-22T02:38:05Z</time>
<desc>lat.=22.454433, lon.=103.936447, Alt.=243.666138m. Speed=9.900000m/h.</desc>
<speed>2.750000</speed>
</trkpt>
<trkpt lat="22.454370" lon="103.936562">
<ele>245.955200</ele>
<time>2011-04-22T02:38:10Z</time>
<desc>lat.=22.454370, lon.=103.936562, Alt.=245.955200m. Speed=9.936000m/h.</desc>
<speed>2.760000</speed>
</trkpt>
<trkpt lat="22.454304" lon="103.936661">
<ele>249.267700</ele>
<time>2011-04-22T02:38:15Z</time>
<desc>lat.=22.454304, lon.=103.936661, Alt.=249.267700m. Speed=9.900000m/h.</desc>
<speed>2.750000</speed>
</trkpt>
<trkpt lat="22.454214" lon="103.936745">
<ele>249.060669</ele>
<time>2011-04-22T02:38:20Z</time>
<desc>lat.=22.454214, lon.=103.936745, Alt.=249.060669m. Speed=8.856000m/h.</desc>
<speed>2.460000</speed>
</trkpt>
<trkpt lat="22.454113" lon="103.936775">
<ele>248.287231</ele>
<time>2011-04-22T02:38:25Z</time>
<desc>lat.=22.454113, lon.=103.936775, Alt.=248.287231m. Speed=7.920000m/h.</desc>
<speed>2.200000</speed>
</trkpt>
<trkpt lat="22.454004" lon="103.936768">
<ele>247.951294</ele>
<time>2011-04-22T02:38:30Z</time>
<desc>lat.=22.454004, lon.=103.936768, Alt.=247.951294m. Speed=8.244000m/h.</desc>
<speed>2.290000</speed>
</trkpt>
<trkpt lat="22.453905" lon="103.936707">
<ele>248.455200</ele>
<time>2011-04-22T02:38:35Z</time>
<desc>lat.=22.453905, lon.=103.936707, Alt.=248.455200m. Speed=9.324000m/h.</desc>
<speed>2.590000</speed>
</trkpt>
<trkpt lat="22.453831" lon="103.936615">
<ele>249.072388</ele>
<time>2011-04-22T02:38:40Z</time>
<desc>lat.=22.453831, lon.=103.936615, Alt.=249.072388m. Speed=8.460000m/h.</desc>
<speed>2.350000</speed>
</trkpt>
<trkpt lat="22.453793" lon="103.936501">
<ele>248.619263</ele>
<time>2011-04-22T02:38:45Z</time>
<desc>lat.=22.453793, lon.=103.936501, Alt.=248.619263m. Speed=8.676000m/h.</desc>
<speed>2.410000</speed>
</trkpt>
<trkpt lat="22.453779" lon="103.936378">
<ele>248.482544</ele>
<time>2011-04-22T02:38:50Z</time>
<desc>lat.=22.453779, lon.=103.936378, Alt.=248.482544m. Speed=8.676000m/h.</desc>
<speed>2.410000</speed>
</trkpt>
<trkpt lat="22.453766" lon="103.936256">
<ele>248.990356</ele>
<time>2011-04-22T02:38:55Z</time>
<desc>lat.=22.453766, lon.=103.936256, Alt.=248.990356m. Speed=9.000000m/h.</desc>
<speed>2.500000</speed>
</trkpt>
<trkpt lat="22.453758" lon="103.936127">
<ele>249.744263</ele>
<time>2011-04-22T02:39:00Z</time>
<desc>lat.=22.453758, lon.=103.936127, Alt.=249.744263m. Speed=10.260000m/h.</desc>
<speed>2.850000</speed>
</trkpt>
<trkpt lat="22.453747" lon="103.936005">
<ele>249.709106</ele>
<time>2011-04-22T02:39:05Z</time>
<desc>lat.=22.453747, lon.=103.936005, Alt.=249.709106m. Speed=7.560000m/h.</desc>
<speed>2.100000</speed>
</trkpt>
<trkpt lat="22.453745" lon="103.935966">
<ele>249.916138</ele>
<time>2011-04-22T02:39:10Z</time>
<desc>lat.=22.453745, lon.=103.935966, Alt.=249.916138m. Speed=1.008000m/h.</desc>
<speed>0.280000</speed>
</trkpt>
<trkpt lat="22.453747" lon="103.935974">
<ele>249.521606</ele>
<time>2011-04-22T02:39:15Z</time>
<desc>lat.=22.453747, lon.=103.935974, Alt.=249.521606m. Speed=0.180000m/h.</desc>
<speed>0.050000</speed>
</trkpt>
<trkpt lat="22.453747" lon="103.935966">
<ele>249.545044</ele>
<time>2011-04-22T02:39:20Z</time>
<desc>lat.=22.453747, lon.=103.935966, Alt.=249.545044m. Speed=0.072000m/h.</desc>
<speed>0.020000</speed>
</trkpt>
<trkpt lat="22.453747" lon="103.935974">
<ele>249.603638</ele>
<time>2011-04-22T02:39:25Z</time>
<desc>lat.=22.453747, lon.=103.935974, Alt.=249.603638m. Speed=0.180000m/h.</desc>
<speed>0.050000</speed>
</trkpt>
<trkpt lat="22.453747" lon="103.935974">
<ele>249.630981</ele>
<time>2011-04-22T02:39:30Z</time>
<desc>lat.=22.453747, lon.=103.935974, Alt.=249.630981m. Speed=0.000000m/h.</desc>
<speed>0.000000</speed>
</trkpt>
<trkpt lat="22.453747" lon="103.935974">
<ele>249.646606</ele>
<time>2011-04-22T02:39:35Z</time>
<desc>lat.=22.453747, lon.=103.935974, Alt.=249.646606m. Speed=0.036000m/h.</desc>
<speed>0.010000</speed>
</trkpt>
<trkpt lat="22.453747" lon="103.935974">
<ele>249.658325</ele>
<time>2011-04-22T02:39:40Z</time>
<desc>lat.=22.453747, lon.=103.935974, Alt.=249.658325m. Speed=0.036000m/h.</desc>
<speed>0.010000</speed>
</trkpt>
<trkpt lat="22.453747" lon="103.935974">
<ele>249.670044</ele>
<time>2011-04-22T02:39:45Z</time>
<desc>lat.=22.453747, lon.=103.935974, Alt.=249.670044m. Speed=0.000000m/h.</desc>
<speed>0.000000</speed>
</trkpt>
<trkpt lat="22.453747" lon="103.935974">
<ele>249.677856</ele>
<time>2011-04-22T02:39:50Z</time>
<desc>lat.=22.453747, lon.=103.935974, Alt.=249.677856m. Speed=0.000000m/h.</desc>
<speed>0.000000</speed>
</trkpt>
<trkpt lat="22.453747" lon="103.935974">
<ele>249.685669</ele>
<time>2011-04-22T02:39:55Z</time>
<desc>lat.=22.453747, lon.=103.935974, Alt.=249.685669m. Speed=0.000000m/h.</desc>
<speed>0.000000</speed>
</trkpt>
<trkpt lat="22.453747" lon="103.935974">
<ele>249.685669</ele>
<time>2011-04-22T02:40:00Z</time>
<desc>lat.=22.453747, lon.=103.935974, Alt.=249.685669m. Speed=0.036000m/h.</desc>
<speed>0.010000</speed>
</trkpt>
<trkpt lat="22.453747" lon="103.935974">
<ele>249.677856</ele>
<time>2011-04-22T02:40:05Z</time>
<desc>lat.=22.453747, lon.=103.935974, Alt.=249.677856m. Speed=0.072000m/h.</desc>
<speed>0.020000</speed>
</trkpt>
<trkpt lat="22.453747" lon="103.935974">
<ele>249.677856</ele>
<time>2011-04-22T02:40:10Z</time>
<desc>lat.=22.453747, lon.=103.935974, Alt.=249.677856m. Speed=0.036000m/h.</desc>
<speed>0.010000</speed>
</trkpt>
<trkpt lat="22.453747" lon="103.935974">
<ele>249.677856</ele>
<time>2011-04-22T02:40:15Z</time>
<desc>lat.=22.453747, lon.=103.935974, Alt.=249.677856m. Speed=0.036000m/h.</desc>
<speed>0.010000</speed>
</trkpt>
<trkpt lat="22.453747" lon="103.935974">
<ele>249.685669</ele>
<time>2011-04-22T02:40:20Z</time>
<desc>lat.=22.453747, lon.=103.935974, Alt.=249.685669m. Speed=0.000000m/h.</desc>
<speed>0.000000</speed>
</trkpt>
<trkpt lat="22.453747" lon="103.935974">
<ele>249.681763</ele>
<time>2011-04-22T02:40:25Z</time>
<desc>lat.=22.453747, lon.=103.935974, Alt.=249.681763m. Speed=0.036000m/h.</desc>
<speed>0.010000</speed>
</trkpt>
<trkpt lat="22.453747" lon="103.935974">
<ele>249.693481</ele>
<time>2011-04-22T02:40:30Z</time>
<desc>lat.=22.453747, lon.=103.935974, Alt.=249.693481m. Speed=0.000000m/h.</desc>
<speed>0.000000</speed>
</trkpt>
<trkpt lat="22.453747" lon="103.935974">
<ele>249.701294</ele>
<time>2011-04-22T02:40:35Z</time>
<desc>lat.=22.453747, lon.=103.935974, Alt.=249.701294m. Speed=0.000000m/h.</desc>
<speed>0.000000</speed>
</trkpt>
<trkpt lat="22.453747" lon="103.935974">
<ele>249.689575</ele>
<time>2011-04-22T02:40:40Z</time>
<desc>lat.=22.453747, lon.=103.935974, Alt.=249.689575m. Speed=0.036000m/h.</desc>
<speed>0.010000</speed>
</trkpt>
<trkpt lat="22.453747" lon="103.935974">
<ele>249.705200</ele>
<time>2011-04-22T02:40:45Z</time>
<desc>lat.=22.453747, lon.=103.935974, Alt.=249.705200m. Speed=0.000000m/h.</desc>
<speed>0.000000</speed>
</trkpt>
<trkpt lat="22.453747" lon="103.935974">
<ele>249.705200</ele>
<time>2011-04-22T02:40:50Z</time>
<desc>lat.=22.453747, lon.=103.935974, Alt.=249.705200m. Speed=0.072000m/h.</desc>
<speed>0.020000</speed>
</trkpt>
<trkpt lat="22.453747" lon="103.935974">
<ele>249.705200</ele>
<time>2011-04-22T02:40:55Z</time>
<desc>lat.=22.453747, lon.=103.935974, Alt.=249.705200m. Speed=0.000000m/h.</desc>
<speed>0.000000</speed>
</trkpt>
<trkpt lat="22.453747" lon="103.935974">
<ele>249.713013</ele>
<time>2011-04-22T02:41:00Z</time>
<desc>lat.=22.453747, lon.=103.935974, Alt.=249.713013m. Speed=0.000000m/h.</desc>
<speed>0.000000</speed>
</trkpt>
<trkpt lat="22.453747" lon="103.935974">
<ele>249.736450</ele>
<time>2011-04-22T02:41:05Z</time>
<desc>lat.=22.453747, lon.=103.935974, Alt.=249.736450m. Speed=0.072000m/h.</desc>
<speed>0.020000</speed>
</trkpt>
<trkpt lat="22.453747" lon="103.935974">
<ele>249.736450</ele>
<time>2011-04-22T02:41:10Z</time>
<desc>lat.=22.453747, lon.=103.935974, Alt.=249.736450m. Speed=0.000000m/h.</desc>
<speed>0.000000</speed>
</trkpt>
<trkpt lat="22.453747" lon="103.935974">
<ele>249.759888</ele>
<time>2011-04-22T02:41:15Z</time>
<desc>lat.=22.453747, lon.=103.935974, Alt.=249.759888m. Speed=0.180000m/h.</desc>
<speed>0.050000</speed>
</trkpt>
<trkpt lat="22.453749" lon="103.935966">
<ele>249.798950</ele>
<time>2011-04-22T02:41:20Z</time>
<desc>lat.=22.453749, lon.=103.935966, Alt.=249.798950m. Speed=0.504000m/h.</desc>
<speed>0.140000</speed>
</trkpt>
<trkpt lat="22.453743" lon="103.935936">
<ele>250.310669</ele>
<time>2011-04-22T02:41:25Z</time>
<desc>lat.=22.453743, lon.=103.935936, Alt.=250.310669m. Speed=3.780000m/h.</desc>
<speed>1.050000</speed>
</trkpt>
<trkpt lat="22.453730" lon="103.935875">
<ele>250.767700</ele>
<time>2011-04-22T02:41:30Z</time>
<desc>lat.=22.453730, lon.=103.935875, Alt.=250.767700m. Speed=4.212000m/h.</desc>
<speed>1.170000</speed>
</trkpt>
<trkpt lat="22.453695" lon="103.935791">
<ele>250.013794</ele>
<time>2011-04-22T02:41:35Z</time>
<desc>lat.=22.453695, lon.=103.935791, Alt.=250.013794m. Speed=7.812000m/h.</desc>
<speed>2.170000</speed>
</trkpt>
<trkpt lat="22.453646" lon="103.935699">
<ele>250.373169</ele>
<time>2011-04-22T02:41:40Z</time>
<desc>lat.=22.453646, lon.=103.935699, Alt.=250.373169m. Speed=5.652000m/h.</desc>
<speed>1.570000</speed>
</trkpt>
<trkpt lat="22.453609" lon="103.935623">
<ele>250.994263</ele>
<time>2011-04-22T02:41:45Z</time>
<desc>lat.=22.453609, lon.=103.935623, Alt.=250.994263m. Speed=6.228000m/h.</desc>
<speed>1.730000</speed>
</trkpt>
<trkpt lat="22.453575" lon="103.935555">
<ele>251.474731</ele>
<time>2011-04-22T02:41:50Z</time>
<desc>lat.=22.453575, lon.=103.935555, Alt.=251.474731m. Speed=5.832000m/h.</desc>
<speed>1.620000</speed>
</trkpt>
<trkpt lat="22.453541" lon="103.935486">
<ele>251.650513</ele>
<time>2011-04-22T02:41:55Z</time>
<desc>lat.=22.453541, lon.=103.935486, Alt.=251.650513m. Speed=4.212000m/h.</desc>
<speed>1.170000</speed>
</trkpt>
<trkpt lat="22.453497" lon="103.935448">
<ele>252.908325</ele>
<time>2011-04-22T02:42:00Z</time>
<desc>lat.=22.453497, lon.=103.935448, Alt.=252.908325m. Speed=3.960000m/h.</desc>
<speed>1.100000</speed>
</trkpt>
<trkpt lat="22.453474" lon="103.935379">
<ele>254.068481</ele>
<time>2011-04-22T02:42:05Z</time>
<desc>lat.=22.453474, lon.=103.935379, Alt.=254.068481m. Speed=4.824000m/h.</desc>
<speed>1.340000</speed>
</trkpt>
<trkpt lat="22.453461" lon="103.935333">
<ele>254.173950</ele>
<time>2011-04-22T02:42:10Z</time>
<desc>lat.=22.453461, lon.=103.935333, Alt.=254.173950m. Speed=0.072000m/h.</desc>
<speed>0.020000</speed>
</trkpt>
<trkpt lat="22.453461" lon="103.935333">
<ele>254.127075</ele>
<time>2011-04-22T02:42:15Z</time>
<desc>lat.=22.453461, lon.=103.935333, Alt.=254.127075m. Speed=1.152000m/h.</desc>
<speed>0.320000</speed>
</trkpt>
<trkpt lat="22.453461" lon="103.935341">
<ele>253.982544</ele>
<time>2011-04-22T02:42:20Z</time>
<desc>lat.=22.453461, lon.=103.935341, Alt.=253.982544m. Speed=0.072000m/h.</desc>
<speed>0.020000</speed>
</trkpt>
<trkpt lat="22.453459" lon="103.935341">
<ele>253.955200</ele>
<time>2011-04-22T02:42:25Z</time>
<desc>lat.=22.453459, lon.=103.935341, Alt.=253.955200m. Speed=0.144000m/h.</desc>
<speed>0.040000</speed>
</trkpt>
<trkpt lat="22.453459" lon="103.935341">
<ele>253.947388</ele>
<time>2011-04-22T02:42:30Z</time>
<desc>lat.=22.453459, lon.=103.935341, Alt.=253.947388m. Speed=0.000000m/h.</desc>
<speed>0.000000</speed>
</trkpt>
<trkpt lat="22.453459" lon="103.935341">
<ele>253.943481</ele>
<time>2011-04-22T02:42:35Z</time>
<desc>lat.=22.453459, lon.=103.935341, Alt.=253.943481m. Speed=0.000000m/h.</desc>
<speed>0.000000</speed>
</trkpt>
<trkpt lat="22.453459" lon="103.935341">
<ele>253.951294</ele>
<time>2011-04-22T02:42:40Z</time>
<desc>lat.=22.453459, lon.=103.935341, Alt.=253.951294m. Speed=0.036000m/h.</desc>
<speed>0.010000</speed>
</trkpt>
<trkpt lat="22.453461" lon="103.935341">
<ele>253.959106</ele>
<time>2011-04-22T02:42:45Z</time>
<desc>lat.=22.453461, lon.=103.935341, Alt.=253.959106m. Speed=0.000000m/h.</desc>
<speed>0.000000</speed>
</trkpt>
<trkpt lat="22.453459" lon="103.935341">
<ele>253.963013</ele>
<time>2011-04-22T02:42:50Z</time>
<desc>lat.=22.453459, lon.=103.935341, Alt.=253.963013m. Speed=0.000000m/h.</desc>
<speed>0.000000</speed>
</trkpt>
<trkpt lat="22.453459" lon="103.935341">
<ele>253.951294</ele>
<time>2011-04-22T02:42:55Z</time>
<desc>lat.=22.453459, lon.=103.935341, Alt.=253.951294m. Speed=0.000000m/h.</desc>
<speed>0.000000</speed>
</trkpt>
<trkpt lat="22.453459" lon="103.935341">
<ele>253.931763</ele>
<time>2011-04-22T02:43:00Z</time>
<desc>lat.=22.453459, lon.=103.935341, Alt.=253.931763m. Speed=0.036000m/h.</desc>
<speed>0.010000</speed>
</trkpt>
<trkpt lat="22.453459" lon="103.935341">
<ele>253.908325</ele>
<time>2011-04-22T02:43:05Z</time>
<desc>lat.=22.453459, lon.=103.935341, Alt.=253.908325m. Speed=0.036000m/h.</desc>
<speed>0.010000</speed>
</trkpt>
<trkpt lat="22.453459" lon="103.935341">
<ele>253.888794</ele>
<time>2011-04-22T02:43:10Z</time>
<desc>lat.=22.453459, lon.=103.935341, Alt.=253.888794m. Speed=0.000000m/h.</desc>
<speed>0.000000</speed>
</trkpt>
<trkpt lat="22.453459" lon="103.935341">
<ele>253.880981</ele>
<time>2011-04-22T02:43:15Z</time>
<desc>lat.=22.453459, lon.=103.935341, Alt.=253.880981m. Speed=0.000000m/h.</desc>
<speed>0.000000</speed>
</trkpt>
<trkpt lat="22.453459" lon="103.935341">
<ele>253.869263</ele>
<time>2011-04-22T02:43:20Z</time>
<desc>lat.=22.453459, lon.=103.935341, Alt.=253.869263m. Speed=0.000000m/h.</desc>
<speed>0.000000</speed>
</trkpt>
<trkpt lat="22.453459" lon="103.935341">
<ele>253.857544</ele>
<time>2011-04-22T02:43:25Z</time>
<desc>lat.=22.453459, lon.=103.935341, Alt.=253.857544m. Speed=0.036000m/h.</desc>
<speed>0.010000</speed>
</trkpt>
<trkpt lat="22.453459" lon="103.935341">
<ele>253.849731</ele>
<time>2011-04-22T02:43:30Z</time>
<desc>lat.=22.453459, lon.=103.935341, Alt.=253.849731m. Speed=0.000000m/h.</desc>
<speed>0.000000</speed>
</trkpt>
<trkpt lat="22.453459" lon="103.935333">
<ele>253.861450</ele>
<time>2011-04-22T02:43:35Z</time>
<desc>lat.=22.453459, lon.=103.935333, Alt.=253.861450m. Speed=0.144000m/h.</desc>
<speed>0.040000</speed>
</trkpt>
<trkpt lat="22.453459" lon="103.935333">
<ele>253.853638</ele>
<time>2011-04-22T02:43:40Z</time>
<desc>lat.=22.453459, lon.=103.935333, Alt.=253.853638m. Speed=0.000000m/h.</desc>
<speed>0.000000</speed>
</trkpt>
<trkpt lat="22.453459" lon="103.935333">
<ele>253.841919</ele>
<time>2011-04-22T02:43:45Z</time>
<desc>lat.=22.453459, lon.=103.935333, Alt.=253.841919m. Speed=0.000000m/h.</desc>
<speed>0.000000</speed>
</trkpt>
<trkpt lat="22.453459" lon="103.935333">
<ele>253.841919</ele>
<time>2011-04-22T02:43:50Z</time>
<desc>lat.=22.453459, lon.=103.935333, Alt.=253.841919m. Speed=0.000000m/h.</desc>
<speed>0.000000</speed>
</trkpt>
<trkpt lat="22.453459" lon="103.935333">
<ele>253.845825</ele>
<time>2011-04-22T02:43:55Z</time>
<desc>lat.=22.453459, lon.=103.935333, Alt.=253.845825m. Speed=0.036000m/h.</desc>
<speed>0.010000</speed>
</trkpt>
<trkpt lat="22.453459" lon="103.935333">
<ele>253.853638</ele>
<time>2011-04-22T02:44:00Z</time>
<desc>lat.=22.453459, lon.=103.935333, Alt.=253.853638m. Speed=0.288000m/h.</desc>
<speed>0.080000</speed>
</trkpt>
<trkpt lat="22.453459" lon="103.935333">
<ele>253.861450</ele>
<time>2011-04-22T02:44:05Z</time>
<desc>lat.=22.453459, lon.=103.935333, Alt.=253.861450m. Speed=0.108000m/h.</desc>
<speed>0.030000</speed>
</trkpt>
<trkpt lat="22.453457" lon="103.935341">
<ele>253.502075</ele>
<time>2011-04-22T02:44:10Z</time>
<desc>lat.=22.453457, lon.=103.935341, Alt.=253.502075m. Speed=0.216000m/h.</desc>
<speed>0.060000</speed>
</trkpt>
<trkpt lat="22.453455" lon="103.935341">
<ele>252.748169</ele>
<time>2011-04-22T02:44:15Z</time>
<desc>lat.=22.453455, lon.=103.935341, Alt.=252.748169m. Speed=0.000000m/h.</desc>
<speed>0.000000</speed>
</trkpt>
<trkpt lat="22.453455" lon="103.935341">
<ele>252.740356</ele>
<time>2011-04-22T02:44:20Z</time>
<desc>lat.=22.453455, lon.=103.935341, Alt.=252.740356m. Speed=0.036000m/h.</desc>
<speed>0.010000</speed>
</trkpt>
<trkpt lat="22.453455" lon="103.935341">
<ele>252.736450</ele>
<time>2011-04-22T02:44:25Z</time>
<desc>lat.=22.453455, lon.=103.935341, Alt.=252.736450m. Speed=0.216000m/h.</desc>
<speed>0.060000</speed>
</trkpt>
<trkpt lat="22.453455" lon="103.935341">
<ele>252.732544</ele>
<time>2011-04-22T02:44:30Z</time>
<desc>lat.=22.453455, lon.=103.935341, Alt.=252.732544m. Speed=0.288000m/h.</desc>
<speed>0.080000</speed>
</trkpt>
<trkpt lat="22.453455" lon="103.935341">
<ele>252.732544</ele>
<time>2011-04-22T02:44:35Z</time>
<desc>lat.=22.453455, lon.=103.935341, Alt.=252.732544m. Speed=0.108000m/h.</desc>
<speed>0.030000</speed>
</trkpt>
<trkpt lat="22.453455" lon="103.935341">
<ele>252.724731</ele>
<time>2011-04-22T02:44:40Z</time>
<desc>lat.=22.453455, lon.=103.935341, Alt.=252.724731m. Speed=0.576000m/h.</desc>
<speed>0.160000</speed>
</trkpt>
<trkpt lat="22.453455" lon="103.935341">
<ele>252.670044</ele>
<time>2011-04-22T02:44:45Z</time>
<desc>lat.=22.453455, lon.=103.935341, Alt.=252.670044m. Speed=0.000000m/h.</desc>
<speed>0.000000</speed>
</trkpt>
<trkpt lat="22.453455" lon="103.935341">
<ele>252.689575</ele>
<time>2011-04-22T02:44:50Z</time>
<desc>lat.=22.453455, lon.=103.935341, Alt.=252.689575m. Speed=0.000000m/h.</desc>
<speed>0.000000</speed>
</trkpt>
<trkpt lat="22.453455" lon="103.935341">
<ele>252.705200</ele>
<time>2011-04-22T02:44:55Z</time>
<desc>lat.=22.453455, lon.=103.935341, Alt.=252.705200m. Speed=0.000000m/h.</desc>
<speed>0.000000</speed>
</trkpt>
<trkpt lat="22.453455" lon="103.935341">
<ele>252.713013</ele>
<time>2011-04-22T02:45:00Z</time>
<desc>lat.=22.453455, lon.=103.935341, Alt.=252.713013m. Speed=0.036000m/h.</desc>
<speed>0.010000</speed>
</trkpt>
<trkpt lat="22.453455" lon="103.935341">
<ele>252.716919</ele>
<time>2011-04-22T02:45:05Z</time>
<desc>lat.=22.453455, lon.=103.935341, Alt.=252.716919m. Speed=0.000000m/h.</desc>
<speed>0.000000</speed>
</trkpt>
<trkpt lat="22.453455" lon="103.935341">
<ele>252.720825</ele>
<time>2011-04-22T02:45:10Z</time>
<desc>lat.=22.453455, lon.=103.935341, Alt.=252.720825m. Speed=0.000000m/h.</desc>
<speed>0.000000</speed>
</trkpt>
<trkpt lat="22.453455" lon="103.935341">
<ele>252.736450</ele>
<time>2011-04-22T02:45:15Z</time>
<desc>lat.=22.453455, lon.=103.935341, Alt.=252.736450m. Speed=0.000000m/h.</desc>
<speed>0.000000</speed>
</trkpt>
<trkpt lat="22.453455" lon="103.935341">
<ele>252.759888</ele>
<time>2011-04-22T02:45:20Z</time>
<desc>lat.=22.453455, lon.=103.935341, Alt.=252.759888m. Speed=0.000000m/h.</desc>
<speed>0.000000</speed>
</trkpt>
<trkpt lat="22.453453" lon="103.935341">
<ele>252.787231</ele>
<time>2011-04-22T02:45:25Z</time>
<desc>lat.=22.453453, lon.=103.935341, Alt.=252.787231m. Speed=0.036000m/h.</desc>
<speed>0.010000</speed>
</trkpt>
<trkpt lat="22.453453" lon="103.935341">
<ele>252.798950</ele>
<time>2011-04-22T02:45:30Z</time>
<desc>lat.=22.453453, lon.=103.935341, Alt.=252.798950m. Speed=0.036000m/h.</desc>
<speed>0.010000</speed>
</trkpt>
<trkpt lat="22.453453" lon="103.935341">
<ele>252.779419</ele>
<time>2011-04-22T02:45:35Z</time>
<desc>lat.=22.453453, lon.=103.935341, Alt.=252.779419m. Speed=0.036000m/h.</desc>
<speed>0.010000</speed>
</trkpt>
<trkpt lat="22.453453" lon="103.935341">
<ele>252.767700</ele>
<time>2011-04-22T02:45:40Z</time>
<desc>lat.=22.453453, lon.=103.935341, Alt.=252.767700m. Speed=0.000000m/h.</desc>
<speed>0.000000</speed>
</trkpt>
<trkpt lat="22.453453" lon="103.935341">
<ele>252.759888</ele>
<time>2011-04-22T02:45:45Z</time>
<desc>lat.=22.453453, lon.=103.935341, Alt.=252.759888m. Speed=0.000000m/h.</desc>
<speed>0.000000</speed>
</trkpt>
<trkpt lat="22.453453" lon="103.935341">
<ele>252.759888</ele>
<time>2011-04-22T02:45:50Z</time>
<desc>lat.=22.453453, lon.=103.935341, Alt.=252.759888m. Speed=0.072000m/h.</desc>
<speed>0.020000</speed>
</trkpt>
<trkpt lat="22.453453" lon="103.935341">
<ele>252.744263</ele>
<time>2011-04-22T02:45:55Z</time>
<desc>lat.=22.453453, lon.=103.935341, Alt.=252.744263m. Speed=0.000000m/h.</desc>
<speed>0.000000</speed>
</trkpt>
<trkpt lat="22.453453" lon="103.935341">
<ele>252.744263</ele>
<time>2011-04-22T02:46:00Z</time>
<desc>lat.=22.453453, lon.=103.935341, Alt.=252.744263m. Speed=0.036000m/h.</desc>
<speed>0.010000</speed>
</trkpt>
<trkpt lat="22.453453" lon="103.935341">
<ele>252.728638</ele>
<time>2011-04-22T02:46:05Z</time>
<desc>lat.=22.453453, lon.=103.935341, Alt.=252.728638m. Speed=0.000000m/h.</desc>
<speed>0.000000</speed>
</trkpt>
<trkpt lat="22.453453" lon="103.935341">
<ele>252.720825</ele>
<time>2011-04-22T02:46:10Z</time>
<desc>lat.=22.453453, lon.=103.935341, Alt.=252.720825m. Speed=0.000000m/h.</desc>
<speed>0.000000</speed>
</trkpt>
<trkpt lat="22.453453" lon="103.935341">
<ele>252.713013</ele>
<time>2011-04-22T02:46:15Z</time>
<desc>lat.=22.453453, lon.=103.935341, Alt.=252.713013m. Speed=0.000000m/h.</desc>
<speed>0.000000</speed>
</trkpt>
<trkpt lat="22.453453" lon="103.935341">
<ele>252.685669</ele>
<time>2011-04-22T02:46:20Z</time>
<desc>lat.=22.453453, lon.=103.935341, Alt.=252.685669m. Speed=0.036000m/h.</desc>
<speed>0.010000</speed>
</trkpt>
<trkpt lat="22.453453" lon="103.935341">
<ele>252.666138</ele>
<time>2011-04-22T02:46:25Z</time>
<desc>lat.=22.453453, lon.=103.935341, Alt.=252.666138m. Speed=0.000000m/h.</desc>
<speed>0.000000</speed>
</trkpt>
<trkpt lat="22.453453" lon="103.935341">
<ele>252.607544</ele>
<time>2011-04-22T02:46:30Z</time>
<desc>lat.=22.453453, lon.=103.935341, Alt.=252.607544m. Speed=0.036000m/h.</desc>
<speed>0.010000</speed>
</trkpt>
<trkpt lat="22.453453" lon="103.935341">
<ele>252.591919</ele>
<time>2011-04-22T02:46:35Z</time>
<desc>lat.=22.453453, lon.=103.935341, Alt.=252.591919m. Speed=0.036000m/h.</desc>
<speed>0.010000</speed>
</trkpt>
<trkpt lat="22.453453" lon="103.935341">
<ele>252.572388</ele>
<time>2011-04-22T02:46:40Z</time>
<desc>lat.=22.453453, lon.=103.935341, Alt.=252.572388m. Speed=0.000000m/h.</desc>
<speed>0.000000</speed>
</trkpt>
<trkpt lat="22.453453" lon="103.935341">
<ele>252.572388</ele>
<time>2011-04-22T02:46:45Z</time>
<desc>lat.=22.453453, lon.=103.935341, Alt.=252.572388m. Speed=0.072000m/h.</desc>
<speed>0.020000</speed>
</trkpt>
<trkpt lat="22.453453" lon="103.935341">
<ele>252.560669</ele>
<time>2011-04-22T02:46:50Z</time>
<desc>lat.=22.453453, lon.=103.935341, Alt.=252.560669m. Speed=0.000000m/h.</desc>
<speed>0.000000</speed>
</trkpt>
<trkpt lat="22.453453" lon="103.935341">
<ele>252.548950</ele>
<time>2011-04-22T02:46:55Z</time>
<desc>lat.=22.453453, lon.=103.935341, Alt.=252.548950m. Speed=0.000000m/h.</desc>
<speed>0.000000</speed>
</trkpt>
<trkpt lat="22.453453" lon="103.935341">
<ele>252.541138</ele>
<time>2011-04-22T02:47:00Z</time>
<desc>lat.=22.453453, lon.=103.935341, Alt.=252.541138m. Speed=0.000000m/h.</desc>
<speed>0.000000</speed>
</trkpt>
<trkpt lat="22.453453" lon="103.935341">
<ele>252.513794</ele>
<time>2011-04-22T02:47:05Z</time>
<desc>lat.=22.453453, lon.=103.935341, Alt.=252.513794m. Speed=0.036000m/h.</desc>
<speed>0.010000</speed>
</trkpt>
<trkpt lat="22.453453" lon="103.935341">
<ele>252.486450</ele>
<time>2011-04-22T02:47:10Z</time>
<desc>lat.=22.453453, lon.=103.935341, Alt.=252.486450m. Speed=0.036000m/h.</desc>
<speed>0.010000</speed>
</trkpt>
<trkpt lat="22.453453" lon="103.935341">
<ele>252.455200</ele>
<time>2011-04-22T02:47:15Z</time>
<desc>lat.=22.453453, lon.=103.935341, Alt.=252.455200m. Speed=0.000000m/h.</desc>
<speed>0.000000</speed>
</trkpt>
<trkpt lat="22.453453" lon="103.935341">
<ele>252.408325</ele>
<time>2011-04-22T02:47:20Z</time>
<desc>lat.=22.453453, lon.=103.935341, Alt.=252.408325m. Speed=0.000000m/h.</desc>
<speed>0.000000</speed>
</trkpt>
<trkpt lat="22.453453" lon="103.935341">
<ele>252.396606</ele>
<time>2011-04-22T02:47:25Z</time>
<desc>lat.=22.453453, lon.=103.935341, Alt.=252.396606m. Speed=0.036000m/h.</desc>
<speed>0.010000</speed>
</trkpt>
<trkpt lat="22.453453" lon="103.935341">
<ele>252.349731</ele>
<time>2011-04-22T02:47:30Z</time>
<desc>lat.=22.453453, lon.=103.935341, Alt.=252.349731m. Speed=0.072000m/h.</desc>
<speed>0.020000</speed>
</trkpt>
<trkpt lat="22.453453" lon="103.935341">
<ele>252.326294</ele>
<time>2011-04-22T02:47:35Z</time>
<desc>lat.=22.453453, lon.=103.935341, Alt.=252.326294m. Speed=0.000000m/h.</desc>
<speed>0.000000</speed>
</trkpt>
<trkpt lat="22.453453" lon="103.935341">
<ele>252.322388</ele>
<time>2011-04-22T02:47:40Z</time>
<desc>lat.=22.453453, lon.=103.935341, Alt.=252.322388m. Speed=0.000000m/h.</desc>
<speed>0.000000</speed>
</trkpt>
<trkpt lat="22.453453" lon="103.935341">
<ele>252.318481</ele>
<time>2011-04-22T02:47:45Z</time>
<desc>lat.=22.453453, lon.=103.935341, Alt.=252.318481m. Speed=0.036000m/h.</desc>
<speed>0.010000</speed>
</trkpt>
<trkpt lat="22.453453" lon="103.935341">
<ele>252.326294</ele>
<time>2011-04-22T02:47:50Z</time>
<desc>lat.=22.453453, lon.=103.935341, Alt.=252.326294m. Speed=0.036000m/h.</desc>
<speed>0.010000</speed>
</trkpt>
<trkpt lat="22.453453" lon="103.935341">
<ele>252.326294</ele>
<time>2011-04-22T02:47:55Z</time>
<desc>lat.=22.453453, lon.=103.935341, Alt.=252.326294m. Speed=0.000000m/h.</desc>
<speed>0.000000</speed>
</trkpt>
<trkpt lat="22.453453" lon="103.935341">
<ele>252.330200</ele>
<time>2011-04-22T02:48:00Z</time>
<desc>lat.=22.453453, lon.=103.935341, Alt.=252.330200m. Speed=0.000000m/h.</desc>
<speed>0.000000</speed>
</trkpt>
<trkpt lat="22.453453" lon="103.935341">
<ele>252.326294</ele>
<time>2011-04-22T02:48:05Z</time>
<desc>lat.=22.453453, lon.=103.935341, Alt.=252.326294m. Speed=0.108000m/h.</desc>
<speed>0.030000</speed>
</trkpt>
<trkpt lat="22.453453" lon="103.935341">
<ele>252.326294</ele>
<time>2011-04-22T02:48:10Z</time>
<desc>lat.=22.453453, lon.=103.935341, Alt.=252.326294m. Speed=0.288000m/h.</desc>
<speed>0.080000</speed>
</trkpt>
<trkpt lat="22.453451" lon="103.935341">
<ele>252.314575</ele>
<time>2011-04-22T02:48:15Z</time>
<desc>lat.=22.453451, lon.=103.935341, Alt.=252.314575m. Speed=0.252000m/h.</desc>
<speed>0.070000</speed>
</trkpt>
<trkpt lat="22.453453" lon="103.935341">
<ele>252.306763</ele>
<time>2011-04-22T02:48:20Z</time>
<desc>lat.=22.453453, lon.=103.935341, Alt.=252.306763m. Speed=0.504000m/h.</desc>
<speed>0.140000</speed>
</trkpt>
<trkpt lat="22.453459" lon="103.935333">
<ele>252.443481</ele>
<time>2011-04-22T02:48:25Z</time>
<desc>lat.=22.453459, lon.=103.935333, Alt.=252.443481m. Speed=0.144000m/h.</desc>
<speed>0.040000</speed>
</trkpt>
<trkpt lat="22.453455" lon="103.935356">
<ele>252.603638</ele>
<time>2011-04-22T02:48:30Z</time>
<desc>lat.=22.453455, lon.=103.935356, Alt.=252.603638m. Speed=1.728000m/h.</desc>
<speed>0.480000</speed>
</trkpt>
<trkpt lat="22.453442" lon="103.935356">
<ele>252.888794</ele>
<time>2011-04-22T02:48:35Z</time>
<desc>lat.=22.453442, lon.=103.935356, Alt.=252.888794m. Speed=0.468000m/h.</desc>
<speed>0.130000</speed>
</trkpt>
<trkpt lat="22.453444" lon="103.935356">
<ele>253.111450</ele>
<time>2011-04-22T02:48:40Z</time>
<desc>lat.=22.453444, lon.=103.935356, Alt.=253.111450m. Speed=0.000000m/h.</desc>
<speed>0.000000</speed>
</trkpt>
<trkpt lat="22.453444" lon="103.935356">
<ele>253.255981</ele>
<time>2011-04-22T02:48:45Z</time>
<desc>lat.=22.453444, lon.=103.935356, Alt.=253.255981m. Speed=0.072000m/h.</desc>
<speed>0.020000</speed>
</trkpt>
<trkpt lat="22.453445" lon="103.935356">
<ele>253.318481</ele>
<time>2011-04-22T02:48:50Z</time>
<desc>lat.=22.453445, lon.=103.935356, Alt.=253.318481m. Speed=0.036000m/h.</desc>
<speed>0.010000</speed>
</trkpt>
<trkpt lat="22.453444" lon="103.935356">
<ele>253.326294</ele>
<time>2011-04-22T02:48:55Z</time>
<desc>lat.=22.453444, lon.=103.935356, Alt.=253.326294m. Speed=0.000000m/h.</desc>
<speed>0.000000</speed>
</trkpt>
<trkpt lat="22.453444" lon="103.935356">
<ele>253.334106</ele>
<time>2011-04-22T02:49:00Z</time>
<desc>lat.=22.453444, lon.=103.935356, Alt.=253.334106m. Speed=0.000000m/h.</desc>
<speed>0.000000</speed>
</trkpt>
<trkpt lat="22.453444" lon="103.935356">
<ele>253.357544</ele>
<time>2011-04-22T02:49:05Z</time>
<desc>lat.=22.453444, lon.=103.935356, Alt.=253.357544m. Speed=0.036000m/h.</desc>
<speed>0.010000</speed>
</trkpt>
<trkpt lat="22.453444" lon="103.935356">
<ele>253.373169</ele>
<time>2011-04-22T02:49:10Z</time>
<desc>lat.=22.453444, lon.=103.935356, Alt.=253.373169m. Speed=0.072000m/h.</desc>
<speed>0.020000</speed>
</trkpt>
<trkpt lat="22.453444" lon="103.935356">
<ele>253.380981</ele>
<time>2011-04-22T02:49:15Z</time>
<desc>lat.=22.453444, lon.=103.935356, Alt.=253.380981m. Speed=0.036000m/h.</desc>
<speed>0.010000</speed>
</trkpt>
<trkpt lat="22.453444" lon="103.935356">
<ele>253.400513</ele>
<time>2011-04-22T02:49:20Z</time>
<desc>lat.=22.453444, lon.=103.935356, Alt.=253.400513m. Speed=0.144000m/h.</desc>
<speed>0.040000</speed>
</trkpt>
<trkpt lat="22.453444" lon="103.935356">
<ele>253.404419</ele>
<time>2011-04-22T02:49:25Z</time>
<desc>lat.=22.453444, lon.=103.935356, Alt.=253.404419m. Speed=0.720000m/h.</desc>
<speed>0.200000</speed>
</trkpt>
<trkpt lat="22.453485" lon="103.935257">
<ele>254.330200</ele>
<time>2011-04-22T02:49:30Z</time>
<desc>lat.=22.453485, lon.=103.935257, Alt.=254.330200m. Speed=10.332000m/h.</desc>
<speed>2.870000</speed>
</trkpt>
<trkpt lat="22.453501" lon="103.935112">
<ele>254.931763</ele>
<time>2011-04-22T02:49:35Z</time>
<desc>lat.=22.453501, lon.=103.935112, Alt.=254.931763m. Speed=11.268000m/h.</desc>
<speed>3.130000</speed>
</trkpt>
<trkpt lat="22.453520" lon="103.934944">
<ele>255.240356</ele>
<time>2011-04-22T02:49:40Z</time>
<desc>lat.=22.453520, lon.=103.934944, Alt.=255.240356m. Speed=11.628000m/h.</desc>
<speed>3.230000</speed>
</trkpt>
<trkpt lat="22.453537" lon="103.934784">
<ele>256.254150</ele>
<time>2011-04-22T02:49:45Z</time>
<desc>lat.=22.453537, lon.=103.934784, Alt.=256.254150m. Speed=11.592000m/h.</desc>
<speed>3.220000</speed>
</trkpt>
<trkpt lat="22.453533" lon="103.934631">
<ele>257.136963</ele>
<time>2011-04-22T02:49:50Z</time>
<desc>lat.=22.453533, lon.=103.934631, Alt.=257.136963m. Speed=11.628000m/h.</desc>
<speed>3.230000</speed>
</trkpt>
<trkpt lat="22.453512" lon="103.934471">
<ele>259.105713</ele>
<time>2011-04-22T02:49:55Z</time>
<desc>lat.=22.453512, lon.=103.934471, Alt.=259.105713m. Speed=12.096000m/h.</desc>
<speed>3.360000</speed>
</trkpt>
<trkpt lat="22.453482" lon="103.934296">
<ele>260.676025</ele>
<time>2011-04-22T02:50:00Z</time>
<desc>lat.=22.453482, lon.=103.934296, Alt.=260.676025m. Speed=12.564000m/h.</desc>
<speed>3.490000</speed>
</trkpt>
<trkpt lat="22.453484" lon="103.934128">
<ele>262.808838</ele>
<time>2011-04-22T02:50:05Z</time>
<desc>lat.=22.453484, lon.=103.934128, Alt.=262.808838m. Speed=12.276000m/h.</desc>
<speed>3.410000</speed>
</trkpt>
<trkpt lat="22.453514" lon="103.933960">
<ele>264.605713</ele>
<time>2011-04-22T02:50:10Z</time>
<desc>lat.=22.453514, lon.=103.933960, Alt.=264.605713m. Speed=11.520000m/h.</desc>
<speed>3.200000</speed>
</trkpt>
<trkpt lat="22.453550" lon="103.933815">
<ele>265.371338</ele>
<time>2011-04-22T02:50:15Z</time>
<desc>lat.=22.453550, lon.=103.933815, Alt.=265.371338m. Speed=10.368000m/h.</desc>
<speed>2.880000</speed>
</trkpt>
<trkpt lat="22.453587" lon="103.933693">
<ele>266.543213</ele>
<time>2011-04-22T02:50:20Z</time>
<desc>lat.=22.453587, lon.=103.933693, Alt.=266.543213m. Speed=9.648000m/h.</desc>
<speed>2.680000</speed>
</trkpt>
<trkpt lat="22.453615" lon="103.933571">
<ele>267.136963</ele>
<time>2011-04-22T02:50:25Z</time>
<desc>lat.=22.453615, lon.=103.933571, Alt.=267.136963m. Speed=8.100000m/h.</desc>
<speed>2.250000</speed>
</trkpt>
<trkpt lat="22.453636" lon="103.933479">
<ele>269.035400</ele>
<time>2011-04-22T02:50:30Z</time>
<desc>lat.=22.453636, lon.=103.933479, Alt.=269.035400m. Speed=6.264000m/h.</desc>
<speed>1.740000</speed>
</trkpt>
<trkpt lat="22.453653" lon="103.933380">
<ele>270.113525</ele>
<time>2011-04-22T02:50:35Z</time>
<desc>lat.=22.453653, lon.=103.933380, Alt.=270.113525m. Speed=7.092000m/h.</desc>
<speed>1.970000</speed>
</trkpt>
<trkpt lat="22.453661" lon="103.933289">
<ele>270.769775</ele>
<time>2011-04-22T02:50:40Z</time>
<desc>lat.=22.453661, lon.=103.933289, Alt.=270.769775m. Speed=6.336000m/h.</desc>
<speed>1.760000</speed>
</trkpt>
<trkpt lat="22.453653" lon="103.933197">
<ele>271.691650</ele>
<time>2011-04-22T02:50:45Z</time>
<desc>lat.=22.453653, lon.=103.933197, Alt.=271.691650m. Speed=6.876000m/h.</desc>
<speed>1.910000</speed>
</trkpt>
<trkpt lat="22.453632" lon="103.933121">
<ele>272.254150</ele>
<time>2011-04-22T02:50:50Z</time>
<desc>lat.=22.453632, lon.=103.933121, Alt.=272.254150m. Speed=6.048000m/h.</desc>
<speed>1.680000</speed>
</trkpt>
<trkpt lat="22.453617" lon="103.933044">
<ele>270.511963</ele>
<time>2011-04-22T02:50:55Z</time>
<desc>lat.=22.453617, lon.=103.933044, Alt.=270.511963m. Speed=6.300000m/h.</desc>
<speed>1.750000</speed>
</trkpt>
<trkpt lat="22.453568" lon="103.932938">
<ele>270.113525</ele>
<time>2011-04-22T02:51:00Z</time>
<desc>lat.=22.453568, lon.=103.932938, Alt.=270.113525m. Speed=13.860000m/h.</desc>
<speed>3.850000</speed>
</trkpt>
<trkpt lat="22.453468" lon="103.932785">
<ele>270.933838</ele>
<time>2011-04-22T02:51:05Z</time>
<desc>lat.=22.453468, lon.=103.932785, Alt.=270.933838m. Speed=10.872000m/h.</desc>
<speed>3.020000</speed>
</trkpt>
<trkpt lat="22.453369" lon="103.932701">
<ele>271.730713</ele>
<time>2011-04-22T02:51:10Z</time>
<desc>lat.=22.453369, lon.=103.932701, Alt.=271.730713m. Speed=9.684000m/h.</desc>
<speed>2.690000</speed>
</trkpt>
<trkpt lat="22.453251" lon="103.932678">
<ele>272.949463</ele>
<time>2011-04-22T02:51:15Z</time>
<desc>lat.=22.453251, lon.=103.932678, Alt.=272.949463m. Speed=9.900000m/h.</desc>
<speed>2.750000</speed>
</trkpt>
<trkpt lat="22.453131" lon="103.932678">
<ele>273.590088</ele>
<time>2011-04-22T02:51:20Z</time>
<desc>lat.=22.453131, lon.=103.932678, Alt.=273.590088m. Speed=9.936000m/h.</desc>
<speed>2.760000</speed>
</trkpt>
<trkpt lat="22.453011" lon="103.932686">
<ele>275.027588</ele>
<time>2011-04-22T02:51:25Z</time>
<desc>lat.=22.453011, lon.=103.932686, Alt.=275.027588m. Speed=9.108000m/h.</desc>
<speed>2.530000</speed>
</trkpt>
<trkpt lat="22.452898" lon="103.932686">
<ele>276.340088</ele>
<time>2011-04-22T02:51:30Z</time>
<desc>lat.=22.452898, lon.=103.932686, Alt.=276.340088m. Speed=9.180000m/h.</desc>
<speed>2.550000</speed>
</trkpt>
<trkpt lat="22.452787" lon="103.932693">
<ele>276.832275</ele>
<time>2011-04-22T02:51:35Z</time>
<desc>lat.=22.452787, lon.=103.932693, Alt.=276.832275m. Speed=7.524000m/h.</desc>
<speed>2.090000</speed>
</trkpt>
<trkpt lat="22.452711" lon="103.932686">
<ele>277.394775</ele>
<time>2011-04-22T02:51:40Z</time>
<desc>lat.=22.452711, lon.=103.932686, Alt.=277.394775m. Speed=6.156000m/h.</desc>
<speed>1.710000</speed>
</trkpt>
<trkpt lat="22.452639" lon="103.932686">
<ele>278.324463</ele>
<time>2011-04-22T02:51:45Z</time>
<desc>lat.=22.452639, lon.=103.932686, Alt.=278.324463m. Speed=5.472000m/h.</desc>
<speed>1.520000</speed>
</trkpt>
<trkpt lat="22.452566" lon="103.932686">
<ele>279.644775</ele>
<time>2011-04-22T02:51:50Z</time>
<desc>lat.=22.452566, lon.=103.932686, Alt.=279.644775m. Speed=5.544000m/h.</desc>
<speed>1.540000</speed>
</trkpt>
<trkpt lat="22.452501" lon="103.932678">
<ele>280.480713</ele>
<time>2011-04-22T02:51:55Z</time>
<desc>lat.=22.452501, lon.=103.932678, Alt.=280.480713m. Speed=5.832000m/h.</desc>
<speed>1.620000</speed>
</trkpt>
<trkpt lat="22.452431" lon="103.932671">
<ele>282.363525</ele>
<time>2011-04-22T02:52:00Z</time>
<desc>lat.=22.452431, lon.=103.932671, Alt.=282.363525m. Speed=6.084000m/h.</desc>
<speed>1.690000</speed>
</trkpt>
<trkpt lat="22.452358" lon="103.932671">
<ele>283.371338</ele>
<time>2011-04-22T02:52:05Z</time>
<desc>lat.=22.452358, lon.=103.932671, Alt.=283.371338m. Speed=5.580000m/h.</desc>
<speed>1.550000</speed>
</trkpt>
<trkpt lat="22.452286" lon="103.932678">
<ele>284.707275</ele>
<time>2011-04-22T02:52:10Z</time>
<desc>lat.=22.452286, lon.=103.932678, Alt.=284.707275m. Speed=5.904000m/h.</desc>
<speed>1.640000</speed>
</trkpt>
<trkpt lat="22.452211" lon="103.932678">
<ele>285.043213</ele>
<time>2011-04-22T02:52:15Z</time>
<desc>lat.=22.452211, lon.=103.932678, Alt.=285.043213m. Speed=5.508000m/h.</desc>
<speed>1.530000</speed>
</trkpt>
<trkpt lat="22.452137" lon="103.932678">
<ele>284.793213</ele>
<time>2011-04-22T02:52:20Z</time>
<desc>lat.=22.452137, lon.=103.932678, Alt.=284.793213m. Speed=5.832000m/h.</desc>
<speed>1.620000</speed>
</trkpt>
<trkpt lat="22.452066" lon="103.932671">
<ele>285.394775</ele>
<time>2011-04-22T02:52:25Z</time>
<desc>lat.=22.452066, lon.=103.932671, Alt.=285.394775m. Speed=5.724000m/h.</desc>
<speed>1.590000</speed>
</trkpt>
<trkpt lat="22.451994" lon="103.932671">
<ele>286.105713</ele>
<time>2011-04-22T02:52:30Z</time>
<desc>lat.=22.451994, lon.=103.932671, Alt.=286.105713m. Speed=5.796000m/h.</desc>
<speed>1.610000</speed>
</trkpt>
<trkpt lat="22.451918" lon="103.932671">
<ele>286.222900</ele>
<time>2011-04-22T02:52:35Z</time>
<desc>lat.=22.451918, lon.=103.932671, Alt.=286.222900m. Speed=6.480000m/h.</desc>
<speed>1.800000</speed>
</trkpt>
<trkpt lat="22.451838" lon="103.932671">
<ele>287.136963</ele>
<time>2011-04-22T02:52:40Z</time>
<desc>lat.=22.451838, lon.=103.932671, Alt.=287.136963m. Speed=6.084000m/h.</desc>
<speed>1.690000</speed>
</trkpt>
<trkpt lat="22.451757" lon="103.932671">
<ele>288.035400</ele>
<time>2011-04-22T02:52:45Z</time>
<desc>lat.=22.451757, lon.=103.932671, Alt.=288.035400m. Speed=5.976000m/h.</desc>
<speed>1.660000</speed>
</trkpt>
<trkpt lat="22.451685" lon="103.932678">
<ele>289.222900</ele>
<time>2011-04-22T02:52:50Z</time>
<desc>lat.=22.451685, lon.=103.932678, Alt.=289.222900m. Speed=6.084000m/h.</desc>
<speed>1.690000</speed>
</trkpt>
<trkpt lat="22.451614" lon="103.932709">
<ele>290.285400</ele>
<time>2011-04-22T02:52:55Z</time>
<desc>lat.=22.451614, lon.=103.932709, Alt.=290.285400m. Speed=6.156000m/h.</desc>
<speed>1.710000</speed>
</trkpt>
<trkpt lat="22.451542" lon="103.932739">
<ele>291.316650</ele>
<time>2011-04-22T02:53:00Z</time>
<desc>lat.=22.451542, lon.=103.932739, Alt.=291.316650m. Speed=6.336000m/h.</desc>
<speed>1.760000</speed>
</trkpt>
<trkpt lat="22.451488" lon="103.932793">
<ele>292.801025</ele>
<time>2011-04-22T02:53:05Z</time>
<desc>lat.=22.451488, lon.=103.932793, Alt.=292.801025m. Speed=5.184000m/h.</desc>
<speed>1.440000</speed>
</trkpt>
<trkpt lat="22.451443" lon="103.932846">
<ele>293.597900</ele>
<time>2011-04-22T02:53:10Z</time>
<desc>lat.=22.451443, lon.=103.932846, Alt.=293.597900m. Speed=5.220000m/h.</desc>
<speed>1.450000</speed>
</trkpt>
<trkpt lat="22.451403" lon="103.932907">
<ele>294.511963</ele>
<time>2011-04-22T02:53:15Z</time>
<desc>lat.=22.451403, lon.=103.932907, Alt.=294.511963m. Speed=5.760000m/h.</desc>
<speed>1.600000</speed>
</trkpt>
<trkpt lat="22.451378" lon="103.932968">
<ele>296.035400</ele>
<time>2011-04-22T02:53:20Z</time>
<desc>lat.=22.451378, lon.=103.932968, Alt.=296.035400m. Speed=5.292000m/h.</desc>
<speed>1.470000</speed>
</trkpt>
<trkpt lat="22.451363" lon="103.933052">
<ele>297.386963</ele>
<time>2011-04-22T02:53:25Z</time>
<desc>lat.=22.451363, lon.=103.933052, Alt.=297.386963m. Speed=5.940000m/h.</desc>
<speed>1.650000</speed>
</trkpt>
<trkpt lat="22.451355" lon="103.933136">
<ele>298.465088</ele>
<time>2011-04-22T02:53:30Z</time>
<desc>lat.=22.451355, lon.=103.933136, Alt.=298.465088m. Speed=6.408000m/h.</desc>
<speed>1.780000</speed>
</trkpt>
<trkpt lat="22.451359" lon="103.933220">
<ele>298.879150</ele>
<time>2011-04-22T02:53:35Z</time>
<desc>lat.=22.451359, lon.=103.933220, Alt.=298.879150m. Speed=6.228000m/h.</desc>
<speed>1.730000</speed>
</trkpt>
<trkpt lat="22.451355" lon="103.933296">
<ele>297.754150</ele>
<time>2011-04-22T02:53:40Z</time>
<desc>lat.=22.451355, lon.=103.933296, Alt.=297.754150m. Speed=6.516000m/h.</desc>
<speed>1.810000</speed>
</trkpt>
<trkpt lat="22.451365" lon="103.933372">
<ele>295.988525</ele>
<time>2011-04-22T02:53:45Z</time>
<desc>lat.=22.451365, lon.=103.933372, Alt.=295.988525m. Speed=6.264000m/h.</desc>
<speed>1.740000</speed>
</trkpt>
<trkpt lat="22.451382" lon="103.933441">
<ele>294.582275</ele>
<time>2011-04-22T02:53:50Z</time>
<desc>lat.=22.451382, lon.=103.933441, Alt.=294.582275m. Speed=6.120000m/h.</desc>
<speed>1.700000</speed>
</trkpt>
<trkpt lat="22.451399" lon="103.933517">
<ele>292.840088</ele>
<time>2011-04-22T02:53:55Z</time>
<desc>lat.=22.451399, lon.=103.933517, Alt.=292.840088m. Speed=6.660000m/h.</desc>
<speed>1.850000</speed>
</trkpt>
<trkpt lat="22.451426" lon="103.933609">
<ele>292.629150</ele>
<time>2011-04-22T02:54:00Z</time>
<desc>lat.=22.451426, lon.=103.933609, Alt.=292.629150m. Speed=7.308000m/h.</desc>
<speed>2.030000</speed>
</trkpt>
<trkpt lat="22.451447" lon="103.933701">
<ele>292.566650</ele>
<time>2011-04-22T02:54:05Z</time>
<desc>lat.=22.451447, lon.=103.933701, Alt.=292.566650m. Speed=7.020000m/h.</desc>
<speed>1.950000</speed>
</trkpt>
<trkpt lat="22.451464" lon="103.933792">
<ele>293.418213</ele>
<time>2011-04-22T02:54:10Z</time>
<desc>lat.=22.451464, lon.=103.933792, Alt.=293.418213m. Speed=7.668000m/h.</desc>
<speed>2.130000</speed>
</trkpt>
<trkpt lat="22.451443" lon="103.933899">
<ele>294.129150</ele>
<time>2011-04-22T02:54:15Z</time>
<desc>lat.=22.451443, lon.=103.933899, Alt.=294.129150m. Speed=7.488000m/h.</desc>
<speed>2.080000</speed>
</trkpt>
<trkpt lat="22.451401" lon="103.933983">
<ele>294.918213</ele>
<time>2011-04-22T02:54:20Z</time>
<desc>lat.=22.451401, lon.=103.933983, Alt.=294.918213m. Speed=5.616000m/h.</desc>
<speed>1.560000</speed>
</trkpt>
<trkpt lat="22.451355" lon="103.934044">
<ele>296.129150</ele>
<time>2011-04-22T02:54:25Z</time>
<desc>lat.=22.451355, lon.=103.934044, Alt.=296.129150m. Speed=6.300000m/h.</desc>
<speed>1.750000</speed>
</trkpt>
<trkpt lat="22.451284" lon="103.934097">
<ele>297.316650</ele>
<time>2011-04-22T02:54:30Z</time>
<desc>lat.=22.451284, lon.=103.934097, Alt.=297.316650m. Speed=7.128000m/h.</desc>
<speed>1.980000</speed>
</trkpt>
<trkpt lat="22.451208" lon="103.934143">
<ele>299.090088</ele>
<time>2011-04-22T02:54:35Z</time>
<desc>lat.=22.451208, lon.=103.934143, Alt.=299.090088m. Speed=5.868000m/h.</desc>
<speed>1.630000</speed>
</trkpt>
<trkpt lat="22.451151" lon="103.934174">
<ele>300.801025</ele>
<time>2011-04-22T02:54:40Z</time>
<desc>lat.=22.451151, lon.=103.934174, Alt.=300.801025m. Speed=5.328000m/h.</desc>
<speed>1.480000</speed>
</trkpt>
<trkpt lat="22.451107" lon="103.934212">
<ele>302.855713</ele>
<time>2011-04-22T02:54:45Z</time>
<desc>lat.=22.451107, lon.=103.934212, Alt.=302.855713m. Speed=4.788000m/h.</desc>
<speed>1.330000</speed>
</trkpt>
<trkpt lat="22.451048" lon="103.934250">
<ele>304.933838</ele>
<time>2011-04-22T02:54:50Z</time>
<desc>lat.=22.451048, lon.=103.934250, Alt.=304.933838m. Speed=6.120000m/h.</desc>
<speed>1.700000</speed>
</trkpt>
<trkpt lat="22.450981" lon="103.934288">
<ele>307.121338</ele>
<time>2011-04-22T02:54:55Z</time>
<desc>lat.=22.450981, lon.=103.934288, Alt.=307.121338m. Speed=6.012000m/h.</desc>
<speed>1.670000</speed>
</trkpt>
<trkpt lat="22.450911" lon="103.934326">
<ele>308.824463</ele>
<time>2011-04-22T02:55:00Z</time>
<desc>lat.=22.450911, lon.=103.934326, Alt.=308.824463m. Speed=6.660000m/h.</desc>
<speed>1.850000</speed>
</trkpt>
<trkpt lat="22.450832" lon="103.934372">
<ele>310.207275</ele>
<time>2011-04-22T02:55:05Z</time>
<desc>lat.=22.450832, lon.=103.934372, Alt.=310.207275m. Speed=7.308000m/h.</desc>
<speed>2.030000</speed>
</trkpt>
<trkpt lat="22.450752" lon="103.934418">
<ele>311.535400</ele>
<time>2011-04-22T02:55:10Z</time>
<desc>lat.=22.450752, lon.=103.934418, Alt.=311.535400m. Speed=7.272000m/h.</desc>
<speed>2.020000</speed>
</trkpt>
<trkpt lat="22.450672" lon="103.934464">
<ele>313.293213</ele>
<time>2011-04-22T02:55:15Z</time>
<desc>lat.=22.450672, lon.=103.934464, Alt.=313.293213m. Speed=7.380000m/h.</desc>
<speed>2.050000</speed>
</trkpt>
<trkpt lat="22.450603" lon="103.934517">
<ele>315.261963</ele>
<time>2011-04-22T02:55:20Z</time>
<desc>lat.=22.450603, lon.=103.934517, Alt.=315.261963m. Speed=6.984000m/h.</desc>
<speed>1.940000</speed>
</trkpt>
<trkpt lat="22.450523" lon="103.934570">
<ele>316.832275</ele>
<time>2011-04-22T02:55:25Z</time>
<desc>lat.=22.450523, lon.=103.934570, Alt.=316.832275m. Speed=7.020000m/h.</desc>
<speed>1.950000</speed>
</trkpt>
<trkpt lat="22.450449" lon="103.934616">
<ele>318.465088</ele>
<time>2011-04-22T02:55:30Z</time>
<desc>lat.=22.450449, lon.=103.934616, Alt.=318.465088m. Speed=7.560000m/h.</desc>
<speed>2.100000</speed>
</trkpt>
<trkpt lat="22.450359" lon="103.934662">
<ele>319.269775</ele>
<time>2011-04-22T02:55:35Z</time>
<desc>lat.=22.450359, lon.=103.934662, Alt.=319.269775m. Speed=7.200000m/h.</desc>
<speed>2.000000</speed>
</trkpt>
<trkpt lat="22.450272" lon="103.934700">
<ele>320.879150</ele>
<time>2011-04-22T02:55:40Z</time>
<desc>lat.=22.450272, lon.=103.934700, Alt.=320.879150m. Speed=7.596000m/h.</desc>
<speed>2.110000</speed>
</trkpt>
<trkpt lat="22.450176" lon="103.934723">
<ele>321.847900</ele>
<time>2011-04-22T02:55:45Z</time>
<desc>lat.=22.450176, lon.=103.934723, Alt.=321.847900m. Speed=7.236000m/h.</desc>
<speed>2.010000</speed>
</trkpt>
<trkpt lat="22.450089" lon="103.934708">
<ele>323.433838</ele>
<time>2011-04-22T02:55:50Z</time>
<desc>lat.=22.450089, lon.=103.934708, Alt.=323.433838m. Speed=6.984000m/h.</desc>
<speed>1.940000</speed>
</trkpt>
<trkpt lat="22.450008" lon="103.934677">
<ele>325.269775</ele>
<time>2011-04-22T02:55:55Z</time>
<desc>lat.=22.450008, lon.=103.934677, Alt.=325.269775m. Speed=6.552000m/h.</desc>
<speed>1.820000</speed>
</trkpt>
<trkpt lat="22.449928" lon="103.934639">
<ele>327.324463</ele>
<time>2011-04-22T02:56:00Z</time>
<desc>lat.=22.449928, lon.=103.934639, Alt.=327.324463m. Speed=6.948000m/h.</desc>
<speed>1.930000</speed>
</trkpt>
<trkpt lat="22.449846" lon="103.934608">
<ele>329.269775</ele>
<time>2011-04-22T02:56:05Z</time>
<desc>lat.=22.449846, lon.=103.934608, Alt.=329.269775m. Speed=6.372000m/h.</desc>
<speed>1.770000</speed>
</trkpt>
<trkpt lat="22.449766" lon="103.934563">
<ele>330.332275</ele>
<time>2011-04-22T02:56:10Z</time>
<desc>lat.=22.449766, lon.=103.934563, Alt.=330.332275m. Speed=6.948000m/h.</desc>
<speed>1.930000</speed>
</trkpt>
<trkpt lat="22.449690" lon="103.934525">
<ele>331.113525</ele>
<time>2011-04-22T02:56:15Z</time>
<desc>lat.=22.449690, lon.=103.934525, Alt.=331.113525m. Speed=5.148000m/h.</desc>
<speed>1.430000</speed>
</trkpt>
<trkpt lat="22.449621" lon="103.934502">
<ele>332.246338</ele>
<time>2011-04-22T02:56:20Z</time>
<desc>lat.=22.449621, lon.=103.934502, Alt.=332.246338m. Speed=6.552000m/h.</desc>
<speed>1.820000</speed>
</trkpt>
<trkpt lat="22.449547" lon="103.934471">
<ele>333.668213</ele>
<time>2011-04-22T02:56:25Z</time>
<desc>lat.=22.449547, lon.=103.934471, Alt.=333.668213m. Speed=5.508000m/h.</desc>
<speed>1.530000</speed>
</trkpt>
<trkpt lat="22.449535" lon="103.934456">
<ele>333.722900</ele>
<time>2011-04-22T02:56:30Z</time>
<desc>lat.=22.449535, lon.=103.934456, Alt.=333.722900m. Speed=0.684000m/h.</desc>
<speed>0.190000</speed>
</trkpt>
<trkpt lat="22.449505" lon="103.934448">
<ele>333.746338</ele>
<time>2011-04-22T02:56:35Z</time>
<desc>lat.=22.449505, lon.=103.934448, Alt.=333.746338m. Speed=5.688000m/h.</desc>
<speed>1.580000</speed>
</trkpt>
<trkpt lat="22.449425" lon="103.934418">
<ele>334.519775</ele>
<time>2011-04-22T02:56:40Z</time>
<desc>lat.=22.449425, lon.=103.934418, Alt.=334.519775m. Speed=7.308000m/h.</desc>
<speed>2.030000</speed>
</trkpt>
<trkpt lat="22.449339" lon="103.934372">
<ele>335.293213</ele>
<time>2011-04-22T02:56:45Z</time>
<desc>lat.=22.449339, lon.=103.934372, Alt.=335.293213m. Speed=7.704000m/h.</desc>
<speed>2.140000</speed>
</trkpt>
<trkpt lat="22.449253" lon="103.934311">
<ele>336.676025</ele>
<time>2011-04-22T02:56:50Z</time>
<desc>lat.=22.449253, lon.=103.934311, Alt.=336.676025m. Speed=7.380000m/h.</desc>
<speed>2.050000</speed>
</trkpt>
<trkpt lat="22.449169" lon="103.934258">
<ele>336.996338</ele>
<time>2011-04-22T02:56:55Z</time>
<desc>lat.=22.449169, lon.=103.934258, Alt.=336.996338m. Speed=7.596000m/h.</desc>
<speed>2.110000</speed>
</trkpt>
<trkpt lat="22.449085" lon="103.934189">
<ele>338.293213</ele>
<time>2011-04-22T02:57:00Z</time>
<desc>lat.=22.449085, lon.=103.934189, Alt.=338.293213m. Speed=8.496000m/h.</desc>
<speed>2.360000</speed>
</trkpt>
<trkpt lat="22.448990" lon="103.934120">
<ele>338.863525</ele>
<time>2011-04-22T02:57:05Z</time>
<desc>lat.=22.448990, lon.=103.934120, Alt.=338.863525m. Speed=9.036000m/h.</desc>
<speed>2.510000</speed>
</trkpt>
<trkpt lat="22.448889" lon="103.934052">
<ele>339.902588</ele>
<time>2011-04-22T02:57:10Z</time>
<desc>lat.=22.448889, lon.=103.934052, Alt.=339.902588m. Speed=9.036000m/h.</desc>
<speed>2.510000</speed>
</trkpt>
<trkpt lat="22.448786" lon="103.933998">
<ele>341.254150</ele>
<time>2011-04-22T02:57:15Z</time>
<desc>lat.=22.448786, lon.=103.933998, Alt.=341.254150m. Speed=8.388000m/h.</desc>
<speed>2.330000</speed>
</trkpt>
<trkpt lat="22.448675" lon="103.933998">
<ele>342.519775</ele>
<time>2011-04-22T02:57:20Z</time>
<desc>lat.=22.448675, lon.=103.933998, Alt.=342.519775m. Speed=8.568000m/h.</desc>
<speed>2.380000</speed>
</trkpt>
<trkpt lat="22.448591" lon="103.934029">
<ele>344.988525</ele>
<time>2011-04-22T02:57:25Z</time>
<desc>lat.=22.448591, lon.=103.934029, Alt.=344.988525m. Speed=6.408000m/h.</desc>
<speed>1.780000</speed>
</trkpt>
<trkpt lat="22.448528" lon="103.934067">
<ele>346.504150</ele>
<time>2011-04-22T02:57:30Z</time>
<desc>lat.=22.448528, lon.=103.934067, Alt.=346.504150m. Speed=5.832000m/h.</desc>
<speed>1.620000</speed>
</trkpt>
<trkpt lat="22.448473" lon="103.934113">
<ele>348.285400</ele>
<time>2011-04-22T02:57:35Z</time>
<desc>lat.=22.448473, lon.=103.934113, Alt.=348.285400m. Speed=3.528000m/h.</desc>
<speed>0.980000</speed>
</trkpt>
<trkpt lat="22.448425" lon="103.934135">
<ele>349.176025</ele>
<time>2011-04-22T02:57:40Z</time>
<desc>lat.=22.448425, lon.=103.934135, Alt.=349.176025m. Speed=4.680000m/h.</desc>
<speed>1.300000</speed>
</trkpt>
<trkpt lat="22.448362" lon="103.934158">
<ele>349.293213</ele>
<time>2011-04-22T02:57:45Z</time>
<desc>lat.=22.448362, lon.=103.934158, Alt.=349.293213m. Speed=4.896000m/h.</desc>
<speed>1.360000</speed>
</trkpt>
<trkpt lat="22.448309" lon="103.934181">
<ele>349.261963</ele>
<time>2011-04-22T02:57:50Z</time>
<desc>lat.=22.448309, lon.=103.934181, Alt.=349.261963m. Speed=2.088000m/h.</desc>
<speed>0.580000</speed>
</trkpt>
<trkpt lat="22.448299" lon="103.934181">
<ele>348.308838</ele>
<time>2011-04-22T02:57:55Z</time>
<desc>lat.=22.448299, lon.=103.934181, Alt.=348.308838m. Speed=0.324000m/h.</desc>
<speed>0.090000</speed>
</trkpt>
<trkpt lat="22.448303" lon="103.934181">
<ele>348.808838</ele>
<time>2011-04-22T02:58:00Z</time>
<desc>lat.=22.448303, lon.=103.934181, Alt.=348.808838m. Speed=0.324000m/h.</desc>
<speed>0.090000</speed>
</trkpt>
<trkpt lat="22.448307" lon="103.934181">
<ele>349.301025</ele>
<time>2011-04-22T02:58:05Z</time>
<desc>lat.=22.448307, lon.=103.934181, Alt.=349.301025m. Speed=0.180000m/h.</desc>
<speed>0.050000</speed>
</trkpt>
<trkpt lat="22.448307" lon="103.934181">
<ele>349.715088</ele>
<time>2011-04-22T02:58:10Z</time>
<desc>lat.=22.448307, lon.=103.934181, Alt.=349.715088m. Speed=0.108000m/h.</desc>
<speed>0.030000</speed>
</trkpt>
<trkpt lat="22.448309" lon="103.934181">
<ele>350.090088</ele>
<time>2011-04-22T02:58:15Z</time>
<desc>lat.=22.448309, lon.=103.934181, Alt.=350.090088m. Speed=0.252000m/h.</desc>
<speed>0.070000</speed>
</trkpt>
<trkpt lat="22.448311" lon="103.934181">
<ele>350.418213</ele>
<time>2011-04-22T02:58:20Z</time>
<desc>lat.=22.448311, lon.=103.934181, Alt.=350.418213m. Speed=0.144000m/h.</desc>
<speed>0.040000</speed>
</trkpt>
<trkpt lat="22.448313" lon="103.934181">
<ele>350.754150</ele>
<time>2011-04-22T02:58:25Z</time>
<desc>lat.=22.448313, lon.=103.934181, Alt.=350.754150m. Speed=0.216000m/h.</desc>
<speed>0.060000</speed>
</trkpt>
<trkpt lat="22.448315" lon="103.934181">
<ele>351.066650</ele>
<time>2011-04-22T02:58:30Z</time>
<desc>lat.=22.448315, lon.=103.934181, Alt.=351.066650m. Speed=0.144000m/h.</desc>
<speed>0.040000</speed>
</trkpt>
<trkpt lat="22.448317" lon="103.934181">
<ele>351.285400</ele>
<time>2011-04-22T02:58:35Z</time>
<desc>lat.=22.448317, lon.=103.934181, Alt.=351.285400m. Speed=0.036000m/h.</desc>
<speed>0.010000</speed>
</trkpt>
<trkpt lat="22.448317" lon="103.934181">
<ele>351.285400</ele>
<time>2011-04-22T02:58:40Z</time>
<desc>lat.=22.448317, lon.=103.934181, Alt.=351.285400m. Speed=0.000000m/h.</desc>
<speed>0.000000</speed>
</trkpt>
<trkpt lat="22.448315" lon="103.934181">
<ele>351.254150</ele>
<time>2011-04-22T02:58:45Z</time>
<desc>lat.=22.448315, lon.=103.934181, Alt.=351.254150m. Speed=0.576000m/h.</desc>
<speed>0.160000</speed>
</trkpt>
<trkpt lat="22.448315" lon="103.934181">
<ele>351.238525</ele>
<time>2011-04-22T02:58:50Z</time>
<desc>lat.=22.448315, lon.=103.934181, Alt.=351.238525m. Speed=0.000000m/h.</desc>
<speed>0.000000</speed>
</trkpt>
<trkpt lat="22.448315" lon="103.934181">
<ele>351.246338</ele>
<time>2011-04-22T02:58:55Z</time>
<desc>lat.=22.448315, lon.=103.934181, Alt.=351.246338m. Speed=0.072000m/h.</desc>
<speed>0.020000</speed>
</trkpt>
<trkpt lat="22.448317" lon="103.934181">
<ele>351.160400</ele>
<time>2011-04-22T02:59:00Z</time>
<desc>lat.=22.448317, lon.=103.934181, Alt.=351.160400m. Speed=0.000000m/h.</desc>
<speed>0.000000</speed>
</trkpt>
<trkpt lat="22.448315" lon="103.934181">
<ele>351.058838</ele>
<time>2011-04-22T02:59:05Z</time>
<desc>lat.=22.448315, lon.=103.934181, Alt.=351.058838m. Speed=0.036000m/h.</desc>
<speed>0.010000</speed>
</trkpt>
<trkpt lat="22.448313" lon="103.934181">
<ele>350.949463</ele>
<time>2011-04-22T02:59:10Z</time>
<desc>lat.=22.448313, lon.=103.934181, Alt.=350.949463m. Speed=2.520000m/h.</desc>
<speed>0.700000</speed>
</trkpt>
<trkpt lat="22.448351" lon="103.934189">
<ele>349.301025</ele>
<time>2011-04-22T02:59:15Z</time>
<desc>lat.=22.448351, lon.=103.934189, Alt.=349.301025m. Speed=5.364000m/h.</desc>
<speed>1.490000</speed>
</trkpt>
<trkpt lat="22.448385" lon="103.934189">
<ele>347.019775</ele>
<time>2011-04-22T02:59:20Z</time>
<desc>lat.=22.448385, lon.=103.934189, Alt.=347.019775m. Speed=0.180000m/h.</desc>
<speed>0.050000</speed>
</trkpt>
<trkpt lat="22.448378" lon="103.934181">
<ele>344.988525</ele>
<time>2011-04-22T02:59:25Z</time>
<desc>lat.=22.448378, lon.=103.934181, Alt.=344.988525m. Speed=0.108000m/h.</desc>
<speed>0.030000</speed>
</trkpt>
<trkpt lat="22.448378" lon="103.934181">
<ele>344.699463</ele>
<time>2011-04-22T02:59:30Z</time>
<desc>lat.=22.448378, lon.=103.934181, Alt.=344.699463m. Speed=0.036000m/h.</desc>
<speed>0.010000</speed>
</trkpt>
<trkpt lat="22.448378" lon="103.934181">
<ele>344.433838</ele>
<time>2011-04-22T02:59:35Z</time>
<desc>lat.=22.448378, lon.=103.934181, Alt.=344.433838m. Speed=0.036000m/h.</desc>
<speed>0.010000</speed>
</trkpt>
<trkpt lat="22.448378" lon="103.934181">
<ele>344.293213</ele>
<time>2011-04-22T02:59:40Z</time>
<desc>lat.=22.448378, lon.=103.934181, Alt.=344.293213m. Speed=0.000000m/h.</desc>
<speed>0.000000</speed>
</trkpt>
<trkpt lat="22.448378" lon="103.934181">
<ele>344.261963</ele>
<time>2011-04-22T02:59:45Z</time>
<desc>lat.=22.448378, lon.=103.934181, Alt.=344.261963m. Speed=0.000000m/h.</desc>
<speed>0.000000</speed>
</trkpt>
<trkpt lat="22.448378" lon="103.934181">
<ele>344.215088</ele>
<time>2011-04-22T02:59:50Z</time>
<desc>lat.=22.448378, lon.=103.934181, Alt.=344.215088m. Speed=0.000000m/h.</desc>
<speed>0.000000</speed>
</trkpt>
<trkpt lat="22.448378" lon="103.934181">
<ele>344.183838</ele>
<time>2011-04-22T02:59:55Z</time>
<desc>lat.=22.448378, lon.=103.934181, Alt.=344.183838m. Speed=0.036000m/h.</desc>
<speed>0.010000</speed>
</trkpt>
<trkpt lat="22.448378" lon="103.934181">
<ele>344.113525</ele>
<time>2011-04-22T03:00:00Z</time>
<desc>lat.=22.448378, lon.=103.934181, Alt.=344.113525m. Speed=0.036000m/h.</desc>
<speed>0.010000</speed>
</trkpt>
<trkpt lat="22.448378" lon="103.934181">
<ele>344.043213</ele>
<time>2011-04-22T03:00:05Z</time>
<desc>lat.=22.448378, lon.=103.934181, Alt.=344.043213m. Speed=0.000000m/h.</desc>
<speed>0.000000</speed>
</trkpt>
<trkpt lat="22.448378" lon="103.934181">
<ele>343.957275</ele>
<time>2011-04-22T03:00:10Z</time>
<desc>lat.=22.448378, lon.=103.934181, Alt.=343.957275m. Speed=0.000000m/h.</desc>
<speed>0.000000</speed>
</trkpt>
<trkpt lat="22.448378" lon="103.934181">
<ele>343.863525</ele>
<time>2011-04-22T03:00:15Z</time>
<desc>lat.=22.448378, lon.=103.934181, Alt.=343.863525m. Speed=0.000000m/h.</desc>
<speed>0.000000</speed>
</trkpt>
<trkpt lat="22.448376" lon="103.934181">
<ele>343.754150</ele>
<time>2011-04-22T03:00:20Z</time>
<desc>lat.=22.448376, lon.=103.934181, Alt.=343.754150m. Speed=0.000000m/h.</desc>
<speed>0.000000</speed>
</trkpt>
<trkpt lat="22.448374" lon="103.934181">
<ele>343.676025</ele>
<time>2011-04-22T03:00:25Z</time>
<desc>lat.=22.448374, lon.=103.934181, Alt.=343.676025m. Speed=0.036000m/h.</desc>
<speed>0.010000</speed>
</trkpt>
<trkpt lat="22.448374" lon="103.934181">
<ele>343.605713</ele>
<time>2011-04-22T03:00:30Z</time>
<desc>lat.=22.448374, lon.=103.934181, Alt.=343.605713m. Speed=0.036000m/h.</desc>
<speed>0.010000</speed>
</trkpt>
<trkpt lat="22.448374" lon="103.934181">
<ele>343.535400</ele>
<time>2011-04-22T03:00:35Z</time>
<desc>lat.=22.448374, lon.=103.934181, Alt.=343.535400m. Speed=0.000000m/h.</desc>
<speed>0.000000</speed>
</trkpt>
<trkpt lat="22.448374" lon="103.934181">
<ele>343.441650</ele>
<time>2011-04-22T03:00:40Z</time>
<desc>lat.=22.448374, lon.=103.934181, Alt.=343.441650m. Speed=0.000000m/h.</desc>
<speed>0.000000</speed>
</trkpt>
<trkpt lat="22.448374" lon="103.934181">
<ele>343.394775</ele>
<time>2011-04-22T03:00:45Z</time>
<desc>lat.=22.448374, lon.=103.934181, Alt.=343.394775m. Speed=0.036000m/h.</desc>
<speed>0.010000</speed>
</trkpt>
<trkpt lat="22.448374" lon="103.934181">
<ele>343.332275</ele>
<time>2011-04-22T03:00:50Z</time>
<desc>lat.=22.448374, lon.=103.934181, Alt.=343.332275m. Speed=0.000000m/h.</desc>
<speed>0.000000</speed>
</trkpt>
<trkpt lat="22.448374" lon="103.934181">
<ele>343.269775</ele>
<time>2011-04-22T03:00:55Z</time>
<desc>lat.=22.448374, lon.=103.934181, Alt.=343.269775m. Speed=0.000000m/h.</desc>
<speed>0.000000</speed>
</trkpt>
<trkpt lat="22.448374" lon="103.934181">
<ele>343.230713</ele>
<time>2011-04-22T03:01:00Z</time>
<desc>lat.=22.448374, lon.=103.934181, Alt.=343.230713m. Speed=0.036000m/h.</desc>
<speed>0.010000</speed>
</trkpt>
<trkpt lat="22.448372" lon="103.934181">
<ele>343.183838</ele>
<time>2011-04-22T03:01:05Z</time>
<desc>lat.=22.448372, lon.=103.934181, Alt.=343.183838m. Speed=0.036000m/h.</desc>
<speed>0.010000</speed>
</trkpt>
<trkpt lat="22.448372" lon="103.934181">
<ele>343.144775</ele>
<time>2011-04-22T03:01:10Z</time>
<desc>lat.=22.448372, lon.=103.934181, Alt.=343.144775m. Speed=0.036000m/h.</desc>
<speed>0.010000</speed>
</trkpt>
<trkpt lat="22.448372" lon="103.934181">
<ele>343.113525</ele>
<time>2011-04-22T03:01:15Z</time>
<desc>lat.=22.448372, lon.=103.934181, Alt.=343.113525m. Speed=0.000000m/h.</desc>
<speed>0.000000</speed>
</trkpt>
<trkpt lat="22.448372" lon="103.934181">
<ele>343.090088</ele>
<time>2011-04-22T03:01:20Z</time>
<desc>lat.=22.448372, lon.=103.934181, Alt.=343.090088m. Speed=0.036000m/h.</desc>
<speed>0.010000</speed>
</trkpt>
<trkpt lat="22.448372" lon="103.934181">
<ele>343.066650</ele>
<time>2011-04-22T03:01:25Z</time>
<desc>lat.=22.448372, lon.=103.934181, Alt.=343.066650m. Speed=0.000000m/h.</desc>
<speed>0.000000</speed>
</trkpt>
<trkpt lat="22.448372" lon="103.934181">
<ele>343.019775</ele>
<time>2011-04-22T03:01:30Z</time>
<desc>lat.=22.448372, lon.=103.934181, Alt.=343.019775m. Speed=0.000000m/h.</desc>
<speed>0.000000</speed>
</trkpt>
<trkpt lat="22.448372" lon="103.934181">
<ele>342.902588</ele>
<time>2011-04-22T03:01:35Z</time>
<desc>lat.=22.448372, lon.=103.934181, Alt.=342.902588m. Speed=0.036000m/h.</desc>
<speed>0.010000</speed>
</trkpt>
<trkpt lat="22.448374" lon="103.934181">
<ele>342.871338</ele>
<time>2011-04-22T03:01:40Z</time>
<desc>lat.=22.448374, lon.=103.934181, Alt.=342.871338m. Speed=0.036000m/h.</desc>
<speed>0.010000</speed>
</trkpt>
<trkpt lat="22.448374" lon="103.934181">
<ele>342.847900</ele>
<time>2011-04-22T03:01:45Z</time>
<desc>lat.=22.448374, lon.=103.934181, Alt.=342.847900m. Speed=0.000000m/h.</desc>
<speed>0.000000</speed>
</trkpt>
<trkpt lat="22.448374" lon="103.934181">
<ele>342.855713</ele>
<time>2011-04-22T03:01:50Z</time>
<desc>lat.=22.448374, lon.=103.934181, Alt.=342.855713m. Speed=0.072000m/h.</desc>
<speed>0.020000</speed>
</trkpt>
<trkpt lat="22.448374" lon="103.934181">
<ele>342.871338</ele>
<time>2011-04-22T03:01:55Z</time>
<desc>lat.=22.448374, lon.=103.934181, Alt.=342.871338m. Speed=0.072000m/h.</desc>
<speed>0.020000</speed>
</trkpt>
<trkpt lat="22.448374" lon="103.934181">
<ele>342.879150</ele>
<time>2011-04-22T03:02:00Z</time>
<desc>lat.=22.448374, lon.=103.934181, Alt.=342.879150m. Speed=0.036000m/h.</desc>
<speed>0.010000</speed>
</trkpt>
<trkpt lat="22.448374" lon="103.934181">
<ele>342.840088</ele>
<time>2011-04-22T03:02:05Z</time>
<desc>lat.=22.448374, lon.=103.934181, Alt.=342.840088m. Speed=0.000000m/h.</desc>
<speed>0.000000</speed>
</trkpt>
<trkpt lat="22.448376" lon="103.934181">
<ele>342.761963</ele>
<time>2011-04-22T03:02:10Z</time>
<desc>lat.=22.448376, lon.=103.934181, Alt.=342.761963m. Speed=0.072000m/h.</desc>
<speed>0.020000</speed>
</trkpt>
<trkpt lat="22.448376" lon="103.934181">
<ele>342.707275</ele>
<time>2011-04-22T03:02:15Z</time>
<desc>lat.=22.448376, lon.=103.934181, Alt.=342.707275m. Speed=0.000000m/h.</desc>
<speed>0.000000</speed>
</trkpt>
<trkpt lat="22.448376" lon="103.934181">
<ele>342.676025</ele>
<time>2011-04-22T03:02:20Z</time>
<desc>lat.=22.448376, lon.=103.934181, Alt.=342.676025m. Speed=0.072000m/h.</desc>
<speed>0.020000</speed>
</trkpt>
<trkpt lat="22.448376" lon="103.934181">
<ele>342.543213</ele>
<time>2011-04-22T03:02:25Z</time>
<desc>lat.=22.448376, lon.=103.934181, Alt.=342.543213m. Speed=0.072000m/h.</desc>
<speed>0.020000</speed>
</trkpt>
<trkpt lat="22.448376" lon="103.934181">
<ele>342.316650</ele>
<time>2011-04-22T03:02:30Z</time>
<desc>lat.=22.448376, lon.=103.934181, Alt.=342.316650m. Speed=0.000000m/h.</desc>
<speed>0.000000</speed>
</trkpt>
<trkpt lat="22.448372" lon="103.934181">
<ele>342.152588</ele>
<time>2011-04-22T03:02:35Z</time>
<desc>lat.=22.448372, lon.=103.934181, Alt.=342.152588m. Speed=0.036000m/h.</desc>
<speed>0.010000</speed>
</trkpt>
<trkpt lat="22.448372" lon="103.934181">
<ele>342.004150</ele>
<time>2011-04-22T03:02:40Z</time>
<desc>lat.=22.448372, lon.=103.934181, Alt.=342.004150m. Speed=0.072000m/h.</desc>
<speed>0.020000</speed>
</trkpt>
<trkpt lat="22.448368" lon="103.934181">
<ele>341.832275</ele>
<time>2011-04-22T03:02:45Z</time>
<desc>lat.=22.448368, lon.=103.934181, Alt.=341.832275m. Speed=0.036000m/h.</desc>
<speed>0.010000</speed>
</trkpt>
<trkpt lat="22.448368" lon="103.934181">
<ele>341.769775</ele>
<time>2011-04-22T03:02:50Z</time>
<desc>lat.=22.448368, lon.=103.934181, Alt.=341.769775m. Speed=0.072000m/h.</desc>
<speed>0.020000</speed>
</trkpt>
<trkpt lat="22.448368" lon="103.934181">
<ele>341.722900</ele>
<time>2011-04-22T03:02:55Z</time>
<desc>lat.=22.448368, lon.=103.934181, Alt.=341.722900m. Speed=1.296000m/h.</desc>
<speed>0.360000</speed>
</trkpt>
<trkpt lat="22.448387" lon="103.934143">
<ele>335.738525</ele>
<time>2011-04-22T03:03:00Z</time>
<desc>lat.=22.448387, lon.=103.934143, Alt.=335.738525m. Speed=0.216000m/h.</desc>
<speed>0.060000</speed>
</trkpt>
<trkpt lat="22.448381" lon="103.934135">
<ele>334.027588</ele>
<time>2011-04-22T03:03:05Z</time>
<desc>lat.=22.448381, lon.=103.934135, Alt.=334.027588m. Speed=0.180000m/h.</desc>
<speed>0.050000</speed>
</trkpt>
<trkpt lat="22.448385" lon="103.934135">
<ele>333.840088</ele>
<time>2011-04-22T03:03:10Z</time>
<desc>lat.=22.448385, lon.=103.934135, Alt.=333.840088m. Speed=0.108000m/h.</desc>
<speed>0.030000</speed>
</trkpt>
<trkpt lat="22.448385" lon="103.934135">
<ele>333.777588</ele>
<time>2011-04-22T03:03:15Z</time>
<desc>lat.=22.448385, lon.=103.934135, Alt.=333.777588m. Speed=0.072000m/h.</desc>
<speed>0.020000</speed>
</trkpt>
<trkpt lat="22.448385" lon="103.934135">
<ele>333.754150</ele>
<time>2011-04-22T03:03:20Z</time>
<desc>lat.=22.448385, lon.=103.934135, Alt.=333.754150m. Speed=0.216000m/h.</desc>
<speed>0.060000</speed>
</trkpt>
<trkpt lat="22.448385" lon="103.934135">
<ele>333.730713</ele>
<time>2011-04-22T03:03:25Z</time>
<desc>lat.=22.448385, lon.=103.934135, Alt.=333.730713m. Speed=0.000000m/h.</desc>
<speed>0.000000</speed>
</trkpt>
<trkpt lat="22.448383" lon="103.934135">
<ele>333.676025</ele>
<time>2011-04-22T03:03:30Z</time>
<desc>lat.=22.448383, lon.=103.934135, Alt.=333.676025m. Speed=0.072000m/h.</desc>
<speed>0.020000</speed>
</trkpt>
<trkpt lat="22.448374" lon="103.934128">
<ele>332.886963</ele>
<time>2011-04-22T03:03:35Z</time>
<desc>lat.=22.448374, lon.=103.934128, Alt.=332.886963m. Speed=3.096000m/h.</desc>
<speed>0.860000</speed>
</trkpt>
<trkpt lat="22.448330" lon="103.934158">
<ele>330.222900</ele>
<time>2011-04-22T03:03:40Z</time>
<desc>lat.=22.448330, lon.=103.934158, Alt.=330.222900m. Speed=2.556000m/h.</desc>
<speed>0.710000</speed>
</trkpt>
<trkpt lat="22.448322" lon="103.934166">
<ele>329.183838</ele>
<time>2011-04-22T03:03:45Z</time>
<desc>lat.=22.448322, lon.=103.934166, Alt.=329.183838m. Speed=0.072000m/h.</desc>
<speed>0.020000</speed>
</trkpt>
<trkpt lat="22.448318" lon="103.934174">
<ele>329.238525</ele>
<time>2011-04-22T03:03:50Z</time>
<desc>lat.=22.448318, lon.=103.934174, Alt.=329.238525m. Speed=0.540000m/h.</desc>
<speed>0.150000</speed>
</trkpt>
<trkpt lat="22.448298" lon="103.934181">
<ele>329.129150</ele>
<time>2011-04-22T03:03:55Z</time>
<desc>lat.=22.448298, lon.=103.934181, Alt.=329.129150m. Speed=4.572000m/h.</desc>
<speed>1.270000</speed>
</trkpt>
<trkpt lat="22.448217" lon="103.934196">
<ele>329.386963</ele>
<time>2011-04-22T03:04:00Z</time>
<desc>lat.=22.448217, lon.=103.934196, Alt.=329.386963m. Speed=6.192000m/h.</desc>
<speed>1.720000</speed>
</trkpt>
<trkpt lat="22.448147" lon="103.934235">
<ele>330.426025</ele>
<time>2011-04-22T03:04:05Z</time>
<desc>lat.=22.448147, lon.=103.934235, Alt.=330.426025m. Speed=6.120000m/h.</desc>
<speed>1.700000</speed>
</trkpt>
<trkpt lat="22.448084" lon="103.934258">
<ele>331.926025</ele>
<time>2011-04-22T03:04:10Z</time>
<desc>lat.=22.448084, lon.=103.934258, Alt.=331.926025m. Speed=6.156000m/h.</desc>
<speed>1.710000</speed>
</trkpt>
<trkpt lat="22.448013" lon="103.934303">
<ele>334.230713</ele>
<time>2011-04-22T03:04:15Z</time>
<desc>lat.=22.448013, lon.=103.934303, Alt.=334.230713m. Speed=6.372000m/h.</desc>
<speed>1.770000</speed>
</trkpt>
<trkpt lat="22.447937" lon="103.934349">
<ele>336.277588</ele>
<time>2011-04-22T03:04:20Z</time>
<desc>lat.=22.447937, lon.=103.934349, Alt.=336.277588m. Speed=6.552000m/h.</desc>
<speed>1.820000</speed>
</trkpt>
<trkpt lat="22.447870" lon="103.934402">
<ele>339.261963</ele>
<time>2011-04-22T03:04:25Z</time>
<desc>lat.=22.447870, lon.=103.934402, Alt.=339.261963m. Speed=6.660000m/h.</desc>
<speed>1.850000</speed>
</trkpt>
<trkpt lat="22.447802" lon="103.934448">
<ele>342.113525</ele>
<time>2011-04-22T03:04:30Z</time>
<desc>lat.=22.447802, lon.=103.934448, Alt.=342.113525m. Speed=7.092000m/h.</desc>
<speed>1.970000</speed>
</trkpt>
<trkpt lat="22.447721" lon="103.934494">
<ele>345.113525</ele>
<time>2011-04-22T03:04:35Z</time>
<desc>lat.=22.447721, lon.=103.934494, Alt.=345.113525m. Speed=7.056000m/h.</desc>
<speed>1.960000</speed>
</trkpt>
<trkpt lat="22.447645" lon="103.934547">
<ele>347.957275</ele>
<time>2011-04-22T03:04:40Z</time>
<desc>lat.=22.447645, lon.=103.934547, Alt.=347.957275m. Speed=6.732000m/h.</desc>
<speed>1.870000</speed>
</trkpt>
<trkpt lat="22.447563" lon="103.934593">
<ele>350.918213</ele>
<time>2011-04-22T03:04:45Z</time>
<desc>lat.=22.447563, lon.=103.934593, Alt.=350.918213m. Speed=7.812000m/h.</desc>
<speed>2.170000</speed>
</trkpt>
<trkpt lat="22.447470" lon="103.934662">
<ele>353.340088</ele>
<time>2011-04-22T03:04:50Z</time>
<desc>lat.=22.447470, lon.=103.934662, Alt.=353.340088m. Speed=8.532000m/h.</desc>
<speed>2.370000</speed>
</trkpt>
<trkpt lat="22.447416" lon="103.934746">
<ele>355.918213</ele>
<time>2011-04-22T03:04:55Z</time>
<desc>lat.=22.447416, lon.=103.934746, Alt.=355.918213m. Speed=6.984000m/h.</desc>
<speed>1.940000</speed>
</trkpt>
<trkpt lat="22.447392" lon="103.934837">
<ele>358.285400</ele>
<time>2011-04-22T03:05:00Z</time>
<desc>lat.=22.447392, lon.=103.934837, Alt.=358.285400m. Speed=6.552000m/h.</desc>
<speed>1.820000</speed>
</trkpt>
<trkpt lat="22.447382" lon="103.934914">
<ele>361.246338</ele>
<time>2011-04-22T03:05:05Z</time>
<desc>lat.=22.447382, lon.=103.934914, Alt.=361.246338m. Speed=6.840000m/h.</desc>
<speed>1.900000</speed>
</trkpt>
<trkpt lat="22.447372" lon="103.935013">
<ele>362.058838</ele>
<time>2011-04-22T03:05:10Z</time>
<desc>lat.=22.447372, lon.=103.935013, Alt.=362.058838m. Speed=6.840000m/h.</desc>
<speed>1.900000</speed>
</trkpt>
<trkpt lat="22.447363" lon="103.935081">
<ele>362.519775</ele>
<time>2011-04-22T03:05:15Z</time>
<desc>lat.=22.447363, lon.=103.935081, Alt.=362.519775m. Speed=6.840000m/h.</desc>
<speed>1.900000</speed>
</trkpt>
<trkpt lat="22.447344" lon="103.935181">
<ele>361.597900</ele>
<time>2011-04-22T03:05:20Z</time>
<desc>lat.=22.447344, lon.=103.935181, Alt.=361.597900m. Speed=7.704000m/h.</desc>
<speed>2.140000</speed>
</trkpt>
<trkpt lat="22.447309" lon="103.935295">
<ele>360.144775</ele>
<time>2011-04-22T03:05:25Z</time>
<desc>lat.=22.447309, lon.=103.935295, Alt.=360.144775m. Speed=9.396000m/h.</desc>
<speed>2.610000</speed>
</trkpt>
<trkpt lat="22.447266" lon="103.935394">
<ele>361.113525</ele>
<time>2011-04-22T03:05:30Z</time>
<desc>lat.=22.447266, lon.=103.935394, Alt.=361.113525m. Speed=8.244000m/h.</desc>
<speed>2.290000</speed>
</trkpt>
<trkpt lat="22.447199" lon="103.935478">
<ele>361.535400</ele>
<time>2011-04-22T03:05:35Z</time>
<desc>lat.=22.447199, lon.=103.935478, Alt.=361.535400m. Speed=7.668000m/h.</desc>
<speed>2.130000</speed>
</trkpt>
<trkpt lat="22.447098" lon="103.935524">
<ele>355.332275</ele>
<time>2011-04-22T03:05:40Z</time>
<desc>lat.=22.447098, lon.=103.935524, Alt.=355.332275m. Speed=7.092000m/h.</desc>
<speed>1.970000</speed>
</trkpt>
<trkpt lat="22.447018" lon="103.935577">
<ele>356.738525</ele>
<time>2011-04-22T03:05:45Z</time>
<desc>lat.=22.447018, lon.=103.935577, Alt.=356.738525m. Speed=8.028000m/h.</desc>
<speed>2.230000</speed>
</trkpt>
<trkpt lat="22.446930" lon="103.935638">
<ele>358.730713</ele>
<time>2011-04-22T03:05:50Z</time>
<desc>lat.=22.446930, lon.=103.935638, Alt.=358.730713m. Speed=7.380000m/h.</desc>
<speed>2.050000</speed>
</trkpt>
<trkpt lat="22.446857" lon="103.935692">
<ele>361.285400</ele>
<time>2011-04-22T03:05:55Z</time>
<desc>lat.=22.446857, lon.=103.935692, Alt.=361.285400m. Speed=7.632000m/h.</desc>
<speed>2.120000</speed>
</trkpt>
<trkpt lat="22.446772" lon="103.935738">
<ele>363.840088</ele>
<time>2011-04-22T03:06:00Z</time>
<desc>lat.=22.446772, lon.=103.935738, Alt.=363.840088m. Speed=7.452000m/h.</desc>
<speed>2.070000</speed>
</trkpt>
<trkpt lat="22.446690" lon="103.935799">
<ele>365.511963</ele>
<time>2011-04-22T03:06:05Z</time>
<desc>lat.=22.446690, lon.=103.935799, Alt.=365.511963m. Speed=7.848000m/h.</desc>
<speed>2.180000</speed>
</trkpt>
<trkpt lat="22.446602" lon="103.935860">
<ele>367.316650</ele>
<time>2011-04-22T03:06:10Z</time>
<desc>lat.=22.446602, lon.=103.935860, Alt.=367.316650m. Speed=7.740000m/h.</desc>
<speed>2.150000</speed>
</trkpt>
<trkpt lat="22.446537" lon="103.935944">
<ele>369.308838</ele>
<time>2011-04-22T03:06:15Z</time>
<desc>lat.=22.446537, lon.=103.935944, Alt.=369.308838m. Speed=8.712000m/h.</desc>
<speed>2.420000</speed>
</trkpt>
<trkpt lat="22.446501" lon="103.936066">
<ele>371.879150</ele>
<time>2011-04-22T03:06:20Z</time>
<desc>lat.=22.446501, lon.=103.936066, Alt.=371.879150m. Speed=10.008000m/h.</desc>
<speed>2.780000</speed>
</trkpt>
<trkpt lat="22.446503" lon="103.936195">
<ele>375.379150</ele>
<time>2011-04-22T03:06:25Z</time>
<desc>lat.=22.446503, lon.=103.936195, Alt.=375.379150m. Speed=9.648000m/h.</desc>
<speed>2.680000</speed>
</trkpt>
<trkpt lat="22.446447" lon="103.936279">
<ele>355.347900</ele>
<time>2011-04-22T03:06:30Z</time>
<desc>lat.=22.446447, lon.=103.936279, Alt.=355.347900m. Speed=8.604000m/h.</desc>
<speed>2.390000</speed>
</trkpt>
<trkpt lat="22.446455" lon="103.936371">
<ele>345.660400</ele>
<time>2011-04-22T03:06:35Z</time>
<desc>lat.=22.446455, lon.=103.936371, Alt.=345.660400m. Speed=10.224000m/h.</desc>
<speed>2.840000</speed>
</trkpt>
<trkpt lat="22.446503" lon="103.936447">
<ele>344.629150</ele>
<time>2011-04-22T03:06:40Z</time>
<desc>lat.=22.446503, lon.=103.936447, Alt.=344.629150m. Speed=5.472000m/h.</desc>
<speed>1.520000</speed>
</trkpt>
<trkpt lat="22.446548" lon="103.936531">
<ele>344.738525</ele>
<time>2011-04-22T03:06:45Z</time>
<desc>lat.=22.446548, lon.=103.936531, Alt.=344.738525m. Speed=8.064000m/h.</desc>
<speed>2.240000</speed>
</trkpt>
<trkpt lat="22.446608" lon="103.936623">
<ele>345.988525</ele>
<time>2011-04-22T03:06:50Z</time>
<desc>lat.=22.446608, lon.=103.936623, Alt.=345.988525m. Speed=8.280000m/h.</desc>
<speed>2.300000</speed>
</trkpt>
<trkpt lat="22.446665" lon="103.936722">
<ele>346.363525</ele>
<time>2011-04-22T03:06:55Z</time>
<desc>lat.=22.446665, lon.=103.936722, Alt.=346.363525m. Speed=8.424000m/h.</desc>
<speed>2.340000</speed>
</trkpt>
<trkpt lat="22.446705" lon="103.936829">
<ele>347.801025</ele>
<time>2011-04-22T03:07:00Z</time>
<desc>lat.=22.446705, lon.=103.936829, Alt.=347.801025m. Speed=8.496000m/h.</desc>
<speed>2.360000</speed>
</trkpt>
<trkpt lat="22.446712" lon="103.936951">
<ele>348.761963</ele>
<time>2011-04-22T03:07:05Z</time>
<desc>lat.=22.446712, lon.=103.936951, Alt.=348.761963m. Speed=9.288000m/h.</desc>
<speed>2.580000</speed>
</trkpt>
<trkpt lat="22.446661" lon="103.937065">
<ele>349.347900</ele>
<time>2011-04-22T03:07:10Z</time>
<desc>lat.=22.446661, lon.=103.937065, Alt.=349.347900m. Speed=8.388000m/h.</desc>
<speed>2.330000</speed>
</trkpt>
<trkpt lat="22.446566" lon="103.937134">
<ele>350.488525</ele>
<time>2011-04-22T03:07:15Z</time>
<desc>lat.=22.446566, lon.=103.937134, Alt.=350.488525m. Speed=9.432000m/h.</desc>
<speed>2.620000</speed>
</trkpt>
<trkpt lat="22.446444" lon="103.937180">
<ele>351.746338</ele>
<time>2011-04-22T03:07:20Z</time>
<desc>lat.=22.446444, lon.=103.937180, Alt.=351.746338m. Speed=9.180000m/h.</desc>
<speed>2.550000</speed>
</trkpt>
<trkpt lat="22.446335" lon="103.937202">
<ele>353.277588</ele>
<time>2011-04-22T03:07:25Z</time>
<desc>lat.=22.446335, lon.=103.937202, Alt.=353.277588m. Speed=9.612000m/h.</desc>
<speed>2.670000</speed>
</trkpt>
<trkpt lat="22.446211" lon="103.937210">
<ele>354.754150</ele>
<time>2011-04-22T03:07:30Z</time>
<desc>lat.=22.446211, lon.=103.937210, Alt.=354.754150m. Speed=10.008000m/h.</desc>
<speed>2.780000</speed>
</trkpt>
<trkpt lat="22.446085" lon="103.937233">
<ele>356.394775</ele>
<time>2011-04-22T03:07:35Z</time>
<desc>lat.=22.446085, lon.=103.937233, Alt.=356.394775m. Speed=9.864000m/h.</desc>
<speed>2.740000</speed>
</trkpt>
<trkpt lat="22.445969" lon="103.937248">
<ele>357.660400</ele>
<time>2011-04-22T03:07:40Z</time>
<desc>lat.=22.445969, lon.=103.937248, Alt.=357.660400m. Speed=9.540000m/h.</desc>
<speed>2.650000</speed>
</trkpt>
<trkpt lat="22.445850" lon="103.937271">
<ele>358.855713</ele>
<time>2011-04-22T03:07:45Z</time>
<desc>lat.=22.445850, lon.=103.937271, Alt.=358.855713m. Speed=8.100000m/h.</desc>
<speed>2.250000</speed>
</trkpt>
<trkpt lat="22.445759" lon="103.937309">
<ele>359.441650</ele>
<time>2011-04-22T03:07:50Z</time>
<desc>lat.=22.445759, lon.=103.937309, Alt.=359.441650m. Speed=6.264000m/h.</desc>
<speed>1.740000</speed>
</trkpt>
<trkpt lat="22.445749" lon="103.937309">
<ele>359.715088</ele>
<time>2011-04-22T03:07:55Z</time>
<desc>lat.=22.445749, lon.=103.937309, Alt.=359.715088m. Speed=0.108000m/h.</desc>
<speed>0.030000</speed>
</trkpt>
<trkpt lat="22.445742" lon="103.937309">
<ele>360.051025</ele>
<time>2011-04-22T03:08:00Z</time>
<desc>lat.=22.445742, lon.=103.937309, Alt.=360.051025m. Speed=1.584000m/h.</desc>
<speed>0.440000</speed>
</trkpt>
<trkpt lat="22.445745" lon="103.937317">
<ele>360.004150</ele>
<time>2011-04-22T03:08:05Z</time>
<desc>lat.=22.445745, lon.=103.937317, Alt.=360.004150m. Speed=0.144000m/h.</desc>
<speed>0.040000</speed>
</trkpt>
<trkpt lat="22.445745" lon="103.937317">
<ele>360.144775</ele>
<time>2011-04-22T03:08:10Z</time>
<desc>lat.=22.445745, lon.=103.937317, Alt.=360.144775m. Speed=0.108000m/h.</desc>
<speed>0.030000</speed>
</trkpt>
<trkpt lat="22.445744" lon="103.937317">
<ele>360.097900</ele>
<time>2011-04-22T03:08:15Z</time>
<desc>lat.=22.445744, lon.=103.937317, Alt.=360.097900m. Speed=0.180000m/h.</desc>
<speed>0.050000</speed>
</trkpt>
<trkpt lat="22.445742" lon="103.937309">
<ele>359.855713</ele>
<time>2011-04-22T03:08:20Z</time>
<desc>lat.=22.445742, lon.=103.937309, Alt.=359.855713m. Speed=0.036000m/h.</desc>
<speed>0.010000</speed>
</trkpt>
<trkpt lat="22.445738" lon="103.937332">
<ele>360.004150</ele>
<time>2011-04-22T03:08:25Z</time>
<desc>lat.=22.445738, lon.=103.937332, Alt.=360.004150m. Speed=5.940000m/h.</desc>
<speed>1.650000</speed>
</trkpt>
<trkpt lat="22.445684" lon="103.937454">
<ele>360.176025</ele>
<time>2011-04-22T03:08:30Z</time>
<desc>lat.=22.445684, lon.=103.937454, Alt.=360.176025m. Speed=11.196000m/h.</desc>
<speed>3.110000</speed>
</trkpt>
<trkpt lat="22.445629" lon="103.937553">
<ele>359.129150</ele>
<time>2011-04-22T03:08:35Z</time>
<desc>lat.=22.445629, lon.=103.937553, Alt.=359.129150m. Speed=8.244000m/h.</desc>
<speed>2.290000</speed>
</trkpt>
<trkpt lat="22.445633" lon="103.937645">
<ele>357.511963</ele>
<time>2011-04-22T03:08:40Z</time>
<desc>lat.=22.445633, lon.=103.937645, Alt.=357.511963m. Speed=4.104000m/h.</desc>
<speed>1.140000</speed>
</trkpt>
<trkpt lat="22.445635" lon="103.937675">
<ele>356.785400</ele>
<time>2011-04-22T03:08:45Z</time>
<desc>lat.=22.445635, lon.=103.937675, Alt.=356.785400m. Speed=1.692000m/h.</desc>
<speed>0.470000</speed>
</trkpt>
<trkpt lat="22.445635" lon="103.937675">
<ele>356.261963</ele>
<time>2011-04-22T03:08:50Z</time>
<desc>lat.=22.445635, lon.=103.937675, Alt.=356.261963m. Speed=0.000000m/h.</desc>
<speed>0.000000</speed>
</trkpt>
<trkpt lat="22.445637" lon="103.937675">
<ele>356.347900</ele>
<time>2011-04-22T03:08:55Z</time>
<desc>lat.=22.445637, lon.=103.937675, Alt.=356.347900m. Speed=0.180000m/h.</desc>
<speed>0.050000</speed>
</trkpt>
<trkpt lat="22.445639" lon="103.937675">
<ele>356.535400</ele>
<time>2011-04-22T03:09:00Z</time>
<desc>lat.=22.445639, lon.=103.937675, Alt.=356.535400m. Speed=0.036000m/h.</desc>
<speed>0.010000</speed>
</trkpt>
<trkpt lat="22.445639" lon="103.937675">
<ele>356.613525</ele>
<time>2011-04-22T03:09:05Z</time>
<desc>lat.=22.445639, lon.=103.937675, Alt.=356.613525m. Speed=0.036000m/h.</desc>
<speed>0.010000</speed>
</trkpt>
<trkpt lat="22.445639" lon="103.937675">
<ele>356.652588</ele>
<time>2011-04-22T03:09:10Z</time>
<desc>lat.=22.445639, lon.=103.937675, Alt.=356.652588m. Speed=0.036000m/h.</desc>
<speed>0.010000</speed>
</trkpt>
<trkpt lat="22.445639" lon="103.937675">
<ele>356.660400</ele>
<time>2011-04-22T03:09:15Z</time>
<desc>lat.=22.445639, lon.=103.937675, Alt.=356.660400m. Speed=0.000000m/h.</desc>
<speed>0.000000</speed>
</trkpt>
<trkpt lat="22.445639" lon="103.937675">
<ele>356.597900</ele>
<time>2011-04-22T03:09:20Z</time>
<desc>lat.=22.445639, lon.=103.937675, Alt.=356.597900m. Speed=0.432000m/h.</desc>
<speed>0.120000</speed>
</trkpt>
<trkpt lat="22.445639" lon="103.937668">
<ele>356.590088</ele>
<time>2011-04-22T03:09:25Z</time>
<desc>lat.=22.445639, lon.=103.937668, Alt.=356.590088m. Speed=0.000000m/h.</desc>
<speed>0.000000</speed>
</trkpt>
<trkpt lat="22.445639" lon="103.937668">
<ele>356.629150</ele>
<time>2011-04-22T03:09:30Z</time>
<desc>lat.=22.445639, lon.=103.937668, Alt.=356.629150m. Speed=1.008000m/h.</desc>
<speed>0.280000</speed>
</trkpt>
<trkpt lat="22.445639" lon="103.937653">
<ele>356.996338</ele>
<time>2011-04-22T03:09:35Z</time>
<desc>lat.=22.445639, lon.=103.937653, Alt.=356.996338m. Speed=2.952000m/h.</desc>
<speed>0.820000</speed>
</trkpt>
<trkpt lat="22.445637" lon="103.937584">
<ele>357.043213</ele>
<time>2011-04-22T03:09:40Z</time>
<desc>lat.=22.445637, lon.=103.937584, Alt.=357.043213m. Speed=6.264000m/h.</desc>
<speed>1.740000</speed>
</trkpt>
<trkpt lat="22.445629" lon="103.937508">
<ele>357.043213</ele>
<time>2011-04-22T03:09:45Z</time>
<desc>lat.=22.445629, lon.=103.937508, Alt.=357.043213m. Speed=3.132000m/h.</desc>
<speed>0.870000</speed>
</trkpt>
<trkpt lat="22.445629" lon="103.937508">
<ele>356.418213</ele>
<time>2011-04-22T03:09:50Z</time>
<desc>lat.=22.445629, lon.=103.937508, Alt.=356.418213m. Speed=0.108000m/h.</desc>
<speed>0.030000</speed>
</trkpt>
<trkpt lat="22.445627" lon="103.937508">
<ele>355.769775</ele>
<time>2011-04-22T03:09:55Z</time>
<desc>lat.=22.445627, lon.=103.937508, Alt.=355.769775m. Speed=0.144000m/h.</desc>
<speed>0.040000</speed>
</trkpt>
<trkpt lat="22.445625" lon="103.937508">
<ele>355.246338</ele>
<time>2011-04-22T03:10:00Z</time>
<desc>lat.=22.445625, lon.=103.937508, Alt.=355.246338m. Speed=0.216000m/h.</desc>
<speed>0.060000</speed>
</trkpt>
<trkpt lat="22.445625" lon="103.937508">
<ele>355.035400</ele>
<time>2011-04-22T03:10:05Z</time>
<desc>lat.=22.445625, lon.=103.937508, Alt.=355.035400m. Speed=0.072000m/h.</desc>
<speed>0.020000</speed>
</trkpt>
<trkpt lat="22.445627" lon="103.937508">
<ele>354.902588</ele>
<time>2011-04-22T03:10:10Z</time>
<desc>lat.=22.445627, lon.=103.937508, Alt.=354.902588m. Speed=0.972000m/h.</desc>
<speed>0.270000</speed>
</trkpt>
<trkpt lat="22.445608" lon="103.937500">
<ele>353.965088</ele>
<time>2011-04-22T03:10:15Z</time>
<desc>lat.=22.445608, lon.=103.937500, Alt.=353.965088m. Speed=2.736000m/h.</desc>
<speed>0.760000</speed>
</trkpt>
<trkpt lat="22.445568" lon="103.937546">
<ele>353.496338</ele>
<time>2011-04-22T03:10:20Z</time>
<desc>lat.=22.445568, lon.=103.937546, Alt.=353.496338m. Speed=4.104000m/h.</desc>
<speed>1.140000</speed>
</trkpt>
<trkpt lat="22.445524" lon="103.937599">
<ele>353.254150</ele>
<time>2011-04-22T03:10:25Z</time>
<desc>lat.=22.445524, lon.=103.937599, Alt.=353.254150m. Speed=4.392000m/h.</desc>
<speed>1.220000</speed>
</trkpt>
<trkpt lat="22.445459" lon="103.937645">
<ele>353.457275</ele>
<time>2011-04-22T03:10:30Z</time>
<desc>lat.=22.445459, lon.=103.937645, Alt.=353.457275m. Speed=5.400000m/h.</desc>
<speed>1.500000</speed>
</trkpt>
<trkpt lat="22.445400" lon="103.937691">
<ele>353.847900</ele>
<time>2011-04-22T03:10:35Z</time>
<desc>lat.=22.445400, lon.=103.937691, Alt.=353.847900m. Speed=6.480000m/h.</desc>
<speed>1.800000</speed>
</trkpt>
<trkpt lat="22.445337" lon="103.937752">
<ele>354.019775</ele>
<time>2011-04-22T03:10:40Z</time>
<desc>lat.=22.445337, lon.=103.937752, Alt.=354.019775m. Speed=5.220000m/h.</desc>
<speed>1.450000</speed>
</trkpt>
<trkpt lat="22.445322" lon="103.937759">
<ele>353.933838</ele>
<time>2011-04-22T03:10:45Z</time>
<desc>lat.=22.445322, lon.=103.937759, Alt.=353.933838m. Speed=0.324000m/h.</desc>
<speed>0.090000</speed>
</trkpt>
<trkpt lat="22.445303" lon="103.937775">
<ele>353.996338</ele>
<time>2011-04-22T03:10:50Z</time>
<desc>lat.=22.445303, lon.=103.937775, Alt.=353.996338m. Speed=1.476000m/h.</desc>
<speed>0.410000</speed>
</trkpt>
<trkpt lat="22.445290" lon="103.937790">
<ele>354.511963</ele>
<time>2011-04-22T03:10:55Z</time>
<desc>lat.=22.445290, lon.=103.937790, Alt.=354.511963m. Speed=0.360000m/h.</desc>
<speed>0.100000</speed>
</trkpt>
<trkpt lat="22.445286" lon="103.937790">
<ele>354.269775</ele>
<time>2011-04-22T03:11:00Z</time>
<desc>lat.=22.445286, lon.=103.937790, Alt.=354.269775m. Speed=0.216000m/h.</desc>
<speed>0.060000</speed>
</trkpt>
<trkpt lat="22.445286" lon="103.937790">
<ele>354.285400</ele>
<time>2011-04-22T03:11:05Z</time>
<desc>lat.=22.445286, lon.=103.937790, Alt.=354.285400m. Speed=0.144000m/h.</desc>
<speed>0.040000</speed>
</trkpt>
<trkpt lat="22.445288" lon="103.937790">
<ele>354.324463</ele>
<time>2011-04-22T03:11:10Z</time>
<desc>lat.=22.445288, lon.=103.937790, Alt.=354.324463m. Speed=0.252000m/h.</desc>
<speed>0.070000</speed>
</trkpt>
<trkpt lat="22.445288" lon="103.937790">
<ele>354.324463</ele>
<time>2011-04-22T03:11:15Z</time>
<desc>lat.=22.445288, lon.=103.937790, Alt.=354.324463m. Speed=0.072000m/h.</desc>
<speed>0.020000</speed>
</trkpt>
<trkpt lat="22.445288" lon="103.937798">
<ele>354.246338</ele>
<time>2011-04-22T03:11:20Z</time>
<desc>lat.=22.445288, lon.=103.937798, Alt.=354.246338m. Speed=0.072000m/h.</desc>
<speed>0.020000</speed>
</trkpt>
<trkpt lat="22.445288" lon="103.937805">
<ele>354.160400</ele>
<time>2011-04-22T03:11:25Z</time>
<desc>lat.=22.445288, lon.=103.937805, Alt.=354.160400m. Speed=0.324000m/h.</desc>
<speed>0.090000</speed>
</trkpt>
<trkpt lat="22.445269" lon="103.937820">
<ele>354.183838</ele>
<time>2011-04-22T03:11:30Z</time>
<desc>lat.=22.445269, lon.=103.937820, Alt.=354.183838m. Speed=2.304000m/h.</desc>
<speed>0.640000</speed>
</trkpt>
<trkpt lat="22.445255" lon="103.937813">
<ele>353.965088</ele>
<time>2011-04-22T03:11:35Z</time>
<desc>lat.=22.445255, lon.=103.937813, Alt.=353.965088m. Speed=0.180000m/h.</desc>
<speed>0.050000</speed>
</trkpt>
<trkpt lat="22.445259" lon="103.937813">
<ele>353.676025</ele>
<time>2011-04-22T03:11:40Z</time>
<desc>lat.=22.445259, lon.=103.937813, Alt.=353.676025m. Speed=0.000000m/h.</desc>
<speed>0.000000</speed>
</trkpt>
<trkpt lat="22.445261" lon="103.937813">
<ele>353.691650</ele>
<time>2011-04-22T03:11:45Z</time>
<desc>lat.=22.445261, lon.=103.937813, Alt.=353.691650m. Speed=0.504000m/h.</desc>
<speed>0.140000</speed>
</trkpt>
<trkpt lat="22.445265" lon="103.937828">
<ele>353.761963</ele>
<time>2011-04-22T03:11:50Z</time>
<desc>lat.=22.445265, lon.=103.937828, Alt.=353.761963m. Speed=2.808000m/h.</desc>
<speed>0.780000</speed>
</trkpt>
<trkpt lat="22.445263" lon="103.937828">
<ele>353.683838</ele>
<time>2011-04-22T03:11:55Z</time>
<desc>lat.=22.445263, lon.=103.937828, Alt.=353.683838m. Speed=0.252000m/h.</desc>
<speed>0.070000</speed>
</trkpt>
<trkpt lat="22.445263" lon="103.937820">
<ele>353.879150</ele>
<time>2011-04-22T03:12:00Z</time>
<desc>lat.=22.445263, lon.=103.937820, Alt.=353.879150m. Speed=1.548000m/h.</desc>
<speed>0.430000</speed>
</trkpt>
<trkpt lat="22.445286" lon="103.937813">
<ele>353.426025</ele>
<time>2011-04-22T03:12:05Z</time>
<desc>lat.=22.445286, lon.=103.937813, Alt.=353.426025m. Speed=2.088000m/h.</desc>
<speed>0.580000</speed>
</trkpt>
<trkpt lat="22.445288" lon="103.937813">
<ele>353.660400</ele>
<time>2011-04-22T03:12:10Z</time>
<desc>lat.=22.445288, lon.=103.937813, Alt.=353.660400m. Speed=0.144000m/h.</desc>
<speed>0.040000</speed>
</trkpt>
<trkpt lat="22.445280" lon="103.937813">
<ele>353.769775</ele>
<time>2011-04-22T03:12:15Z</time>
<desc>lat.=22.445280, lon.=103.937813, Alt.=353.769775m. Speed=1.548000m/h.</desc>
<speed>0.430000</speed>
</trkpt>
<trkpt lat="22.445278" lon="103.937813">
<ele>353.808838</ele>
<time>2011-04-22T03:12:20Z</time>
<desc>lat.=22.445278, lon.=103.937813, Alt.=353.808838m. Speed=0.072000m/h.</desc>
<speed>0.020000</speed>
</trkpt>
<trkpt lat="22.445278" lon="103.937813">
<ele>353.894775</ele>
<time>2011-04-22T03:12:25Z</time>
<desc>lat.=22.445278, lon.=103.937813, Alt.=353.894775m. Speed=0.864000m/h.</desc>
<speed>0.240000</speed>
</trkpt>
<trkpt lat="22.445272" lon="103.937805">
<ele>353.965088</ele>
<time>2011-04-22T03:12:30Z</time>
<desc>lat.=22.445272, lon.=103.937805, Alt.=353.965088m. Speed=0.180000m/h.</desc>
<speed>0.050000</speed>
</trkpt>
<trkpt lat="22.445271" lon="103.937805">
<ele>354.043213</ele>
<time>2011-04-22T03:12:35Z</time>
<desc>lat.=22.445271, lon.=103.937805, Alt.=354.043213m. Speed=0.252000m/h.</desc>
<speed>0.070000</speed>
</trkpt>
<trkpt lat="22.445272" lon="103.937805">
<ele>354.183838</ele>
<time>2011-04-22T03:12:40Z</time>
<desc>lat.=22.445272, lon.=103.937805, Alt.=354.183838m. Speed=1.404000m/h.</desc>
<speed>0.390000</speed>
</trkpt>
<trkpt lat="22.445271" lon="103.937790">
<ele>353.504150</ele>
<time>2011-04-22T03:12:45Z</time>
<desc>lat.=22.445271, lon.=103.937790, Alt.=353.504150m. Speed=0.900000m/h.</desc>
<speed>0.250000</speed>
</trkpt>
<trkpt lat="22.445265" lon="103.937790">
<ele>353.691650</ele>
<time>2011-04-22T03:12:50Z</time>
<desc>lat.=22.445265, lon.=103.937790, Alt.=353.691650m. Speed=0.108000m/h.</desc>
<speed>0.030000</speed>
</trkpt>
<trkpt lat="22.445265" lon="103.937798">
<ele>353.769775</ele>
<time>2011-04-22T03:12:55Z</time>
<desc>lat.=22.445265, lon.=103.937798, Alt.=353.769775m. Speed=0.144000m/h.</desc>
<speed>0.040000</speed>
</trkpt>
<trkpt lat="22.445267" lon="103.937790">
<ele>353.777588</ele>
<time>2011-04-22T03:13:00Z</time>
<desc>lat.=22.445267, lon.=103.937790, Alt.=353.777588m. Speed=0.000000m/h.</desc>
<speed>0.000000</speed>
</trkpt>
<trkpt lat="22.445267" lon="103.937790">
<ele>353.785400</ele>
<time>2011-04-22T03:13:05Z</time>
<desc>lat.=22.445267, lon.=103.937790, Alt.=353.785400m. Speed=0.036000m/h.</desc>
<speed>0.010000</speed>
</trkpt>
<trkpt lat="22.445265" lon="103.937798">
<ele>353.801025</ele>
<time>2011-04-22T03:13:10Z</time>
<desc>lat.=22.445265, lon.=103.937798, Alt.=353.801025m. Speed=0.072000m/h.</desc>
<speed>0.020000</speed>
</trkpt>
<trkpt lat="22.445267" lon="103.937798">
<ele>353.816650</ele>
<time>2011-04-22T03:13:15Z</time>
<desc>lat.=22.445267, lon.=103.937798, Alt.=353.816650m. Speed=0.036000m/h.</desc>
<speed>0.010000</speed>
</trkpt>
<trkpt lat="22.445267" lon="103.937798">
<ele>353.816650</ele>
<time>2011-04-22T03:13:20Z</time>
<desc>lat.=22.445267, lon.=103.937798, Alt.=353.816650m. Speed=0.000000m/h.</desc>
<speed>0.000000</speed>
</trkpt>
<trkpt lat="22.445267" lon="103.937798">
<ele>353.816650</ele>
<time>2011-04-22T03:13:25Z</time>
<desc>lat.=22.445267, lon.=103.937798, Alt.=353.816650m. Speed=0.036000m/h.</desc>
<speed>0.010000</speed>
</trkpt>
<trkpt lat="22.445267" lon="103.937798">
<ele>353.816650</ele>
<time>2011-04-22T03:13:30Z</time>
<desc>lat.=22.445267, lon.=103.937798, Alt.=353.816650m. Speed=0.072000m/h.</desc>
<speed>0.020000</speed>
</trkpt>
<trkpt lat="22.445267" lon="103.937798">
<ele>353.808838</ele>
<time>2011-04-22T03:13:35Z</time>
<desc>lat.=22.445267, lon.=103.937798, Alt.=353.808838m. Speed=0.000000m/h.</desc>
<speed>0.000000</speed>
</trkpt>
<trkpt lat="22.445267" lon="103.937798">
<ele>353.801025</ele>
<time>2011-04-22T03:13:40Z</time>
<desc>lat.=22.445267, lon.=103.937798, Alt.=353.801025m. Speed=0.000000m/h.</desc>
<speed>0.000000</speed>
</trkpt>
<trkpt lat="22.445267" lon="103.937798">
<ele>353.777588</ele>
<time>2011-04-22T03:13:45Z</time>
<desc>lat.=22.445267, lon.=103.937798, Alt.=353.777588m. Speed=0.108000m/h.</desc>
<speed>0.030000</speed>
</trkpt>
<trkpt lat="22.445267" lon="103.937798">
<ele>353.777588</ele>
<time>2011-04-22T03:13:50Z</time>
<desc>lat.=22.445267, lon.=103.937798, Alt.=353.777588m. Speed=0.000000m/h.</desc>
<speed>0.000000</speed>
</trkpt>
<trkpt lat="22.445267" lon="103.937798">
<ele>353.761963</ele>
<time>2011-04-22T03:13:55Z</time>
<desc>lat.=22.445267, lon.=103.937798, Alt.=353.761963m. Speed=0.036000m/h.</desc>
<speed>0.010000</speed>
</trkpt>
<trkpt lat="22.445267" lon="103.937798">
<ele>353.738525</ele>
<time>2011-04-22T03:14:00Z</time>
<desc>lat.=22.445267, lon.=103.937798, Alt.=353.738525m. Speed=0.036000m/h.</desc>
<speed>0.010000</speed>
</trkpt>
<trkpt lat="22.445267" lon="103.937798">
<ele>353.746338</ele>
<time>2011-04-22T03:14:05Z</time>
<desc>lat.=22.445267, lon.=103.937798, Alt.=353.746338m. Speed=0.000000m/h.</desc>
<speed>0.000000</speed>
</trkpt>
<trkpt lat="22.445267" lon="103.937798">
<ele>353.730713</ele>
<time>2011-04-22T03:14:10Z</time>
<desc>lat.=22.445267, lon.=103.937798, Alt.=353.730713m. Speed=0.036000m/h.</desc>
<speed>0.010000</speed>
</trkpt>
<trkpt lat="22.445267" lon="103.937798">
<ele>353.730713</ele>
<time>2011-04-22T03:14:15Z</time>
<desc>lat.=22.445267, lon.=103.937798, Alt.=353.730713m. Speed=0.036000m/h.</desc>
<speed>0.010000</speed>
</trkpt>
<trkpt lat="22.445267" lon="103.937798">
<ele>353.738525</ele>
<time>2011-04-22T03:14:20Z</time>
<desc>lat.=22.445267, lon.=103.937798, Alt.=353.738525m. Speed=0.036000m/h.</desc>
<speed>0.010000</speed>
</trkpt>
<trkpt lat="22.445267" lon="103.937798">
<ele>353.730713</ele>
<time>2011-04-22T03:14:25Z</time>
<desc>lat.=22.445267, lon.=103.937798, Alt.=353.730713m. Speed=0.036000m/h.</desc>
<speed>0.010000</speed>
</trkpt>
<trkpt lat="22.445267" lon="103.937798">
<ele>353.722900</ele>
<time>2011-04-22T03:14:30Z</time>
<desc>lat.=22.445267, lon.=103.937798, Alt.=353.722900m. Speed=0.036000m/h.</desc>
<speed>0.010000</speed>
</trkpt>
<trkpt lat="22.445267" lon="103.937798">
<ele>353.722900</ele>
<time>2011-04-22T03:14:35Z</time>
<desc>lat.=22.445267, lon.=103.937798, Alt.=353.722900m. Speed=0.000000m/h.</desc>
<speed>0.000000</speed>
</trkpt>
<trkpt lat="22.445267" lon="103.937798">
<ele>353.730713</ele>
<time>2011-04-22T03:14:40Z</time>
<desc>lat.=22.445267, lon.=103.937798, Alt.=353.730713m. Speed=0.288000m/h.</desc>
<speed>0.080000</speed>
</trkpt>
<trkpt lat="22.445261" lon="103.937813">
<ele>353.629150</ele>
<time>2011-04-22T03:14:45Z</time>
<desc>lat.=22.445261, lon.=103.937813, Alt.=353.629150m. Speed=2.304000m/h.</desc>
<speed>0.640000</speed>
</trkpt>
<trkpt lat="22.445257" lon="103.937828">
<ele>353.933838</ele>
<time>2011-04-22T03:14:50Z</time>
<desc>lat.=22.445257, lon.=103.937828, Alt.=353.933838m. Speed=0.792000m/h.</desc>
<speed>0.220000</speed>
</trkpt>
<trkpt lat="22.445257" lon="103.937836">
<ele>353.910400</ele>
<time>2011-04-22T03:14:55Z</time>
<desc>lat.=22.445257, lon.=103.937836, Alt.=353.910400m. Speed=0.036000m/h.</desc>
<speed>0.010000</speed>
</trkpt>
<trkpt lat="22.445259" lon="103.937836">
<ele>353.988525</ele>
<time>2011-04-22T03:15:00Z</time>
<desc>lat.=22.445259, lon.=103.937836, Alt.=353.988525m. Speed=0.720000m/h.</desc>
<speed>0.200000</speed>
</trkpt>
<trkpt lat="22.445259" lon="103.937828">
<ele>354.215088</ele>
<time>2011-04-22T03:15:05Z</time>
<desc>lat.=22.445259, lon.=103.937828, Alt.=354.215088m. Speed=0.324000m/h.</desc>
<speed>0.090000</speed>
</trkpt>
<trkpt lat="22.445255" lon="103.937828">
<ele>354.285400</ele>
<time>2011-04-22T03:15:10Z</time>
<desc>lat.=22.445255, lon.=103.937828, Alt.=354.285400m. Speed=0.360000m/h.</desc>
<speed>0.100000</speed>
</trkpt>
<trkpt lat="22.445257" lon="103.937828">
<ele>354.371338</ele>
<time>2011-04-22T03:15:15Z</time>
<desc>lat.=22.445257, lon.=103.937828, Alt.=354.371338m. Speed=1.368000m/h.</desc>
<speed>0.380000</speed>
</trkpt>
<trkpt lat="22.445261" lon="103.937843">
<ele>353.691650</ele>
<time>2011-04-22T03:15:20Z</time>
<desc>lat.=22.445261, lon.=103.937843, Alt.=353.691650m. Speed=0.504000m/h.</desc>
<speed>0.140000</speed>
</trkpt>
<trkpt lat="22.445257" lon="103.937843">
<ele>353.590088</ele>
<time>2011-04-22T03:15:25Z</time>
<desc>lat.=22.445257, lon.=103.937843, Alt.=353.590088m. Speed=0.432000m/h.</desc>
<speed>0.120000</speed>
</trkpt>
<trkpt lat="22.445261" lon="103.937843">
<ele>353.558838</ele>
<time>2011-04-22T03:15:30Z</time>
<desc>lat.=22.445261, lon.=103.937843, Alt.=353.558838m. Speed=0.216000m/h.</desc>
<speed>0.060000</speed>
</trkpt>
<trkpt lat="22.445261" lon="103.937843">
<ele>353.543213</ele>
<time>2011-04-22T03:15:35Z</time>
<desc>lat.=22.445261, lon.=103.937843, Alt.=353.543213m. Speed=0.036000m/h.</desc>
<speed>0.010000</speed>
</trkpt>
<trkpt lat="22.445261" lon="103.937843">
<ele>353.535400</ele>
<time>2011-04-22T03:15:40Z</time>
<desc>lat.=22.445261, lon.=103.937843, Alt.=353.535400m. Speed=0.036000m/h.</desc>
<speed>0.010000</speed>
</trkpt>
<trkpt lat="22.445261" lon="103.937843">
<ele>353.527588</ele>
<time>2011-04-22T03:15:45Z</time>
<desc>lat.=22.445261, lon.=103.937843, Alt.=353.527588m. Speed=0.036000m/h.</desc>
<speed>0.010000</speed>
</trkpt>
<trkpt lat="22.445261" lon="103.937843">
<ele>353.527588</ele>
<time>2011-04-22T03:15:50Z</time>
<desc>lat.=22.445261, lon.=103.937843, Alt.=353.527588m. Speed=0.036000m/h.</desc>
<speed>0.010000</speed>
</trkpt>
<trkpt lat="22.445261" lon="103.937843">
<ele>353.519775</ele>
<time>2011-04-22T03:15:55Z</time>
<desc>lat.=22.445261, lon.=103.937843, Alt.=353.519775m. Speed=0.036000m/h.</desc>
<speed>0.010000</speed>
</trkpt>
<trkpt lat="22.445261" lon="103.937843">
<ele>353.511963</ele>
<time>2011-04-22T03:16:00Z</time>
<desc>lat.=22.445261, lon.=103.937843, Alt.=353.511963m. Speed=0.036000m/h.</desc>
<speed>0.010000</speed>
</trkpt>
<trkpt lat="22.445263" lon="103.937843">
<ele>353.488525</ele>
<time>2011-04-22T03:16:05Z</time>
<desc>lat.=22.445263, lon.=103.937843, Alt.=353.488525m. Speed=0.036000m/h.</desc>
<speed>0.010000</speed>
</trkpt>
<trkpt lat="22.445263" lon="103.937843">
<ele>353.472900</ele>
<time>2011-04-22T03:16:10Z</time>
<desc>lat.=22.445263, lon.=103.937843, Alt.=353.472900m. Speed=0.000000m/h.</desc>
<speed>0.000000</speed>
</trkpt>
<trkpt lat="22.445263" lon="103.937843">
<ele>353.449463</ele>
<time>2011-04-22T03:16:15Z</time>
<desc>lat.=22.445263, lon.=103.937843, Alt.=353.449463m. Speed=0.036000m/h.</desc>
<speed>0.010000</speed>
</trkpt>
<trkpt lat="22.445263" lon="103.937843">
<ele>353.418213</ele>
<time>2011-04-22T03:16:20Z</time>
<desc>lat.=22.445263, lon.=103.937843, Alt.=353.418213m. Speed=0.000000m/h.</desc>
<speed>0.000000</speed>
</trkpt>
<trkpt lat="22.445263" lon="103.937843">
<ele>353.386963</ele>
<time>2011-04-22T03:16:25Z</time>
<desc>lat.=22.445263, lon.=103.937843, Alt.=353.386963m. Speed=0.036000m/h.</desc>
<speed>0.010000</speed>
</trkpt>
<trkpt lat="22.445263" lon="103.937843">
<ele>353.386963</ele>
<time>2011-04-22T03:16:30Z</time>
<desc>lat.=22.445263, lon.=103.937843, Alt.=353.386963m. Speed=0.000000m/h.</desc>
<speed>0.000000</speed>
</trkpt>
<trkpt lat="22.445261" lon="103.937843">
<ele>353.355713</ele>
<time>2011-04-22T03:16:35Z</time>
<desc>lat.=22.445261, lon.=103.937843, Alt.=353.355713m. Speed=0.000000m/h.</desc>
<speed>0.000000</speed>
</trkpt>
<trkpt lat="22.445263" lon="103.937843">
<ele>353.340088</ele>
<time>2011-04-22T03:16:40Z</time>
<desc>lat.=22.445263, lon.=103.937843, Alt.=353.340088m. Speed=0.000000m/h.</desc>
<speed>0.000000</speed>
</trkpt>
<trkpt lat="22.445263" lon="103.937843">
<ele>353.340088</ele>
<time>2011-04-22T03:16:45Z</time>
<desc>lat.=22.445263, lon.=103.937843, Alt.=353.340088m. Speed=0.000000m/h.</desc>
<speed>0.000000</speed>
</trkpt>
<trkpt lat="22.445261" lon="103.937843">
<ele>353.324463</ele>
<time>2011-04-22T03:16:50Z</time>
<desc>lat.=22.445261, lon.=103.937843, Alt.=353.324463m. Speed=0.000000m/h.</desc>
<speed>0.000000</speed>
</trkpt>
<trkpt lat="22.445261" lon="103.937843">
<ele>353.324463</ele>
<time>2011-04-22T03:16:55Z</time>
<desc>lat.=22.445261, lon.=103.937843, Alt.=353.324463m. Speed=0.000000m/h.</desc>
<speed>0.000000</speed>
</trkpt>
<trkpt lat="22.445263" lon="103.937843">
<ele>353.340088</ele>
<time>2011-04-22T03:17:00Z</time>
<desc>lat.=22.445263, lon.=103.937843, Alt.=353.340088m. Speed=0.036000m/h.</desc>
<speed>0.010000</speed>
</trkpt>
<trkpt lat="22.445263" lon="103.937843">
<ele>353.363525</ele>
<time>2011-04-22T03:17:05Z</time>
<desc>lat.=22.445263, lon.=103.937843, Alt.=353.363525m. Speed=0.000000m/h.</desc>
<speed>0.000000</speed>
</trkpt>
<trkpt lat="22.445263" lon="103.937843">
<ele>353.379150</ele>
<time>2011-04-22T03:17:10Z</time>
<desc>lat.=22.445263, lon.=103.937843, Alt.=353.379150m. Speed=0.000000m/h.</desc>
<speed>0.000000</speed>
</trkpt>
<trkpt lat="22.445263" lon="103.937843">
<ele>353.394775</ele>
<time>2011-04-22T03:17:15Z</time>
<desc>lat.=22.445263, lon.=103.937843, Alt.=353.394775m. Speed=0.000000m/h.</desc>
<speed>0.000000</speed>
</trkpt>
<trkpt lat="22.445263" lon="103.937843">
<ele>353.418213</ele>
<time>2011-04-22T03:17:20Z</time>
<desc>lat.=22.445263, lon.=103.937843, Alt.=353.418213m. Speed=0.036000m/h.</desc>
<speed>0.010000</speed>
</trkpt>
<trkpt lat="22.445263" lon="103.937843">
<ele>353.426025</ele>
<time>2011-04-22T03:17:25Z</time>
<desc>lat.=22.445263, lon.=103.937843, Alt.=353.426025m. Speed=0.036000m/h.</desc>
<speed>0.010000</speed>
</trkpt>
<trkpt lat="22.445263" lon="103.937843">
<ele>353.441650</ele>
<time>2011-04-22T03:17:30Z</time>
<desc>lat.=22.445263, lon.=103.937843, Alt.=353.441650m. Speed=0.000000m/h.</desc>
<speed>0.000000</speed>
</trkpt>
<trkpt lat="22.445263" lon="103.937843">
<ele>353.449463</ele>
<time>2011-04-22T03:17:35Z</time>
<desc>lat.=22.445263, lon.=103.937843, Alt.=353.449463m. Speed=0.036000m/h.</desc>
<speed>0.010000</speed>
</trkpt>
<trkpt lat="22.445263" lon="103.937843">
<ele>353.465088</ele>
<time>2011-04-22T03:17:40Z</time>
<desc>lat.=22.445263, lon.=103.937843, Alt.=353.465088m. Speed=0.072000m/h.</desc>
<speed>0.020000</speed>
</trkpt>
<trkpt lat="22.445263" lon="103.937843">
<ele>353.488525</ele>
<time>2011-04-22T03:17:45Z</time>
<desc>lat.=22.445263, lon.=103.937843, Alt.=353.488525m. Speed=0.036000m/h.</desc>
<speed>0.010000</speed>
</trkpt>
<trkpt lat="22.445263" lon="103.937843">
<ele>353.519775</ele>
<time>2011-04-22T03:17:50Z</time>
<desc>lat.=22.445263, lon.=103.937843, Alt.=353.519775m. Speed=0.036000m/h.</desc>
<speed>0.010000</speed>
</trkpt>
<trkpt lat="22.445263" lon="103.937843">
<ele>353.551025</ele>
<time>2011-04-22T03:17:55Z</time>
<desc>lat.=22.445263, lon.=103.937843, Alt.=353.551025m. Speed=0.000000m/h.</desc>
<speed>0.000000</speed>
</trkpt>
<trkpt lat="22.445263" lon="103.937843">
<ele>353.574463</ele>
<time>2011-04-22T03:18:00Z</time>
<desc>lat.=22.445263, lon.=103.937843, Alt.=353.574463m. Speed=0.000000m/h.</desc>
<speed>0.000000</speed>
</trkpt>
<trkpt lat="22.445263" lon="103.937843">
<ele>353.597900</ele>
<time>2011-04-22T03:18:05Z</time>
<desc>lat.=22.445263, lon.=103.937843, Alt.=353.597900m. Speed=0.000000m/h.</desc>
<speed>0.000000</speed>
</trkpt>
<trkpt lat="22.445263" lon="103.937843">
<ele>353.621338</ele>
<time>2011-04-22T03:18:10Z</time>
<desc>lat.=22.445263, lon.=103.937843, Alt.=353.621338m. Speed=0.000000m/h.</desc>
<speed>0.000000</speed>
</trkpt>
<trkpt lat="22.445263" lon="103.937843">
<ele>353.636963</ele>
<time>2011-04-22T03:18:15Z</time>
<desc>lat.=22.445263, lon.=103.937843, Alt.=353.636963m. Speed=0.036000m/h.</desc>
<speed>0.010000</speed>
</trkpt>
<trkpt lat="22.445263" lon="103.937843">
<ele>353.636963</ele>
<time>2011-04-22T03:18:20Z</time>
<desc>lat.=22.445263, lon.=103.937843, Alt.=353.636963m. Speed=0.036000m/h.</desc>
<speed>0.010000</speed>
</trkpt>
<trkpt lat="22.445263" lon="103.937843">
<ele>353.636963</ele>
<time>2011-04-22T03:18:25Z</time>
<desc>lat.=22.445263, lon.=103.937843, Alt.=353.636963m. Speed=0.036000m/h.</desc>
<speed>0.010000</speed>
</trkpt>
<trkpt lat="22.445263" lon="103.937843">
<ele>353.644775</ele>
<time>2011-04-22T03:18:30Z</time>
<desc>lat.=22.445263, lon.=103.937843, Alt.=353.644775m. Speed=0.000000m/h.</desc>
<speed>0.000000</speed>
</trkpt>
<trkpt lat="22.445263" lon="103.937843">
<ele>353.660400</ele>
<time>2011-04-22T03:18:35Z</time>
<desc>lat.=22.445263, lon.=103.937843, Alt.=353.660400m. Speed=0.000000m/h.</desc>
<speed>0.000000</speed>
</trkpt>
<trkpt lat="22.445263" lon="103.937843">
<ele>353.668213</ele>
<time>2011-04-22T03:18:40Z</time>
<desc>lat.=22.445263, lon.=103.937843, Alt.=353.668213m. Speed=0.036000m/h.</desc>
<speed>0.010000</speed>
</trkpt>
<trkpt lat="22.445263" lon="103.937843">
<ele>353.652588</ele>
<time>2011-04-22T03:18:45Z</time>
<desc>lat.=22.445263, lon.=103.937843, Alt.=353.652588m. Speed=0.036000m/h.</desc>
<speed>0.010000</speed>
</trkpt>
<trkpt lat="22.445263" lon="103.937843">
<ele>353.621338</ele>
<time>2011-04-22T03:18:50Z</time>
<desc>lat.=22.445263, lon.=103.937843, Alt.=353.621338m. Speed=0.000000m/h.</desc>
<speed>0.000000</speed>
</trkpt>
<trkpt lat="22.445263" lon="103.937843">
<ele>353.605713</ele>
<time>2011-04-22T03:18:55Z</time>
<desc>lat.=22.445263, lon.=103.937843, Alt.=353.605713m. Speed=0.000000m/h.</desc>
<speed>0.000000</speed>
</trkpt>
<trkpt lat="22.445263" lon="103.937843">
<ele>353.574463</ele>
<time>2011-04-22T03:19:00Z</time>
<desc>lat.=22.445263, lon.=103.937843, Alt.=353.574463m. Speed=0.000000m/h.</desc>
<speed>0.000000</speed>
</trkpt>
<trkpt lat="22.445263" lon="103.937843">
<ele>353.543213</ele>
<time>2011-04-22T03:19:05Z</time>
<desc>lat.=22.445263, lon.=103.937843, Alt.=353.543213m. Speed=0.000000m/h.</desc>
<speed>0.000000</speed>
</trkpt>
<trkpt lat="22.445263" lon="103.937843">
<ele>353.527588</ele>
<time>2011-04-22T03:19:10Z</time>
<desc>lat.=22.445263, lon.=103.937843, Alt.=353.527588m. Speed=0.000000m/h.</desc>
<speed>0.000000</speed>
</trkpt>
<trkpt lat="22.445263" lon="103.937843">
<ele>353.511963</ele>
<time>2011-04-22T03:19:15Z</time>
<desc>lat.=22.445263, lon.=103.937843, Alt.=353.511963m. Speed=0.036000m/h.</desc>
<speed>0.010000</speed>
</trkpt>
<trkpt lat="22.445263" lon="103.937843">
<ele>353.496338</ele>
<time>2011-04-22T03:19:20Z</time>
<desc>lat.=22.445263, lon.=103.937843, Alt.=353.496338m. Speed=0.000000m/h.</desc>
<speed>0.000000</speed>
</trkpt>
<trkpt lat="22.445263" lon="103.937843">
<ele>353.488525</ele>
<time>2011-04-22T03:19:25Z</time>
<desc>lat.=22.445263, lon.=103.937843, Alt.=353.488525m. Speed=0.000000m/h.</desc>
<speed>0.000000</speed>
</trkpt>
<trkpt lat="22.445263" lon="103.937843">
<ele>353.496338</ele>
<time>2011-04-22T03:19:30Z</time>
<desc>lat.=22.445263, lon.=103.937843, Alt.=353.496338m. Speed=0.036000m/h.</desc>
<speed>0.010000</speed>
</trkpt>
<trkpt lat="22.445263" lon="103.937843">
<ele>353.496338</ele>
<time>2011-04-22T03:19:35Z</time>
<desc>lat.=22.445263, lon.=103.937843, Alt.=353.496338m. Speed=0.000000m/h.</desc>
<speed>0.000000</speed>
</trkpt>
<trkpt lat="22.445263" lon="103.937843">
<ele>353.504150</ele>
<time>2011-04-22T03:19:40Z</time>
<desc>lat.=22.445263, lon.=103.937843, Alt.=353.504150m. Speed=0.000000m/h.</desc>
<speed>0.000000</speed>
</trkpt>
<trkpt lat="22.445263" lon="103.937843">
<ele>353.496338</ele>
<time>2011-04-22T03:19:45Z</time>
<desc>lat.=22.445263, lon.=103.937843, Alt.=353.496338m. Speed=0.000000m/h.</desc>
<speed>0.000000</speed>
</trkpt>
<trkpt lat="22.445263" lon="103.937843">
<ele>353.496338</ele>
<time>2011-04-22T03:19:50Z</time>
<desc>lat.=22.445263, lon.=103.937843, Alt.=353.496338m. Speed=0.036000m/h.</desc>
<speed>0.010000</speed>
</trkpt>
<trkpt lat="22.445265" lon="103.937843">
<ele>353.496338</ele>
<time>2011-04-22T03:19:55Z</time>
<desc>lat.=22.445265, lon.=103.937843, Alt.=353.496338m. Speed=0.000000m/h.</desc>
<speed>0.000000</speed>
</trkpt>
<trkpt lat="22.445265" lon="103.937843">
<ele>353.504150</ele>
<time>2011-04-22T03:20:00Z</time>
<desc>lat.=22.445265, lon.=103.937843, Alt.=353.504150m. Speed=0.000000m/h.</desc>
<speed>0.000000</speed>
</trkpt>
<trkpt lat="22.445265" lon="103.937843">
<ele>353.535400</ele>
<time>2011-04-22T03:20:05Z</time>
<desc>lat.=22.445265, lon.=103.937843, Alt.=353.535400m. Speed=0.000000m/h.</desc>
<speed>0.000000</speed>
</trkpt>
<trkpt lat="22.445265" lon="103.937843">
<ele>353.535400</ele>
<time>2011-04-22T03:20:10Z</time>
<desc>lat.=22.445265, lon.=103.937843, Alt.=353.535400m. Speed=0.036000m/h.</desc>
<speed>0.010000</speed>
</trkpt>
<trkpt lat="22.445265" lon="103.937843">
<ele>353.543213</ele>
<time>2011-04-22T03:20:15Z</time>
<desc>lat.=22.445265, lon.=103.937843, Alt.=353.543213m. Speed=0.000000m/h.</desc>
<speed>0.000000</speed>
</trkpt>
<trkpt lat="22.445265" lon="103.937843">
<ele>353.535400</ele>
<time>2011-04-22T03:20:20Z</time>
<desc>lat.=22.445265, lon.=103.937843, Alt.=353.535400m. Speed=0.000000m/h.</desc>
<speed>0.000000</speed>
</trkpt>
<trkpt lat="22.445265" lon="103.937843">
<ele>353.543213</ele>
<time>2011-04-22T03:20:25Z</time>
<desc>lat.=22.445265, lon.=103.937843, Alt.=353.543213m. Speed=0.000000m/h.</desc>
<speed>0.000000</speed>
</trkpt>
<trkpt lat="22.445265" lon="103.937843">
<ele>353.558838</ele>
<time>2011-04-22T03:20:30Z</time>
<desc>lat.=22.445265, lon.=103.937843, Alt.=353.558838m. Speed=0.000000m/h.</desc>
<speed>0.000000</speed>
</trkpt>
<trkpt lat="22.445265" lon="103.937843">
<ele>353.558838</ele>
<time>2011-04-22T03:20:35Z</time>
<desc>lat.=22.445265, lon.=103.937843, Alt.=353.558838m. Speed=0.000000m/h.</desc>
<speed>0.000000</speed>
</trkpt>
<trkpt lat="22.445265" lon="103.937843">
<ele>353.551025</ele>
<time>2011-04-22T03:20:40Z</time>
<desc>lat.=22.445265, lon.=103.937843, Alt.=353.551025m. Speed=0.072000m/h.</desc>
<speed>0.020000</speed>
</trkpt>
<trkpt lat="22.445267" lon="103.937843">
<ele>353.558838</ele>
<time>2011-04-22T03:20:45Z</time>
<desc>lat.=22.445267, lon.=103.937843, Alt.=353.558838m. Speed=0.000000m/h.</desc>
<speed>0.000000</speed>
</trkpt>
<trkpt lat="22.445267" lon="103.937843">
<ele>353.590088</ele>
<time>2011-04-22T03:20:50Z</time>
<desc>lat.=22.445267, lon.=103.937843, Alt.=353.590088m. Speed=0.036000m/h.</desc>
<speed>0.010000</speed>
</trkpt>
<trkpt lat="22.445267" lon="103.937843">
<ele>353.605713</ele>
<time>2011-04-22T03:20:55Z</time>
<desc>lat.=22.445267, lon.=103.937843, Alt.=353.605713m. Speed=0.288000m/h.</desc>
<speed>0.080000</speed>
</trkpt>
<trkpt lat="22.445267" lon="103.937843">
<ele>353.590088</ele>
<time>2011-04-22T03:21:00Z</time>
<desc>lat.=22.445267, lon.=103.937843, Alt.=353.590088m. Speed=0.000000m/h.</desc>
<speed>0.000000</speed>
</trkpt>
<trkpt lat="22.445267" lon="103.937843">
<ele>353.582275</ele>
<time>2011-04-22T03:21:05Z</time>
<desc>lat.=22.445267, lon.=103.937843, Alt.=353.582275m. Speed=0.000000m/h.</desc>
<speed>0.000000</speed>
</trkpt>
<trkpt lat="22.445267" lon="103.937843">
<ele>353.574463</ele>
<time>2011-04-22T03:21:10Z</time>
<desc>lat.=22.445267, lon.=103.937843, Alt.=353.574463m. Speed=0.000000m/h.</desc>
<speed>0.000000</speed>
</trkpt>
<trkpt lat="22.445267" lon="103.937843">
<ele>353.582275</ele>
<time>2011-04-22T03:21:15Z</time>
<desc>lat.=22.445267, lon.=103.937843, Alt.=353.582275m. Speed=0.036000m/h.</desc>
<speed>0.010000</speed>
</trkpt>
<trkpt lat="22.445267" lon="103.937843">
<ele>353.574463</ele>
<time>2011-04-22T03:21:20Z</time>
<desc>lat.=22.445267, lon.=103.937843, Alt.=353.574463m. Speed=0.144000m/h.</desc>
<speed>0.040000</speed>
</trkpt>
<trkpt lat="22.445265" lon="103.937843">
<ele>353.543213</ele>
<time>2011-04-22T03:21:25Z</time>
<desc>lat.=22.445265, lon.=103.937843, Alt.=353.543213m. Speed=0.684000m/h.</desc>
<speed>0.190000</speed>
</trkpt>
<trkpt lat="22.445246" lon="103.937851">
<ele>353.355713</ele>
<time>2011-04-22T03:21:30Z</time>
<desc>lat.=22.445246, lon.=103.937851, Alt.=353.355713m. Speed=4.356000m/h.</desc>
<speed>1.210000</speed>
</trkpt>
<trkpt lat="22.445192" lon="103.937851">
<ele>350.988525</ele>
<time>2011-04-22T03:21:35Z</time>
<desc>lat.=22.445192, lon.=103.937851, Alt.=350.988525m. Speed=1.080000m/h.</desc>
<speed>0.300000</speed>
</trkpt>
<trkpt lat="22.445173" lon="103.937866">
<ele>349.660400</ele>
<time>2011-04-22T03:21:40Z</time>
<desc>lat.=22.445173, lon.=103.937866, Alt.=349.660400m. Speed=1.152000m/h.</desc>
<speed>0.320000</speed>
</trkpt>
<trkpt lat="22.445110" lon="103.937904">
<ele>349.832275</ele>
<time>2011-04-22T03:21:45Z</time>
<desc>lat.=22.445110, lon.=103.937904, Alt.=349.832275m. Speed=8.388000m/h.</desc>
<speed>2.330000</speed>
</trkpt>
<trkpt lat="22.444996" lon="103.937973">
<ele>350.238525</ele>
<time>2011-04-22T03:21:50Z</time>
<desc>lat.=22.444996, lon.=103.937973, Alt.=350.238525m. Speed=10.368000m/h.</desc>
<speed>2.880000</speed>
</trkpt>
<trkpt lat="22.444881" lon="103.938026">
<ele>350.933838</ele>
<time>2011-04-22T03:21:55Z</time>
<desc>lat.=22.444881, lon.=103.938026, Alt.=350.933838m. Speed=9.288000m/h.</desc>
<speed>2.580000</speed>
</trkpt>
<trkpt lat="22.444777" lon="103.938049">
<ele>354.051025</ele>
<time>2011-04-22T03:22:00Z</time>
<desc>lat.=22.444777, lon.=103.938049, Alt.=354.051025m. Speed=8.676000m/h.</desc>
<speed>2.410000</speed>
</trkpt>
<trkpt lat="22.444679" lon="103.938072">
<ele>356.035400</ele>
<time>2011-04-22T03:22:05Z</time>
<desc>lat.=22.444679, lon.=103.938072, Alt.=356.035400m. Speed=7.776000m/h.</desc>
<speed>2.160000</speed>
</trkpt>
<trkpt lat="22.444574" lon="103.938103">
<ele>356.730713</ele>
<time>2011-04-22T03:22:10Z</time>
<desc>lat.=22.444574, lon.=103.938103, Alt.=356.730713m. Speed=7.992000m/h.</desc>
<speed>2.220000</speed>
</trkpt>
<trkpt lat="22.444506" lon="103.938110">
<ele>356.402588</ele>
<time>2011-04-22T03:22:15Z</time>
<desc>lat.=22.444506, lon.=103.938110, Alt.=356.402588m. Speed=5.508000m/h.</desc>
<speed>1.530000</speed>
</trkpt>
<trkpt lat="22.444418" lon="103.938133">
<ele>357.105713</ele>
<time>2011-04-22T03:22:20Z</time>
<desc>lat.=22.444418, lon.=103.938133, Alt.=357.105713m. Speed=4.608000m/h.</desc>
<speed>1.280000</speed>
</trkpt>
<trkpt lat="22.444347" lon="103.938148">
<ele>357.582275</ele>
<time>2011-04-22T03:22:25Z</time>
<desc>lat.=22.444347, lon.=103.938148, Alt.=357.582275m. Speed=5.184000m/h.</desc>
<speed>1.440000</speed>
</trkpt>
<trkpt lat="22.444279" lon="103.938171">
<ele>358.222900</ele>
<time>2011-04-22T03:22:30Z</time>
<desc>lat.=22.444279, lon.=103.938171, Alt.=358.222900m. Speed=5.148000m/h.</desc>
<speed>1.430000</speed>
</trkpt>
<trkpt lat="22.444210" lon="103.938187">
<ele>360.285400</ele>
<time>2011-04-22T03:22:35Z</time>
<desc>lat.=22.444210, lon.=103.938187, Alt.=360.285400m. Speed=5.580000m/h.</desc>
<speed>1.550000</speed>
</trkpt>
<trkpt lat="22.444145" lon="103.938202">
<ele>361.535400</ele>
<time>2011-04-22T03:22:40Z</time>
<desc>lat.=22.444145, lon.=103.938202, Alt.=361.535400m. Speed=5.040000m/h.</desc>
<speed>1.400000</speed>
</trkpt>
<trkpt lat="22.444082" lon="103.938210">
<ele>362.402588</ele>
<time>2011-04-22T03:22:45Z</time>
<desc>lat.=22.444082, lon.=103.938210, Alt.=362.402588m. Speed=3.852000m/h.</desc>
<speed>1.070000</speed>
</trkpt>
<trkpt lat="22.444033" lon="103.938225">
<ele>363.715088</ele>
<time>2011-04-22T03:22:50Z</time>
<desc>lat.=22.444033, lon.=103.938225, Alt.=363.715088m. Speed=4.860000m/h.</desc>
<speed>1.350000</speed>
</trkpt>
<trkpt lat="22.443981" lon="103.938232">
<ele>365.519775</ele>
<time>2011-04-22T03:22:55Z</time>
<desc>lat.=22.443981, lon.=103.938232, Alt.=365.519775m. Speed=4.212000m/h.</desc>
<speed>1.170000</speed>
</trkpt>
<trkpt lat="22.443926" lon="103.938255">
<ele>366.972900</ele>
<time>2011-04-22T03:23:00Z</time>
<desc>lat.=22.443926, lon.=103.938255, Alt.=366.972900m. Speed=4.896000m/h.</desc>
<speed>1.360000</speed>
</trkpt>
<trkpt lat="22.443859" lon="103.938271">
<ele>368.332275</ele>
<time>2011-04-22T03:23:05Z</time>
<desc>lat.=22.443859, lon.=103.938271, Alt.=368.332275m. Speed=5.040000m/h.</desc>
<speed>1.400000</speed>
</trkpt>
<trkpt lat="22.443796" lon="103.938286">
<ele>370.457275</ele>
<time>2011-04-22T03:23:10Z</time>
<desc>lat.=22.443796, lon.=103.938286, Alt.=370.457275m. Speed=3.852000m/h.</desc>
<speed>1.070000</speed>
</trkpt>
<trkpt lat="22.443741" lon="103.938301">
<ele>372.363525</ele>
<time>2011-04-22T03:23:15Z</time>
<desc>lat.=22.443741, lon.=103.938301, Alt.=372.363525m. Speed=4.212000m/h.</desc>
<speed>1.170000</speed>
</trkpt>
<trkpt lat="22.443663" lon="103.938324">
<ele>372.285400</ele>
<time>2011-04-22T03:23:20Z</time>
<desc>lat.=22.443663, lon.=103.938324, Alt.=372.285400m. Speed=5.184000m/h.</desc>
<speed>1.440000</speed>
</trkpt>
<trkpt lat="22.443596" lon="103.938332">
<ele>372.699463</ele>
<time>2011-04-22T03:23:25Z</time>
<desc>lat.=22.443596, lon.=103.938332, Alt.=372.699463m. Speed=5.544000m/h.</desc>
<speed>1.540000</speed>
</trkpt>
<trkpt lat="22.443533" lon="103.938354">
<ele>373.394775</ele>
<time>2011-04-22T03:23:30Z</time>
<desc>lat.=22.443533, lon.=103.938354, Alt.=373.394775m. Speed=4.968000m/h.</desc>
<speed>1.380000</speed>
</trkpt>
<trkpt lat="22.443459" lon="103.938377">
<ele>373.496338</ele>
<time>2011-04-22T03:23:35Z</time>
<desc>lat.=22.443459, lon.=103.938377, Alt.=373.496338m. Speed=5.652000m/h.</desc>
<speed>1.570000</speed>
</trkpt>
<trkpt lat="22.443388" lon="103.938400">
<ele>374.121338</ele>
<time>2011-04-22T03:23:40Z</time>
<desc>lat.=22.443388, lon.=103.938400, Alt.=374.121338m. Speed=5.292000m/h.</desc>
<speed>1.470000</speed>
</trkpt>
<trkpt lat="22.443321" lon="103.938423">
<ele>374.472900</ele>
<time>2011-04-22T03:23:45Z</time>
<desc>lat.=22.443321, lon.=103.938423, Alt.=374.472900m. Speed=5.580000m/h.</desc>
<speed>1.550000</speed>
</trkpt>
<trkpt lat="22.443253" lon="103.938446">
<ele>374.543213</ele>
<time>2011-04-22T03:23:50Z</time>
<desc>lat.=22.443253, lon.=103.938446, Alt.=374.543213m. Speed=5.436000m/h.</desc>
<speed>1.510000</speed>
</trkpt>
<trkpt lat="22.443188" lon="103.938469">
<ele>374.832275</ele>
<time>2011-04-22T03:23:55Z</time>
<desc>lat.=22.443188, lon.=103.938469, Alt.=374.832275m. Speed=5.580000m/h.</desc>
<speed>1.550000</speed>
</trkpt>
<trkpt lat="22.443123" lon="103.938484">
<ele>375.340088</ele>
<time>2011-04-22T03:24:00Z</time>
<desc>lat.=22.443123, lon.=103.938484, Alt.=375.340088m. Speed=5.400000m/h.</desc>
<speed>1.500000</speed>
</trkpt>
<trkpt lat="22.443058" lon="103.938507">
<ele>375.808838</ele>
<time>2011-04-22T03:24:05Z</time>
<desc>lat.=22.443058, lon.=103.938507, Alt.=375.808838m. Speed=5.616000m/h.</desc>
<speed>1.560000</speed>
</trkpt>
<trkpt lat="22.442995" lon="103.938530">
<ele>375.996338</ele>
<time>2011-04-22T03:24:10Z</time>
<desc>lat.=22.442995, lon.=103.938530, Alt.=375.996338m. Speed=4.572000m/h.</desc>
<speed>1.270000</speed>
</trkpt>
<trkpt lat="22.442930" lon="103.938553">
<ele>376.129150</ele>
<time>2011-04-22T03:24:15Z</time>
<desc>lat.=22.442930, lon.=103.938553, Alt.=376.129150m. Speed=5.472000m/h.</desc>
<speed>1.520000</speed>
</trkpt>
<trkpt lat="22.442863" lon="103.938576">
<ele>376.582275</ele>
<time>2011-04-22T03:24:20Z</time>
<desc>lat.=22.442863, lon.=103.938576, Alt.=376.582275m. Speed=5.400000m/h.</desc>
<speed>1.500000</speed>
</trkpt>
<trkpt lat="22.442799" lon="103.938606">
<ele>376.972900</ele>
<time>2011-04-22T03:24:25Z</time>
<desc>lat.=22.442799, lon.=103.938606, Alt.=376.972900m. Speed=5.940000m/h.</desc>
<speed>1.650000</speed>
</trkpt>
<trkpt lat="22.442722" lon="103.938629">
<ele>377.191650</ele>
<time>2011-04-22T03:24:30Z</time>
<desc>lat.=22.442722, lon.=103.938629, Alt.=377.191650m. Speed=5.508000m/h.</desc>
<speed>1.530000</speed>
</trkpt>
<trkpt lat="22.442654" lon="103.938644">
<ele>377.121338</ele>
<time>2011-04-22T03:24:35Z</time>
<desc>lat.=22.442654, lon.=103.938644, Alt.=377.121338m. Speed=5.328000m/h.</desc>
<speed>1.480000</speed>
</trkpt>
<trkpt lat="22.442589" lon="103.938644">
<ele>377.426025</ele>
<time>2011-04-22T03:24:40Z</time>
<desc>lat.=22.442589, lon.=103.938644, Alt.=377.426025m. Speed=5.688000m/h.</desc>
<speed>1.580000</speed>
</trkpt>
<trkpt lat="22.442522" lon="103.938652">
<ele>377.488525</ele>
<time>2011-04-22T03:24:45Z</time>
<desc>lat.=22.442522, lon.=103.938652, Alt.=377.488525m. Speed=5.400000m/h.</desc>
<speed>1.500000</speed>
</trkpt>
<trkpt lat="22.442461" lon="103.938660">
<ele>378.605713</ele>
<time>2011-04-22T03:24:50Z</time>
<desc>lat.=22.442461, lon.=103.938660, Alt.=378.605713m. Speed=5.472000m/h.</desc>
<speed>1.520000</speed>
</trkpt>
<trkpt lat="22.442410" lon="103.938660">
<ele>380.465088</ele>
<time>2011-04-22T03:24:55Z</time>
<desc>lat.=22.442410, lon.=103.938660, Alt.=380.465088m. Speed=4.788000m/h.</desc>
<speed>1.330000</speed>
</trkpt>
<trkpt lat="22.442345" lon="103.938660">
<ele>381.402588</ele>
<time>2011-04-22T03:25:00Z</time>
<desc>lat.=22.442345, lon.=103.938660, Alt.=381.402588m. Speed=5.760000m/h.</desc>
<speed>1.600000</speed>
</trkpt>
<trkpt lat="22.442272" lon="103.938652">
<ele>381.801025</ele>
<time>2011-04-22T03:25:05Z</time>
<desc>lat.=22.442272, lon.=103.938652, Alt.=381.801025m. Speed=5.580000m/h.</desc>
<speed>1.550000</speed>
</trkpt>
<trkpt lat="22.442204" lon="103.938660">
<ele>381.801025</ele>
<time>2011-04-22T03:25:10Z</time>
<desc>lat.=22.442204, lon.=103.938660, Alt.=381.801025m. Speed=5.580000m/h.</desc>
<speed>1.550000</speed>
</trkpt>
<trkpt lat="22.442139" lon="103.938660">
<ele>382.371338</ele>
<time>2011-04-22T03:25:15Z</time>
<desc>lat.=22.442139, lon.=103.938660, Alt.=382.371338m. Speed=4.788000m/h.</desc>
<speed>1.330000</speed>
</trkpt>
<trkpt lat="22.442074" lon="103.938660">
<ele>382.808838</ele>
<time>2011-04-22T03:25:20Z</time>
<desc>lat.=22.442074, lon.=103.938660, Alt.=382.808838m. Speed=5.436000m/h.</desc>
<speed>1.510000</speed>
</trkpt>
<trkpt lat="22.442009" lon="103.938660">
<ele>384.261963</ele>
<time>2011-04-22T03:25:25Z</time>
<desc>lat.=22.442009, lon.=103.938660, Alt.=384.261963m. Speed=4.392000m/h.</desc>
<speed>1.220000</speed>
</trkpt>
<trkpt lat="22.441938" lon="103.938652">
<ele>384.980713</ele>
<time>2011-04-22T03:25:30Z</time>
<desc>lat.=22.441938, lon.=103.938652, Alt.=384.980713m. Speed=4.608000m/h.</desc>
<speed>1.280000</speed>
</trkpt>
<trkpt lat="22.441864" lon="103.938644">
<ele>384.402588</ele>
<time>2011-04-22T03:25:35Z</time>
<desc>lat.=22.441864, lon.=103.938644, Alt.=384.402588m. Speed=5.616000m/h.</desc>
<speed>1.560000</speed>
</trkpt>
<trkpt lat="22.441788" lon="103.938644">
<ele>384.418213</ele>
<time>2011-04-22T03:25:40Z</time>
<desc>lat.=22.441788, lon.=103.938644, Alt.=384.418213m. Speed=5.868000m/h.</desc>
<speed>1.630000</speed>
</trkpt>
<trkpt lat="22.441715" lon="103.938652">
<ele>385.238525</ele>
<time>2011-04-22T03:25:45Z</time>
<desc>lat.=22.441715, lon.=103.938652, Alt.=385.238525m. Speed=6.300000m/h.</desc>
<speed>1.750000</speed>
</trkpt>
<trkpt lat="22.441648" lon="103.938652">
<ele>387.019775</ele>
<time>2011-04-22T03:25:50Z</time>
<desc>lat.=22.441648, lon.=103.938652, Alt.=387.019775m. Speed=5.472000m/h.</desc>
<speed>1.520000</speed>
</trkpt>
<trkpt lat="22.441587" lon="103.938667">
<ele>387.754150</ele>
<time>2011-04-22T03:25:55Z</time>
<desc>lat.=22.441587, lon.=103.938667, Alt.=387.754150m. Speed=5.400000m/h.</desc>
<speed>1.500000</speed>
</trkpt>
<trkpt lat="22.441521" lon="103.938690">
<ele>388.715088</ele>
<time>2011-04-22T03:26:00Z</time>
<desc>lat.=22.441521, lon.=103.938690, Alt.=388.715088m. Speed=5.004000m/h.</desc>
<speed>1.390000</speed>
</trkpt>
<trkpt lat="22.441446" lon="103.938721">
<ele>389.308838</ele>
<time>2011-04-22T03:26:05Z</time>
<desc>lat.=22.441446, lon.=103.938721, Alt.=389.308838m. Speed=6.336000m/h.</desc>
<speed>1.760000</speed>
</trkpt>
<trkpt lat="22.441374" lon="103.938759">
<ele>389.574463</ele>
<time>2011-04-22T03:26:10Z</time>
<desc>lat.=22.441374, lon.=103.938759, Alt.=389.574463m. Speed=5.508000m/h.</desc>
<speed>1.530000</speed>
</trkpt>
<trkpt lat="22.441303" lon="103.938797">
<ele>390.433838</ele>
<time>2011-04-22T03:26:15Z</time>
<desc>lat.=22.441303, lon.=103.938797, Alt.=390.433838m. Speed=6.300000m/h.</desc>
<speed>1.750000</speed>
</trkpt>
<trkpt lat="22.441229" lon="103.938835">
<ele>390.965088</ele>
<time>2011-04-22T03:26:20Z</time>
<desc>lat.=22.441229, lon.=103.938835, Alt.=390.965088m. Speed=5.544000m/h.</desc>
<speed>1.540000</speed>
</trkpt>
<trkpt lat="22.441162" lon="103.938873">
<ele>391.082275</ele>
<time>2011-04-22T03:26:25Z</time>
<desc>lat.=22.441162, lon.=103.938873, Alt.=391.082275m. Speed=5.976000m/h.</desc>
<speed>1.660000</speed>
</trkpt>
<trkpt lat="22.441093" lon="103.938911">
<ele>391.496338</ele>
<time>2011-04-22T03:26:30Z</time>
<desc>lat.=22.441093, lon.=103.938911, Alt.=391.496338m. Speed=5.868000m/h.</desc>
<speed>1.630000</speed>
</trkpt>
<trkpt lat="22.441023" lon="103.938942">
<ele>391.871338</ele>
<time>2011-04-22T03:26:35Z</time>
<desc>lat.=22.441023, lon.=103.938942, Alt.=391.871338m. Speed=5.652000m/h.</desc>
<speed>1.570000</speed>
</trkpt>
<trkpt lat="22.440956" lon="103.938980">
<ele>392.699463</ele>
<time>2011-04-22T03:26:40Z</time>
<desc>lat.=22.440956, lon.=103.938980, Alt.=392.699463m. Speed=5.868000m/h.</desc>
<speed>1.630000</speed>
</trkpt>
<trkpt lat="22.440893" lon="103.939011">
<ele>393.183838</ele>
<time>2011-04-22T03:26:45Z</time>
<desc>lat.=22.440893, lon.=103.939011, Alt.=393.183838m. Speed=5.940000m/h.</desc>
<speed>1.650000</speed>
</trkpt>
<trkpt lat="22.440828" lon="103.939034">
<ele>392.824463</ele>
<time>2011-04-22T03:26:50Z</time>
<desc>lat.=22.440828, lon.=103.939034, Alt.=392.824463m. Speed=6.696000m/h.</desc>
<speed>1.860000</speed>
</trkpt>
<trkpt lat="22.440758" lon="103.939072">
<ele>392.402588</ele>
<time>2011-04-22T03:26:55Z</time>
<desc>lat.=22.440758, lon.=103.939072, Alt.=392.402588m. Speed=3.924000m/h.</desc>
<speed>1.090000</speed>
</trkpt>
<trkpt lat="22.440695" lon="103.939117">
<ele>392.426025</ele>
<time>2011-04-22T03:27:00Z</time>
<desc>lat.=22.440695, lon.=103.939117, Alt.=392.426025m. Speed=5.832000m/h.</desc>
<speed>1.620000</speed>
</trkpt>
<trkpt lat="22.440643" lon="103.939163">
<ele>393.035400</ele>
<time>2011-04-22T03:27:05Z</time>
<desc>lat.=22.440643, lon.=103.939163, Alt.=393.035400m. Speed=5.868000m/h.</desc>
<speed>1.630000</speed>
</trkpt>
<trkpt lat="22.440592" lon="103.939217">
<ele>393.465088</ele>
<time>2011-04-22T03:27:10Z</time>
<desc>lat.=22.440592, lon.=103.939217, Alt.=393.465088m. Speed=5.868000m/h.</desc>
<speed>1.630000</speed>
</trkpt>
<trkpt lat="22.440554" lon="103.939278">
<ele>393.957275</ele>
<time>2011-04-22T03:27:15Z</time>
<desc>lat.=22.440554, lon.=103.939278, Alt.=393.957275m. Speed=3.888000m/h.</desc>
<speed>1.080000</speed>
</trkpt>
<trkpt lat="22.440527" lon="103.939316">
<ele>394.668213</ele>
<time>2011-04-22T03:27:20Z</time>
<desc>lat.=22.440527, lon.=103.939316, Alt.=394.668213m. Speed=6.696000m/h.</desc>
<speed>1.860000</speed>
</trkpt>
<trkpt lat="22.440485" lon="103.939384">
<ele>395.613525</ele>
<time>2011-04-22T03:27:25Z</time>
<desc>lat.=22.440485, lon.=103.939384, Alt.=395.613525m. Speed=5.508000m/h.</desc>
<speed>1.530000</speed>
</trkpt>
<trkpt lat="22.440456" lon="103.939461">
<ele>396.316650</ele>
<time>2011-04-22T03:27:30Z</time>
<desc>lat.=22.440456, lon.=103.939461, Alt.=396.316650m. Speed=6.624000m/h.</desc>
<speed>1.840000</speed>
</trkpt>
<trkpt lat="22.440430" lon="103.939545">
<ele>397.121338</ele>
<time>2011-04-22T03:27:35Z</time>
<desc>lat.=22.440430, lon.=103.939545, Alt.=397.121338m. Speed=6.084000m/h.</desc>
<speed>1.690000</speed>
</trkpt>
<trkpt lat="22.440399" lon="103.939621">
<ele>397.683838</ele>
<time>2011-04-22T03:27:40Z</time>
<desc>lat.=22.440399, lon.=103.939621, Alt.=397.683838m. Speed=6.120000m/h.</desc>
<speed>1.700000</speed>
</trkpt>
<trkpt lat="22.440367" lon="103.939697">
<ele>398.261963</ele>
<time>2011-04-22T03:27:45Z</time>
<desc>lat.=22.440367, lon.=103.939697, Alt.=398.261963m. Speed=5.940000m/h.</desc>
<speed>1.650000</speed>
</trkpt>
<trkpt lat="22.440346" lon="103.939766">
<ele>400.004150</ele>
<time>2011-04-22T03:27:50Z</time>
<desc>lat.=22.440346, lon.=103.939766, Alt.=400.004150m. Speed=6.012000m/h.</desc>
<speed>1.670000</speed>
</trkpt>
<trkpt lat="22.440310" lon="103.939835">
<ele>400.511963</ele>
<time>2011-04-22T03:27:55Z</time>
<desc>lat.=22.440310, lon.=103.939835, Alt.=400.511963m. Speed=5.328000m/h.</desc>
<speed>1.480000</speed>
</trkpt>
<trkpt lat="22.440252" lon="103.939896">
<ele>401.074463</ele>
<time>2011-04-22T03:28:00Z</time>
<desc>lat.=22.440252, lon.=103.939896, Alt.=401.074463m. Speed=6.084000m/h.</desc>
<speed>1.690000</speed>
</trkpt>
<trkpt lat="22.440193" lon="103.939926">
<ele>401.793213</ele>
<time>2011-04-22T03:28:05Z</time>
<desc>lat.=22.440193, lon.=103.939926, Alt.=401.793213m. Speed=5.652000m/h.</desc>
<speed>1.570000</speed>
</trkpt>
<trkpt lat="22.440128" lon="103.939941">
<ele>402.152588</ele>
<time>2011-04-22T03:28:10Z</time>
<desc>lat.=22.440128, lon.=103.939941, Alt.=402.152588m. Speed=4.572000m/h.</desc>
<speed>1.270000</speed>
</trkpt>
<trkpt lat="22.440065" lon="103.939934">
<ele>402.222900</ele>
<time>2011-04-22T03:28:15Z</time>
<desc>lat.=22.440065, lon.=103.939934, Alt.=402.222900m. Speed=5.112000m/h.</desc>
<speed>1.420000</speed>
</trkpt>
<trkpt lat="22.440006" lon="103.939896">
<ele>402.761963</ele>
<time>2011-04-22T03:28:20Z</time>
<desc>lat.=22.440006, lon.=103.939896, Alt.=402.761963m. Speed=5.220000m/h.</desc>
<speed>1.450000</speed>
</trkpt>
<trkpt lat="22.439941" lon="103.939842">
<ele>402.551025</ele>
<time>2011-04-22T03:28:25Z</time>
<desc>lat.=22.439941, lon.=103.939842, Alt.=402.551025m. Speed=5.760000m/h.</desc>
<speed>1.600000</speed>
</trkpt>
<trkpt lat="22.439905" lon="103.939774">
<ele>402.285400</ele>
<time>2011-04-22T03:28:30Z</time>
<desc>lat.=22.439905, lon.=103.939774, Alt.=402.285400m. Speed=5.652000m/h.</desc>
<speed>1.570000</speed>
</trkpt>
<trkpt lat="22.439894" lon="103.939705">
<ele>401.918213</ele>
<time>2011-04-22T03:28:35Z</time>
<desc>lat.=22.439894, lon.=103.939705, Alt.=401.918213m. Speed=5.328000m/h.</desc>
<speed>1.480000</speed>
</trkpt>
<trkpt lat="22.439898" lon="103.939636">
<ele>401.301025</ele>
<time>2011-04-22T03:28:40Z</time>
<desc>lat.=22.439898, lon.=103.939636, Alt.=401.301025m. Speed=5.652000m/h.</desc>
<speed>1.570000</speed>
</trkpt>
<trkpt lat="22.439905" lon="103.939568">
<ele>400.191650</ele>
<time>2011-04-22T03:28:45Z</time>
<desc>lat.=22.439905, lon.=103.939568, Alt.=400.191650m. Speed=4.680000m/h.</desc>
<speed>1.300000</speed>
</trkpt>
<trkpt lat="22.439911" lon="103.939491">
<ele>399.551025</ele>
<time>2011-04-22T03:28:50Z</time>
<desc>lat.=22.439911, lon.=103.939491, Alt.=399.551025m. Speed=5.148000m/h.</desc>
<speed>1.430000</speed>
</trkpt>
<trkpt lat="22.439919" lon="103.939423">
<ele>399.324463</ele>
<time>2011-04-22T03:28:55Z</time>
<desc>lat.=22.439919, lon.=103.939423, Alt.=399.324463m. Speed=4.896000m/h.</desc>
<speed>1.360000</speed>
</trkpt>
<trkpt lat="22.439928" lon="103.939346">
<ele>399.566650</ele>
<time>2011-04-22T03:29:00Z</time>
<desc>lat.=22.439928, lon.=103.939346, Alt.=399.566650m. Speed=4.284000m/h.</desc>
<speed>1.190000</speed>
</trkpt>
<trkpt lat="22.439943" lon="103.939285">
<ele>399.793213</ele>
<time>2011-04-22T03:29:05Z</time>
<desc>lat.=22.439943, lon.=103.939285, Alt.=399.793213m. Speed=5.364000m/h.</desc>
<speed>1.490000</speed>
</trkpt>
<trkpt lat="22.439955" lon="103.939209">
<ele>400.207275</ele>
<time>2011-04-22T03:29:10Z</time>
<desc>lat.=22.439955, lon.=103.939209, Alt.=400.207275m. Speed=5.436000m/h.</desc>
<speed>1.510000</speed>
</trkpt>
<trkpt lat="22.439972" lon="103.939133">
<ele>400.488525</ele>
<time>2011-04-22T03:29:15Z</time>
<desc>lat.=22.439972, lon.=103.939133, Alt.=400.488525m. Speed=5.292000m/h.</desc>
<speed>1.470000</speed>
</trkpt>
<trkpt lat="22.439985" lon="103.939064">
<ele>400.347900</ele>
<time>2011-04-22T03:29:20Z</time>
<desc>lat.=22.439985, lon.=103.939064, Alt.=400.347900m. Speed=4.932000m/h.</desc>
<speed>1.370000</speed>
</trkpt>
<trkpt lat="22.440006" lon="103.939003">
<ele>400.652588</ele>
<time>2011-04-22T03:29:25Z</time>
<desc>lat.=22.440006, lon.=103.939003, Alt.=400.652588m. Speed=5.472000m/h.</desc>
<speed>1.520000</speed>
</trkpt>
<trkpt lat="22.440031" lon="103.938942">
<ele>401.426025</ele>
<time>2011-04-22T03:29:30Z</time>
<desc>lat.=22.440031, lon.=103.938942, Alt.=401.426025m. Speed=5.292000m/h.</desc>
<speed>1.470000</speed>
</trkpt>
<trkpt lat="22.440054" lon="103.938881">
<ele>401.136963</ele>
<time>2011-04-22T03:29:35Z</time>
<desc>lat.=22.440054, lon.=103.938881, Alt.=401.136963m. Speed=5.796000m/h.</desc>
<speed>1.610000</speed>
</trkpt>
<trkpt lat="22.440083" lon="103.938805">
<ele>402.199463</ele>
<time>2011-04-22T03:29:40Z</time>
<desc>lat.=22.440083, lon.=103.938805, Alt.=402.199463m. Speed=6.192000m/h.</desc>
<speed>1.720000</speed>
</trkpt>
<trkpt lat="22.440109" lon="103.938736">
<ele>402.652588</ele>
<time>2011-04-22T03:29:45Z</time>
<desc>lat.=22.440109, lon.=103.938736, Alt.=402.652588m. Speed=5.544000m/h.</desc>
<speed>1.540000</speed>
</trkpt>
<trkpt lat="22.440140" lon="103.938683">
<ele>403.777588</ele>
<time>2011-04-22T03:29:50Z</time>
<desc>lat.=22.440140, lon.=103.938683, Alt.=403.777588m. Speed=4.356000m/h.</desc>
<speed>1.210000</speed>
</trkpt>
<trkpt lat="22.440165" lon="103.938637">
<ele>404.527588</ele>
<time>2011-04-22T03:29:55Z</time>
<desc>lat.=22.440165, lon.=103.938637, Alt.=404.527588m. Speed=4.860000m/h.</desc>
<speed>1.350000</speed>
</trkpt>
<trkpt lat="22.440189" lon="103.938568">
<ele>405.222900</ele>
<time>2011-04-22T03:30:00Z</time>
<desc>lat.=22.440189, lon.=103.938568, Alt.=405.222900m. Speed=4.644000m/h.</desc>
<speed>1.290000</speed>
</trkpt>
<trkpt lat="22.440207" lon="103.938515">
<ele>405.738525</ele>
<time>2011-04-22T03:30:05Z</time>
<desc>lat.=22.440207, lon.=103.938515, Alt.=405.738525m. Speed=4.824000m/h.</desc>
<speed>1.340000</speed>
</trkpt>
<trkpt lat="22.440228" lon="103.938446">
<ele>406.754150</ele>
<time>2011-04-22T03:30:10Z</time>
<desc>lat.=22.440228, lon.=103.938446, Alt.=406.754150m. Speed=5.292000m/h.</desc>
<speed>1.470000</speed>
</trkpt>
<trkpt lat="22.440247" lon="103.938377">
<ele>407.972900</ele>
<time>2011-04-22T03:30:15Z</time>
<desc>lat.=22.440247, lon.=103.938377, Alt.=407.972900m. Speed=4.464000m/h.</desc>
<speed>1.240000</speed>
</trkpt>
<trkpt lat="22.440250" lon="103.938324">
<ele>408.996338</ele>
<time>2011-04-22T03:30:20Z</time>
<desc>lat.=22.440250, lon.=103.938324, Alt.=408.996338m. Speed=4.032000m/h.</desc>
<speed>1.120000</speed>
</trkpt>
<trkpt lat="22.440256" lon="103.938255">
<ele>410.418213</ele>
<time>2011-04-22T03:30:25Z</time>
<desc>lat.=22.440256, lon.=103.938255, Alt.=410.418213m. Speed=4.788000m/h.</desc>
<speed>1.330000</speed>
</trkpt>
<trkpt lat="22.440258" lon="103.938194">
<ele>412.285400</ele>
<time>2011-04-22T03:30:30Z</time>
<desc>lat.=22.440258, lon.=103.938194, Alt.=412.285400m. Speed=4.788000m/h.</desc>
<speed>1.330000</speed>
</trkpt>
<trkpt lat="22.440277" lon="103.938126">
<ele>413.660400</ele>
<time>2011-04-22T03:30:35Z</time>
<desc>lat.=22.440277, lon.=103.938126, Alt.=413.660400m. Speed=5.184000m/h.</desc>
<speed>1.440000</speed>
</trkpt>
<trkpt lat="22.440306" lon="103.938042">
<ele>415.636963</ele>
<time>2011-04-22T03:30:40Z</time>
<desc>lat.=22.440306, lon.=103.938042, Alt.=415.636963m. Speed=5.220000m/h.</desc>
<speed>1.450000</speed>
</trkpt>
<trkpt lat="22.440311" lon="103.937973">
<ele>416.957275</ele>
<time>2011-04-22T03:30:45Z</time>
<desc>lat.=22.440311, lon.=103.937973, Alt.=416.957275m. Speed=4.464000m/h.</desc>
<speed>1.240000</speed>
</trkpt>
<trkpt lat="22.440310" lon="103.937912">
<ele>418.394775</ele>
<time>2011-04-22T03:30:50Z</time>
<desc>lat.=22.440310, lon.=103.937912, Alt.=418.394775m. Speed=6.048000m/h.</desc>
<speed>1.680000</speed>
</trkpt>
<trkpt lat="22.440310" lon="103.937851">
<ele>420.324463</ele>
<time>2011-04-22T03:30:55Z</time>
<desc>lat.=22.440310, lon.=103.937851, Alt.=420.324463m. Speed=5.184000m/h.</desc>
<speed>1.440000</speed>
</trkpt>
<trkpt lat="22.440294" lon="103.937790">
<ele>421.535400</ele>
<time>2011-04-22T03:31:00Z</time>
<desc>lat.=22.440294, lon.=103.937790, Alt.=421.535400m. Speed=4.212000m/h.</desc>
<speed>1.170000</speed>
</trkpt>
<trkpt lat="22.440310" lon="103.937721">
<ele>423.347900</ele>
<time>2011-04-22T03:31:05Z</time>
<desc>lat.=22.440310, lon.=103.937721, Alt.=423.347900m. Speed=3.924000m/h.</desc>
<speed>1.090000</speed>
</trkpt>
<trkpt lat="22.440319" lon="103.937614">
<ele>422.683838</ele>
<time>2011-04-22T03:31:10Z</time>
<desc>lat.=22.440319, lon.=103.937614, Alt.=422.683838m. Speed=5.580000m/h.</desc>
<speed>1.550000</speed>
</trkpt>
<trkpt lat="22.440317" lon="103.937531">
<ele>422.340088</ele>
<time>2011-04-22T03:31:15Z</time>
<desc>lat.=22.440317, lon.=103.937531, Alt.=422.340088m. Speed=5.652000m/h.</desc>
<speed>1.570000</speed>
</trkpt>
<trkpt lat="22.440327" lon="103.937469">
<ele>422.793213</ele>
<time>2011-04-22T03:31:20Z</time>
<desc>lat.=22.440327, lon.=103.937469, Alt.=422.793213m. Speed=4.932000m/h.</desc>
<speed>1.370000</speed>
</trkpt>
<trkpt lat="22.440315" lon="103.937393">
<ele>423.816650</ele>
<time>2011-04-22T03:31:25Z</time>
<desc>lat.=22.440315, lon.=103.937393, Alt.=423.816650m. Speed=5.436000m/h.</desc>
<speed>1.510000</speed>
</trkpt>
<trkpt lat="22.440311" lon="103.937325">
<ele>424.183838</ele>
<time>2011-04-22T03:31:30Z</time>
<desc>lat.=22.440311, lon.=103.937325, Alt.=424.183838m. Speed=4.104000m/h.</desc>
<speed>1.140000</speed>
</trkpt>
<trkpt lat="22.440315" lon="103.937256">
<ele>425.340088</ele>
<time>2011-04-22T03:31:35Z</time>
<desc>lat.=22.440315, lon.=103.937256, Alt.=425.340088m. Speed=5.436000m/h.</desc>
<speed>1.510000</speed>
</trkpt>
<trkpt lat="22.440311" lon="103.937180">
<ele>425.402588</ele>
<time>2011-04-22T03:31:40Z</time>
<desc>lat.=22.440311, lon.=103.937180, Alt.=425.402588m. Speed=5.220000m/h.</desc>
<speed>1.450000</speed>
</trkpt>
<trkpt lat="22.440313" lon="103.937088">
<ele>425.511963</ele>
<time>2011-04-22T03:31:45Z</time>
<desc>lat.=22.440313, lon.=103.937088, Alt.=425.511963m. Speed=4.932000m/h.</desc>
<speed>1.370000</speed>
</trkpt>
<trkpt lat="22.440321" lon="103.936996">
<ele>424.980713</ele>
<time>2011-04-22T03:31:50Z</time>
<desc>lat.=22.440321, lon.=103.936996, Alt.=424.980713m. Speed=5.760000m/h.</desc>
<speed>1.600000</speed>
</trkpt>
<trkpt lat="22.440323" lon="103.936897">
<ele>424.324463</ele>
<time>2011-04-22T03:31:55Z</time>
<desc>lat.=22.440323, lon.=103.936897, Alt.=424.324463m. Speed=4.716000m/h.</desc>
<speed>1.310000</speed>
</trkpt>
<trkpt lat="22.440329" lon="103.936882">
<ele>422.574463</ele>
<time>2011-04-22T03:32:00Z</time>
<desc>lat.=22.440329, lon.=103.936882, Alt.=422.574463m. Speed=0.108000m/h.</desc>
<speed>0.030000</speed>
</trkpt>
<trkpt lat="22.440334" lon="103.936867">
<ele>422.605713</ele>
<time>2011-04-22T03:32:05Z</time>
<desc>lat.=22.440334, lon.=103.936867, Alt.=422.605713m. Speed=6.156000m/h.</desc>
<speed>1.710000</speed>
</trkpt>
<trkpt lat="22.440351" lon="103.936752">
<ele>422.840088</ele>
<time>2011-04-22T03:32:10Z</time>
<desc>lat.=22.440351, lon.=103.936752, Alt.=422.840088m. Speed=8.280000m/h.</desc>
<speed>2.300000</speed>
</trkpt>
<trkpt lat="22.440348" lon="103.936661">
<ele>422.629150</ele>
<time>2011-04-22T03:32:15Z</time>
<desc>lat.=22.440348, lon.=103.936661, Alt.=422.629150m. Speed=6.300000m/h.</desc>
<speed>1.750000</speed>
</trkpt>
<trkpt lat="22.440357" lon="103.936577">
<ele>422.105713</ele>
<time>2011-04-22T03:32:20Z</time>
<desc>lat.=22.440357, lon.=103.936577, Alt.=422.105713m. Speed=5.940000m/h.</desc>
<speed>1.650000</speed>
</trkpt>
<trkpt lat="22.440371" lon="103.936508">
<ele>421.793213</ele>
<time>2011-04-22T03:32:25Z</time>
<desc>lat.=22.440371, lon.=103.936508, Alt.=421.793213m. Speed=5.796000m/h.</desc>
<speed>1.610000</speed>
</trkpt>
<trkpt lat="22.440384" lon="103.936440">
<ele>421.676025</ele>
<time>2011-04-22T03:32:30Z</time>
<desc>lat.=22.440384, lon.=103.936440, Alt.=421.676025m. Speed=4.212000m/h.</desc>
<speed>1.170000</speed>
</trkpt>
<trkpt lat="22.440420" lon="103.936371">
<ele>422.496338</ele>
<time>2011-04-22T03:32:35Z</time>
<desc>lat.=22.440420, lon.=103.936371, Alt.=422.496338m. Speed=6.732000m/h.</desc>
<speed>1.870000</speed>
</trkpt>
<trkpt lat="22.440447" lon="103.936272">
<ele>421.926025</ele>
<time>2011-04-22T03:32:40Z</time>
<desc>lat.=22.440447, lon.=103.936272, Alt.=421.926025m. Speed=6.336000m/h.</desc>
<speed>1.760000</speed>
</trkpt>
<trkpt lat="22.440487" lon="103.936188">
<ele>421.886963</ele>
<time>2011-04-22T03:32:45Z</time>
<desc>lat.=22.440487, lon.=103.936188, Alt.=421.886963m. Speed=6.912000m/h.</desc>
<speed>1.920000</speed>
</trkpt>
<trkpt lat="22.440504" lon="103.936104">
<ele>422.722900</ele>
<time>2011-04-22T03:32:50Z</time>
<desc>lat.=22.440504, lon.=103.936104, Alt.=422.722900m. Speed=6.192000m/h.</desc>
<speed>1.720000</speed>
</trkpt>
<trkpt lat="22.440533" lon="103.936020">
<ele>422.082275</ele>
<time>2011-04-22T03:32:55Z</time>
<desc>lat.=22.440533, lon.=103.936020, Alt.=422.082275m. Speed=6.084000m/h.</desc>
<speed>1.690000</speed>
</trkpt>
<trkpt lat="22.440556" lon="103.935944">
<ele>422.488525</ele>
<time>2011-04-22T03:33:00Z</time>
<desc>lat.=22.440556, lon.=103.935944, Alt.=422.488525m. Speed=6.012000m/h.</desc>
<speed>1.670000</speed>
</trkpt>
<trkpt lat="22.440590" lon="103.935875">
<ele>424.277588</ele>
<time>2011-04-22T03:33:05Z</time>
<desc>lat.=22.440590, lon.=103.935875, Alt.=424.277588m. Speed=5.436000m/h.</desc>
<speed>1.510000</speed>
</trkpt>
<trkpt lat="22.440619" lon="103.935814">
<ele>425.168213</ele>
<time>2011-04-22T03:33:10Z</time>
<desc>lat.=22.440619, lon.=103.935814, Alt.=425.168213m. Speed=5.580000m/h.</desc>
<speed>1.550000</speed>
</trkpt>
<trkpt lat="22.440643" lon="103.935745">
<ele>425.246338</ele>
<time>2011-04-22T03:33:15Z</time>
<desc>lat.=22.440643, lon.=103.935745, Alt.=425.246338m. Speed=2.808000m/h.</desc>
<speed>0.780000</speed>
</trkpt>
<trkpt lat="22.440638" lon="103.935753">
<ele>427.277588</ele>
<time>2011-04-22T03:33:20Z</time>
<desc>lat.=22.440638, lon.=103.935753, Alt.=427.277588m. Speed=0.288000m/h.</desc>
<speed>0.080000</speed>
</trkpt>
<trkpt lat="22.440647" lon="103.935730">
<ele>426.691650</ele>
<time>2011-04-22T03:33:25Z</time>
<desc>lat.=22.440647, lon.=103.935730, Alt.=426.691650m. Speed=1.800000m/h.</desc>
<speed>0.500000</speed>
</trkpt>
<trkpt lat="22.440645" lon="103.935730">
<ele>427.301025</ele>
<time>2011-04-22T03:33:30Z</time>
<desc>lat.=22.440645, lon.=103.935730, Alt.=427.301025m. Speed=0.108000m/h.</desc>
<speed>0.030000</speed>
</trkpt>
<trkpt lat="22.440647" lon="103.935730">
<ele>427.371338</ele>
<time>2011-04-22T03:33:35Z</time>
<desc>lat.=22.440647, lon.=103.935730, Alt.=427.371338m. Speed=0.252000m/h.</desc>
<speed>0.070000</speed>
</trkpt>
<trkpt lat="22.440651" lon="103.935730">
<ele>427.301025</ele>
<time>2011-04-22T03:33:40Z</time>
<desc>lat.=22.440651, lon.=103.935730, Alt.=427.301025m. Speed=0.072000m/h.</desc>
<speed>0.020000</speed>
</trkpt>
<trkpt lat="22.440651" lon="103.935730">
<ele>427.316650</ele>
<time>2011-04-22T03:33:45Z</time>
<desc>lat.=22.440651, lon.=103.935730, Alt.=427.316650m. Speed=0.000000m/h.</desc>
<speed>0.000000</speed>
</trkpt>
<trkpt lat="22.440651" lon="103.935730">
<ele>427.308838</ele>
<time>2011-04-22T03:33:50Z</time>
<desc>lat.=22.440651, lon.=103.935730, Alt.=427.308838m. Speed=0.000000m/h.</desc>
<speed>0.000000</speed>
</trkpt>
<trkpt lat="22.440651" lon="103.935730">
<ele>427.308838</ele>
<time>2011-04-22T03:33:55Z</time>
<desc>lat.=22.440651, lon.=103.935730, Alt.=427.308838m. Speed=0.072000m/h.</desc>
<speed>0.020000</speed>
</trkpt>
<trkpt lat="22.440651" lon="103.935730">
<ele>427.301025</ele>
<time>2011-04-22T03:34:00Z</time>
<desc>lat.=22.440651, lon.=103.935730, Alt.=427.301025m. Speed=0.036000m/h.</desc>
<speed>0.010000</speed>
</trkpt>
<trkpt lat="22.440651" lon="103.935730">
<ele>427.324463</ele>
<time>2011-04-22T03:34:05Z</time>
<desc>lat.=22.440651, lon.=103.935730, Alt.=427.324463m. Speed=0.036000m/h.</desc>
<speed>0.010000</speed>
</trkpt>
<trkpt lat="22.440651" lon="103.935730">
<ele>427.324463</ele>
<time>2011-04-22T03:34:10Z</time>
<desc>lat.=22.440651, lon.=103.935730, Alt.=427.324463m. Speed=0.000000m/h.</desc>
<speed>0.000000</speed>
</trkpt>
<trkpt lat="22.440651" lon="103.935730">
<ele>427.324463</ele>
<time>2011-04-22T03:34:15Z</time>
<desc>lat.=22.440651, lon.=103.935730, Alt.=427.324463m. Speed=0.036000m/h.</desc>
<speed>0.010000</speed>
</trkpt>
<trkpt lat="22.440651" lon="103.935730">
<ele>427.308838</ele>
<time>2011-04-22T03:34:20Z</time>
<desc>lat.=22.440651, lon.=103.935730, Alt.=427.308838m. Speed=0.000000m/h.</desc>
<speed>0.000000</speed>
</trkpt>
<trkpt lat="22.440651" lon="103.935730">
<ele>427.301025</ele>
<time>2011-04-22T03:34:25Z</time>
<desc>lat.=22.440651, lon.=103.935730, Alt.=427.301025m. Speed=0.000000m/h.</desc>
<speed>0.000000</speed>
</trkpt>
<trkpt lat="22.440651" lon="103.935730">
<ele>427.316650</ele>
<time>2011-04-22T03:34:30Z</time>
<desc>lat.=22.440651, lon.=103.935730, Alt.=427.316650m. Speed=0.072000m/h.</desc>
<speed>0.020000</speed>
</trkpt>
<trkpt lat="22.440651" lon="103.935730">
<ele>427.324463</ele>
<time>2011-04-22T03:34:35Z</time>
<desc>lat.=22.440651, lon.=103.935730, Alt.=427.324463m. Speed=0.000000m/h.</desc>
<speed>0.000000</speed>
</trkpt>
<trkpt lat="22.440651" lon="103.935730">
<ele>427.308838</ele>
<time>2011-04-22T03:34:40Z</time>
<desc>lat.=22.440651, lon.=103.935730, Alt.=427.308838m. Speed=0.036000m/h.</desc>
<speed>0.010000</speed>
</trkpt>
<trkpt lat="22.440651" lon="103.935730">
<ele>427.308838</ele>
<time>2011-04-22T03:34:45Z</time>
<desc>lat.=22.440651, lon.=103.935730, Alt.=427.308838m. Speed=0.000000m/h.</desc>
<speed>0.000000</speed>
</trkpt>
<trkpt lat="22.440651" lon="103.935730">
<ele>427.301025</ele>
<time>2011-04-22T03:34:50Z</time>
<desc>lat.=22.440651, lon.=103.935730, Alt.=427.301025m. Speed=0.000000m/h.</desc>
<speed>0.000000</speed>
</trkpt>
<trkpt lat="22.440651" lon="103.935730">
<ele>427.293213</ele>
<time>2011-04-22T03:34:55Z</time>
<desc>lat.=22.440651, lon.=103.935730, Alt.=427.293213m. Speed=0.000000m/h.</desc>
<speed>0.000000</speed>
</trkpt>
<trkpt lat="22.440651" lon="103.935730">
<ele>427.293213</ele>
<time>2011-04-22T03:35:00Z</time>
<desc>lat.=22.440651, lon.=103.935730, Alt.=427.293213m. Speed=0.000000m/h.</desc>
<speed>0.000000</speed>
</trkpt>
<trkpt lat="22.440651" lon="103.935730">
<ele>427.293213</ele>
<time>2011-04-22T03:35:05Z</time>
<desc>lat.=22.440651, lon.=103.935730, Alt.=427.293213m. Speed=0.000000m/h.</desc>
<speed>0.000000</speed>
</trkpt>
<trkpt lat="22.440651" lon="103.935730">
<ele>427.285400</ele>
<time>2011-04-22T03:35:10Z</time>
<desc>lat.=22.440651, lon.=103.935730, Alt.=427.285400m. Speed=0.036000m/h.</desc>
<speed>0.010000</speed>
</trkpt>
<trkpt lat="22.440651" lon="103.935730">
<ele>427.285400</ele>
<time>2011-04-22T03:35:15Z</time>
<desc>lat.=22.440651, lon.=103.935730, Alt.=427.285400m. Speed=0.000000m/h.</desc>
<speed>0.000000</speed>
</trkpt>
<trkpt lat="22.440651" lon="103.935730">
<ele>427.293213</ele>
<time>2011-04-22T03:35:20Z</time>
<desc>lat.=22.440651, lon.=103.935730, Alt.=427.293213m. Speed=0.036000m/h.</desc>
<speed>0.010000</speed>
</trkpt>
<trkpt lat="22.440651" lon="103.935730">
<ele>427.285400</ele>
<time>2011-04-22T03:35:25Z</time>
<desc>lat.=22.440651, lon.=103.935730, Alt.=427.285400m. Speed=0.000000m/h.</desc>
<speed>0.000000</speed>
</trkpt>
<trkpt lat="22.440651" lon="103.935730">
<ele>427.285400</ele>
<time>2011-04-22T03:35:30Z</time>
<desc>lat.=22.440651, lon.=103.935730, Alt.=427.285400m. Speed=0.000000m/h.</desc>
<speed>0.000000</speed>
</trkpt>
<trkpt lat="22.440651" lon="103.935730">
<ele>427.293213</ele>
<time>2011-04-22T03:35:35Z</time>
<desc>lat.=22.440651, lon.=103.935730, Alt.=427.293213m. Speed=0.000000m/h.</desc>
<speed>0.000000</speed>
</trkpt>
<trkpt lat="22.440651" lon="103.935730">
<ele>427.293213</ele>
<time>2011-04-22T03:35:40Z</time>
<desc>lat.=22.440651, lon.=103.935730, Alt.=427.293213m. Speed=0.036000m/h.</desc>
<speed>0.010000</speed>
</trkpt>
<trkpt lat="22.440651" lon="103.935730">
<ele>427.293213</ele>
<time>2011-04-22T03:35:45Z</time>
<desc>lat.=22.440651, lon.=103.935730, Alt.=427.293213m. Speed=0.072000m/h.</desc>
<speed>0.020000</speed>
</trkpt>
<trkpt lat="22.440651" lon="103.935730">
<ele>427.293213</ele>
<time>2011-04-22T03:35:50Z</time>
<desc>lat.=22.440651, lon.=103.935730, Alt.=427.293213m. Speed=0.144000m/h.</desc>
<speed>0.040000</speed>
</trkpt>
<trkpt lat="22.440651" lon="103.935730">
<ele>427.293213</ele>
<time>2011-04-22T03:35:55Z</time>
<desc>lat.=22.440651, lon.=103.935730, Alt.=427.293213m. Speed=0.036000m/h.</desc>
<speed>0.010000</speed>
</trkpt>
<trkpt lat="22.440651" lon="103.935730">
<ele>427.293213</ele>
<time>2011-04-22T03:36:00Z</time>
<desc>lat.=22.440651, lon.=103.935730, Alt.=427.293213m. Speed=0.036000m/h.</desc>
<speed>0.010000</speed>
</trkpt>
<trkpt lat="22.440649" lon="103.935730">
<ele>427.277588</ele>
<time>2011-04-22T03:36:05Z</time>
<desc>lat.=22.440649, lon.=103.935730, Alt.=427.277588m. Speed=0.036000m/h.</desc>
<speed>0.010000</speed>
</trkpt>
<trkpt lat="22.440649" lon="103.935730">
<ele>427.277588</ele>
<time>2011-04-22T03:36:10Z</time>
<desc>lat.=22.440649, lon.=103.935730, Alt.=427.277588m. Speed=0.036000m/h.</desc>
<speed>0.010000</speed>
</trkpt>
<trkpt lat="22.440649" lon="103.935730">
<ele>427.293213</ele>
<time>2011-04-22T03:36:15Z</time>
<desc>lat.=22.440649, lon.=103.935730, Alt.=427.293213m. Speed=0.000000m/h.</desc>
<speed>0.000000</speed>
</trkpt>
<trkpt lat="22.440649" lon="103.935730">
<ele>427.340088</ele>
<time>2011-04-22T03:36:20Z</time>
<desc>lat.=22.440649, lon.=103.935730, Alt.=427.340088m. Speed=0.000000m/h.</desc>
<speed>0.000000</speed>
</trkpt>
<trkpt lat="22.440649" lon="103.935730">
<ele>427.355713</ele>
<time>2011-04-22T03:36:25Z</time>
<desc>lat.=22.440649, lon.=103.935730, Alt.=427.355713m. Speed=0.036000m/h.</desc>
<speed>0.010000</speed>
</trkpt>
<trkpt lat="22.440649" lon="103.935730">
<ele>427.363525</ele>
<time>2011-04-22T03:36:30Z</time>
<desc>lat.=22.440649, lon.=103.935730, Alt.=427.363525m. Speed=0.000000m/h.</desc>
<speed>0.000000</speed>
</trkpt>
<trkpt lat="22.440649" lon="103.935730">
<ele>427.371338</ele>
<time>2011-04-22T03:36:35Z</time>
<desc>lat.=22.440649, lon.=103.935730, Alt.=427.371338m. Speed=0.000000m/h.</desc>
<speed>0.000000</speed>
</trkpt>
<trkpt lat="22.440649" lon="103.935730">
<ele>427.363525</ele>
<time>2011-04-22T03:36:40Z</time>
<desc>lat.=22.440649, lon.=103.935730, Alt.=427.363525m. Speed=0.000000m/h.</desc>
<speed>0.000000</speed>
</trkpt>
<trkpt lat="22.440649" lon="103.935730">
<ele>427.379150</ele>
<time>2011-04-22T03:36:45Z</time>
<desc>lat.=22.440649, lon.=103.935730, Alt.=427.379150m. Speed=0.036000m/h.</desc>
<speed>0.010000</speed>
</trkpt>
<trkpt lat="22.440649" lon="103.935730">
<ele>427.379150</ele>
<time>2011-04-22T03:36:50Z</time>
<desc>lat.=22.440649, lon.=103.935730, Alt.=427.379150m. Speed=0.036000m/h.</desc>
<speed>0.010000</speed>
</trkpt>
<trkpt lat="22.440647" lon="103.935730">
<ele>427.379150</ele>
<time>2011-04-22T03:36:55Z</time>
<desc>lat.=22.440647, lon.=103.935730, Alt.=427.379150m. Speed=0.000000m/h.</desc>
<speed>0.000000</speed>
</trkpt>
<trkpt lat="22.440647" lon="103.935730">
<ele>427.371338</ele>
<time>2011-04-22T03:37:00Z</time>
<desc>lat.=22.440647, lon.=103.935730, Alt.=427.371338m. Speed=0.000000m/h.</desc>
<speed>0.000000</speed>
</trkpt>
<trkpt lat="22.440647" lon="103.935730">
<ele>427.371338</ele>
<time>2011-04-22T03:37:05Z</time>
<desc>lat.=22.440647, lon.=103.935730, Alt.=427.371338m. Speed=0.000000m/h.</desc>
<speed>0.000000</speed>
</trkpt>
<trkpt lat="22.440647" lon="103.935730">
<ele>427.371338</ele>
<time>2011-04-22T03:37:10Z</time>
<desc>lat.=22.440647, lon.=103.935730, Alt.=427.371338m. Speed=0.000000m/h.</desc>
<speed>0.000000</speed>
</trkpt>
<trkpt lat="22.440647" lon="103.935730">
<ele>427.379150</ele>
<time>2011-04-22T03:37:15Z</time>
<desc>lat.=22.440647, lon.=103.935730, Alt.=427.379150m. Speed=0.036000m/h.</desc>
<speed>0.010000</speed>
</trkpt>
<trkpt lat="22.440647" lon="103.935730">
<ele>427.402588</ele>
<time>2011-04-22T03:37:20Z</time>
<desc>lat.=22.440647, lon.=103.935730, Alt.=427.402588m. Speed=0.036000m/h.</desc>
<speed>0.010000</speed>
</trkpt>
<trkpt lat="22.440647" lon="103.935730">
<ele>427.410400</ele>
<time>2011-04-22T03:37:25Z</time>
<desc>lat.=22.440647, lon.=103.935730, Alt.=427.410400m. Speed=0.000000m/h.</desc>
<speed>0.000000</speed>
</trkpt>
<trkpt lat="22.440647" lon="103.935730">
<ele>427.410400</ele>
<time>2011-04-22T03:37:30Z</time>
<desc>lat.=22.440647, lon.=103.935730, Alt.=427.410400m. Speed=0.036000m/h.</desc>
<speed>0.010000</speed>
</trkpt>
<trkpt lat="22.440647" lon="103.935730">
<ele>427.418213</ele>
<time>2011-04-22T03:37:35Z</time>
<desc>lat.=22.440647, lon.=103.935730, Alt.=427.418213m. Speed=0.036000m/h.</desc>
<speed>0.010000</speed>
</trkpt>
<trkpt lat="22.440647" lon="103.935730">
<ele>427.410400</ele>
<time>2011-04-22T03:37:40Z</time>
<desc>lat.=22.440647, lon.=103.935730, Alt.=427.410400m. Speed=0.000000m/h.</desc>
<speed>0.000000</speed>
</trkpt>
<trkpt lat="22.440647" lon="103.935730">
<ele>427.410400</ele>
<time>2011-04-22T03:37:45Z</time>
<desc>lat.=22.440647, lon.=103.935730, Alt.=427.410400m. Speed=0.000000m/h.</desc>
<speed>0.000000</speed>
</trkpt>
<trkpt lat="22.440647" lon="103.935730">
<ele>427.394775</ele>
<time>2011-04-22T03:37:50Z</time>
<desc>lat.=22.440647, lon.=103.935730, Alt.=427.394775m. Speed=0.036000m/h.</desc>
<speed>0.010000</speed>
</trkpt>
<trkpt lat="22.440647" lon="103.935730">
<ele>427.394775</ele>
<time>2011-04-22T03:37:55Z</time>
<desc>lat.=22.440647, lon.=103.935730, Alt.=427.394775m. Speed=0.000000m/h.</desc>
<speed>0.000000</speed>
</trkpt>
<trkpt lat="22.440647" lon="103.935730">
<ele>427.394775</ele>
<time>2011-04-22T03:38:00Z</time>
<desc>lat.=22.440647, lon.=103.935730, Alt.=427.394775m. Speed=0.036000m/h.</desc>
<speed>0.010000</speed>
</trkpt>
<trkpt lat="22.440647" lon="103.935730">
<ele>427.394775</ele>
<time>2011-04-22T03:38:05Z</time>
<desc>lat.=22.440647, lon.=103.935730, Alt.=427.394775m. Speed=0.000000m/h.</desc>
<speed>0.000000</speed>
</trkpt>
<trkpt lat="22.440647" lon="103.935730">
<ele>427.402588</ele>
<time>2011-04-22T03:38:10Z</time>
<desc>lat.=22.440647, lon.=103.935730, Alt.=427.402588m. Speed=0.036000m/h.</desc>
<speed>0.010000</speed>
</trkpt>
<trkpt lat="22.440647" lon="103.935730">
<ele>427.410400</ele>
<time>2011-04-22T03:38:15Z</time>
<desc>lat.=22.440647, lon.=103.935730, Alt.=427.410400m. Speed=0.000000m/h.</desc>
<speed>0.000000</speed>
</trkpt>
<trkpt lat="22.440647" lon="103.935730">
<ele>427.410400</ele>
<time>2011-04-22T03:38:20Z</time>
<desc>lat.=22.440647, lon.=103.935730, Alt.=427.410400m. Speed=0.000000m/h.</desc>
<speed>0.000000</speed>
</trkpt>
<trkpt lat="22.440647" lon="103.935730">
<ele>427.410400</ele>
<time>2011-04-22T03:38:25Z</time>
<desc>lat.=22.440647, lon.=103.935730, Alt.=427.410400m. Speed=0.000000m/h.</desc>
<speed>0.000000</speed>
</trkpt>
<trkpt lat="22.440647" lon="103.935730">
<ele>427.410400</ele>
<time>2011-04-22T03:38:30Z</time>
<desc>lat.=22.440647, lon.=103.935730, Alt.=427.410400m. Speed=0.036000m/h.</desc>
<speed>0.010000</speed>
</trkpt>
<trkpt lat="22.440647" lon="103.935730">
<ele>427.402588</ele>
<time>2011-04-22T03:38:35Z</time>
<desc>lat.=22.440647, lon.=103.935730, Alt.=427.402588m. Speed=0.036000m/h.</desc>
<speed>0.010000</speed>
</trkpt>
<trkpt lat="22.440647" lon="103.935730">
<ele>427.402588</ele>
<time>2011-04-22T03:38:40Z</time>
<desc>lat.=22.440647, lon.=103.935730, Alt.=427.402588m. Speed=0.072000m/h.</desc>
<speed>0.020000</speed>
</trkpt>
<trkpt lat="22.440647" lon="103.935730">
<ele>427.394775</ele>
<time>2011-04-22T03:38:45Z</time>
<desc>lat.=22.440647, lon.=103.935730, Alt.=427.394775m. Speed=0.036000m/h.</desc>
<speed>0.010000</speed>
</trkpt>
<trkpt lat="22.440647" lon="103.935730">
<ele>427.402588</ele>
<time>2011-04-22T03:38:50Z</time>
<desc>lat.=22.440647, lon.=103.935730, Alt.=427.402588m. Speed=0.036000m/h.</desc>
<speed>0.010000</speed>
</trkpt>
<trkpt lat="22.440647" lon="103.935730">
<ele>427.394775</ele>
<time>2011-04-22T03:38:55Z</time>
<desc>lat.=22.440647, lon.=103.935730, Alt.=427.394775m. Speed=0.036000m/h.</desc>
<speed>0.010000</speed>
</trkpt>
<trkpt lat="22.440647" lon="103.935730">
<ele>427.394775</ele>
<time>2011-04-22T03:39:00Z</time>
<desc>lat.=22.440647, lon.=103.935730, Alt.=427.394775m. Speed=0.036000m/h.</desc>
<speed>0.010000</speed>
</trkpt>
<trkpt lat="22.440647" lon="103.935730">
<ele>427.410400</ele>
<time>2011-04-22T03:39:05Z</time>
<desc>lat.=22.440647, lon.=103.935730, Alt.=427.410400m. Speed=0.000000m/h.</desc>
<speed>0.000000</speed>
</trkpt>
<trkpt lat="22.440647" lon="103.935730">
<ele>427.410400</ele>
<time>2011-04-22T03:39:10Z</time>
<desc>lat.=22.440647, lon.=103.935730, Alt.=427.410400m. Speed=0.072000m/h.</desc>
<speed>0.020000</speed>
</trkpt>
<trkpt lat="22.440647" lon="103.935730">
<ele>427.410400</ele>
<time>2011-04-22T03:39:15Z</time>
<desc>lat.=22.440647, lon.=103.935730, Alt.=427.410400m. Speed=0.036000m/h.</desc>
<speed>0.010000</speed>
</trkpt>
<trkpt lat="22.440647" lon="103.935730">
<ele>427.418213</ele>
<time>2011-04-22T03:39:20Z</time>
<desc>lat.=22.440647, lon.=103.935730, Alt.=427.418213m. Speed=0.036000m/h.</desc>
<speed>0.010000</speed>
</trkpt>
<trkpt lat="22.440647" lon="103.935730">
<ele>427.426025</ele>
<time>2011-04-22T03:39:25Z</time>
<desc>lat.=22.440647, lon.=103.935730, Alt.=427.426025m. Speed=0.936000m/h.</desc>
<speed>0.260000</speed>
</trkpt>
<trkpt lat="22.440651" lon="103.935730">
<ele>427.605713</ele>
<time>2011-04-22T03:39:30Z</time>
<desc>lat.=22.440651, lon.=103.935730, Alt.=427.605713m. Speed=2.232000m/h.</desc>
<speed>0.620000</speed>
</trkpt>
<trkpt lat="22.440672" lon="103.935730">
<ele>428.246338</ele>
<time>2011-04-22T03:39:35Z</time>
<desc>lat.=22.440672, lon.=103.935730, Alt.=428.246338m. Speed=4.680000m/h.</desc>
<speed>1.300000</speed>
</trkpt>
<trkpt lat="22.440718" lon="103.935669">
<ele>429.043213</ele>
<time>2011-04-22T03:39:40Z</time>
<desc>lat.=22.440718, lon.=103.935669, Alt.=429.043213m. Speed=7.884000m/h.</desc>
<speed>2.190000</speed>
</trkpt>
<trkpt lat="22.440744" lon="103.935570">
<ele>429.535400</ele>
<time>2011-04-22T03:39:45Z</time>
<desc>lat.=22.440744, lon.=103.935570, Alt.=429.535400m. Speed=6.516000m/h.</desc>
<speed>1.810000</speed>
</trkpt>
<trkpt lat="22.440758" lon="103.935478">
<ele>430.254150</ele>
<time>2011-04-22T03:39:50Z</time>
<desc>lat.=22.440758, lon.=103.935478, Alt.=430.254150m. Speed=7.668000m/h.</desc>
<speed>2.130000</speed>
</trkpt>
<trkpt lat="22.440817" lon="103.935364">
<ele>431.613525</ele>
<time>2011-04-22T03:39:55Z</time>
<desc>lat.=22.440817, lon.=103.935364, Alt.=431.613525m. Speed=8.424000m/h.</desc>
<speed>2.340000</speed>
</trkpt>
<trkpt lat="22.440851" lon="103.935265">
<ele>432.863525</ele>
<time>2011-04-22T03:40:00Z</time>
<desc>lat.=22.440851, lon.=103.935265, Alt.=432.863525m. Speed=8.568000m/h.</desc>
<speed>2.380000</speed>
</trkpt>
<trkpt lat="22.440884" lon="103.935158">
<ele>433.613525</ele>
<time>2011-04-22T03:40:05Z</time>
<desc>lat.=22.440884, lon.=103.935158, Alt.=433.613525m. Speed=7.560000m/h.</desc>
<speed>2.100000</speed>
</trkpt>
<trkpt lat="22.440918" lon="103.935066">
<ele>435.090088</ele>
<time>2011-04-22T03:40:10Z</time>
<desc>lat.=22.440918, lon.=103.935066, Alt.=435.090088m. Speed=6.516000m/h.</desc>
<speed>1.810000</speed>
</trkpt>
<trkpt lat="22.440924" lon="103.934998">
<ele>436.621338</ele>
<time>2011-04-22T03:40:15Z</time>
<desc>lat.=22.440924, lon.=103.934998, Alt.=436.621338m. Speed=4.464000m/h.</desc>
<speed>1.240000</speed>
</trkpt>
<trkpt lat="22.440935" lon="103.934937">
<ele>438.652588</ele>
<time>2011-04-22T03:40:20Z</time>
<desc>lat.=22.440935, lon.=103.934937, Alt.=438.652588m. Speed=3.492000m/h.</desc>
<speed>0.970000</speed>
</trkpt>
<trkpt lat="22.440954" lon="103.934868">
<ele>439.129150</ele>
<time>2011-04-22T03:40:25Z</time>
<desc>lat.=22.440954, lon.=103.934868, Alt.=439.129150m. Speed=5.508000m/h.</desc>
<speed>1.530000</speed>
</trkpt>
<trkpt lat="22.440968" lon="103.934792">
<ele>438.980713</ele>
<time>2011-04-22T03:40:30Z</time>
<desc>lat.=22.440968, lon.=103.934792, Alt.=438.980713m. Speed=6.516000m/h.</desc>
<speed>1.810000</speed>
</trkpt>
<trkpt lat="22.440977" lon="103.934708">
<ele>437.691650</ele>
<time>2011-04-22T03:40:35Z</time>
<desc>lat.=22.440977, lon.=103.934708, Alt.=437.691650m. Speed=6.192000m/h.</desc>
<speed>1.720000</speed>
</trkpt>
<trkpt lat="22.440950" lon="103.934616">
<ele>438.316650</ele>
<time>2011-04-22T03:40:40Z</time>
<desc>lat.=22.440950, lon.=103.934616, Alt.=438.316650m. Speed=5.724000m/h.</desc>
<speed>1.590000</speed>
</trkpt>
<trkpt lat="22.440910" lon="103.934525">
<ele>439.402588</ele>
<time>2011-04-22T03:40:45Z</time>
<desc>lat.=22.440910, lon.=103.934525, Alt.=439.402588m. Speed=6.300000m/h.</desc>
<speed>1.750000</speed>
</trkpt>
<trkpt lat="22.440882" lon="103.934448">
<ele>438.121338</ele>
<time>2011-04-22T03:40:50Z</time>
<desc>lat.=22.440882, lon.=103.934448, Alt.=438.121338m. Speed=5.184000m/h.</desc>
<speed>1.440000</speed>
</trkpt>
<trkpt lat="22.440845" lon="103.934395">
<ele>437.551025</ele>
<time>2011-04-22T03:40:55Z</time>
<desc>lat.=22.440845, lon.=103.934395, Alt.=437.551025m. Speed=6.192000m/h.</desc>
<speed>1.720000</speed>
</trkpt>
<trkpt lat="22.440790" lon="103.934341">
<ele>436.769775</ele>
<time>2011-04-22T03:41:00Z</time>
<desc>lat.=22.440790, lon.=103.934341, Alt.=436.769775m. Speed=6.048000m/h.</desc>
<speed>1.680000</speed>
</trkpt>
<trkpt lat="22.440722" lon="103.934319">
<ele>435.933838</ele>
<time>2011-04-22T03:41:05Z</time>
<desc>lat.=22.440722, lon.=103.934319, Alt.=435.933838m. Speed=6.228000m/h.</desc>
<speed>1.730000</speed>
</trkpt>
<trkpt lat="22.440643" lon="103.934288">
<ele>435.707275</ele>
<time>2011-04-22T03:41:10Z</time>
<desc>lat.=22.440643, lon.=103.934288, Alt.=435.707275m. Speed=5.904000m/h.</desc>
<speed>1.640000</speed>
</trkpt>
<trkpt lat="22.440569" lon="103.934273">
<ele>436.090088</ele>
<time>2011-04-22T03:41:15Z</time>
<desc>lat.=22.440569, lon.=103.934273, Alt.=436.090088m. Speed=5.436000m/h.</desc>
<speed>1.510000</speed>
</trkpt>
<trkpt lat="22.440500" lon="103.934250">
<ele>436.590088</ele>
<time>2011-04-22T03:41:20Z</time>
<desc>lat.=22.440500, lon.=103.934250, Alt.=436.590088m. Speed=5.652000m/h.</desc>
<speed>1.570000</speed>
</trkpt>
<trkpt lat="22.440424" lon="103.934242">
<ele>437.191650</ele>
<time>2011-04-22T03:41:25Z</time>
<desc>lat.=22.440424, lon.=103.934242, Alt.=437.191650m. Speed=5.652000m/h.</desc>
<speed>1.570000</speed>
</trkpt>
<trkpt lat="22.440357" lon="103.934219">
<ele>438.402588</ele>
<time>2011-04-22T03:41:30Z</time>
<desc>lat.=22.440357, lon.=103.934219, Alt.=438.402588m. Speed=5.580000m/h.</desc>
<speed>1.550000</speed>
</trkpt>
<trkpt lat="22.440281" lon="103.934189">
<ele>440.902588</ele>
<time>2011-04-22T03:41:35Z</time>
<desc>lat.=22.440281, lon.=103.934189, Alt.=440.902588m. Speed=5.832000m/h.</desc>
<speed>1.620000</speed>
</trkpt>
<trkpt lat="22.440224" lon="103.934174">
<ele>441.535400</ele>
<time>2011-04-22T03:41:40Z</time>
<desc>lat.=22.440224, lon.=103.934174, Alt.=441.535400m. Speed=3.852000m/h.</desc>
<speed>1.070000</speed>
</trkpt>
<trkpt lat="22.440159" lon="103.934158">
<ele>442.207275</ele>
<time>2011-04-22T03:41:45Z</time>
<desc>lat.=22.440159, lon.=103.934158, Alt.=442.207275m. Speed=6.840000m/h.</desc>
<speed>1.900000</speed>
</trkpt>
<trkpt lat="22.440081" lon="103.934135">
<ele>441.777588</ele>
<time>2011-04-22T03:41:50Z</time>
<desc>lat.=22.440081, lon.=103.934135, Alt.=441.777588m. Speed=5.256000m/h.</desc>
<speed>1.460000</speed>
</trkpt>
<trkpt lat="22.440004" lon="103.934120">
<ele>442.980713</ele>
<time>2011-04-22T03:41:55Z</time>
<desc>lat.=22.440004, lon.=103.934120, Alt.=442.980713m. Speed=5.508000m/h.</desc>
<speed>1.530000</speed>
</trkpt>
<trkpt lat="22.439938" lon="103.934097">
<ele>443.933838</ele>
<time>2011-04-22T03:42:00Z</time>
<desc>lat.=22.439938, lon.=103.934097, Alt.=443.933838m. Speed=5.580000m/h.</desc>
<speed>1.550000</speed>
</trkpt>
<trkpt lat="22.439884" lon="103.934082">
<ele>443.879150</ele>
<time>2011-04-22T03:42:05Z</time>
<desc>lat.=22.439884, lon.=103.934082, Alt.=443.879150m. Speed=4.248000m/h.</desc>
<speed>1.180000</speed>
</trkpt>
<trkpt lat="22.439848" lon="103.934059">
<ele>444.910400</ele>
<time>2011-04-22T03:42:10Z</time>
<desc>lat.=22.439848, lon.=103.934059, Alt.=444.910400m. Speed=4.248000m/h.</desc>
<speed>1.180000</speed>
</trkpt>
<trkpt lat="22.439810" lon="103.934052">
<ele>445.605713</ele>
<time>2011-04-22T03:42:15Z</time>
<desc>lat.=22.439810, lon.=103.934052, Alt.=445.605713m. Speed=3.672000m/h.</desc>
<speed>1.020000</speed>
</trkpt>
<trkpt lat="22.439774" lon="103.934059">
<ele>446.488525</ele>
<time>2011-04-22T03:42:20Z</time>
<desc>lat.=22.439774, lon.=103.934059, Alt.=446.488525m. Speed=2.376000m/h.</desc>
<speed>0.660000</speed>
</trkpt>
<trkpt lat="22.439734" lon="103.934013">
<ele>446.504150</ele>
<time>2011-04-22T03:42:25Z</time>
<desc>lat.=22.439734, lon.=103.934013, Alt.=446.504150m. Speed=9.288000m/h.</desc>
<speed>2.580000</speed>
</trkpt>
<trkpt lat="22.439674" lon="103.933907">
<ele>446.504150</ele>
<time>2011-04-22T03:42:30Z</time>
<desc>lat.=22.439674, lon.=103.933907, Alt.=446.504150m. Speed=10.764000m/h.</desc>
<speed>2.990000</speed>
</trkpt>
<trkpt lat="22.439619" lon="103.933754">
<ele>445.980713</ele>
<time>2011-04-22T03:42:35Z</time>
<desc>lat.=22.439619, lon.=103.933754, Alt.=445.980713m. Speed=12.024000m/h.</desc>
<speed>3.340000</speed>
</trkpt>
<trkpt lat="22.439575" lon="103.933578">
<ele>446.824463</ele>
<time>2011-04-22T03:42:40Z</time>
<desc>lat.=22.439575, lon.=103.933578, Alt.=446.824463m. Speed=15.588000m/h.</desc>
<speed>4.330000</speed>
</trkpt>
<trkpt lat="22.439480" lon="103.933372">
<ele>448.191650</ele>
<time>2011-04-22T03:42:45Z</time>
<desc>lat.=22.439480, lon.=103.933372, Alt.=448.191650m. Speed=18.540001m/h.</desc>
<speed>5.150000</speed>
</trkpt>
<trkpt lat="22.439281" lon="103.933197">
<ele>446.386963</ele>
<time>2011-04-22T03:42:50Z</time>
<desc>lat.=22.439281, lon.=103.933197, Alt.=446.386963m. Speed=19.403999m/h.</desc>
<speed>5.390000</speed>
</trkpt>
<trkpt lat="22.439089" lon="103.933044">
<ele>446.121338</ele>
<time>2011-04-22T03:42:55Z</time>
<desc>lat.=22.439089, lon.=103.933044, Alt.=446.121338m. Speed=20.664000m/h.</desc>
<speed>5.740000</speed>
</trkpt>
<trkpt lat="22.438931" lon="103.932800">
<ele>446.504150</ele>
<time>2011-04-22T03:43:00Z</time>
<desc>lat.=22.438931, lon.=103.932800, Alt.=446.504150m. Speed=23.472000m/h.</desc>
<speed>6.520000</speed>
</trkpt>
<trkpt lat="22.438789" lon="103.932503">
<ele>447.097900</ele>
<time>2011-04-22T03:43:05Z</time>
<desc>lat.=22.438789, lon.=103.932503, Alt.=447.097900m. Speed=24.552000m/h.</desc>
<speed>6.820000</speed>
</trkpt>
<trkpt lat="22.438667" lon="103.932228">
<ele>448.277588</ele>
<time>2011-04-22T03:43:10Z</time>
<desc>lat.=22.438667, lon.=103.932228, Alt.=448.277588m. Speed=19.007999m/h.</desc>
<speed>5.280000</speed>
</trkpt>
<trkpt lat="22.438597" lon="103.932053">
<ele>449.972900</ele>
<time>2011-04-22T03:43:15Z</time>
<desc>lat.=22.438597, lon.=103.932053, Alt.=449.972900m. Speed=8.208000m/h.</desc>
<speed>2.280000</speed>
</trkpt>
<trkpt lat="22.438560" lon="103.931976">
<ele>452.230713</ele>
<time>2011-04-22T03:43:20Z</time>
<desc>lat.=22.438560, lon.=103.931976, Alt.=452.230713m. Speed=6.120000m/h.</desc>
<speed>1.700000</speed>
</trkpt>
<trkpt lat="22.438519" lon="103.931892">
<ele>454.043213</ele>
<time>2011-04-22T03:43:25Z</time>
<desc>lat.=22.438519, lon.=103.931892, Alt.=454.043213m. Speed=7.596000m/h.</desc>
<speed>2.110000</speed>
</trkpt>
<trkpt lat="22.438494" lon="103.931793">
<ele>455.715088</ele>
<time>2011-04-22T03:43:30Z</time>
<desc>lat.=22.438494, lon.=103.931793, Alt.=455.715088m. Speed=7.056000m/h.</desc>
<speed>1.960000</speed>
</trkpt>
<trkpt lat="22.438471" lon="103.931702">
<ele>456.746338</ele>
<time>2011-04-22T03:43:35Z</time>
<desc>lat.=22.438471, lon.=103.931702, Alt.=456.746338m. Speed=7.380000m/h.</desc>
<speed>2.050000</speed>
</trkpt>
<trkpt lat="22.438437" lon="103.931618">
<ele>458.676025</ele>
<time>2011-04-22T03:43:40Z</time>
<desc>lat.=22.438437, lon.=103.931618, Alt.=458.676025m. Speed=6.624000m/h.</desc>
<speed>1.840000</speed>
</trkpt>
<trkpt lat="22.438387" lon="103.931534">
<ele>459.535400</ele>
<time>2011-04-22T03:43:45Z</time>
<desc>lat.=22.438387, lon.=103.931534, Alt.=459.535400m. Speed=7.956000m/h.</desc>
<speed>2.210000</speed>
</trkpt>
<trkpt lat="22.438324" lon="103.931458">
<ele>459.683838</ele>
<time>2011-04-22T03:43:50Z</time>
<desc>lat.=22.438324, lon.=103.931458, Alt.=459.683838m. Speed=7.596000m/h.</desc>
<speed>2.110000</speed>
</trkpt>
<trkpt lat="22.438265" lon="103.931419">
<ele>460.316650</ele>
<time>2011-04-22T03:43:55Z</time>
<desc>lat.=22.438265, lon.=103.931419, Alt.=460.316650m. Speed=5.796000m/h.</desc>
<speed>1.610000</speed>
</trkpt>
<trkpt lat="22.438190" lon="103.931381">
<ele>459.738525</ele>
<time>2011-04-22T03:44:00Z</time>
<desc>lat.=22.438190, lon.=103.931381, Alt.=459.738525m. Speed=7.272000m/h.</desc>
<speed>2.020000</speed>
</trkpt>
<trkpt lat="22.438120" lon="103.931343">
<ele>461.152588</ele>
<time>2011-04-22T03:44:05Z</time>
<desc>lat.=22.438120, lon.=103.931343, Alt.=461.152588m. Speed=6.444000m/h.</desc>
<speed>1.790000</speed>
</trkpt>
<trkpt lat="22.438036" lon="103.931313">
<ele>461.527588</ele>
<time>2011-04-22T03:44:10Z</time>
<desc>lat.=22.438036, lon.=103.931313, Alt.=461.527588m. Speed=7.308000m/h.</desc>
<speed>2.030000</speed>
</trkpt>
<trkpt lat="22.437948" lon="103.931274">
<ele>462.019775</ele>
<time>2011-04-22T03:44:15Z</time>
<desc>lat.=22.437948, lon.=103.931274, Alt.=462.019775m. Speed=7.884000m/h.</desc>
<speed>2.190000</speed>
</trkpt>
<trkpt lat="22.437855" lon="103.931229">
<ele>462.972900</ele>
<time>2011-04-22T03:44:20Z</time>
<desc>lat.=22.437855, lon.=103.931229, Alt.=462.972900m. Speed=7.920000m/h.</desc>
<speed>2.200000</speed>
</trkpt>
<trkpt lat="22.437773" lon="103.931160">
<ele>464.043213</ele>
<time>2011-04-22T03:44:25Z</time>
<desc>lat.=22.437773, lon.=103.931160, Alt.=464.043213m. Speed=8.064000m/h.</desc>
<speed>2.240000</speed>
</trkpt>
<trkpt lat="22.437719" lon="103.931061">
<ele>464.511963</ele>
<time>2011-04-22T03:44:30Z</time>
<desc>lat.=22.437719, lon.=103.931061, Alt.=464.511963m. Speed=7.488000m/h.</desc>
<speed>2.080000</speed>
</trkpt>
<trkpt lat="22.437714" lon="103.931030">
<ele>464.816650</ele>
<time>2011-04-22T03:44:35Z</time>
<desc>lat.=22.437714, lon.=103.931030, Alt.=464.816650m. Speed=0.072000m/h.</desc>
<speed>0.020000</speed>
</trkpt>
<trkpt lat="22.437714" lon="103.931030">
<ele>464.894775</ele>
<time>2011-04-22T03:44:40Z</time>
<desc>lat.=22.437714, lon.=103.931030, Alt.=464.894775m. Speed=0.144000m/h.</desc>
<speed>0.040000</speed>
</trkpt>
<trkpt lat="22.437714" lon="103.931030">
<ele>464.972900</ele>
<time>2011-04-22T03:44:45Z</time>
<desc>lat.=22.437714, lon.=103.931030, Alt.=464.972900m. Speed=0.180000m/h.</desc>
<speed>0.050000</speed>
</trkpt>
<trkpt lat="22.437716" lon="103.931030">
<ele>464.933838</ele>
<time>2011-04-22T03:44:50Z</time>
<desc>lat.=22.437716, lon.=103.931030, Alt.=464.933838m. Speed=0.036000m/h.</desc>
<speed>0.010000</speed>
</trkpt>
<trkpt lat="22.437714" lon="103.931030">
<ele>464.840088</ele>
<time>2011-04-22T03:44:55Z</time>
<desc>lat.=22.437714, lon.=103.931030, Alt.=464.840088m. Speed=0.072000m/h.</desc>
<speed>0.020000</speed>
</trkpt>
<trkpt lat="22.437716" lon="103.931030">
<ele>464.777588</ele>
<time>2011-04-22T03:45:00Z</time>
<desc>lat.=22.437716, lon.=103.931030, Alt.=464.777588m. Speed=0.036000m/h.</desc>
<speed>0.010000</speed>
</trkpt>
<trkpt lat="22.437717" lon="103.931030">
<ele>464.754150</ele>
<time>2011-04-22T03:45:05Z</time>
<desc>lat.=22.437717, lon.=103.931030, Alt.=464.754150m. Speed=0.324000m/h.</desc>
<speed>0.090000</speed>
</trkpt>
<trkpt lat="22.437717" lon="103.931030">
<ele>464.668213</ele>
<time>2011-04-22T03:45:10Z</time>
<desc>lat.=22.437717, lon.=103.931030, Alt.=464.668213m. Speed=0.036000m/h.</desc>
<speed>0.010000</speed>
</trkpt>
<trkpt lat="22.437717" lon="103.931030">
<ele>464.652588</ele>
<time>2011-04-22T03:45:15Z</time>
<desc>lat.=22.437717, lon.=103.931030, Alt.=464.652588m. Speed=0.072000m/h.</desc>
<speed>0.020000</speed>
</trkpt>
<trkpt lat="22.437717" lon="103.931030">
<ele>464.636963</ele>
<time>2011-04-22T03:45:20Z</time>
<desc>lat.=22.437717, lon.=103.931030, Alt.=464.636963m. Speed=0.000000m/h.</desc>
<speed>0.000000</speed>
</trkpt>
<trkpt lat="22.437717" lon="103.931030">
<ele>464.644775</ele>
<time>2011-04-22T03:45:25Z</time>
<desc>lat.=22.437717, lon.=103.931030, Alt.=464.644775m. Speed=0.000000m/h.</desc>
<speed>0.000000</speed>
</trkpt>
<trkpt lat="22.437719" lon="103.931030">
<ele>464.660400</ele>
<time>2011-04-22T03:45:30Z</time>
<desc>lat.=22.437719, lon.=103.931030, Alt.=464.660400m. Speed=0.000000m/h.</desc>
<speed>0.000000</speed>
</trkpt>
<trkpt lat="22.437719" lon="103.931030">
<ele>464.660400</ele>
<time>2011-04-22T03:45:35Z</time>
<desc>lat.=22.437719, lon.=103.931030, Alt.=464.660400m. Speed=0.000000m/h.</desc>
<speed>0.000000</speed>
</trkpt>
<trkpt lat="22.437719" lon="103.931030">
<ele>464.652588</ele>
<time>2011-04-22T03:45:40Z</time>
<desc>lat.=22.437719, lon.=103.931030, Alt.=464.652588m. Speed=0.036000m/h.</desc>
<speed>0.010000</speed>
</trkpt>
<trkpt lat="22.437719" lon="103.931030">
<ele>464.644775</ele>
<time>2011-04-22T03:45:45Z</time>
<desc>lat.=22.437719, lon.=103.931030, Alt.=464.644775m. Speed=0.252000m/h.</desc>
<speed>0.070000</speed>
</trkpt>
<trkpt lat="22.437716" lon="103.931023">
<ele>464.605713</ele>
<time>2011-04-22T03:45:50Z</time>
<desc>lat.=22.437716, lon.=103.931023, Alt.=464.605713m. Speed=2.952000m/h.</desc>
<speed>0.820000</speed>
</trkpt>
<trkpt lat="22.437727" lon="103.930962">
<ele>465.777588</ele>
<time>2011-04-22T03:45:55Z</time>
<desc>lat.=22.437727, lon.=103.930962, Alt.=465.777588m. Speed=4.932000m/h.</desc>
<speed>1.370000</speed>
</trkpt>
<trkpt lat="22.437765" lon="103.930885">
<ele>467.379150</ele>
<time>2011-04-22T03:46:00Z</time>
<desc>lat.=22.437765, lon.=103.930885, Alt.=467.379150m. Speed=6.120000m/h.</desc>
<speed>1.700000</speed>
</trkpt>
<trkpt lat="22.437815" lon="103.930832">
<ele>469.894775</ele>
<time>2011-04-22T03:46:05Z</time>
<desc>lat.=22.437815, lon.=103.930832, Alt.=469.894775m. Speed=5.616000m/h.</desc>
<speed>1.560000</speed>
</trkpt>
<trkpt lat="22.437857" lon="103.930771">
<ele>471.082275</ele>
<time>2011-04-22T03:46:10Z</time>
<desc>lat.=22.437857, lon.=103.930771, Alt.=471.082275m. Speed=4.392000m/h.</desc>
<speed>1.220000</speed>
</trkpt>
<trkpt lat="22.437895" lon="103.930717">
<ele>472.105713</ele>
<time>2011-04-22T03:46:15Z</time>
<desc>lat.=22.437895, lon.=103.930717, Alt.=472.105713m. Speed=5.112000m/h.</desc>
<speed>1.420000</speed>
</trkpt>
<trkpt lat="22.437948" lon="103.930672">
<ele>473.652588</ele>
<time>2011-04-22T03:46:20Z</time>
<desc>lat.=22.437948, lon.=103.930672, Alt.=473.652588m. Speed=4.896000m/h.</desc>
<speed>1.360000</speed>
</trkpt>
<trkpt lat="22.437988" lon="103.930634">
<ele>474.926025</ele>
<time>2011-04-22T03:46:25Z</time>
<desc>lat.=22.437988, lon.=103.930634, Alt.=474.926025m. Speed=4.788000m/h.</desc>
<speed>1.330000</speed>
</trkpt>
<trkpt lat="22.438025" lon="103.930580">
<ele>476.519775</ele>
<time>2011-04-22T03:46:30Z</time>
<desc>lat.=22.438025, lon.=103.930580, Alt.=476.519775m. Speed=5.004000m/h.</desc>
<speed>1.390000</speed>
</trkpt>
<trkpt lat="22.438070" lon="103.930534">
<ele>477.699463</ele>
<time>2011-04-22T03:46:35Z</time>
<desc>lat.=22.438070, lon.=103.930534, Alt.=477.699463m. Speed=4.860000m/h.</desc>
<speed>1.350000</speed>
</trkpt>
<trkpt lat="22.438105" lon="103.930473">
<ele>479.160400</ele>
<time>2011-04-22T03:46:40Z</time>
<desc>lat.=22.438105, lon.=103.930473, Alt.=479.160400m. Speed=5.508000m/h.</desc>
<speed>1.530000</speed>
</trkpt>
<trkpt lat="22.438133" lon="103.930420">
<ele>480.261963</ele>
<time>2011-04-22T03:46:45Z</time>
<desc>lat.=22.438133, lon.=103.930420, Alt.=480.261963m. Speed=4.932000m/h.</desc>
<speed>1.370000</speed>
</trkpt>
<trkpt lat="22.438194" lon="103.930374">
<ele>481.340088</ele>
<time>2011-04-22T03:46:50Z</time>
<desc>lat.=22.438194, lon.=103.930374, Alt.=481.340088m. Speed=5.004000m/h.</desc>
<speed>1.390000</speed>
</trkpt>
<trkpt lat="22.438236" lon="103.930321">
<ele>482.668213</ele>
<time>2011-04-22T03:46:55Z</time>
<desc>lat.=22.438236, lon.=103.930321, Alt.=482.668213m. Speed=5.796000m/h.</desc>
<speed>1.610000</speed>
</trkpt>
<trkpt lat="22.438278" lon="103.930283">
<ele>484.222900</ele>
<time>2011-04-22T03:47:00Z</time>
<desc>lat.=22.438278, lon.=103.930283, Alt.=484.222900m. Speed=2.340000m/h.</desc>
<speed>0.650000</speed>
</trkpt>
<trkpt lat="22.438286" lon="103.930275">
<ele>484.777588</ele>
<time>2011-04-22T03:47:05Z</time>
<desc>lat.=22.438286, lon.=103.930275, Alt.=484.777588m. Speed=0.144000m/h.</desc>
<speed>0.040000</speed>
</trkpt>
<trkpt lat="22.438288" lon="103.930283">
<ele>484.894775</ele>
<time>2011-04-22T03:47:10Z</time>
<desc>lat.=22.438288, lon.=103.930283, Alt.=484.894775m. Speed=0.288000m/h.</desc>
<speed>0.080000</speed>
</trkpt>
<trkpt lat="22.438288" lon="103.930283">
<ele>484.941650</ele>
<time>2011-04-22T03:47:15Z</time>
<desc>lat.=22.438288, lon.=103.930283, Alt.=484.941650m. Speed=0.324000m/h.</desc>
<speed>0.090000</speed>
</trkpt>
<trkpt lat="22.438284" lon="103.930283">
<ele>484.965088</ele>
<time>2011-04-22T03:47:20Z</time>
<desc>lat.=22.438284, lon.=103.930283, Alt.=484.965088m. Speed=0.252000m/h.</desc>
<speed>0.070000</speed>
</trkpt>
<trkpt lat="22.438278" lon="103.930283">
<ele>484.996338</ele>
<time>2011-04-22T03:47:25Z</time>
<desc>lat.=22.438278, lon.=103.930283, Alt.=484.996338m. Speed=0.432000m/h.</desc>
<speed>0.120000</speed>
</trkpt>
<trkpt lat="22.438274" lon="103.930283">
<ele>485.019775</ele>
<time>2011-04-22T03:47:30Z</time>
<desc>lat.=22.438274, lon.=103.930283, Alt.=485.019775m. Speed=0.216000m/h.</desc>
<speed>0.060000</speed>
</trkpt>
<trkpt lat="22.438272" lon="103.930283">
<ele>485.074463</ele>
<time>2011-04-22T03:47:35Z</time>
<desc>lat.=22.438272, lon.=103.930283, Alt.=485.074463m. Speed=0.180000m/h.</desc>
<speed>0.050000</speed>
</trkpt>
<trkpt lat="22.438276" lon="103.930283">
<ele>485.371338</ele>
<time>2011-04-22T03:47:40Z</time>
<desc>lat.=22.438276, lon.=103.930283, Alt.=485.371338m. Speed=0.252000m/h.</desc>
<speed>0.070000</speed>
</trkpt>
<trkpt lat="22.438280" lon="103.930283">
<ele>485.941650</ele>
<time>2011-04-22T03:47:45Z</time>
<desc>lat.=22.438280, lon.=103.930283, Alt.=485.941650m. Speed=0.360000m/h.</desc>
<speed>0.100000</speed>
</trkpt>
<trkpt lat="22.438286" lon="103.930275">
<ele>486.863525</ele>
<time>2011-04-22T03:47:50Z</time>
<desc>lat.=22.438286, lon.=103.930275, Alt.=486.863525m. Speed=0.576000m/h.</desc>
<speed>0.160000</speed>
</trkpt>
<trkpt lat="22.438293" lon="103.930275">
<ele>487.972900</ele>
<time>2011-04-22T03:47:55Z</time>
<desc>lat.=22.438293, lon.=103.930275, Alt.=487.972900m. Speed=0.540000m/h.</desc>
<speed>0.150000</speed>
</trkpt>
<trkpt lat="22.438299" lon="103.930275">
<ele>489.097900</ele>
<time>2011-04-22T03:48:00Z</time>
<desc>lat.=22.438299, lon.=103.930275, Alt.=489.097900m. Speed=0.504000m/h.</desc>
<speed>0.140000</speed>
</trkpt>
<trkpt lat="22.438305" lon="103.930267">
<ele>490.285400</ele>
<time>2011-04-22T03:48:05Z</time>
<desc>lat.=22.438305, lon.=103.930267, Alt.=490.285400m. Speed=0.576000m/h.</desc>
<speed>0.160000</speed>
</trkpt>
<trkpt lat="22.438313" lon="103.930260">
<ele>491.605713</ele>
<time>2011-04-22T03:48:10Z</time>
<desc>lat.=22.438313, lon.=103.930260, Alt.=491.605713m. Speed=0.864000m/h.</desc>
<speed>0.240000</speed>
</trkpt>
<trkpt lat="22.438320" lon="103.930252">
<ele>493.004150</ele>
<time>2011-04-22T03:48:15Z</time>
<desc>lat.=22.438320, lon.=103.930252, Alt.=493.004150m. Speed=0.936000m/h.</desc>
<speed>0.260000</speed>
</trkpt>
<trkpt lat="22.438326" lon="103.930237">
<ele>494.449463</ele>
<time>2011-04-22T03:48:20Z</time>
<desc>lat.=22.438326, lon.=103.930237, Alt.=494.449463m. Speed=1.008000m/h.</desc>
<speed>0.280000</speed>
</trkpt>
<trkpt lat="22.438337" lon="103.930222">
<ele>496.152588</ele>
<time>2011-04-22T03:48:25Z</time>
<desc>lat.=22.438337, lon.=103.930222, Alt.=496.152588m. Speed=1.080000m/h.</desc>
<speed>0.300000</speed>
</trkpt>
<trkpt lat="22.438343" lon="103.930199">
<ele>497.801025</ele>
<time>2011-04-22T03:48:30Z</time>
<desc>lat.=22.438343, lon.=103.930199, Alt.=497.801025m. Speed=0.900000m/h.</desc>
<speed>0.250000</speed>
</trkpt>
<trkpt lat="22.438339" lon="103.930191">
<ele>499.347900</ele>
<time>2011-04-22T03:48:35Z</time>
<desc>lat.=22.438339, lon.=103.930191, Alt.=499.347900m. Speed=0.684000m/h.</desc>
<speed>0.190000</speed>
</trkpt>
<trkpt lat="22.438339" lon="103.930183">
<ele>500.855713</ele>
<time>2011-04-22T03:48:40Z</time>
<desc>lat.=22.438339, lon.=103.930183, Alt.=500.855713m. Speed=0.360000m/h.</desc>
<speed>0.100000</speed>
</trkpt>
<trkpt lat="22.438276" lon="103.930183">
<ele>502.504150</ele>
<time>2011-04-22T03:48:45Z</time>
<desc>lat.=22.438276, lon.=103.930183, Alt.=502.504150m. Speed=1.908000m/h.</desc>
<speed>0.530000</speed>
</trkpt>
<trkpt lat="22.438225" lon="103.930191">
<ele>503.816650</ele>
<time>2011-04-22T03:48:50Z</time>
<desc>lat.=22.438225, lon.=103.930191, Alt.=503.816650m. Speed=1.908000m/h.</desc>
<speed>0.530000</speed>
</trkpt>
<trkpt lat="22.438213" lon="103.930199">
<ele>504.738525</ele>
<time>2011-04-22T03:48:55Z</time>
<desc>lat.=22.438213, lon.=103.930199, Alt.=504.738525m. Speed=1.368000m/h.</desc>
<speed>0.380000</speed>
</trkpt>
<trkpt lat="22.438200" lon="103.930214">
<ele>505.590088</ele>
<time>2011-04-22T03:49:00Z</time>
<desc>lat.=22.438200, lon.=103.930214, Alt.=505.590088m. Speed=1.368000m/h.</desc>
<speed>0.380000</speed>
</trkpt>
<trkpt lat="22.438164" lon="103.930229">
<ele>507.597900</ele>
<time>2011-04-22T03:49:05Z</time>
<desc>lat.=22.438164, lon.=103.930229, Alt.=507.597900m. Speed=1.368000m/h.</desc>
<speed>0.380000</speed>
</trkpt>
<trkpt lat="22.438122" lon="103.930267">
<ele>509.316650</ele>
<time>2011-04-22T03:49:10Z</time>
<desc>lat.=22.438122, lon.=103.930267, Alt.=509.316650m. Speed=1.728000m/h.</desc>
<speed>0.480000</speed>
</trkpt>
<trkpt lat="22.438097" lon="103.930260">
<ele>511.644775</ele>
<time>2011-04-22T03:49:15Z</time>
<desc>lat.=22.438097, lon.=103.930260, Alt.=511.644775m. Speed=1.224000m/h.</desc>
<speed>0.340000</speed>
</trkpt>
<trkpt lat="22.438089" lon="103.930237">
<ele>513.805176</ele>
<time>2011-04-22T03:49:20Z</time>
<desc>lat.=22.438089, lon.=103.930237, Alt.=513.805176m. Speed=0.720000m/h.</desc>
<speed>0.200000</speed>
</trkpt>
<trkpt lat="22.438105" lon="103.930244">
<ele>515.273926</ele>
<time>2011-04-22T03:49:25Z</time>
<desc>lat.=22.438105, lon.=103.930244, Alt.=515.273926m. Speed=0.144000m/h.</desc>
<speed>0.040000</speed>
</trkpt>
<trkpt lat="22.438105" lon="103.930244">
<ele>516.680176</ele>
<time>2011-04-22T03:49:30Z</time>
<desc>lat.=22.438105, lon.=103.930244, Alt.=516.680176m. Speed=0.324000m/h.</desc>
<speed>0.090000</speed>
</trkpt>
<trkpt lat="22.438110" lon="103.930244">
<ele>518.055176</ele>
<time>2011-04-22T03:49:35Z</time>
<desc>lat.=22.438110, lon.=103.930244, Alt.=518.055176m. Speed=0.396000m/h.</desc>
<speed>0.110000</speed>
</trkpt>
<trkpt lat="22.438112" lon="103.930252">
<ele>519.367676</ele>
<time>2011-04-22T03:49:40Z</time>
<desc>lat.=22.438112, lon.=103.930252, Alt.=519.367676m. Speed=0.432000m/h.</desc>
<speed>0.120000</speed>
</trkpt>
<trkpt lat="22.438114" lon="103.930260">
<ele>520.617676</ele>
<time>2011-04-22T03:49:45Z</time>
<desc>lat.=22.438114, lon.=103.930260, Alt.=520.617676m. Speed=0.720000m/h.</desc>
<speed>0.200000</speed>
</trkpt>
<trkpt lat="22.438116" lon="103.930267">
<ele>521.758301</ele>
<time>2011-04-22T03:49:50Z</time>
<desc>lat.=22.438116, lon.=103.930267, Alt.=521.758301m. Speed=0.576000m/h.</desc>
<speed>0.160000</speed>
</trkpt>
<trkpt lat="22.438122" lon="103.930275">
<ele>522.867676</ele>
<time>2011-04-22T03:49:55Z</time>
<desc>lat.=22.438122, lon.=103.930275, Alt.=522.867676m. Speed=0.720000m/h.</desc>
<speed>0.200000</speed>
</trkpt>
<trkpt lat="22.438141" lon="103.930298">
<ele>522.680176</ele>
<time>2011-04-22T03:50:00Z</time>
<desc>lat.=22.438141, lon.=103.930298, Alt.=522.680176m. Speed=1.116000m/h.</desc>
<speed>0.310000</speed>
</trkpt>
<trkpt lat="22.438126" lon="103.930321">
<ele>522.070801</ele>
<time>2011-04-22T03:50:05Z</time>
<desc>lat.=22.438126, lon.=103.930321, Alt.=522.070801m. Speed=0.576000m/h.</desc>
<speed>0.160000</speed>
</trkpt>
<trkpt lat="22.438126" lon="103.930328">
<ele>522.898926</ele>
<time>2011-04-22T03:50:10Z</time>
<desc>lat.=22.438126, lon.=103.930328, Alt.=522.898926m. Speed=0.612000m/h.</desc>
<speed>0.170000</speed>
</trkpt>
<trkpt lat="22.438126" lon="103.930336">
<ele>523.680176</ele>
<time>2011-04-22T03:50:15Z</time>
<desc>lat.=22.438126, lon.=103.930336, Alt.=523.680176m. Speed=0.504000m/h.</desc>
<speed>0.140000</speed>
</trkpt>
<trkpt lat="22.438131" lon="103.930344">
<ele>524.336426</ele>
<time>2011-04-22T03:50:20Z</time>
<desc>lat.=22.438131, lon.=103.930344, Alt.=524.336426m. Speed=0.936000m/h.</desc>
<speed>0.260000</speed>
</trkpt>
<trkpt lat="22.438139" lon="103.930351">
<ele>524.883301</ele>
<time>2011-04-22T03:50:25Z</time>
<desc>lat.=22.438139, lon.=103.930351, Alt.=524.883301m. Speed=0.792000m/h.</desc>
<speed>0.220000</speed>
</trkpt>
<trkpt lat="22.438196" lon="103.930351">
<ele>523.273926</ele>
<time>2011-04-22T03:50:30Z</time>
<desc>lat.=22.438196, lon.=103.930351, Alt.=523.273926m. Speed=1.332000m/h.</desc>
<speed>0.370000</speed>
</trkpt>
<trkpt lat="22.438269" lon="103.930374">
<ele>518.258301</ele>
<time>2011-04-22T03:50:35Z</time>
<desc>lat.=22.438269, lon.=103.930374, Alt.=518.258301m. Speed=1.080000m/h.</desc>
<speed>0.300000</speed>
</trkpt>
<trkpt lat="22.438276" lon="103.930344">
<ele>516.461426</ele>
<time>2011-04-22T03:50:40Z</time>
<desc>lat.=22.438276, lon.=103.930344, Alt.=516.461426m. Speed=0.612000m/h.</desc>
<speed>0.170000</speed>
</trkpt>
<trkpt lat="22.438284" lon="103.930344">
<ele>516.336426</ele>
<time>2011-04-22T03:50:45Z</time>
<desc>lat.=22.438284, lon.=103.930344, Alt.=516.336426m. Speed=0.288000m/h.</desc>
<speed>0.080000</speed>
</trkpt>
<trkpt lat="22.438288" lon="103.930336">
<ele>515.914551</ele>
<time>2011-04-22T03:50:50Z</time>
<desc>lat.=22.438288, lon.=103.930336, Alt.=515.914551m. Speed=0.144000m/h.</desc>
<speed>0.040000</speed>
</trkpt>
<trkpt lat="22.438292" lon="103.930336">
<ele>515.320801</ele>
<time>2011-04-22T03:50:55Z</time>
<desc>lat.=22.438292, lon.=103.930336, Alt.=515.320801m. Speed=0.396000m/h.</desc>
<speed>0.110000</speed>
</trkpt>
<trkpt lat="22.438292" lon="103.930328">
<ele>514.711426</ele>
<time>2011-04-22T03:51:00Z</time>
<desc>lat.=22.438292, lon.=103.930328, Alt.=514.711426m. Speed=0.108000m/h.</desc>
<speed>0.030000</speed>
</trkpt>
<trkpt lat="22.438292" lon="103.930328">
<ele>514.008301</ele>
<time>2011-04-22T03:51:05Z</time>
<desc>lat.=22.438292, lon.=103.930328, Alt.=514.008301m. Speed=0.072000m/h.</desc>
<speed>0.020000</speed>
</trkpt>
<trkpt lat="22.438288" lon="103.930328">
<ele>513.352051</ele>
<time>2011-04-22T03:51:10Z</time>
<desc>lat.=22.438288, lon.=103.930328, Alt.=513.352051m. Speed=0.216000m/h.</desc>
<speed>0.060000</speed>
</trkpt>
<trkpt lat="22.438286" lon="103.930328">
<ele>512.758301</ele>
<time>2011-04-22T03:51:15Z</time>
<desc>lat.=22.438286, lon.=103.930328, Alt.=512.758301m. Speed=0.360000m/h.</desc>
<speed>0.100000</speed>
</trkpt>
<trkpt lat="22.438284" lon="103.930328">
<ele>512.180176</ele>
<time>2011-04-22T03:51:20Z</time>
<desc>lat.=22.438284, lon.=103.930328, Alt.=512.180176m. Speed=0.288000m/h.</desc>
<speed>0.080000</speed>
</trkpt>
<trkpt lat="22.438286" lon="103.930321">
<ele>511.621338</ele>
<time>2011-04-22T03:51:25Z</time>
<desc>lat.=22.438286, lon.=103.930321, Alt.=511.621338m. Speed=0.504000m/h.</desc>
<speed>0.140000</speed>
</trkpt>
<trkpt lat="22.438288" lon="103.930313">
<ele>511.051025</ele>
<time>2011-04-22T03:51:30Z</time>
<desc>lat.=22.438288, lon.=103.930313, Alt.=511.051025m. Speed=0.324000m/h.</desc>
<speed>0.090000</speed>
</trkpt>
<trkpt lat="22.438292" lon="103.930305">
<ele>510.457275</ele>
<time>2011-04-22T03:51:35Z</time>
<desc>lat.=22.438292, lon.=103.930305, Alt.=510.457275m. Speed=0.360000m/h.</desc>
<speed>0.100000</speed>
</trkpt>
<trkpt lat="22.438293" lon="103.930305">
<ele>509.855713</ele>
<time>2011-04-22T03:51:40Z</time>
<desc>lat.=22.438293, lon.=103.930305, Alt.=509.855713m. Speed=0.360000m/h.</desc>
<speed>0.100000</speed>
</trkpt>
<trkpt lat="22.438293" lon="103.930298">
<ele>509.152588</ele>
<time>2011-04-22T03:51:45Z</time>
<desc>lat.=22.438293, lon.=103.930298, Alt.=509.152588m. Speed=0.108000m/h.</desc>
<speed>0.030000</speed>
</trkpt>
<trkpt lat="22.438295" lon="103.930298">
<ele>508.426025</ele>
<time>2011-04-22T03:51:50Z</time>
<desc>lat.=22.438295, lon.=103.930298, Alt.=508.426025m. Speed=0.108000m/h.</desc>
<speed>0.030000</speed>
</trkpt>
<trkpt lat="22.438293" lon="103.930298">
<ele>507.715088</ele>
<time>2011-04-22T03:51:55Z</time>
<desc>lat.=22.438293, lon.=103.930298, Alt.=507.715088m. Speed=0.360000m/h.</desc>
<speed>0.100000</speed>
</trkpt>
<trkpt lat="22.438292" lon="103.930290">
<ele>507.160400</ele>
<time>2011-04-22T03:52:00Z</time>
<desc>lat.=22.438292, lon.=103.930290, Alt.=507.160400m. Speed=0.360000m/h.</desc>
<speed>0.100000</speed>
</trkpt>
<trkpt lat="22.438290" lon="103.930290">
<ele>506.597900</ele>
<time>2011-04-22T03:52:05Z</time>
<desc>lat.=22.438290, lon.=103.930290, Alt.=506.597900m. Speed=0.288000m/h.</desc>
<speed>0.080000</speed>
</trkpt>
<trkpt lat="22.438288" lon="103.930283">
<ele>506.058838</ele>
<time>2011-04-22T03:52:10Z</time>
<desc>lat.=22.438288, lon.=103.930283, Alt.=506.058838m. Speed=0.360000m/h.</desc>
<speed>0.100000</speed>
</trkpt>
<trkpt lat="22.438286" lon="103.930283">
<ele>505.519775</ele>
<time>2011-04-22T03:52:15Z</time>
<desc>lat.=22.438286, lon.=103.930283, Alt.=505.519775m. Speed=0.072000m/h.</desc>
<speed>0.020000</speed>
</trkpt>
<trkpt lat="22.438286" lon="103.930283">
<ele>504.988525</ele>
<time>2011-04-22T03:52:20Z</time>
<desc>lat.=22.438286, lon.=103.930283, Alt.=504.988525m. Speed=0.288000m/h.</desc>
<speed>0.080000</speed>
</trkpt>
<trkpt lat="22.438284" lon="103.930290">
<ele>504.457275</ele>
<time>2011-04-22T03:52:25Z</time>
<desc>lat.=22.438284, lon.=103.930290, Alt.=504.457275m. Speed=0.108000m/h.</desc>
<speed>0.030000</speed>
</trkpt>
<trkpt lat="22.438282" lon="103.930290">
<ele>504.011963</ele>
<time>2011-04-22T03:52:30Z</time>
<desc>lat.=22.438282, lon.=103.930290, Alt.=504.011963m. Speed=0.288000m/h.</desc>
<speed>0.080000</speed>
</trkpt>
<trkpt lat="22.438274" lon="103.930290">
<ele>503.676025</ele>
<time>2011-04-22T03:52:35Z</time>
<desc>lat.=22.438274, lon.=103.930290, Alt.=503.676025m. Speed=0.576000m/h.</desc>
<speed>0.160000</speed>
</trkpt>
<trkpt lat="22.438265" lon="103.930283">
<ele>503.363525</ele>
<time>2011-04-22T03:52:40Z</time>
<desc>lat.=22.438265, lon.=103.930283, Alt.=503.363525m. Speed=0.864000m/h.</desc>
<speed>0.240000</speed>
</trkpt>
<trkpt lat="22.438242" lon="103.930267">
<ele>503.199463</ele>
<time>2011-04-22T03:52:45Z</time>
<desc>lat.=22.438242, lon.=103.930267, Alt.=503.199463m. Speed=1.296000m/h.</desc>
<speed>0.360000</speed>
</trkpt>
<trkpt lat="22.438198" lon="103.930237">
<ele>504.035400</ele>
<time>2011-04-22T03:52:50Z</time>
<desc>lat.=22.438198, lon.=103.930237, Alt.=504.035400m. Speed=1.260000m/h.</desc>
<speed>0.350000</speed>
</trkpt>
<trkpt lat="22.438179" lon="103.930229">
<ele>504.254150</ele>
<time>2011-04-22T03:52:55Z</time>
<desc>lat.=22.438179, lon.=103.930229, Alt.=504.254150m. Speed=1.188000m/h.</desc>
<speed>0.330000</speed>
</trkpt>
<trkpt lat="22.438183" lon="103.930222">
<ele>504.449463</ele>
<time>2011-04-22T03:53:00Z</time>
<desc>lat.=22.438183, lon.=103.930222, Alt.=504.449463m. Speed=0.756000m/h.</desc>
<speed>0.210000</speed>
</trkpt>
<trkpt lat="22.438181" lon="103.930222">
<ele>504.058838</ele>
<time>2011-04-22T03:53:05Z</time>
<desc>lat.=22.438181, lon.=103.930222, Alt.=504.058838m. Speed=0.504000m/h.</desc>
<speed>0.140000</speed>
</trkpt>
<trkpt lat="22.438177" lon="103.930214">
<ele>503.808838</ele>
<time>2011-04-22T03:53:10Z</time>
<desc>lat.=22.438177, lon.=103.930214, Alt.=503.808838m. Speed=0.720000m/h.</desc>
<speed>0.200000</speed>
</trkpt>
<trkpt lat="22.438175" lon="103.930206">
<ele>503.543213</ele>
<time>2011-04-22T03:53:15Z</time>
<desc>lat.=22.438175, lon.=103.930206, Alt.=503.543213m. Speed=0.036000m/h.</desc>
<speed>0.010000</speed>
</trkpt>
<trkpt lat="22.438175" lon="103.930206">
<ele>503.301025</ele>
<time>2011-04-22T03:53:20Z</time>
<desc>lat.=22.438175, lon.=103.930206, Alt.=503.301025m. Speed=0.108000m/h.</desc>
<speed>0.030000</speed>
</trkpt>
<trkpt lat="22.438175" lon="103.930206">
<ele>503.082275</ele>
<time>2011-04-22T03:53:25Z</time>
<desc>lat.=22.438175, lon.=103.930206, Alt.=503.082275m. Speed=0.144000m/h.</desc>
<speed>0.040000</speed>
</trkpt>
<trkpt lat="22.438175" lon="103.930206">
<ele>502.855713</ele>
<time>2011-04-22T03:53:30Z</time>
<desc>lat.=22.438175, lon.=103.930206, Alt.=502.855713m. Speed=0.072000m/h.</desc>
<speed>0.020000</speed>
</trkpt>
<trkpt lat="22.438177" lon="103.930206">
<ele>502.621338</ele>
<time>2011-04-22T03:53:35Z</time>
<desc>lat.=22.438177, lon.=103.930206, Alt.=502.621338m. Speed=0.468000m/h.</desc>
<speed>0.130000</speed>
</trkpt>
<trkpt lat="22.438183" lon="103.930206">
<ele>502.410400</ele>
<time>2011-04-22T03:53:40Z</time>
<desc>lat.=22.438183, lon.=103.930206, Alt.=502.410400m. Speed=0.216000m/h.</desc>
<speed>0.060000</speed>
</trkpt>
<trkpt lat="22.438206" lon="103.930206">
<ele>501.918213</ele>
<time>2011-04-22T03:53:45Z</time>
<desc>lat.=22.438206, lon.=103.930206, Alt.=501.918213m. Speed=0.612000m/h.</desc>
<speed>0.170000</speed>
</trkpt>
<trkpt lat="22.438221" lon="103.930206">
<ele>501.715088</ele>
<time>2011-04-22T03:53:50Z</time>
<desc>lat.=22.438221, lon.=103.930206, Alt.=501.715088m. Speed=2.484000m/h.</desc>
<speed>0.690000</speed>
</trkpt>
<trkpt lat="22.438272" lon="103.930168">
<ele>500.715088</ele>
<time>2011-04-22T03:53:55Z</time>
<desc>lat.=22.438272, lon.=103.930168, Alt.=500.715088m. Speed=6.156000m/h.</desc>
<speed>1.710000</speed>
</trkpt>
<trkpt lat="22.438297" lon="103.930138">
<ele>498.027588</ele>
<time>2011-04-22T03:54:00Z</time>
<desc>lat.=22.438297, lon.=103.930138, Alt.=498.027588m. Speed=4.644000m/h.</desc>
<speed>1.290000</speed>
</trkpt>
<trkpt lat="22.438324" lon="103.930084">
<ele>494.793213</ele>
<time>2011-04-22T03:54:05Z</time>
<desc>lat.=22.438324, lon.=103.930084, Alt.=494.793213m. Speed=5.616000m/h.</desc>
<speed>1.560000</speed>
</trkpt>
<trkpt lat="22.438337" lon="103.930016">
<ele>492.894775</ele>
<time>2011-04-22T03:54:10Z</time>
<desc>lat.=22.438337, lon.=103.930016, Alt.=492.894775m. Speed=5.688000m/h.</desc>
<speed>1.580000</speed>
</trkpt>
<trkpt lat="22.438354" lon="103.929947">
<ele>491.590088</ele>
<time>2011-04-22T03:54:15Z</time>
<desc>lat.=22.438354, lon.=103.929947, Alt.=491.590088m. Speed=5.148000m/h.</desc>
<speed>1.430000</speed>
</trkpt>
<trkpt lat="22.438374" lon="103.929886">
<ele>490.980713</ele>
<time>2011-04-22T03:54:20Z</time>
<desc>lat.=22.438374, lon.=103.929886, Alt.=490.980713m. Speed=5.256000m/h.</desc>
<speed>1.460000</speed>
</trkpt>
<trkpt lat="22.438345" lon="103.929832">
<ele>489.957275</ele>
<time>2011-04-22T03:54:25Z</time>
<desc>lat.=22.438345, lon.=103.929832, Alt.=489.957275m. Speed=4.788000m/h.</desc>
<speed>1.330000</speed>
</trkpt>
<trkpt lat="22.438314" lon="103.929771">
<ele>488.355713</ele>
<time>2011-04-22T03:54:30Z</time>
<desc>lat.=22.438314, lon.=103.929771, Alt.=488.355713m. Speed=5.040000m/h.</desc>
<speed>1.400000</speed>
</trkpt>
<trkpt lat="22.438278" lon="103.929726">
<ele>487.605713</ele>
<time>2011-04-22T03:54:35Z</time>
<desc>lat.=22.438278, lon.=103.929726, Alt.=487.605713m. Speed=5.688000m/h.</desc>
<speed>1.580000</speed>
</trkpt>
<trkpt lat="22.438231" lon="103.929688">
<ele>487.379150</ele>
<time>2011-04-22T03:54:40Z</time>
<desc>lat.=22.438231, lon.=103.929688, Alt.=487.379150m. Speed=5.076000m/h.</desc>
<speed>1.410000</speed>
</trkpt>
<trkpt lat="22.438171" lon="103.929665">
<ele>486.926025</ele>
<time>2011-04-22T03:54:45Z</time>
<desc>lat.=22.438171, lon.=103.929665, Alt.=486.926025m. Speed=5.364000m/h.</desc>
<speed>1.490000</speed>
</trkpt>
<trkpt lat="22.438110" lon="103.929642">
<ele>486.386963</ele>
<time>2011-04-22T03:54:50Z</time>
<desc>lat.=22.438110, lon.=103.929642, Alt.=486.386963m. Speed=5.184000m/h.</desc>
<speed>1.440000</speed>
</trkpt>
<trkpt lat="22.438049" lon="103.929634">
<ele>485.457275</ele>
<time>2011-04-22T03:54:55Z</time>
<desc>lat.=22.438049, lon.=103.929634, Alt.=485.457275m. Speed=4.932000m/h.</desc>
<speed>1.370000</speed>
</trkpt>
<trkpt lat="22.437994" lon="103.929619">
<ele>484.543213</ele>
<time>2011-04-22T03:55:00Z</time>
<desc>lat.=22.437994, lon.=103.929619, Alt.=484.543213m. Speed=5.328000m/h.</desc>
<speed>1.480000</speed>
</trkpt>
<trkpt lat="22.437933" lon="103.929596">
<ele>483.222900</ele>
<time>2011-04-22T03:55:05Z</time>
<desc>lat.=22.437933, lon.=103.929596, Alt.=483.222900m. Speed=5.328000m/h.</desc>
<speed>1.480000</speed>
</trkpt>
<trkpt lat="22.437872" lon="103.929581">
<ele>482.472900</ele>
<time>2011-04-22T03:55:10Z</time>
<desc>lat.=22.437872, lon.=103.929581, Alt.=482.472900m. Speed=5.004000m/h.</desc>
<speed>1.390000</speed>
</trkpt>
<trkpt lat="22.437820" lon="103.929558">
<ele>481.886963</ele>
<time>2011-04-22T03:55:15Z</time>
<desc>lat.=22.437820, lon.=103.929558, Alt.=481.886963m. Speed=4.932000m/h.</desc>
<speed>1.370000</speed>
</trkpt>
<trkpt lat="22.437756" lon="103.929535">
<ele>481.613525</ele>
<time>2011-04-22T03:55:20Z</time>
<desc>lat.=22.437756, lon.=103.929535, Alt.=481.613525m. Speed=5.292000m/h.</desc>
<speed>1.470000</speed>
</trkpt>
<trkpt lat="22.437691" lon="103.929527">
<ele>481.535400</ele>
<time>2011-04-22T03:55:25Z</time>
<desc>lat.=22.437691, lon.=103.929527, Alt.=481.535400m. Speed=4.932000m/h.</desc>
<speed>1.370000</speed>
</trkpt>
<trkpt lat="22.437622" lon="103.929512">
<ele>481.644775</ele>
<time>2011-04-22T03:55:30Z</time>
<desc>lat.=22.437622, lon.=103.929512, Alt.=481.644775m. Speed=4.572000m/h.</desc>
<speed>1.270000</speed>
</trkpt>
<trkpt lat="22.437569" lon="103.929489">
<ele>481.355713</ele>
<time>2011-04-22T03:55:35Z</time>
<desc>lat.=22.437569, lon.=103.929489, Alt.=481.355713m. Speed=4.716000m/h.</desc>
<speed>1.310000</speed>
</trkpt>
<trkpt lat="22.437504" lon="103.929489">
<ele>481.402588</ele>
<time>2011-04-22T03:55:40Z</time>
<desc>lat.=22.437504, lon.=103.929489, Alt.=481.402588m. Speed=4.932000m/h.</desc>
<speed>1.370000</speed>
</trkpt>
<trkpt lat="22.437447" lon="103.929466">
<ele>481.457275</ele>
<time>2011-04-22T03:55:45Z</time>
<desc>lat.=22.437447, lon.=103.929466, Alt.=481.457275m. Speed=5.184000m/h.</desc>
<speed>1.440000</speed>
</trkpt>
<trkpt lat="22.437386" lon="103.929443">
<ele>481.676025</ele>
<time>2011-04-22T03:55:50Z</time>
<desc>lat.=22.437386, lon.=103.929443, Alt.=481.676025m. Speed=5.508000m/h.</desc>
<speed>1.530000</speed>
</trkpt>
<trkpt lat="22.437328" lon="103.929436">
<ele>482.730713</ele>
<time>2011-04-22T03:55:55Z</time>
<desc>lat.=22.437328, lon.=103.929436, Alt.=482.730713m. Speed=5.040000m/h.</desc>
<speed>1.400000</speed>
</trkpt>
<trkpt lat="22.437271" lon="103.929428">
<ele>484.043213</ele>
<time>2011-04-22T03:56:00Z</time>
<desc>lat.=22.437271, lon.=103.929428, Alt.=484.043213m. Speed=4.824000m/h.</desc>
<speed>1.340000</speed>
</trkpt>
<trkpt lat="22.437216" lon="103.929405">
<ele>485.699463</ele>
<time>2011-04-22T03:56:05Z</time>
<desc>lat.=22.437216, lon.=103.929405, Alt.=485.699463m. Speed=4.428000m/h.</desc>
<speed>1.230000</speed>
</trkpt>
<trkpt lat="22.437153" lon="103.929398">
<ele>486.293213</ele>
<time>2011-04-22T03:56:10Z</time>
<desc>lat.=22.437153, lon.=103.929398, Alt.=486.293213m. Speed=4.428000m/h.</desc>
<speed>1.230000</speed>
</trkpt>
<trkpt lat="22.437088" lon="103.929390">
<ele>487.769775</ele>
<time>2011-04-22T03:56:15Z</time>
<desc>lat.=22.437088, lon.=103.929390, Alt.=487.769775m. Speed=4.644000m/h.</desc>
<speed>1.290000</speed>
</trkpt>
<trkpt lat="22.437029" lon="103.929390">
<ele>489.277588</ele>
<time>2011-04-22T03:56:20Z</time>
<desc>lat.=22.437029, lon.=103.929390, Alt.=489.277588m. Speed=5.076000m/h.</desc>
<speed>1.410000</speed>
</trkpt>
<trkpt lat="22.436962" lon="103.929390">
<ele>489.691650</ele>
<time>2011-04-22T03:56:25Z</time>
<desc>lat.=22.436962, lon.=103.929390, Alt.=489.691650m. Speed=4.500000m/h.</desc>
<speed>1.250000</speed>
</trkpt>
<trkpt lat="22.436901" lon="103.929390">
<ele>492.144775</ele>
<time>2011-04-22T03:56:30Z</time>
<desc>lat.=22.436901, lon.=103.929390, Alt.=492.144775m. Speed=4.968000m/h.</desc>
<speed>1.380000</speed>
</trkpt>
<trkpt lat="22.436844" lon="103.929375">
<ele>492.933838</ele>
<time>2011-04-22T03:56:35Z</time>
<desc>lat.=22.436844, lon.=103.929375, Alt.=492.933838m. Speed=4.680000m/h.</desc>
<speed>1.300000</speed>
</trkpt>
<trkpt lat="22.436771" lon="103.929375">
<ele>493.199463</ele>
<time>2011-04-22T03:56:40Z</time>
<desc>lat.=22.436771, lon.=103.929375, Alt.=493.199463m. Speed=7.740000m/h.</desc>
<speed>2.150000</speed>
</trkpt>
<trkpt lat="22.436665" lon="103.929382">
<ele>494.035400</ele>
<time>2011-04-22T03:56:45Z</time>
<desc>lat.=22.436665, lon.=103.929382, Alt.=494.035400m. Speed=7.344000m/h.</desc>
<speed>2.040000</speed>
</trkpt>
<trkpt lat="22.436581" lon="103.929367">
<ele>495.035400</ele>
<time>2011-04-22T03:56:50Z</time>
<desc>lat.=22.436581, lon.=103.929367, Alt.=495.035400m. Speed=7.416000m/h.</desc>
<speed>2.060000</speed>
</trkpt>
<trkpt lat="22.436501" lon="103.929329">
<ele>495.738525</ele>
<time>2011-04-22T03:56:55Z</time>
<desc>lat.=22.436501, lon.=103.929329, Alt.=495.738525m. Speed=6.588000m/h.</desc>
<speed>1.830000</speed>
</trkpt>
<trkpt lat="22.436441" lon="103.929283">
<ele>497.058838</ele>
<time>2011-04-22T03:57:00Z</time>
<desc>lat.=22.436441, lon.=103.929283, Alt.=497.058838m. Speed=6.912000m/h.</desc>
<speed>1.920000</speed>
</trkpt>
<trkpt lat="22.436405" lon="103.929207">
<ele>497.683838</ele>
<time>2011-04-22T03:57:05Z</time>
<desc>lat.=22.436405, lon.=103.929207, Alt.=497.683838m. Speed=6.840000m/h.</desc>
<speed>1.900000</speed>
</trkpt>
<trkpt lat="22.436396" lon="103.929108">
<ele>498.496338</ele>
<time>2011-04-22T03:57:10Z</time>
<desc>lat.=22.436396, lon.=103.929108, Alt.=498.496338m. Speed=7.128000m/h.</desc>
<speed>1.980000</speed>
</trkpt>
<trkpt lat="22.436413" lon="103.929016">
<ele>499.527588</ele>
<time>2011-04-22T03:57:15Z</time>
<desc>lat.=22.436413, lon.=103.929016, Alt.=499.527588m. Speed=5.796000m/h.</desc>
<speed>1.610000</speed>
</trkpt>
<trkpt lat="22.436422" lon="103.928932">
<ele>501.355713</ele>
<time>2011-04-22T03:57:20Z</time>
<desc>lat.=22.436422, lon.=103.928932, Alt.=501.355713m. Speed=7.344000m/h.</desc>
<speed>2.040000</speed>
</trkpt>
<trkpt lat="22.436441" lon="103.928833">
<ele>503.832275</ele>
<time>2011-04-22T03:57:25Z</time>
<desc>lat.=22.436441, lon.=103.928833, Alt.=503.832275m. Speed=7.416000m/h.</desc>
<speed>2.060000</speed>
</trkpt>
<trkpt lat="22.436445" lon="103.928734">
<ele>505.605713</ele>
<time>2011-04-22T03:57:30Z</time>
<desc>lat.=22.436445, lon.=103.928734, Alt.=505.605713m. Speed=7.236000m/h.</desc>
<speed>2.010000</speed>
</trkpt>
<trkpt lat="22.436438" lon="103.928635">
<ele>508.246338</ele>
<time>2011-04-22T03:57:35Z</time>
<desc>lat.=22.436438, lon.=103.928635, Alt.=508.246338m. Speed=7.452000m/h.</desc>
<speed>2.070000</speed>
</trkpt>
<trkpt lat="22.436417" lon="103.928535">
<ele>510.324463</ele>
<time>2011-04-22T03:57:40Z</time>
<desc>lat.=22.436417, lon.=103.928535, Alt.=510.324463m. Speed=6.156000m/h.</desc>
<speed>1.710000</speed>
</trkpt>
<trkpt lat="22.436388" lon="103.928452">
<ele>511.910400</ele>
<time>2011-04-22T03:57:45Z</time>
<desc>lat.=22.436388, lon.=103.928452, Alt.=511.910400m. Speed=7.308000m/h.</desc>
<speed>2.030000</speed>
</trkpt>
<trkpt lat="22.436342" lon="103.928360">
<ele>513.477051</ele>
<time>2011-04-22T03:57:50Z</time>
<desc>lat.=22.436342, lon.=103.928360, Alt.=513.477051m. Speed=7.524000m/h.</desc>
<speed>2.090000</speed>
</trkpt>
<trkpt lat="22.436304" lon="103.928268">
<ele>514.352051</ele>
<time>2011-04-22T03:57:55Z</time>
<desc>lat.=22.436304, lon.=103.928268, Alt.=514.352051m. Speed=7.092000m/h.</desc>
<speed>1.970000</speed>
</trkpt>
<trkpt lat="22.436262" lon="103.928200">
<ele>516.102051</ele>
<time>2011-04-22T03:58:00Z</time>
<desc>lat.=22.436262, lon.=103.928200, Alt.=516.102051m. Speed=6.048000m/h.</desc>
<speed>1.680000</speed>
</trkpt>
<trkpt lat="22.436232" lon="103.928116">
<ele>518.539551</ele>
<time>2011-04-22T03:58:05Z</time>
<desc>lat.=22.436232, lon.=103.928116, Alt.=518.539551m. Speed=6.876000m/h.</desc>
<speed>1.910000</speed>
</trkpt>
<trkpt lat="22.436203" lon="103.928024">
<ele>520.914551</ele>
<time>2011-04-22T03:58:10Z</time>
<desc>lat.=22.436203, lon.=103.928024, Alt.=520.914551m. Speed=6.768000m/h.</desc>
<speed>1.880000</speed>
</trkpt>
<trkpt lat="22.436186" lon="103.927933">
<ele>523.086426</ele>
<time>2011-04-22T03:58:15Z</time>
<desc>lat.=22.436186, lon.=103.927933, Alt.=523.086426m. Speed=6.660000m/h.</desc>
<speed>1.850000</speed>
</trkpt>
<trkpt lat="22.436192" lon="103.927902">
<ele>522.961426</ele>
<time>2011-04-22T03:58:20Z</time>
<desc>lat.=22.436192, lon.=103.927902, Alt.=522.961426m. Speed=0.252000m/h.</desc>
<speed>0.070000</speed>
</trkpt>
<trkpt lat="22.436195" lon="103.927895">
<ele>523.789551</ele>
<time>2011-04-22T03:58:25Z</time>
<desc>lat.=22.436195, lon.=103.927895, Alt.=523.789551m. Speed=0.324000m/h.</desc>
<speed>0.090000</speed>
</trkpt>
<trkpt lat="22.436199" lon="103.927895">
<ele>524.586426</ele>
<time>2011-04-22T03:58:30Z</time>
<desc>lat.=22.436199, lon.=103.927895, Alt.=524.586426m. Speed=0.144000m/h.</desc>
<speed>0.040000</speed>
</trkpt>
<trkpt lat="22.436199" lon="103.927895">
<ele>525.289551</ele>
<time>2011-04-22T03:58:35Z</time>
<desc>lat.=22.436199, lon.=103.927895, Alt.=525.289551m. Speed=0.108000m/h.</desc>
<speed>0.030000</speed>
</trkpt>
<trkpt lat="22.436201" lon="103.927895">
<ele>526.008301</ele>
<time>2011-04-22T03:58:40Z</time>
<desc>lat.=22.436201, lon.=103.927895, Alt.=526.008301m. Speed=0.216000m/h.</desc>
<speed>0.060000</speed>
</trkpt>
<trkpt lat="22.436203" lon="103.927887">
<ele>526.695801</ele>
<time>2011-04-22T03:58:45Z</time>
<desc>lat.=22.436203, lon.=103.927887, Alt.=526.695801m. Speed=0.252000m/h.</desc>
<speed>0.070000</speed>
</trkpt>
<trkpt lat="22.436203" lon="103.927879">
<ele>527.258301</ele>
<time>2011-04-22T03:58:50Z</time>
<desc>lat.=22.436203, lon.=103.927879, Alt.=527.258301m. Speed=2.628000m/h.</desc>
<speed>0.730000</speed>
</trkpt>
<trkpt lat="22.436193" lon="103.927803">
<ele>527.180176</ele>
<time>2011-04-22T03:58:55Z</time>
<desc>lat.=22.436193, lon.=103.927803, Alt.=527.180176m. Speed=6.228000m/h.</desc>
<speed>1.730000</speed>
</trkpt>
<trkpt lat="22.436186" lon="103.927719">
<ele>528.180176</ele>
<time>2011-04-22T03:59:00Z</time>
<desc>lat.=22.436186, lon.=103.927719, Alt.=528.180176m. Speed=5.616000m/h.</desc>
<speed>1.560000</speed>
</trkpt>
<trkpt lat="22.436180" lon="103.927635">
<ele>528.898926</ele>
<time>2011-04-22T03:59:05Z</time>
<desc>lat.=22.436180, lon.=103.927635, Alt.=528.898926m. Speed=6.336000m/h.</desc>
<speed>1.760000</speed>
</trkpt>
<trkpt lat="22.436176" lon="103.927544">
<ele>529.289551</ele>
<time>2011-04-22T03:59:10Z</time>
<desc>lat.=22.436176, lon.=103.927544, Alt.=529.289551m. Speed=6.372000m/h.</desc>
<speed>1.770000</speed>
</trkpt>
<trkpt lat="22.436182" lon="103.927460">
<ele>529.680176</ele>
<time>2011-04-22T03:59:15Z</time>
<desc>lat.=22.436182, lon.=103.927460, Alt.=529.680176m. Speed=6.876000m/h.</desc>
<speed>1.910000</speed>
</trkpt>
<trkpt lat="22.436207" lon="103.927353">
<ele>528.477051</ele>
<time>2011-04-22T03:59:20Z</time>
<desc>lat.=22.436207, lon.=103.927353, Alt.=528.477051m. Speed=6.552000m/h.</desc>
<speed>1.820000</speed>
</trkpt>
<trkpt lat="22.436241" lon="103.927261">
<ele>527.664551</ele>
<time>2011-04-22T03:59:25Z</time>
<desc>lat.=22.436241, lon.=103.927261, Alt.=527.664551m. Speed=6.696000m/h.</desc>
<speed>1.860000</speed>
</trkpt>
<trkpt lat="22.436289" lon="103.927185">
<ele>527.242676</ele>
<time>2011-04-22T03:59:30Z</time>
<desc>lat.=22.436289, lon.=103.927185, Alt.=527.242676m. Speed=6.408000m/h.</desc>
<speed>1.780000</speed>
</trkpt>
<trkpt lat="22.436348" lon="103.927116">
<ele>526.414551</ele>
<time>2011-04-22T03:59:35Z</time>
<desc>lat.=22.436348, lon.=103.927116, Alt.=526.414551m. Speed=6.480000m/h.</desc>
<speed>1.800000</speed>
</trkpt>
<trkpt lat="22.436413" lon="103.927048">
<ele>526.930176</ele>
<time>2011-04-22T03:59:40Z</time>
<desc>lat.=22.436413, lon.=103.927048, Alt.=526.930176m. Speed=7.380000m/h.</desc>
<speed>2.050000</speed>
</trkpt>
<trkpt lat="22.436489" lon="103.926971">
<ele>526.789551</ele>
<time>2011-04-22T03:59:45Z</time>
<desc>lat.=22.436489, lon.=103.926971, Alt.=526.789551m. Speed=7.920000m/h.</desc>
<speed>2.200000</speed>
</trkpt>
<trkpt lat="22.436563" lon="103.926910">
<ele>526.742676</ele>
<time>2011-04-22T03:59:50Z</time>
<desc>lat.=22.436563, lon.=103.926910, Alt.=526.742676m. Speed=5.292000m/h.</desc>
<speed>1.470000</speed>
</trkpt>
<trkpt lat="22.436619" lon="103.926857">
<ele>527.352051</ele>
<time>2011-04-22T03:59:55Z</time>
<desc>lat.=22.436619, lon.=103.926857, Alt.=527.352051m. Speed=6.300000m/h.</desc>
<speed>1.750000</speed>
</trkpt>
<trkpt lat="22.436689" lon="103.926796">
<ele>528.273926</ele>
<time>2011-04-22T04:00:00Z</time>
<desc>lat.=22.436689, lon.=103.926796, Alt.=528.273926m. Speed=6.804000m/h.</desc>
<speed>1.890000</speed>
</trkpt>
<trkpt lat="22.436758" lon="103.926727">
<ele>528.836426</ele>
<time>2011-04-22T04:00:05Z</time>
<desc>lat.=22.436758, lon.=103.926727, Alt.=528.836426m. Speed=7.056000m/h.</desc>
<speed>1.960000</speed>
</trkpt>
<trkpt lat="22.436831" lon="103.926666">
<ele>529.852051</ele>
<time>2011-04-22T04:00:10Z</time>
<desc>lat.=22.436831, lon.=103.926666, Alt.=529.852051m. Speed=7.416000m/h.</desc>
<speed>2.060000</speed>
</trkpt>
<trkpt lat="22.436918" lon="103.926620">
<ele>531.555176</ele>
<time>2011-04-22T04:00:15Z</time>
<desc>lat.=22.436918, lon.=103.926620, Alt.=531.555176m. Speed=7.632000m/h.</desc>
<speed>2.120000</speed>
</trkpt>
<trkpt lat="22.437008" lon="103.926582">
<ele>533.305176</ele>
<time>2011-04-22T04:00:20Z</time>
<desc>lat.=22.437008, lon.=103.926582, Alt.=533.305176m. Speed=7.956000m/h.</desc>
<speed>2.210000</speed>
</trkpt>
<trkpt lat="22.437101" lon="103.926552">
<ele>535.508301</ele>
<time>2011-04-22T04:00:25Z</time>
<desc>lat.=22.437101, lon.=103.926552, Alt.=535.508301m. Speed=7.740000m/h.</desc>
<speed>2.150000</speed>
</trkpt>
<trkpt lat="22.437189" lon="103.926529">
<ele>538.805176</ele>
<time>2011-04-22T04:00:30Z</time>
<desc>lat.=22.437189, lon.=103.926529, Alt.=538.805176m. Speed=7.452000m/h.</desc>
<speed>2.070000</speed>
</trkpt>
<trkpt lat="22.437281" lon="103.926498">
<ele>541.680176</ele>
<time>2011-04-22T04:00:35Z</time>
<desc>lat.=22.437281, lon.=103.926498, Alt.=541.680176m. Speed=8.244000m/h.</desc>
<speed>2.290000</speed>
</trkpt>
<trkpt lat="22.437376" lon="103.926468">
<ele>544.305176</ele>
<time>2011-04-22T04:00:40Z</time>
<desc>lat.=22.437376, lon.=103.926468, Alt.=544.305176m. Speed=8.676000m/h.</desc>
<speed>2.410000</speed>
</trkpt>
<trkpt lat="22.437468" lon="103.926407">
<ele>547.242676</ele>
<time>2011-04-22T04:00:45Z</time>
<desc>lat.=22.437468, lon.=103.926407, Alt.=547.242676m. Speed=8.388000m/h.</desc>
<speed>2.330000</speed>
</trkpt>
<trkpt lat="22.437534" lon="103.926338">
<ele>549.336426</ele>
<time>2011-04-22T04:00:50Z</time>
<desc>lat.=22.437534, lon.=103.926338, Alt.=549.336426m. Speed=6.156000m/h.</desc>
<speed>1.710000</speed>
</trkpt>
<trkpt lat="22.437569" lon="103.926292">
<ele>551.492676</ele>
<time>2011-04-22T04:00:55Z</time>
<desc>lat.=22.437569, lon.=103.926292, Alt.=551.492676m. Speed=3.456000m/h.</desc>
<speed>0.960000</speed>
</trkpt>
<trkpt lat="22.437601" lon="103.926224">
<ele>552.477051</ele>
<time>2011-04-22T04:01:00Z</time>
<desc>lat.=22.437601, lon.=103.926224, Alt.=552.477051m. Speed=0.612000m/h.</desc>
<speed>0.170000</speed>
</trkpt>
<trkpt lat="22.437595" lon="103.926216">
<ele>551.492676</ele>
<time>2011-04-22T04:01:05Z</time>
<desc>lat.=22.437595, lon.=103.926216, Alt.=551.492676m. Speed=0.252000m/h.</desc>
<speed>0.070000</speed>
</trkpt>
<trkpt lat="22.437595" lon="103.926216">
<ele>551.680176</ele>
<time>2011-04-22T04:01:10Z</time>
<desc>lat.=22.437595, lon.=103.926216, Alt.=551.680176m. Speed=0.072000m/h.</desc>
<speed>0.020000</speed>
</trkpt>
<trkpt lat="22.437595" lon="103.926216">
<ele>551.727051</ele>
<time>2011-04-22T04:01:15Z</time>
<desc>lat.=22.437595, lon.=103.926216, Alt.=551.727051m. Speed=0.144000m/h.</desc>
<speed>0.040000</speed>
</trkpt>
<trkpt lat="22.437595" lon="103.926216">
<ele>551.680176</ele>
<time>2011-04-22T04:01:20Z</time>
<desc>lat.=22.437595, lon.=103.926216, Alt.=551.680176m. Speed=0.000000m/h.</desc>
<speed>0.000000</speed>
</trkpt>
<trkpt lat="22.437595" lon="103.926216">
<ele>551.680176</ele>
<time>2011-04-22T04:01:25Z</time>
<desc>lat.=22.437595, lon.=103.926216, Alt.=551.680176m. Speed=0.000000m/h.</desc>
<speed>0.000000</speed>
</trkpt>
<trkpt lat="22.437595" lon="103.926216">
<ele>551.648926</ele>
<time>2011-04-22T04:01:30Z</time>
<desc>lat.=22.437595, lon.=103.926216, Alt.=551.648926m. Speed=0.036000m/h.</desc>
<speed>0.010000</speed>
</trkpt>
<trkpt lat="22.437595" lon="103.926216">
<ele>551.633301</ele>
<time>2011-04-22T04:01:35Z</time>
<desc>lat.=22.437595, lon.=103.926216, Alt.=551.633301m. Speed=0.000000m/h.</desc>
<speed>0.000000</speed>
</trkpt>
<trkpt lat="22.437595" lon="103.926216">
<ele>551.602051</ele>
<time>2011-04-22T04:01:40Z</time>
<desc>lat.=22.437595, lon.=103.926216, Alt.=551.602051m. Speed=0.000000m/h.</desc>
<speed>0.000000</speed>
</trkpt>
<trkpt lat="22.437593" lon="103.926216">
<ele>551.570801</ele>
<time>2011-04-22T04:01:45Z</time>
<desc>lat.=22.437593, lon.=103.926216, Alt.=551.570801m. Speed=0.072000m/h.</desc>
<speed>0.020000</speed>
</trkpt>
<trkpt lat="22.437593" lon="103.926216">
<ele>551.555176</ele>
<time>2011-04-22T04:01:50Z</time>
<desc>lat.=22.437593, lon.=103.926216, Alt.=551.555176m. Speed=0.036000m/h.</desc>
<speed>0.010000</speed>
</trkpt>
<trkpt lat="22.437593" lon="103.926216">
<ele>551.539551</ele>
<time>2011-04-22T04:01:55Z</time>
<desc>lat.=22.437593, lon.=103.926216, Alt.=551.539551m. Speed=0.036000m/h.</desc>
<speed>0.010000</speed>
</trkpt>
<trkpt lat="22.437593" lon="103.926216">
<ele>551.508301</ele>
<time>2011-04-22T04:02:00Z</time>
<desc>lat.=22.437593, lon.=103.926216, Alt.=551.508301m. Speed=0.000000m/h.</desc>
<speed>0.000000</speed>
</trkpt>
<trkpt lat="22.437593" lon="103.926216">
<ele>551.477051</ele>
<time>2011-04-22T04:02:05Z</time>
<desc>lat.=22.437593, lon.=103.926216, Alt.=551.477051m. Speed=0.000000m/h.</desc>
<speed>0.000000</speed>
</trkpt>
<trkpt lat="22.437593" lon="103.926216">
<ele>551.445801</ele>
<time>2011-04-22T04:02:10Z</time>
<desc>lat.=22.437593, lon.=103.926216, Alt.=551.445801m. Speed=0.036000m/h.</desc>
<speed>0.010000</speed>
</trkpt>
<trkpt lat="22.437593" lon="103.926216">
<ele>551.414551</ele>
<time>2011-04-22T04:02:15Z</time>
<desc>lat.=22.437593, lon.=103.926216, Alt.=551.414551m. Speed=0.900000m/h.</desc>
<speed>0.250000</speed>
</trkpt>
<trkpt lat="22.437611" lon="103.926193">
<ele>550.586426</ele>
<time>2011-04-22T04:02:20Z</time>
<desc>lat.=22.437611, lon.=103.926193, Alt.=550.586426m. Speed=0.396000m/h.</desc>
<speed>0.110000</speed>
</trkpt>
<trkpt lat="22.437630" lon="103.926170">
<ele>549.805176</ele>
<time>2011-04-22T04:02:25Z</time>
<desc>lat.=22.437630, lon.=103.926170, Alt.=549.805176m. Speed=4.788000m/h.</desc>
<speed>1.330000</speed>
</trkpt>
<trkpt lat="22.437687" lon="103.926094">
<ele>549.539551</ele>
<time>2011-04-22T04:02:30Z</time>
<desc>lat.=22.437687, lon.=103.926094, Alt.=549.539551m. Speed=7.200000m/h.</desc>
<speed>2.000000</speed>
</trkpt>
<trkpt lat="22.437756" lon="103.926025">
<ele>549.352051</ele>
<time>2011-04-22T04:02:35Z</time>
<desc>lat.=22.437756, lon.=103.926025, Alt.=549.352051m. Speed=7.560000m/h.</desc>
<speed>2.100000</speed>
</trkpt>
<trkpt lat="22.437820" lon="103.925957">
<ele>549.523926</ele>
<time>2011-04-22T04:02:40Z</time>
<desc>lat.=22.437820, lon.=103.925957, Alt.=549.523926m. Speed=7.200000m/h.</desc>
<speed>2.000000</speed>
</trkpt>
<trkpt lat="22.437891" lon="103.925903">
<ele>549.023926</ele>
<time>2011-04-22T04:02:45Z</time>
<desc>lat.=22.437891, lon.=103.925903, Alt.=549.023926m. Speed=5.724000m/h.</desc>
<speed>1.590000</speed>
</trkpt>
<trkpt lat="22.437952" lon="103.925858">
<ele>547.867676</ele>
<time>2011-04-22T04:02:50Z</time>
<desc>lat.=22.437952, lon.=103.925858, Alt.=547.867676m. Speed=5.184000m/h.</desc>
<speed>1.440000</speed>
</trkpt>
<trkpt lat="22.438009" lon="103.925819">
<ele>547.273926</ele>
<time>2011-04-22T04:02:55Z</time>
<desc>lat.=22.438009, lon.=103.925819, Alt.=547.273926m. Speed=4.932000m/h.</desc>
<speed>1.370000</speed>
</trkpt>
<trkpt lat="22.438059" lon="103.925766">
<ele>547.180176</ele>
<time>2011-04-22T04:03:00Z</time>
<desc>lat.=22.438059, lon.=103.925766, Alt.=547.180176m. Speed=5.472000m/h.</desc>
<speed>1.520000</speed>
</trkpt>
<trkpt lat="22.438114" lon="103.925720">
<ele>547.039551</ele>
<time>2011-04-22T04:03:05Z</time>
<desc>lat.=22.438114, lon.=103.925720, Alt.=547.039551m. Speed=5.112000m/h.</desc>
<speed>1.420000</speed>
</trkpt>
<trkpt lat="22.438168" lon="103.925667">
<ele>546.398926</ele>
<time>2011-04-22T04:03:10Z</time>
<desc>lat.=22.438168, lon.=103.925667, Alt.=546.398926m. Speed=5.112000m/h.</desc>
<speed>1.420000</speed>
</trkpt>
<trkpt lat="22.438215" lon="103.925613">
<ele>546.070801</ele>
<time>2011-04-22T04:03:15Z</time>
<desc>lat.=22.438215, lon.=103.925613, Alt.=546.070801m. Speed=4.860000m/h.</desc>
<speed>1.350000</speed>
</trkpt>
<trkpt lat="22.438259" lon="103.925552">
<ele>544.773926</ele>
<time>2011-04-22T04:03:20Z</time>
<desc>lat.=22.438259, lon.=103.925552, Alt.=544.773926m. Speed=5.580000m/h.</desc>
<speed>1.550000</speed>
</trkpt>
<trkpt lat="22.438299" lon="103.925491">
<ele>544.258301</ele>
<time>2011-04-22T04:03:25Z</time>
<desc>lat.=22.438299, lon.=103.925491, Alt.=544.258301m. Speed=5.292000m/h.</desc>
<speed>1.470000</speed>
</trkpt>
<trkpt lat="22.438334" lon="103.925438">
<ele>543.570801</ele>
<time>2011-04-22T04:03:30Z</time>
<desc>lat.=22.438334, lon.=103.925438, Alt.=543.570801m. Speed=5.580000m/h.</desc>
<speed>1.550000</speed>
</trkpt>
<trkpt lat="22.438377" lon="103.925392">
<ele>542.711426</ele>
<time>2011-04-22T04:03:35Z</time>
<desc>lat.=22.438377, lon.=103.925392, Alt.=542.711426m. Speed=4.716000m/h.</desc>
<speed>1.310000</speed>
</trkpt>
<trkpt lat="22.438412" lon="103.925339">
<ele>542.805176</ele>
<time>2011-04-22T04:03:40Z</time>
<desc>lat.=22.438412, lon.=103.925339, Alt.=542.805176m. Speed=6.084000m/h.</desc>
<speed>1.690000</speed>
</trkpt>
<trkpt lat="22.438454" lon="103.925278">
<ele>542.586426</ele>
<time>2011-04-22T04:03:45Z</time>
<desc>lat.=22.438454, lon.=103.925278, Alt.=542.586426m. Speed=6.120000m/h.</desc>
<speed>1.700000</speed>
</trkpt>
<trkpt lat="22.438486" lon="103.925201">
<ele>542.758301</ele>
<time>2011-04-22T04:03:50Z</time>
<desc>lat.=22.438486, lon.=103.925201, Alt.=542.758301m. Speed=5.616000m/h.</desc>
<speed>1.560000</speed>
</trkpt>
<trkpt lat="22.438507" lon="103.925133">
<ele>543.961426</ele>
<time>2011-04-22T04:03:55Z</time>
<desc>lat.=22.438507, lon.=103.925133, Alt.=543.961426m. Speed=5.796000m/h.</desc>
<speed>1.610000</speed>
</trkpt>
<trkpt lat="22.438534" lon="103.925049">
<ele>544.336426</ele>
<time>2011-04-22T04:04:00Z</time>
<desc>lat.=22.438534, lon.=103.925049, Alt.=544.336426m. Speed=5.616000m/h.</desc>
<speed>1.560000</speed>
</trkpt>
<trkpt lat="22.438572" lon="103.924973">
<ele>544.461426</ele>
<time>2011-04-22T04:04:05Z</time>
<desc>lat.=22.438572, lon.=103.924973, Alt.=544.461426m. Speed=5.472000m/h.</desc>
<speed>1.520000</speed>
</trkpt>
<trkpt lat="22.438602" lon="103.924889">
<ele>545.023926</ele>
<time>2011-04-22T04:04:10Z</time>
<desc>lat.=22.438602, lon.=103.924889, Alt.=545.023926m. Speed=5.472000m/h.</desc>
<speed>1.520000</speed>
</trkpt>
<trkpt lat="22.438629" lon="103.924812">
<ele>544.773926</ele>
<time>2011-04-22T04:04:15Z</time>
<desc>lat.=22.438629, lon.=103.924812, Alt.=544.773926m. Speed=5.328000m/h.</desc>
<speed>1.480000</speed>
</trkpt>
<trkpt lat="22.438648" lon="103.924728">
<ele>544.852051</ele>
<time>2011-04-22T04:04:20Z</time>
<desc>lat.=22.438648, lon.=103.924728, Alt.=544.852051m. Speed=5.760000m/h.</desc>
<speed>1.600000</speed>
</trkpt>
<trkpt lat="22.438644" lon="103.924629">
<ele>545.211426</ele>
<time>2011-04-22T04:04:25Z</time>
<desc>lat.=22.438644, lon.=103.924629, Alt.=545.211426m. Speed=6.768000m/h.</desc>
<speed>1.880000</speed>
</trkpt>
<trkpt lat="22.438627" lon="103.924538">
<ele>545.164551</ele>
<time>2011-04-22T04:04:30Z</time>
<desc>lat.=22.438627, lon.=103.924538, Alt.=545.164551m. Speed=6.876000m/h.</desc>
<speed>1.910000</speed>
</trkpt>
<trkpt lat="22.438597" lon="103.924469">
<ele>545.070801</ele>
<time>2011-04-22T04:04:35Z</time>
<desc>lat.=22.438597, lon.=103.924469, Alt.=545.070801m. Speed=1.008000m/h.</desc>
<speed>0.280000</speed>
</trkpt>
<trkpt lat="22.438597" lon="103.924461">
<ele>544.430176</ele>
<time>2011-04-22T04:04:40Z</time>
<desc>lat.=22.438597, lon.=103.924461, Alt.=544.430176m. Speed=1.764000m/h.</desc>
<speed>0.490000</speed>
</trkpt>
<trkpt lat="22.438602" lon="103.924446">
<ele>544.805176</ele>
<time>2011-04-22T04:04:45Z</time>
<desc>lat.=22.438602, lon.=103.924446, Alt.=544.805176m. Speed=0.000000m/h.</desc>
<speed>0.000000</speed>
</trkpt>
<trkpt lat="22.438606" lon="103.924446">
<ele>545.039551</ele>
<time>2011-04-22T04:04:50Z</time>
<desc>lat.=22.438606, lon.=103.924446, Alt.=545.039551m. Speed=0.108000m/h.</desc>
<speed>0.030000</speed>
</trkpt>
<trkpt lat="22.438606" lon="103.924454">
<ele>545.070801</ele>
<time>2011-04-22T04:04:55Z</time>
<desc>lat.=22.438606, lon.=103.924454, Alt.=545.070801m. Speed=0.108000m/h.</desc>
<speed>0.030000</speed>
</trkpt>
<trkpt lat="22.438606" lon="103.924454">
<ele>545.055176</ele>
<time>2011-04-22T04:05:00Z</time>
<desc>lat.=22.438606, lon.=103.924454, Alt.=545.055176m. Speed=0.000000m/h.</desc>
<speed>0.000000</speed>
</trkpt>
<trkpt lat="22.438606" lon="103.924446">
<ele>545.070801</ele>
<time>2011-04-22T04:05:05Z</time>
<desc>lat.=22.438606, lon.=103.924446, Alt.=545.070801m. Speed=0.288000m/h.</desc>
<speed>0.080000</speed>
</trkpt>
<trkpt lat="22.438606" lon="103.924446">
<ele>545.117676</ele>
<time>2011-04-22T04:05:10Z</time>
<desc>lat.=22.438606, lon.=103.924446, Alt.=545.117676m. Speed=0.000000m/h.</desc>
<speed>0.000000</speed>
</trkpt>
<trkpt lat="22.438606" lon="103.924454">
<ele>545.133301</ele>
<time>2011-04-22T04:05:15Z</time>
<desc>lat.=22.438606, lon.=103.924454, Alt.=545.133301m. Speed=0.036000m/h.</desc>
<speed>0.010000</speed>
</trkpt>
<trkpt lat="22.438606" lon="103.924454">
<ele>545.148926</ele>
<time>2011-04-22T04:05:20Z</time>
<desc>lat.=22.438606, lon.=103.924454, Alt.=545.148926m. Speed=0.000000m/h.</desc>
<speed>0.000000</speed>
</trkpt>
<trkpt lat="22.438604" lon="103.924454">
<ele>545.164551</ele>
<time>2011-04-22T04:05:25Z</time>
<desc>lat.=22.438604, lon.=103.924454, Alt.=545.164551m. Speed=0.036000m/h.</desc>
<speed>0.010000</speed>
</trkpt>
<trkpt lat="22.438604" lon="103.924454">
<ele>545.164551</ele>
<time>2011-04-22T04:05:30Z</time>
<desc>lat.=22.438604, lon.=103.924454, Alt.=545.164551m. Speed=0.000000m/h.</desc>
<speed>0.000000</speed>
</trkpt>
<trkpt lat="22.438604" lon="103.924454">
<ele>545.180176</ele>
<time>2011-04-22T04:05:35Z</time>
<desc>lat.=22.438604, lon.=103.924454, Alt.=545.180176m. Speed=0.000000m/h.</desc>
<speed>0.000000</speed>
</trkpt>
<trkpt lat="22.438604" lon="103.924454">
<ele>545.211426</ele>
<time>2011-04-22T04:05:40Z</time>
<desc>lat.=22.438604, lon.=103.924454, Alt.=545.211426m. Speed=0.036000m/h.</desc>
<speed>0.010000</speed>
</trkpt>
<trkpt lat="22.438604" lon="103.924454">
<ele>545.227051</ele>
<time>2011-04-22T04:05:45Z</time>
<desc>lat.=22.438604, lon.=103.924454, Alt.=545.227051m. Speed=0.000000m/h.</desc>
<speed>0.000000</speed>
</trkpt>
<trkpt lat="22.438604" lon="103.924454">
<ele>545.227051</ele>
<time>2011-04-22T04:05:50Z</time>
<desc>lat.=22.438604, lon.=103.924454, Alt.=545.227051m. Speed=0.036000m/h.</desc>
<speed>0.010000</speed>
</trkpt>
<trkpt lat="22.438604" lon="103.924454">
<ele>545.227051</ele>
<time>2011-04-22T04:05:55Z</time>
<desc>lat.=22.438604, lon.=103.924454, Alt.=545.227051m. Speed=0.000000m/h.</desc>
<speed>0.000000</speed>
</trkpt>
<trkpt lat="22.438604" lon="103.924454">
<ele>545.258301</ele>
<time>2011-04-22T04:06:00Z</time>
<desc>lat.=22.438604, lon.=103.924454, Alt.=545.258301m. Speed=0.000000m/h.</desc>
<speed>0.000000</speed>
</trkpt>
<trkpt lat="22.438604" lon="103.924454">
<ele>545.258301</ele>
<time>2011-04-22T04:06:05Z</time>
<desc>lat.=22.438604, lon.=103.924454, Alt.=545.258301m. Speed=0.000000m/h.</desc>
<speed>0.000000</speed>
</trkpt>
<trkpt lat="22.438604" lon="103.924454">
<ele>545.289551</ele>
<time>2011-04-22T04:06:10Z</time>
<desc>lat.=22.438604, lon.=103.924454, Alt.=545.289551m. Speed=0.000000m/h.</desc>
<speed>0.000000</speed>
</trkpt>
<trkpt lat="22.438604" lon="103.924454">
<ele>545.320801</ele>
<time>2011-04-22T04:06:15Z</time>
<desc>lat.=22.438604, lon.=103.924454, Alt.=545.320801m. Speed=0.000000m/h.</desc>
<speed>0.000000</speed>
</trkpt>
<trkpt lat="22.438604" lon="103.924454">
<ele>545.336426</ele>
<time>2011-04-22T04:06:20Z</time>
<desc>lat.=22.438604, lon.=103.924454, Alt.=545.336426m. Speed=0.324000m/h.</desc>
<speed>0.090000</speed>
</trkpt>
<trkpt lat="22.438604" lon="103.924454">
<ele>545.336426</ele>
<time>2011-04-22T04:06:25Z</time>
<desc>lat.=22.438604, lon.=103.924454, Alt.=545.336426m. Speed=0.396000m/h.</desc>
<speed>0.110000</speed>
</trkpt>
<trkpt lat="22.438604" lon="103.924454">
<ele>545.352051</ele>
<time>2011-04-22T04:06:30Z</time>
<desc>lat.=22.438604, lon.=103.924454, Alt.=545.352051m. Speed=0.000000m/h.</desc>
<speed>0.000000</speed>
</trkpt>
<trkpt lat="22.438604" lon="103.924454">
<ele>545.367676</ele>
<time>2011-04-22T04:06:35Z</time>
<desc>lat.=22.438604, lon.=103.924454, Alt.=545.367676m. Speed=0.000000m/h.</desc>
<speed>0.000000</speed>
</trkpt>
<trkpt lat="22.438604" lon="103.924454">
<ele>545.352051</ele>
<time>2011-04-22T04:06:40Z</time>
<desc>lat.=22.438604, lon.=103.924454, Alt.=545.352051m. Speed=0.000000m/h.</desc>
<speed>0.000000</speed>
</trkpt>
<trkpt lat="22.438604" lon="103.924454">
<ele>545.383301</ele>
<time>2011-04-22T04:06:45Z</time>
<desc>lat.=22.438604, lon.=103.924454, Alt.=545.383301m. Speed=0.000000m/h.</desc>
<speed>0.000000</speed>
</trkpt>
<trkpt lat="22.438604" lon="103.924454">
<ele>545.398926</ele>
<time>2011-04-22T04:06:50Z</time>
<desc>lat.=22.438604, lon.=103.924454, Alt.=545.398926m. Speed=0.000000m/h.</desc>
<speed>0.000000</speed>
</trkpt>
<trkpt lat="22.438604" lon="103.924454">
<ele>545.398926</ele>
<time>2011-04-22T04:06:55Z</time>
<desc>lat.=22.438604, lon.=103.924454, Alt.=545.398926m. Speed=0.000000m/h.</desc>
<speed>0.000000</speed>
</trkpt>
<trkpt lat="22.438604" lon="103.924454">
<ele>545.367676</ele>
<time>2011-04-22T04:07:00Z</time>
<desc>lat.=22.438604, lon.=103.924454, Alt.=545.367676m. Speed=0.000000m/h.</desc>
<speed>0.000000</speed>
</trkpt>
<trkpt lat="22.438604" lon="103.924454">
<ele>545.367676</ele>
<time>2011-04-22T04:07:05Z</time>
<desc>lat.=22.438604, lon.=103.924454, Alt.=545.367676m. Speed=0.000000m/h.</desc>
<speed>0.000000</speed>
</trkpt>
<trkpt lat="22.438604" lon="103.924454">
<ele>545.367676</ele>
<time>2011-04-22T04:07:10Z</time>
<desc>lat.=22.438604, lon.=103.924454, Alt.=545.367676m. Speed=0.000000m/h.</desc>
<speed>0.000000</speed>
</trkpt>
<trkpt lat="22.438604" lon="103.924454">
<ele>545.367676</ele>
<time>2011-04-22T04:07:15Z</time>
<desc>lat.=22.438604, lon.=103.924454, Alt.=545.367676m. Speed=0.000000m/h.</desc>
<speed>0.000000</speed>
</trkpt>
<trkpt lat="22.438604" lon="103.924454">
<ele>545.383301</ele>
<time>2011-04-22T04:07:20Z</time>
<desc>lat.=22.438604, lon.=103.924454, Alt.=545.383301m. Speed=0.036000m/h.</desc>
<speed>0.010000</speed>
</trkpt>
<trkpt lat="22.438604" lon="103.924454">
<ele>545.383301</ele>
<time>2011-04-22T04:07:25Z</time>
<desc>lat.=22.438604, lon.=103.924454, Alt.=545.383301m. Speed=0.000000m/h.</desc>
<speed>0.000000</speed>
</trkpt>
<trkpt lat="22.438604" lon="103.924454">
<ele>545.414551</ele>
<time>2011-04-22T04:07:30Z</time>
<desc>lat.=22.438604, lon.=103.924454, Alt.=545.414551m. Speed=0.000000m/h.</desc>
<speed>0.000000</speed>
</trkpt>
<trkpt lat="22.438604" lon="103.924454">
<ele>545.430176</ele>
<time>2011-04-22T04:07:35Z</time>
<desc>lat.=22.438604, lon.=103.924454, Alt.=545.430176m. Speed=0.036000m/h.</desc>
<speed>0.010000</speed>
</trkpt>
<trkpt lat="22.438604" lon="103.924454">
<ele>545.445801</ele>
<time>2011-04-22T04:07:40Z</time>
<desc>lat.=22.438604, lon.=103.924454, Alt.=545.445801m. Speed=0.036000m/h.</desc>
<speed>0.010000</speed>
</trkpt>
<trkpt lat="22.438604" lon="103.924454">
<ele>545.461426</ele>
<time>2011-04-22T04:07:45Z</time>
<desc>lat.=22.438604, lon.=103.924454, Alt.=545.461426m. Speed=0.036000m/h.</desc>
<speed>0.010000</speed>
</trkpt>
<trkpt lat="22.438604" lon="103.924454">
<ele>545.492676</ele>
<time>2011-04-22T04:07:50Z</time>
<desc>lat.=22.438604, lon.=103.924454, Alt.=545.492676m. Speed=0.000000m/h.</desc>
<speed>0.000000</speed>
</trkpt>
<trkpt lat="22.438604" lon="103.924454">
<ele>545.492676</ele>
<time>2011-04-22T04:07:55Z</time>
<desc>lat.=22.438604, lon.=103.924454, Alt.=545.492676m. Speed=0.036000m/h.</desc>
<speed>0.010000</speed>
</trkpt>
<trkpt lat="22.438604" lon="103.924454">
<ele>545.492676</ele>
<time>2011-04-22T04:08:00Z</time>
<desc>lat.=22.438604, lon.=103.924454, Alt.=545.492676m. Speed=0.000000m/h.</desc>
<speed>0.000000</speed>
</trkpt>
<trkpt lat="22.438604" lon="103.924454">
<ele>545.523926</ele>
<time>2011-04-22T04:08:05Z</time>
<desc>lat.=22.438604, lon.=103.924454, Alt.=545.523926m. Speed=0.000000m/h.</desc>
<speed>0.000000</speed>
</trkpt>
<trkpt lat="22.438604" lon="103.924454">
<ele>545.539551</ele>
<time>2011-04-22T04:08:10Z</time>
<desc>lat.=22.438604, lon.=103.924454, Alt.=545.539551m. Speed=0.036000m/h.</desc>
<speed>0.010000</speed>
</trkpt>
<trkpt lat="22.438604" lon="103.924454">
<ele>545.555176</ele>
<time>2011-04-22T04:08:15Z</time>
<desc>lat.=22.438604, lon.=103.924454, Alt.=545.555176m. Speed=0.036000m/h.</desc>
<speed>0.010000</speed>
</trkpt>
<trkpt lat="22.438604" lon="103.924454">
<ele>545.586426</ele>
<time>2011-04-22T04:08:20Z</time>
<desc>lat.=22.438604, lon.=103.924454, Alt.=545.586426m. Speed=0.000000m/h.</desc>
<speed>0.000000</speed>
</trkpt>
<trkpt lat="22.438604" lon="103.924454">
<ele>545.617676</ele>
<time>2011-04-22T04:08:25Z</time>
<desc>lat.=22.438604, lon.=103.924454, Alt.=545.617676m. Speed=0.000000m/h.</desc>
<speed>0.000000</speed>
</trkpt>
<trkpt lat="22.438604" lon="103.924454">
<ele>545.664551</ele>
<time>2011-04-22T04:08:30Z</time>
<desc>lat.=22.438604, lon.=103.924454, Alt.=545.664551m. Speed=0.000000m/h.</desc>
<speed>0.000000</speed>
</trkpt>
<trkpt lat="22.438604" lon="103.924454">
<ele>545.695801</ele>
<time>2011-04-22T04:08:35Z</time>
<desc>lat.=22.438604, lon.=103.924454, Alt.=545.695801m. Speed=0.000000m/h.</desc>
<speed>0.000000</speed>
</trkpt>
<trkpt lat="22.438604" lon="103.924454">
<ele>545.727051</ele>
<time>2011-04-22T04:08:40Z</time>
<desc>lat.=22.438604, lon.=103.924454, Alt.=545.727051m. Speed=0.036000m/h.</desc>
<speed>0.010000</speed>
</trkpt>
<trkpt lat="22.438604" lon="103.924454">
<ele>545.773926</ele>
<time>2011-04-22T04:08:45Z</time>
<desc>lat.=22.438604, lon.=103.924454, Alt.=545.773926m. Speed=0.036000m/h.</desc>
<speed>0.010000</speed>
</trkpt>
<trkpt lat="22.438604" lon="103.924454">
<ele>545.836426</ele>
<time>2011-04-22T04:08:50Z</time>
<desc>lat.=22.438604, lon.=103.924454, Alt.=545.836426m. Speed=0.000000m/h.</desc>
<speed>0.000000</speed>
</trkpt>
<trkpt lat="22.438604" lon="103.924454">
<ele>545.867676</ele>
<time>2011-04-22T04:08:55Z</time>
<desc>lat.=22.438604, lon.=103.924454, Alt.=545.867676m. Speed=0.000000m/h.</desc>
<speed>0.000000</speed>
</trkpt>
<trkpt lat="22.438604" lon="103.924454">
<ele>545.898926</ele>
<time>2011-04-22T04:09:00Z</time>
<desc>lat.=22.438604, lon.=103.924454, Alt.=545.898926m. Speed=0.000000m/h.</desc>
<speed>0.000000</speed>
</trkpt>
<trkpt lat="22.438604" lon="103.924454">
<ele>545.930176</ele>
<time>2011-04-22T04:09:05Z</time>
<desc>lat.=22.438604, lon.=103.924454, Alt.=545.930176m. Speed=0.036000m/h.</desc>
<speed>0.010000</speed>
</trkpt>
<trkpt lat="22.438604" lon="103.924454">
<ele>545.945801</ele>
<time>2011-04-22T04:09:10Z</time>
<desc>lat.=22.438604, lon.=103.924454, Alt.=545.945801m. Speed=0.036000m/h.</desc>
<speed>0.010000</speed>
</trkpt>
<trkpt lat="22.438604" lon="103.924454">
<ele>545.961426</ele>
<time>2011-04-22T04:09:15Z</time>
<desc>lat.=22.438604, lon.=103.924454, Alt.=545.961426m. Speed=0.000000m/h.</desc>
<speed>0.000000</speed>
</trkpt>
<trkpt lat="22.438604" lon="103.924454">
<ele>545.992676</ele>
<time>2011-04-22T04:09:20Z</time>
<desc>lat.=22.438604, lon.=103.924454, Alt.=545.992676m. Speed=0.000000m/h.</desc>
<speed>0.000000</speed>
</trkpt>
<trkpt lat="22.438604" lon="103.924454">
<ele>546.008301</ele>
<time>2011-04-22T04:09:25Z</time>
<desc>lat.=22.438604, lon.=103.924454, Alt.=546.008301m. Speed=0.000000m/h.</desc>
<speed>0.000000</speed>
</trkpt>
<trkpt lat="22.438604" lon="103.924454">
<ele>546.023926</ele>
<time>2011-04-22T04:09:30Z</time>
<desc>lat.=22.438604, lon.=103.924454, Alt.=546.023926m. Speed=0.036000m/h.</desc>
<speed>0.010000</speed>
</trkpt>
<trkpt lat="22.438604" lon="103.924454">
<ele>546.070801</ele>
<time>2011-04-22T04:09:35Z</time>
<desc>lat.=22.438604, lon.=103.924454, Alt.=546.070801m. Speed=0.036000m/h.</desc>
<speed>0.010000</speed>
</trkpt>
<trkpt lat="22.438604" lon="103.924446">
<ele>546.133301</ele>
<time>2011-04-22T04:09:40Z</time>
<desc>lat.=22.438604, lon.=103.924446, Alt.=546.133301m. Speed=0.036000m/h.</desc>
<speed>0.010000</speed>
</trkpt>
<trkpt lat="22.438604" lon="103.924446">
<ele>546.195801</ele>
<time>2011-04-22T04:09:45Z</time>
<desc>lat.=22.438604, lon.=103.924446, Alt.=546.195801m. Speed=0.000000m/h.</desc>
<speed>0.000000</speed>
</trkpt>
<trkpt lat="22.438604" lon="103.924446">
<ele>546.242676</ele>
<time>2011-04-22T04:09:50Z</time>
<desc>lat.=22.438604, lon.=103.924446, Alt.=546.242676m. Speed=0.000000m/h.</desc>
<speed>0.000000</speed>
</trkpt>
<trkpt lat="22.438604" lon="103.924446">
<ele>546.289551</ele>
<time>2011-04-22T04:09:55Z</time>
<desc>lat.=22.438604, lon.=103.924446, Alt.=546.289551m. Speed=0.000000m/h.</desc>
<speed>0.000000</speed>
</trkpt>
<trkpt lat="22.438604" lon="103.924446">
<ele>546.320801</ele>
<time>2011-04-22T04:10:00Z</time>
<desc>lat.=22.438604, lon.=103.924446, Alt.=546.320801m. Speed=0.000000m/h.</desc>
<speed>0.000000</speed>
</trkpt>
<trkpt lat="22.438604" lon="103.924446">
<ele>546.367676</ele>
<time>2011-04-22T04:10:05Z</time>
<desc>lat.=22.438604, lon.=103.924446, Alt.=546.367676m. Speed=0.000000m/h.</desc>
<speed>0.000000</speed>
</trkpt>
<trkpt lat="22.438604" lon="103.924446">
<ele>546.398926</ele>
<time>2011-04-22T04:10:10Z</time>
<desc>lat.=22.438604, lon.=103.924446, Alt.=546.398926m. Speed=0.000000m/h.</desc>
<speed>0.000000</speed>
</trkpt>
<trkpt lat="22.438604" lon="103.924446">
<ele>546.445801</ele>
<time>2011-04-22T04:10:15Z</time>
<desc>lat.=22.438604, lon.=103.924446, Alt.=546.445801m. Speed=0.000000m/h.</desc>
<speed>0.000000</speed>
</trkpt>
<trkpt lat="22.438604" lon="103.924446">
<ele>546.477051</ele>
<time>2011-04-22T04:10:20Z</time>
<desc>lat.=22.438604, lon.=103.924446, Alt.=546.477051m. Speed=0.000000m/h.</desc>
<speed>0.000000</speed>
</trkpt>
<trkpt lat="22.438602" lon="103.924446">
<ele>546.477051</ele>
<time>2011-04-22T04:10:25Z</time>
<desc>lat.=22.438602, lon.=103.924446, Alt.=546.477051m. Speed=0.036000m/h.</desc>
<speed>0.010000</speed>
</trkpt>
<trkpt lat="22.438602" lon="103.924454">
<ele>546.492676</ele>
<time>2011-04-22T04:10:30Z</time>
<desc>lat.=22.438602, lon.=103.924454, Alt.=546.492676m. Speed=0.000000m/h.</desc>
<speed>0.000000</speed>
</trkpt>
<trkpt lat="22.438602" lon="103.924454">
<ele>546.523926</ele>
<time>2011-04-22T04:10:35Z</time>
<desc>lat.=22.438602, lon.=103.924454, Alt.=546.523926m. Speed=0.000000m/h.</desc>
<speed>0.000000</speed>
</trkpt>
<trkpt lat="22.438602" lon="103.924454">
<ele>546.555176</ele>
<time>2011-04-22T04:10:40Z</time>
<desc>lat.=22.438602, lon.=103.924454, Alt.=546.555176m. Speed=0.000000m/h.</desc>
<speed>0.000000</speed>
</trkpt>
<trkpt lat="22.438602" lon="103.924454">
<ele>546.570801</ele>
<time>2011-04-22T04:10:45Z</time>
<desc>lat.=22.438602, lon.=103.924454, Alt.=546.570801m. Speed=0.000000m/h.</desc>
<speed>0.000000</speed>
</trkpt>
<trkpt lat="22.438602" lon="103.924454">
<ele>546.602051</ele>
<time>2011-04-22T04:10:50Z</time>
<desc>lat.=22.438602, lon.=103.924454, Alt.=546.602051m. Speed=0.000000m/h.</desc>
<speed>0.000000</speed>
</trkpt>
<trkpt lat="22.438604" lon="103.924454">
<ele>546.633301</ele>
<time>2011-04-22T04:10:55Z</time>
<desc>lat.=22.438604, lon.=103.924454, Alt.=546.633301m. Speed=0.000000m/h.</desc>
<speed>0.000000</speed>
</trkpt>
<trkpt lat="22.438604" lon="103.924454">
<ele>546.648926</ele>
<time>2011-04-22T04:11:00Z</time>
<desc>lat.=22.438604, lon.=103.924454, Alt.=546.648926m. Speed=0.000000m/h.</desc>
<speed>0.000000</speed>
</trkpt>
<trkpt lat="22.438604" lon="103.924454">
<ele>546.664551</ele>
<time>2011-04-22T04:11:05Z</time>
<desc>lat.=22.438604, lon.=103.924454, Alt.=546.664551m. Speed=0.036000m/h.</desc>
<speed>0.010000</speed>
</trkpt>
<trkpt lat="22.438604" lon="103.924454">
<ele>546.695801</ele>
<time>2011-04-22T04:11:10Z</time>
<desc>lat.=22.438604, lon.=103.924454, Alt.=546.695801m. Speed=0.000000m/h.</desc>
<speed>0.000000</speed>
</trkpt>
<trkpt lat="22.438604" lon="103.924454">
<ele>546.727051</ele>
<time>2011-04-22T04:11:15Z</time>
<desc>lat.=22.438604, lon.=103.924454, Alt.=546.727051m. Speed=0.036000m/h.</desc>
<speed>0.010000</speed>
</trkpt>
<trkpt lat="22.438604" lon="103.924454">
<ele>546.805176</ele>
<time>2011-04-22T04:11:20Z</time>
<desc>lat.=22.438604, lon.=103.924454, Alt.=546.805176m. Speed=0.000000m/h.</desc>
<speed>0.000000</speed>
</trkpt>
<trkpt lat="22.438604" lon="103.924446">
<ele>546.867676</ele>
<time>2011-04-22T04:11:25Z</time>
<desc>lat.=22.438604, lon.=103.924446, Alt.=546.867676m. Speed=0.000000m/h.</desc>
<speed>0.000000</speed>
</trkpt>
<trkpt lat="22.438604" lon="103.924446">
<ele>546.945801</ele>
<time>2011-04-22T04:11:30Z</time>
<desc>lat.=22.438604, lon.=103.924446, Alt.=546.945801m. Speed=0.000000m/h.</desc>
<speed>0.000000</speed>
</trkpt>
<trkpt lat="22.438604" lon="103.924446">
<ele>547.008301</ele>
<time>2011-04-22T04:11:35Z</time>
<desc>lat.=22.438604, lon.=103.924446, Alt.=547.008301m. Speed=0.000000m/h.</desc>
<speed>0.000000</speed>
</trkpt>
<trkpt lat="22.438604" lon="103.924446">
<ele>547.055176</ele>
<time>2011-04-22T04:11:40Z</time>
<desc>lat.=22.438604, lon.=103.924446, Alt.=547.055176m. Speed=0.000000m/h.</desc>
<speed>0.000000</speed>
</trkpt>
<trkpt lat="22.438604" lon="103.924446">
<ele>547.102051</ele>
<time>2011-04-22T04:11:45Z</time>
<desc>lat.=22.438604, lon.=103.924446, Alt.=547.102051m. Speed=0.036000m/h.</desc>
<speed>0.010000</speed>
</trkpt>
<trkpt lat="22.438604" lon="103.924446">
<ele>547.164551</ele>
<time>2011-04-22T04:11:50Z</time>
<desc>lat.=22.438604, lon.=103.924446, Alt.=547.164551m. Speed=0.000000m/h.</desc>
<speed>0.000000</speed>
</trkpt>
<trkpt lat="22.438604" lon="103.924446">
<ele>547.211426</ele>
<time>2011-04-22T04:11:55Z</time>
<desc>lat.=22.438604, lon.=103.924446, Alt.=547.211426m. Speed=0.000000m/h.</desc>
<speed>0.000000</speed>
</trkpt>
<trkpt lat="22.438604" lon="103.924446">
<ele>547.227051</ele>
<time>2011-04-22T04:12:00Z</time>
<desc>lat.=22.438604, lon.=103.924446, Alt.=547.227051m. Speed=0.000000m/h.</desc>
<speed>0.000000</speed>
</trkpt>
<trkpt lat="22.438604" lon="103.924446">
<ele>547.227051</ele>
<time>2011-04-22T04:12:05Z</time>
<desc>lat.=22.438604, lon.=103.924446, Alt.=547.227051m. Speed=0.000000m/h.</desc>
<speed>0.000000</speed>
</trkpt>
<trkpt lat="22.438604" lon="103.924446">
<ele>547.258301</ele>
<time>2011-04-22T04:12:10Z</time>
<desc>lat.=22.438604, lon.=103.924446, Alt.=547.258301m. Speed=0.000000m/h.</desc>
<speed>0.000000</speed>
</trkpt>
<trkpt lat="22.438604" lon="103.924446">
<ele>547.305176</ele>
<time>2011-04-22T04:12:15Z</time>
<desc>lat.=22.438604, lon.=103.924446, Alt.=547.305176m. Speed=0.000000m/h.</desc>
<speed>0.000000</speed>
</trkpt>
<trkpt lat="22.438591" lon="103.924438">
<ele>547.852051</ele>
<time>2011-04-22T04:12:20Z</time>
<desc>lat.=22.438591, lon.=103.924438, Alt.=547.852051m. Speed=4.428000m/h.</desc>
<speed>1.230000</speed>
</trkpt>
<trkpt lat="22.438572" lon="103.924431">
<ele>549.055176</ele>
<time>2011-04-22T04:12:25Z</time>
<desc>lat.=22.438572, lon.=103.924431, Alt.=549.055176m. Speed=0.180000m/h.</desc>
<speed>0.050000</speed>
</trkpt>
<trkpt lat="22.438572" lon="103.924431">
<ele>549.242676</ele>
<time>2011-04-22T04:12:30Z</time>
<desc>lat.=22.438572, lon.=103.924431, Alt.=549.242676m. Speed=0.036000m/h.</desc>
<speed>0.010000</speed>
</trkpt>
<trkpt lat="22.438572" lon="103.924431">
<ele>549.336426</ele>
<time>2011-04-22T04:12:35Z</time>
<desc>lat.=22.438572, lon.=103.924431, Alt.=549.336426m. Speed=0.108000m/h.</desc>
<speed>0.030000</speed>
</trkpt>
<trkpt lat="22.438572" lon="103.924431">
<ele>549.477051</ele>
<time>2011-04-22T04:12:40Z</time>
<desc>lat.=22.438572, lon.=103.924431, Alt.=549.477051m. Speed=0.720000m/h.</desc>
<speed>0.200000</speed>
</trkpt>
<trkpt lat="22.438570" lon="103.924431">
<ele>549.414551</ele>
<time>2011-04-22T04:12:45Z</time>
<desc>lat.=22.438570, lon.=103.924431, Alt.=549.414551m. Speed=0.036000m/h.</desc>
<speed>0.010000</speed>
</trkpt>
<trkpt lat="22.438572" lon="103.924431">
<ele>549.305176</ele>
<time>2011-04-22T04:12:50Z</time>
<desc>lat.=22.438572, lon.=103.924431, Alt.=549.305176m. Speed=0.108000m/h.</desc>
<speed>0.030000</speed>
</trkpt>
<trkpt lat="22.438572" lon="103.924431">
<ele>549.305176</ele>
<time>2011-04-22T04:12:55Z</time>
<desc>lat.=22.438572, lon.=103.924431, Alt.=549.305176m. Speed=0.576000m/h.</desc>
<speed>0.160000</speed>
</trkpt>
<trkpt lat="22.438572" lon="103.924431">
<ele>549.305176</ele>
<time>2011-04-22T04:13:00Z</time>
<desc>lat.=22.438572, lon.=103.924431, Alt.=549.305176m. Speed=0.036000m/h.</desc>
<speed>0.010000</speed>
</trkpt>
<trkpt lat="22.438572" lon="103.924431">
<ele>549.305176</ele>
<time>2011-04-22T04:13:05Z</time>
<desc>lat.=22.438572, lon.=103.924431, Alt.=549.305176m. Speed=0.036000m/h.</desc>
<speed>0.010000</speed>
</trkpt>
<trkpt lat="22.438572" lon="103.924431">
<ele>549.305176</ele>
<time>2011-04-22T04:13:10Z</time>
<desc>lat.=22.438572, lon.=103.924431, Alt.=549.305176m. Speed=0.036000m/h.</desc>
<speed>0.010000</speed>
</trkpt>
<trkpt lat="22.438572" lon="103.924431">
<ele>549.320801</ele>
<time>2011-04-22T04:13:15Z</time>
<desc>lat.=22.438572, lon.=103.924431, Alt.=549.320801m. Speed=0.036000m/h.</desc>
<speed>0.010000</speed>
</trkpt>
<trkpt lat="22.438572" lon="103.924431">
<ele>549.305176</ele>
<time>2011-04-22T04:13:20Z</time>
<desc>lat.=22.438572, lon.=103.924431, Alt.=549.305176m. Speed=0.828000m/h.</desc>
<speed>0.230000</speed>
</trkpt>
<trkpt lat="22.438572" lon="103.924431">
<ele>549.430176</ele>
<time>2011-04-22T04:13:25Z</time>
<desc>lat.=22.438572, lon.=103.924431, Alt.=549.430176m. Speed=0.144000m/h.</desc>
<speed>0.040000</speed>
</trkpt>
<trkpt lat="22.438574" lon="103.924431">
<ele>549.430176</ele>
<time>2011-04-22T04:13:30Z</time>
<desc>lat.=22.438574, lon.=103.924431, Alt.=549.430176m. Speed=0.036000m/h.</desc>
<speed>0.010000</speed>
</trkpt>
<trkpt lat="22.438572" lon="103.924431">
<ele>549.445801</ele>
<time>2011-04-22T04:13:35Z</time>
<desc>lat.=22.438572, lon.=103.924431, Alt.=549.445801m. Speed=1.476000m/h.</desc>
<speed>0.410000</speed>
</trkpt>
<trkpt lat="22.438572" lon="103.924431">
<ele>550.133301</ele>
<time>2011-04-22T04:13:40Z</time>
<desc>lat.=22.438572, lon.=103.924431, Alt.=550.133301m. Speed=1.692000m/h.</desc>
<speed>0.470000</speed>
</trkpt>
<trkpt lat="22.438568" lon="103.924423">
<ele>550.039551</ele>
<time>2011-04-22T04:13:45Z</time>
<desc>lat.=22.438568, lon.=103.924423, Alt.=550.039551m. Speed=1.512000m/h.</desc>
<speed>0.420000</speed>
</trkpt>
<trkpt lat="22.438555" lon="103.924408">
<ele>550.336426</ele>
<time>2011-04-22T04:13:50Z</time>
<desc>lat.=22.438555, lon.=103.924408, Alt.=550.336426m. Speed=0.540000m/h.</desc>
<speed>0.150000</speed>
</trkpt>
<trkpt lat="22.438549" lon="103.924408">
<ele>550.414551</ele>
<time>2011-04-22T04:13:55Z</time>
<desc>lat.=22.438549, lon.=103.924408, Alt.=550.414551m. Speed=0.396000m/h.</desc>
<speed>0.110000</speed>
</trkpt>
<trkpt lat="22.438545" lon="103.924408">
<ele>550.477051</ele>
<time>2011-04-22T04:14:00Z</time>
<desc>lat.=22.438545, lon.=103.924408, Alt.=550.477051m. Speed=0.396000m/h.</desc>
<speed>0.110000</speed>
</trkpt>
<trkpt lat="22.438572" lon="103.924416">
<ele>551.602051</ele>
<time>2011-04-22T04:14:05Z</time>
<desc>lat.=22.438572, lon.=103.924416, Alt.=551.602051m. Speed=1.620000m/h.</desc>
<speed>0.450000</speed>
</trkpt>
<trkpt lat="22.438549" lon="103.924385">
<ele>552.664551</ele>
<time>2011-04-22T04:14:10Z</time>
<desc>lat.=22.438549, lon.=103.924385, Alt.=552.664551m. Speed=4.032000m/h.</desc>
<speed>1.120000</speed>
</trkpt>
<trkpt lat="22.438528" lon="103.924377">
<ele>554.320801</ele>
<time>2011-04-22T04:14:15Z</time>
<desc>lat.=22.438528, lon.=103.924377, Alt.=554.320801m. Speed=1.080000m/h.</desc>
<speed>0.300000</speed>
</trkpt>
<trkpt lat="22.438530" lon="103.924370">
<ele>555.539551</ele>
<time>2011-04-22T04:14:20Z</time>
<desc>lat.=22.438530, lon.=103.924370, Alt.=555.539551m. Speed=0.000000m/h.</desc>
<speed>0.000000</speed>
</trkpt>
<trkpt lat="22.438532" lon="103.924370">
<ele>555.883301</ele>
<time>2011-04-22T04:14:25Z</time>
<desc>lat.=22.438532, lon.=103.924370, Alt.=555.883301m. Speed=0.972000m/h.</desc>
<speed>0.270000</speed>
</trkpt>
<trkpt lat="22.438540" lon="103.924385">
<ele>555.680176</ele>
<time>2011-04-22T04:14:30Z</time>
<desc>lat.=22.438540, lon.=103.924385, Alt.=555.680176m. Speed=0.792000m/h.</desc>
<speed>0.220000</speed>
</trkpt>
<trkpt lat="22.438541" lon="103.924393">
<ele>555.445801</ele>
<time>2011-04-22T04:14:35Z</time>
<desc>lat.=22.438541, lon.=103.924393, Alt.=555.445801m. Speed=0.108000m/h.</desc>
<speed>0.030000</speed>
</trkpt>
<trkpt lat="22.438541" lon="103.924393">
<ele>555.477051</ele>
<time>2011-04-22T04:14:40Z</time>
<desc>lat.=22.438541, lon.=103.924393, Alt.=555.477051m. Speed=0.072000m/h.</desc>
<speed>0.020000</speed>
</trkpt>
</trkseg>
</trk>
</gpx>